# Wetter Temperatur Luftdruck Luftfeuchtigkeit Sichtweite Windgeschwindigkeit Windrichtung Zeit
1 Clouds 14 1015 87 0 0.45 180 20:19 17.10.2019
2 Clouds 14 1015 86 0 0.45 180 19:59 17.10.2019
3 Clouds 14 1015 86 0 0.45 180 19:39 17.10.2019
4 Clouds 14 1015 86 0 0.45 225 19:19 17.10.2019
5 Clouds 14 1015 85 0 0.89 202 18:58 17.10.2019
6 Clouds 15 1015 85 0 0.45 202 18:38 17.10.2019
7 Rain 15 1015 85 0 0.45 202 18:20 17.10.2019
8 Rain 15 1015 84 0 0.45 225 17:42 17.10.2019
9 Rain 16 1015 84 0 5.962 229 17:23 17.10.2019
10 Rain 16 1014 83 0 0.45 225 16:57 17.10.2019
11 -273 0 0 0 0 0 16:39 17.10.2019
12 Rain 16 1014 83 0 5.962 229 16:18 17.10.2019
13 -273 0 0 0 0 0 15:56 17.10.2019
14 Rain 16 1014 83 0 0.89 225 15:38 17.10.2019
15 Rain 16 1014 84 0 0.89 225 15:19 17.10.2019
16 Rain 16 1014 83 0 0.89 225 14:54 17.10.2019
17 Clouds 16 1014 83 0 0.89 225 14:36 17.10.2019
18 Clouds 16 1014 83 0 0.45 225 14:18 17.10.2019
19 Clouds 17 1014 84 0 1.34 225 13:39 17.10.2019
20 Clouds 16 1014 86 0 6.586 211 13:19 17.10.2019
21 Clouds 16 1014 87 0 1.34 225 12:55 17.10.2019
22 Clouds 16 1014 87 0 1.34 225 12:55 17.10.2019
23 Clouds 16 1014 89 0 1.34 225 12:36 17.10.2019
24 Rain 15 1014 90 0 1.34 180 12:18 17.10.2019
25 Rain 14 1014 92 0 0.45 202 11:41 17.10.2019
26 Rain 14 1014 92 0 0.89 180 11:22 17.10.2019
27 Rain 13 1014 92 0 1.34 180 10:58 17.10.2019
28 Rain 13 1014 93 0 0.89 180 10:39 17.10.2019
29 Rain 13 1014 93 0 0.89 180 10:19 17.10.2019
30 Rain 12 1014 92 0 1.34 180 09:56 17.10.2019
31 Rain 12 1014 92 0 1.34 180 09:37 17.10.2019
32 Rain 12 1014 92 0 1.34 180 09:19 17.10.2019
33 Rain 11 1014 92 0 0.45 180 08:48 17.10.2019
34 Rain 11 1013 92 0 0.89 180 08:27 17.10.2019
35 Rain 11 1013 92 0 0.89 180 07:59 17.10.2019
36 Rain 11 1013 92 0 0.89 180 07:41 17.10.2019
37 Rain 11 1013 92 0 0.45 180 07:21 17.10.2019
38 Rain 11 1013 92 0 0.45 180 07:21 17.10.2019
39 Rain 11 1013 92 0 0.89 180 06:43 17.10.2019
40 Rain 11 1013 92 0 0.89 180 06:24 17.10.2019
41 Clear 10 1013 92 0 0.45 180 05:59 17.10.2019
42 Clear 10 1013 92 0 0.45 180 05:37 17.10.2019
43 Clear 10 1013 92 0 0.45 180 05:19 17.10.2019
44 Clear 9 1013 91 0 0.45 180 04:45 17.10.2019
45 Clear 9 1013 91 0 0.45 202 03:45 17.10.2019
46 Clouds 10 1013 91 0 5.601 226 01:56 17.10.2019
47 Clouds 10 1013 91 0 5.601 226 01:56 17.10.2019
48 Clouds 11 1013 91 0 5.601 226 00:42 17.10.2019
49 Rain 11 1013 92 0 9.244 254 00:20 17.10.2019
50 Rain 11 1013 92 0 9.244 254 23:58 16.10.2019
51 Rain 11 1013 92 0 9.244 254 23:39 16.10.2019
52 Rain 12 1013 92 0 9.244 254 23:18 16.10.2019
53 Rain 12 1012 92 0 0.89 247 22:54 16.10.2019
54 Rain 12 1012 92 0 9.244 254 22:36 16.10.2019
55 Rain 12 1012 93 0 0.89 292 22:18 16.10.2019
56 Rain 12 1012 92 0 9.244 254 21:54 16.10.2019
57 Rain 12 1012 92 0 9.244 254 21:54 16.10.2019
58 Rain 12 1012 92 0 0.89 270 21:36 16.10.2019
59 Rain 12 1012 92 0 0.45 247 21:18 16.10.2019
60 -273 0 0 0 0 0 20:56 16.10.2019
61 Rain 12 1011 92 0 0.45 247 20:37 16.10.2019
62 Rain 12 1011 92 0 0.45 247 20:37 16.10.2019
63 Rain 12 1011 92 0 0.45 247 20:37 16.10.2019
64 Rain 12 1011 92 0 0.89 292 20:19 16.10.2019
65 Rain 13 1011 93 0 0.45 270 19:41 16.10.2019
66 Rain 13 1011 93 0 0.45 270 19:40 16.10.2019
67 Rain 13 1011 93 0 0.89 292 19:21 16.10.2019
68 Rain 13 1010 93 0 1.34 292 18:58 16.10.2019
69 Rain 13 1010 93 0 1.34 292 18:39 16.10.2019
70 Rain 13 1010 93 0 0.45 292 18:19 16.10.2019
71 Rain 13 1010 93 0 0.45 292 18:19 16.10.2019
72 Rain 13 1010 93 0 0.89 292 17:56 16.10.2019
73 Rain 13 1010 93 0 0.89 292 17:37 16.10.2019
74 Rain 13 1009 93 0 0.45 292 17:19 16.10.2019
75 Rain 13 1009 93 0 0.45 292 16:57 16.10.2019
76 Rain 12 1009 92 0 0.45 292 16:38 16.10.2019
77 Rain 12 1009 92 0 0.45 292 16:20 16.10.2019
78 -273 0 0 0 0 0 15:54 16.10.2019
79 Rain 12 1009 92 0 0.45 292 15:54 16.10.2019
80 Rain 12 1009 92 0 0.45 292 15:54 16.10.2019
81 Rain 12 1009 92 0 0.45 292 15:54 16.10.2019
82 Rain 12 1009 92 0 10.348 288 15:36 16.10.2019
83 Clouds 12 1009 92 0 0.45 292 15:18 16.10.2019
84 Clouds 12 1009 92 0 0.45 270 14:55 16.10.2019
85 Clouds 12 1009 92 0 4.349 325 14:36 16.10.2019
86 Clouds 12 1009 92 0 4.349 325 14:18 16.10.2019
87 Clouds 12 1008 92 0 0.45 0 13:42 16.10.2019
88 Clouds 12 1009 92 0 0.45 315 13:23 16.10.2019
89 Clouds 12 1009 92 0 0.45 315 12:57 16.10.2019
90 Clouds 12 1009 92 0 0.89 315 12:39 16.10.2019
91 Clouds 12 1008 92 0 0.45 292 12:18 16.10.2019
92 Clouds 12 1008 92 0 0.45 315 11:42 16.10.2019
93 -273 0 0 0 0 0 11:42 16.10.2019
94 Clouds 12 1008 92 0 1.34 315 11:18 16.10.2019
95 Clouds 12 1008 92 0 1.34 315 11:18 16.10.2019
96 Clouds 12 1008 92 0 1.34 315 11:18 16.10.2019
97 Clouds 12 1008 92 0 0.89 292 10:38 16.10.2019
98 Clouds 12 1007 92 0 0.89 292 10:20 16.10.2019
99 Clouds 12 1008 92 0 0.45 315 09:55 16.10.2019
100 Clouds 12 1007 92 0 0.45 292 09:37 16.10.2019
101 Clouds 12 1008 92 0 0.45 292 09:19 16.10.2019
102 Clouds 11 1007 92 0 0.699 244 08:42 16.10.2019
103 Clouds 11 1007 91 0 0.45 292 08:24 16.10.2019
104 Clouds 11 1007 91 0 0.45 292 07:45 16.10.2019
105 Clouds 11 1007 91 0 0.45 292 07:45 16.10.2019
106 Clouds 11 1007 91 0 0.45 292 07:25 16.10.2019
107 Clouds 11 1007 90 0 0.699 244 06:58 16.10.2019
108 Clouds 11 1007 90 0 0.699 244 06:39 16.10.2019
109 Clouds 10 1008 89 0 1.171 97 05:48 16.10.2019
110 Clouds 10 1008 88 0 1.171 97 03:26 16.10.2019
111 Clouds 10 1008 88 0 1.477 51 02:49 16.10.2019
112 Clouds 11 1008 88 0 2.631 75 01:19 16.10.2019
113 Clouds 11 1008 87 0 2.631 75 00:50 16.10.2019
114 Clouds 11 1008 88 0 2.631 75 00:28 16.10.2019
115 Clouds 12 1009 87 0 1.252 119 23:41 15.10.2019
116 Clouds 12 1009 87 0 1.252 119 23:22 15.10.2019
117 Clouds 12 1009 87 0 1.252 119 22:56 15.10.2019
118 Clouds 12 1009 87 0 1.252 119 22:56 15.10.2019
119 Clouds 12 1010 87 0 1.252 119 22:38 15.10.2019
120 Clouds 12 1010 87 0 1.252 119 22:38 15.10.2019
121 Clouds 12 1010 87 0 1.252 119 22:20 15.10.2019
122 -273 0 0 0 0 0 21:56 15.10.2019
123 Clouds 12 1010 87 0 1.252 119 21:56 15.10.2019
124 Clouds 13 1010 86 0 0.94 158 21:38 15.10.2019
125 Clouds 13 1010 86 0 3.066 129 21:20 15.10.2019
126 Clouds 13 1010 86 0 3.066 129 20:57 15.10.2019
127 Clouds 13 1009 85 0 3.066 129 20:39 15.10.2019
128 Clouds 13 1009 85 0 3.066 129 20:39 15.10.2019
129 Clouds 13 1009 85 0 3.066 129 20:20 15.10.2019
130 Clouds 13 1009 85 0 3.066 129 19:58 15.10.2019
131 Clouds 14 1009 85 0 3.066 129 19:40 15.10.2019
132 Clouds 14 1010 85 0 3.066 129 19:20 15.10.2019
133 Clouds 15 1009 84 0 3.066 129 18:47 15.10.2019
134 Clouds 16 1009 84 0 3.066 129 18:29 15.10.2019
135 Clouds 16 1009 83 0 3.872 120 17:59 15.10.2019
136 Clouds 16 1009 82 0 3.872 120 17:41 15.10.2019
137 Clouds 16 1009 82 0 3.872 120 17:41 15.10.2019
138 Clouds 16 1009 82 0 3.872 120 17:20 15.10.2019
139 Clouds 18 1009 79 0 3.872 120 16:57 15.10.2019
140 Clouds 18 1009 79 0 3.872 120 16:38 15.10.2019
141 Clouds 18 1009 78 0 3.872 120 16:20 15.10.2019
142 Clouds 19 1010 79 0 3.872 120 15:55 15.10.2019
143 Clouds 19 1010 79 0 3.872 120 15:55 15.10.2019
144 Clouds 19 1010 78 0 3.872 120 15:36 15.10.2019
145 Clouds 19 1010 79 0 4.088 123 15:18 15.10.2019
146 Clouds 18 1010 79 0 3.293 134 14:38 15.10.2019
147 Clouds 18 1010 79 0 0.45 135 14:20 15.10.2019
148 Clouds 18 1010 80 0 3.293 134 13:58 15.10.2019
149 Clouds 18 1010 81 0 0.45 135 13:40 15.10.2019
150 Clouds 17 1010 80 0 0.45 135 13:19 15.10.2019
151 Clouds 17 1011 81 0 0.45 135 12:44 15.10.2019
152 Clouds 17 1011 82 0 0.45 135 12:22 15.10.2019
153 Clouds 16 1011 82 0 0.45 135 11:58 15.10.2019
154 Clouds 16 1012 83 0 0.45 135 11:40 15.10.2019
155 Clouds 16 1012 83 0 0.45 135 11:19 15.10.2019
156 Clouds 14 1012 85 0 0.89 135 10:46 15.10.2019
157 Clouds 14 1012 86 0 0.89 112 10:23 15.10.2019
158 Clouds 13 1013 88 0 0.89 135 09:59 15.10.2019
159 Clouds 12 1013 87 0 0.45 135 09:40 15.10.2019
160 Clouds 12 1013 88 0 9.01 115.877 09:21 15.10.2019
161 Clouds 11 1013 88 0 0.45 112 08:57 15.10.2019
162 Clouds 11 1013 88 0 9.03 115.367 08:39 15.10.2019
163 Clouds 11 1013 88 0 9.03 115.367 08:19 15.10.2019
164 Clouds 11 1013 87 0 9.03 115.367 07:43 15.10.2019
165 Clouds 11 1013 87 0 9.03 115.367 07:43 15.10.2019
166 Clouds 11 1013 87 0 9.03 115.367 07:22 15.10.2019
167 Clouds 11 1013 88 0 0.45 135 06:56 15.10.2019
168 Clouds 11 1013 88 0 0.45 135 06:37 15.10.2019
169 Clouds 12 1014 88 0 0.89 135 05:56 15.10.2019
170 Clouds 12 1014 88 0 0.45 135 05:36 15.10.2019
171 Clouds 12 1015 88 0 0.45 135 04:48 15.10.2019
172 Clouds 12 1015 88 0 9.96 108.671 03:59 15.10.2019
173 Clouds 12 1015 88 0 0.45 135 03:34 15.10.2019
174 Rain 12 1016 88 0 0.45 135 01:52 15.10.2019
175 Rain 12 1017 87 0 0.45 112 01:31 15.10.2019
176 Rain 12 1017 87 0 0.89 157 00:59 15.10.2019
177 Rain 12 1017 86 0 8.52 103.227 00:25 15.10.2019
178 Clouds 12 1017 85 0 0.45 112 23:58 14.10.2019
179 Clouds 12 1018 85 0 6.51 98.326 23:37 14.10.2019
180 Clouds 12 1018 85 0 6.51 98.326 23:18 14.10.2019
181 Clouds 12 1018 84 0 0.45 135 22:39 14.10.2019
182 Clouds 12 1018 84 0 0.45 135 22:21 14.10.2019
183 Clouds 12 1018 85 0 6.51 98.326 21:58 14.10.2019
184 Clouds 12 1019 84 0 6.51 98.326 21:40 14.10.2019
185 Clouds 12 1019 84 0 4.84 80.647 21:21 14.10.2019
186 Clouds 12 1019 84 0 4.67 90.969 20:58 14.10.2019
187 Clouds 12 1019 84 0 4.67 90.969 20:38 14.10.2019
188 Clouds 12 1019 84 0 4.67 90.969 20:19 14.10.2019
189 Clouds 12 1019 81 0 4.67 90.969 19:55 14.10.2019
190 Clouds 12 1019 81 0 4.672 90 19:37 14.10.2019
191 Clouds 12 1019 81 0 4.672 90 19:19 14.10.2019
192 Clouds 13 1019 79 0 4.67 90.969 18:57 14.10.2019
193 Clouds 13 1019 79 0 4.67 90.969 18:37 14.10.2019
194 Clouds 13 1019 78 0 2.72 345.447 18:18 14.10.2019
195 Clouds 15 1018 74 0 0.45 45 17:41 14.10.2019
196 Clouds 15 1018 74 0 0.45 45 17:23 14.10.2019
197 Clouds 16 1019 74 0 2.72 345.447 16:54 14.10.2019
198 Clouds 16 1019 74 0 2.72 345.447 16:36 14.10.2019
199 Clouds 16 1019 74 0 2.72 345.447 16:18 14.10.2019
200 Clouds 16 1019 72 0 2.72 345.447 15:41 14.10.2019
201 Clouds 17 1019 72 0 0.89 337 15:21 14.10.2019
202 Clouds 17 1019 70 0 0.89 292 14:44 14.10.2019
203 Clouds 17 1019 69 0 0.45 315 14:26 14.10.2019
204 Clouds 17 1019 69 0 0.89 337 13:59 14.10.2019
205 Clouds 17 1019 69 0 0.45 292 13:40 14.10.2019
206 Clouds 18 1019 67 0 1.79 292 13:21 14.10.2019
207 Clouds 18 1019 70 0 0.45 292 12:42 14.10.2019
208 Clouds 17 1019 70 0 2.24 292 12:21 14.10.2019
209 Clouds 17 1019 70 0 2.24 292 12:21 14.10.2019
210 Clouds 16 1018 74 0 2.24 315 11:59 14.10.2019
211 Clouds 16 1018 76 0 1.34 292 11:41 14.10.2019
212 Clouds 16 1018 78 0 0.89 292 11:22 14.10.2019
213 Clouds 15 1018 77 0 0.45 315 10:55 14.10.2019
214 Clouds 15 1017 77 0 1.34 270 10:37 14.10.2019
215 Clouds 15 1017 78 0 0.89 315 10:18 14.10.2019
216 Clouds 14 1017 80 0 9.77 268.962 09:41 14.10.2019
217 Clouds 14 1016 80 0 0.89 292 09:21 14.10.2019
218 Clouds 14 1016 81 0 1.79 292 08:50 14.10.2019
219 Clouds 14 1016 81 0 1.79 292 08:50 14.10.2019
220 Clouds 14 1015 80 0 11.89 252.456 08:23 14.10.2019
221 Clouds 14 1015 80 0 1.34 247 07:47 14.10.2019
222 Clouds 14 1014 79 0 1.79 292 07:25 14.10.2019
223 Clouds 15 1014 80 0 0.89 270 06:59 14.10.2019
224 Clouds 16 1014 81 0 0.45 315 06:28 14.10.2019
225 Clouds 16 1013 81 0 11.21 246.484 05:57 14.10.2019
226 Clouds 17 1013 79 0 0.45 292 05:27 14.10.2019
227 Clouds 17 1012 83 0 11.21 246.484 03:51 14.10.2019
228 Clouds 17 1011 82 0 0.45 225 03:26 14.10.2019
229 Clouds 18 1011 82 0 0.89 225 02:32 14.10.2019
230 Rain 18 1011 83 0 0.89 225 01:21 14.10.2019
231 Rain 18 1011 84 0 0.89 225 00:44 14.10.2019
232 Rain 18 1011 85 0 1.34 202 00:19 14.10.2019
233 Rain 17 1011 86 0 0.89 225 23:43 13.10.2019
234 Rain 17 1011 87 0 0.89 225 23:20 13.10.2019
235 Rain 17 1011 88 0 1.34 180 22:58 13.10.2019
236 Rain 17 1011 88 0 1.34 180 22:58 13.10.2019
237 Rain 17 1011 89 0 1.79 180 22:40 13.10.2019
238 Rain 17 1011 89 0 0.89 202 22:21 13.10.2019
239 Rain 17 1011 89 0 1.34 180 21:58 13.10.2019
240 Rain 17 1011 89 0 1.34 180 21:37 13.10.2019
241 Rain 17 1011 89 0 1.34 180 21:37 13.10.2019
242 Rain 17 1011 89 0 1.34 180 21:18 13.10.2019
243 Rain 17 1011 89 0 1.34 180 21:18 13.10.2019
244 Rain 17 1011 89 0 1.34 180 21:18 13.10.2019
245 Rain 17 1011 90 0 1.79 157 20:57 13.10.2019
246 Rain 17 1011 90 0 1.79 157 20:57 13.10.2019
247 Rain 17 1011 90 0 1.79 157 20:57 13.10.2019
248 Rain 17 1011 90 0 1.79 202 20:38 13.10.2019
249 Rain 17 1011 91 0 0.89 157 20:19 13.10.2019
250 Rain 16 1011 91 0 1.34 135 19:57 13.10.2019
251 Rain 16 1011 91 0 0.89 157 19:39 13.10.2019
252 Rain 16 1011 91 0 0.89 157 19:39 13.10.2019
253 Rain 16 1011 91 0 0.89 157 19:39 13.10.2019
254 Rain 16 1012 91 0 0.89 135 19:21 13.10.2019
255 Rain 16 1012 91 0 0.89 157 18:56 13.10.2019
256 Rain 16 1012 91 0 0.89 157 18:56 13.10.2019
257 Rain 16 1013 90 0 1.34 180 18:36 13.10.2019
258 Rain 16 1013 90 0 1.34 157 18:18 13.10.2019
259 Rain 16 1013 89 0 0.45 157 17:57 13.10.2019
260 Rain 16 1013 88 0 0.45 157 17:38 13.10.2019
261 Rain 16 1013 88 0 0.45 135 17:20 13.10.2019
262 Rain 16 1014 86 0 0.89 135 16:41 13.10.2019
263 Rain 17 1014 85 0 0.89 135 16:18 13.10.2019
264 Rain 17 1014 86 0 0.89 135 15:57 13.10.2019
265 Rain 17 1015 86 0 0.89 135 15:38 13.10.2019
266 Clouds 17 1015 85 0 0.89 135 15:19 13.10.2019
267 -273 0 0 0 0 0 14:57 13.10.2019
268 Clouds 17 1015 85 0 0.45 157 14:38 13.10.2019
269 Clouds 17 1015 85 0 0.45 157 14:19 13.10.2019
270 Clouds 16 1015 85 0 0.45 135 13:42 13.10.2019
271 Clouds 16 1015 85 0 0.45 135 13:42 13.10.2019
272 Rain 16 1015 85 0 0.45 135 13:23 13.10.2019
273 Rain 15 1016 86 0 0.45 135 12:59 13.10.2019
274 Rain 14 1016 86 0 0.45 135 12:39 13.10.2019
275 Rain 14 1016 87 0 1.34 135 12:21 13.10.2019
276 Rain 13 1016 89 0 0.89 135 11:59 13.10.2019
277 Rain 13 1016 89 0 1.67 85.47 11:39 13.10.2019
278 Rain 12 1016 89 0 1.67 85.47 11:21 13.10.2019
279 Rain 12 1016 90 0 0.45 157 10:59 13.10.2019
280 Rain 12 1016 89 0 1.67 85.47 10:40 13.10.2019
281 Rain 12 1016 89 0 0.45 157 10:22 13.10.2019
282 Rain 11 1016 89 0 1.67 85.47 09:39 13.10.2019
283 Rain 11 1016 89 0 3.53 190.02 09:21 13.10.2019
284 Rain 11 1016 89 0 3.34 191.995 08:55 13.10.2019
285 Rain 11 1016 89 0 3.34 191.995 08:27 13.10.2019
286 Rain 11 1016 89 0 3.34 191.995 07:56 13.10.2019
287 Rain 11 1016 89 0 3.34 191.995 07:38 13.10.2019
288 Rain 11 1016 89 0 3.34 191.995 06:55 13.10.2019
289 Rain 11 1015 89 0 3.34 191.995 06:26 13.10.2019
290 Rain 11 1015 89 0 3.99 250.765 05:34 13.10.2019
291 Rain 11 1015 89 0 3.99 250.765 04:38 13.10.2019
292 Rain 11 1015 89 0 3.99 250.765 03:37 13.10.2019
293 Rain 11 1015 89 0 6.49 247.638 02:35 13.10.2019
294 Rain 11 1016 89 0 6.49 247.638 01:51 13.10.2019
295 Rain 12 1016 89 0 6.93 248.943 01:22 13.10.2019
296 Rain 12 1015 89 0 6.93 248.943 00:44 13.10.2019
297 Rain 12 1015 89 0 8.68 252.056 00:20 13.10.2019
298 Rain 12 1015 89 0 0.45 202 23:55 12.10.2019
299 Rain 12 1015 89 0 0.45 202 23:36 12.10.2019
300 Rain 12 1014 89 0 0.45 225 23:18 12.10.2019
301 Rain 12 1014 89 0 0.45 225 22:55 12.10.2019
302 Rain 12 1014 89 0 0.45 225 22:36 12.10.2019
303 Rain 12 1015 89 0 8.68 252.056 22:18 12.10.2019
304 Rain 12 1014 89 0 8.68 252.056 21:41 12.10.2019
305 Clouds 12 1014 89 0 9.2 256.604 21:23 12.10.2019
306 Clouds 12 1014 89 0 9.2 256.604 20:56 12.10.2019
307 Rain 12 1014 89 0 9.14 250.653 20:38 12.10.2019
308 Rain 12 1014 90 0 9.14 250.653 20:20 12.10.2019
309 Rain 12 1014 90 0 9.14 250.653 19:37 12.10.2019
310 Rain 12 1014 90 0 9.14 250.653 19:19 12.10.2019
311 Rain 12 1013 90 0 9.14 250.653 18:56 12.10.2019
312 Rain 13 1013 90 0 9.14 250.653 18:36 12.10.2019
313 Clouds 13 1013 90 0 0.45 292 18:18 12.10.2019
314 Clouds 13 1013 90 0 10.34 250.37 17:42 12.10.2019
315 Clouds 13 1013 89 0 10.34 250.37 17:19 12.10.2019
316 Clouds 13 1013 89 0 10.34 250.37 16:54 12.10.2019
317 Clouds 13 1012 89 0 10.34 250.37 16:36 12.10.2019
318 Clouds 13 1012 89 0 10.34 250.37 16:18 12.10.2019
319 Clouds 14 1012 89 0 10.34 250.37 15:40 12.10.2019
320 Rain 14 1012 89 0 10.04 248.355 15:21 12.10.2019
321 Rain 13 1011 90 0 10.04 248.355 14:41 12.10.2019
322 Rain 13 1011 90 0 10.04 248.355 14:22 12.10.2019
323 Rain 13 1011 90 0 10.04 248.355 13:57 12.10.2019
324 Rain 13 1011 90 0 10.04 248.355 13:38 12.10.2019
325 Rain 13 1011 90 0 8.17 240.304 13:20 12.10.2019
326 Rain 13 1011 90 0 8.17 240.304 12:39 12.10.2019
327 Rain 12 1011 90 0 6.8 263.781 12:21 12.10.2019
328 Rain 12 1011 90 0 6.8 263.781 11:58 12.10.2019
329 Rain 12 1011 90 0 6.8 263.781 11:38 12.10.2019
330 Rain 12 1011 90 0 6.8 263.781 11:19 12.10.2019
331 Rain 11 1010 90 0 6.8 263.781 10:41 12.10.2019
332 Rain 11 1010 90 0 6.8 263.781 10:23 12.10.2019
333 Rain 11 1010 90 0 0.89 292 09:58 12.10.2019
334 Rain 11 1010 89 0 0.89 270 09:39 12.10.2019
335 Rain 11 1009 89 0 0.89 292 09:21 12.10.2019
336 Rain 12 1009 90 0 0.89 292 08:57 12.10.2019
337 Rain 12 1009 90 0 0.89 292 08:57 12.10.2019
338 Rain 12 1009 90 0 0.89 292 08:57 12.10.2019
339 Rain 12 1009 90 0 0.89 292 08:57 12.10.2019
340 Rain 12 1009 90 0 0.89 270 08:38 12.10.2019
341 Rain 12 1008 90 0 9.7 262.117 08:18 12.10.2019
342 Rain 12 1008 89 0 9.7 262.117 07:34 12.10.2019
343 Rain 13 1008 87 0 1.34 270 06:51 12.10.2019
344 Rain 14 1007 81 0 0.45 225 05:47 12.10.2019
345 Rain 14 1007 81 0 0.45 225 05:23 12.10.2019
346 Rain 14 1007 81 0 0.89 247 04:24 12.10.2019
347 Rain 14 1007 81 0 0.45 225 03:31 12.10.2019
348 Rain 14 1007 82 0 0.89 225 01:45 12.10.2019
349 Rain 14 1007 82 0 0.45 247 01:21 12.10.2019
350 Rain 14 1007 82 0 0.45 247 01:21 12.10.2019
351 Rain 14 1007 81 0 1.34 247 00:42 12.10.2019
352 Rain 14 1008 81 0 13.86 228.298 23:59 11.10.2019
353 Rain 14 1008 81 0 1.34 225 23:40 11.10.2019
354 Rain 14 1008 81 0 1.79 225 23:20 11.10.2019
355 Rain 14 1008 81 0 1.79 202 22:41 11.10.2019
356 Rain 14 1008 80 0 2.24 225 22:21 11.10.2019
357 Rain 14 1008 81 0 1.79 225 21:58 11.10.2019
358 Rain 14 1008 81 0 1.79 225 21:39 11.10.2019
359 Rain 13 1008 81 0 2.24 225 21:21 11.10.2019
360 Rain 13 1008 81 0 1.79 225 20:45 11.10.2019
361 Rain 13 1008 82 0 1.79 225 20:27 11.10.2019
362 Rain 13 1009 82 0 1.34 225 19:58 11.10.2019
363 Rain 13 1009 83 0 2.24 247 19:39 11.10.2019
364 Rain 13 1009 83 0 2.24 247 19:39 11.10.2019
365 Rain 13 1009 84 0 1.79 202 19:18 11.10.2019
366 Rain 13 1009 84 0 1.79 202 19:18 11.10.2019
367 Rain 13 1009 84 0 1.79 202 19:18 11.10.2019
368 Rain 13 1009 84 0 1.79 202 19:18 11.10.2019
369 Rain 13 1009 84 0 1.34 225 18:59 11.10.2019
370 Rain 13 1009 84 0 1.34 225 18:59 11.10.2019
371 Rain 13 1009 85 0 1.34 225 18:38 11.10.2019
372 Rain 13 1010 85 0 1.79 225 18:19 11.10.2019
373 Rain 13 1010 85 0 2.24 225 17:59 11.10.2019
374 Rain 13 1010 85 0 2.24 225 17:59 11.10.2019
375 Rain 13 1010 85 0 1.79 225 17:38 11.10.2019
376 Rain 14 1010 84 0 1.34 225 17:19 11.10.2019
377 Rain 14 1010 84 0 1.79 225 16:59 11.10.2019
378 Rain 14 1010 84 0 0.89 225 16:39 11.10.2019
379 Rain 14 1010 84 0 1.34 202 16:19 11.10.2019
380 Rain 14 1010 83 0 0.89 225 15:55 11.10.2019
381 Rain 14 1011 83 0 1.79 202 15:36 11.10.2019
382 Clouds 14 1011 83 0 0.89 225 15:18 11.10.2019
383 Clouds 14 1011 84 0 0.89 225 14:41 11.10.2019
384 Clouds 13 1012 84 0 1.34 225 14:21 11.10.2019
385 Clouds 13 1012 84 0 0.89 225 13:46 11.10.2019
386 Clouds 13 1012 85 0 1.34 225 13:26 11.10.2019
387 Clouds 13 1012 86 0 0.89 225 12:58 11.10.2019
388 Clouds 12 1012 86 0 11.62 227.505 12:40 11.10.2019
389 Rain 12 1012 86 0 1.34 247 12:21 11.10.2019
390 Rain 12 1012 87 0 2.24 225 11:59 11.10.2019
391 Rain 12 1012 87 0 0.89 225 11:39 11.10.2019
392 Rain 12 1012 87 0 1.34 225 11:21 11.10.2019
393 Rain 11 1012 87 0 1.34 247 10:56 11.10.2019
394 Rain 11 1012 86 0 14.29 231.278 10:38 11.10.2019
395 Rain 11 1012 85 0 1.79 247 10:19 11.10.2019
396 Rain 11 1012 84 0 1.34 225 09:43 11.10.2019
397 Rain 11 1012 85 0 1.34 225 09:22 11.10.2019
398 Rain 11 1012 86 0 1.34 225 08:59 11.10.2019
399 Rain 11 1012 86 0 0.89 202 08:39 11.10.2019
400 Rain 11 1012 86 0 0.89 225 08:21 11.10.2019
401 Rain 10 1012 87 0 1.79 225 07:58 11.10.2019
402 Rain 10 1012 87 0 1.34 202 07:40 11.10.2019
403 Rain 9 1012 87 0 1.34 202 07:20 11.10.2019
404 Rain 9 1013 87 0 0.89 202 06:43 11.10.2019
405 Clouds 9 1013 87 0 1.34 202 06:21 11.10.2019
406 Clouds 9 1014 87 0 0.89 225 05:32 11.10.2019
407 Clouds 9 1014 87 0 0.45 225 04:59 11.10.2019
408 Clouds 9 1014 87 0 0.45 225 04:24 11.10.2019
409 Rain 9 1014 85 0 0.45 247 01:58 11.10.2019
410 Rain 9 1014 85 0 12.15 244.955 00:42 11.10.2019
411 Rain 9 1014 85 0 12.28 247.812 00:23 11.10.2019
412 Rain 9 1014 85 0 12.28 247.812 23:42 10.10.2019
413 Rain 9 1014 84 0 0.45 225 23:21 10.10.2019
414 Rain 9 1014 83 0 12.28 247.812 22:57 10.10.2019
415 Rain 9 1014 83 0 12.28 247.812 22:38 10.10.2019
416 Rain 9 1014 83 0 0.45 225 22:20 10.10.2019
417 Rain 9 1014 82 0 12.28 247.812 21:56 10.10.2019
418 Rain 9 1014 82 0 12.28 247.812 21:56 10.10.2019
419 Rain 9 1014 82 0 12.28 247.812 21:56 10.10.2019
420 Rain 9 1013 82 0 12.28 247.812 21:38 10.10.2019
421 Rain 10 1013 82 0 11.84 249.802 21:20 10.10.2019
422 Rain 11 1013 81 0 11.35 248.13 20:42 10.10.2019
423 Rain 11 1013 81 0 11.35 248.13 20:21 10.10.2019
424 Rain 11 1013 80 0 11.35 248.13 19:58 10.10.2019
425 Rain 11 1013 79 0 11.35 248.13 19:40 10.10.2019
426 Rain 11 1012 78 0 0.45 225 19:20 10.10.2019
427 Rain 11 1012 77 0 11.35 248.13 18:57 10.10.2019
428 Rain 12 1012 76 0 11.35 248.13 18:39 10.10.2019
429 -273 0 0 0 0 0 18:20 10.10.2019
430 -273 0 0 0 0 0 17:54 10.10.2019
431 Rain 13 1012 73 0 10.39 253.172 17:36 10.10.2019
432 Rain 13 1011 73 0 0.45 247 17:18 10.10.2019
433 Rain 13 1011 73 0 0.45 247 17:18 10.10.2019
434 Rain 13 1011 74 0 10.39 253.172 16:44 10.10.2019
435 Rain 13 1011 75 0 0.45 247 16:26 10.10.2019
436 Rain 14 1011 73 0 0.45 247 15:54 10.10.2019
437 Rain 14 1011 73 0 0.89 225 15:36 10.10.2019
438 Rain 14 1011 73 0 0.89 225 15:36 10.10.2019
439 Rain 14 1011 71 0 0.45 202 15:18 10.10.2019
440 Rain 14 1011 74 0 11.33 258.718 14:54 10.10.2019
441 Rain 13 1011 73 0 0.45 225 14:36 10.10.2019
442 Rain 13 1011 73 0 11.33 258.718 14:18 10.10.2019
443 Rain 13 1010 77 0 11.33 258.718 13:41 10.10.2019
444 Rain 13 1010 77 0 11.33 258.718 13:41 10.10.2019
445 Clouds 13 1010 78 0 11.52 253.171 13:23 10.10.2019
446 Clouds 12 1010 80 0 11.52 253.171 12:57 10.10.2019
447 Clouds 11 1010 80 0 11.52 253.171 12:39 10.10.2019
448 Rain 11 1010 80 0 10.98 253.944 12:20 10.10.2019
449 Rain 11 1010 81 0 0.45 270 11:55 10.10.2019
450 Rain 11 1010 82 0 10.98 253.944 11:37 10.10.2019
451 Rain 11 1010 83 0 0.45 247 11:18 10.10.2019
452 Rain 11 1009 83 0 0.89 315 10:44 10.10.2019
453 Rain 11 1009 84 0 10.98 253.944 10:26 10.10.2019
454 Rain 10 1009 84 0 0.45 292 09:56 10.10.2019
455 Rain 10 1009 85 0 0.45 202 09:38 10.10.2019
456 Rain 9 1008 86 0 0.45 292 09:19 10.10.2019
457 Rain 9 1008 87 0 10.55 256.11 08:56 10.10.2019
458 Rain 9 1008 87 0 10.55 256.11 08:37 10.10.2019
459 Rain 9 1007 87 0 10.55 256.11 08:18 10.10.2019
460 Rain 9 1007 87 0 0.45 292 07:42 10.10.2019
461 Rain 9 1007 87 0 10.55 256.11 07:20 10.10.2019
462 Rain 9 1007 86 0 10.55 256.11 06:46 10.10.2019
463 Rain 9 1007 87 0 10.55 256.11 06:26 10.10.2019
464 Rain 9 1006 86 0 9.2 258.967 05:25 10.10.2019
465 Rain 9 1006 87 0 0.45 292 04:37 10.10.2019
466 Rain 9 1006 88 0 9.2 258.967 03:42 10.10.2019
467 Rain 10 1006 87 0 6.84 238.089 01:43 10.10.2019
468 Rain 10 1006 87 0 7.17 244.092 01:24 10.10.2019
469 Rain 10 1005 86 0 7.17 244.092 00:53 10.10.2019
470 Rain 10 1006 85 0 6.62 224.676 00:22 10.10.2019
471 Rain 10 1006 85 0 6.62 224.676 23:40 09.10.2019
472 Rain 10 1006 85 0 6.62 224.676 23:20 09.10.2019
473 Rain 11 1006 85 0 0.45 202 22:56 09.10.2019
474 Rain 11 1006 85 0 6.62 224.676 22:37 09.10.2019
475 Rain 11 1006 85 0 6.62 224.676 22:19 09.10.2019
476 Rain 11 1006 84 0 0.45 202 21:40 09.10.2019
477 Rain 11 1006 84 0 0.45 202 21:21 09.10.2019
478 Rain 11 1006 84 0 6.1 220.288 20:56 09.10.2019
479 Rain 11 1006 84 0 0.45 202 20:38 09.10.2019
480 Rain 11 1007 84 0 0.45 202 20:19 09.10.2019
481 Rain 11 1007 83 0 0.45 180 19:58 09.10.2019
482 Rain 11 1007 83 0 0.45 180 19:40 09.10.2019
483 Rain 11 1007 83 0 0.45 180 19:21 09.10.2019
484 Rain 12 1007 81 0 0.45 180 18:38 09.10.2019
485 Rain 12 1007 81 0 4.84 223.971 18:20 09.10.2019
486 Rain 13 1008 79 0 4.84 223.971 17:57 09.10.2019
487 Rain 14 1008 77 0 4.84 223.971 17:37 09.10.2019
488 Rain 14 1008 77 0 4.84 223.971 17:19 09.10.2019
489 Rain 14 1008 75 0 0.45 225 16:56 09.10.2019
490 Rain 14 1008 75 0 0.45 225 16:37 09.10.2019
491 Rain 14 1008 74 0 4.84 223.971 16:18 09.10.2019
492 Rain 14 1008 74 0 4.84 223.971 16:18 09.10.2019
493 Rain 14 1008 75 0 0.45 292 15:55 09.10.2019
494 Rain 15 1008 74 0 4.84 223.971 15:36 09.10.2019
495 Rain 15 1008 73 0 0.45 292 15:18 09.10.2019
496 Rain 16 1008 72 0 7.78 241.854 14:44 09.10.2019
497 Rain 15 1008 73 0 7.78 241.854 14:19 09.10.2019
498 Rain 14 1009 77 0 7.78 241.854 13:59 09.10.2019
499 Rain 14 1009 78 0 7.78 241.854 13:37 09.10.2019
500 Rain 14 1009 79 0 7.54 234.485 13:18 09.10.2019
501 Rain 13 1009 80 0 7.54 234.485 12:43 09.10.2019
502 Rain 13 1009 81 0 9.65 243.613 12:23 09.10.2019
503 Rain 13 1009 83 0 0.45 270 11:58 09.10.2019
504 Rain 13 1009 83 0 9.65 243.613 11:40 09.10.2019
505 Rain 12 1009 84 0 9.65 243.613 11:20 09.10.2019
506 Rain 12 1009 86 0 9.65 243.613 10:58 09.10.2019
507 Rain 12 1009 87 0 9.65 243.613 10:40 09.10.2019
508 Rain 12 1009 87 0 9.65 243.613 10:18 09.10.2019
509 Rain 11 1009 89 0 0.45 270 09:43 09.10.2019
510 Rain 11 1008 89 0 1.34 292 09:20 09.10.2019
511 Rain 11 1008 90 0 0.45 270 08:57 09.10.2019
512 Rain 10 1008 89 0 0.45 225 08:38 09.10.2019
513 Rain 10 1008 90 0 10.53 237.28 08:19 09.10.2019
514 Rain 10 1008 90 0 10.53 237.28 07:47 09.10.2019
515 Rain 10 1008 90 0 0.45 225 07:24 09.10.2019
516 Rain 10 1008 90 0 10.53 237.28 06:57 09.10.2019
517 Rain 10 1007 90 0 10.53 237.28 06:34 09.10.2019
518 Rain 9 1007 90 0 0.45 225 05:52 09.10.2019
519 Rain 9 1007 89 0 0.45 225 04:50 09.10.2019
520 Rain 9 1006 89 0 9.7 240.254 03:47 09.10.2019
521 Rain 9 1007 88 0 8.86 247.623 02:27 09.10.2019
522 Rain 9 1006 88 0 8.86 247.623 01:39 09.10.2019
523 Rain 9 1006 88 0 9.86 244.001 01:18 09.10.2019
524 Rain 10 1006 88 0 9.86 244.001 00:41 09.10.2019
525 Rain 11 1006 88 0 0.45 225 00:23 09.10.2019
526 Rain 11 1006 89 0 8.73 238.72 23:58 08.10.2019
527 Rain 11 1006 88 0 8.73 238.72 23:38 08.10.2019
528 Rain 11 1006 88 0 0.45 202 23:18 08.10.2019
529 Rain 11 1006 88 0 0.45 202 23:18 08.10.2019
530 Rain 11 1006 88 0 0.45 247 22:55 08.10.2019
531 Rain 11 1006 88 0 8.73 238.72 22:36 08.10.2019
532 Rain 11 1006 87 0 8.73 238.72 22:18 08.10.2019
533 Rain 11 1006 87 0 8.73 238.72 21:55 08.10.2019
534 Rain 11 1006 87 0 8.73 238.72 21:36 08.10.2019
535 Rain 11 1006 87 0 7.49 242.391 21:18 08.10.2019
536 Rain 11 1006 88 0 7.49 242.391 20:54 08.10.2019
537 Rain 11 1006 88 0 7.84 240.152 20:36 08.10.2019
538 Rain 12 1006 89 0 7.84 240.152 20:18 08.10.2019
539 Rain 12 1006 89 0 7.84 240.152 19:41 08.10.2019
540 Rain 12 1006 89 0 7.84 240.152 19:23 08.10.2019
541 Rain 12 1006 88 0 7.84 240.152 18:59 08.10.2019
542 Rain 12 1006 88 0 7.84 240.152 18:40 08.10.2019
543 Clouds 12 1006 88 0 9.54 259.849 18:22 08.10.2019
544 Clouds 12 1005 88 0 9.54 259.849 17:57 08.10.2019
545 Clouds 12 1005 88 0 9.54 259.849 17:39 08.10.2019
546 Clouds 12 1005 89 0 9.54 259.849 17:18 08.10.2019
547 Clouds 12 1005 89 0 9.54 259.849 16:55 08.10.2019
548 Clouds 12 1005 89 0 9.54 259.849 16:37 08.10.2019
549 Clouds 12 1005 90 0 9.54 259.849 16:18 08.10.2019
550 Clouds 12 1005 90 0 9.54 259.849 15:38 08.10.2019
551 Rain 12 1005 90 0 10.95 250.915 15:19 08.10.2019
552 Rain 11 1005 90 0 10.95 250.915 14:55 08.10.2019
553 Rain 11 1005 91 0 10.95 250.915 14:37 08.10.2019
554 Rain 11 1005 91 0 10.95 250.915 14:19 08.10.2019
555 Rain 10 1005 89 0 10.95 250.915 13:54 08.10.2019
556 Rain 10 1005 89 0 10.95 250.915 13:54 08.10.2019
557 Rain 10 1005 89 0 0.89 247 13:36 08.10.2019
558 Rain 9 1006 90 0 0.89 202 13:18 08.10.2019
559 Rain 9 1006 90 0 0.89 202 13:18 08.10.2019
560 Rain 9 1006 90 0 1.34 225 12:40 08.10.2019
561 Rain 9 1006 90 0 1.34 180 12:20 08.10.2019
562 Rain 8 1006 89 0 1.34 202 11:57 08.10.2019
563 Rain 8 1006 89 0 1.79 180 11:38 08.10.2019
564 Rain 8 1007 89 0 1.79 202 11:20 08.10.2019
565 Rain 7 1008 88 0 1.79 180 10:42 08.10.2019
566 Rain 7 1008 88 0 1.34 180 10:23 08.10.2019
567 Rain 7 1008 87 0 2.24 157 09:59 08.10.2019
568 Rain 6 1009 86 0 1.79 180 09:40 08.10.2019
569 Rain 6 1009 85 0 1.79 180 09:22 08.10.2019
570 Rain 6 1010 83 0 0.89 180 08:45 08.10.2019
571 Rain 6 1011 82 0 0.89 180 08:25 08.10.2019
572 Rain 6 1011 81 0 1.79 180 07:57 08.10.2019
573 Rain 6 1011 80 0 1.34 157 07:38 08.10.2019
574 Rain 6 1012 80 0 0.89 180 07:19 08.10.2019
575 Rain 6 1012 81 0 0.89 180 06:45 08.10.2019
576 Clouds 6 1013 81 0 1.34 157 06:21 08.10.2019
577 Clouds 6 1014 81 0 1.34 180 05:43 08.10.2019
578 Clouds 6 1014 81 0 1.34 157 05:19 08.10.2019
579 Clouds 6 1017 83 0 0.89 157 03:31 08.10.2019
580 Clouds 6 1017 82 0 0.45 157 02:43 08.10.2019
581 Clouds 6 1017 82 0 0.45 157 02:25 08.10.2019
582 Clouds 5 1018 81 0 0.89 157 01:41 08.10.2019
583 Clouds 5 1019 80 0 0.45 135 00:56 08.10.2019
584 Clouds 5 1020 80 0 0.45 135 00:25 08.10.2019
585 Clouds 5 1020 80 0 3.96 184.647 23:58 07.10.2019
586 Clouds 6 1021 79 0 3.96 184.647 23:38 07.10.2019
587 Clouds 6 1021 79 0 3.96 184.647 23:19 07.10.2019
588 Clouds 6 1021 79 0 3.96 184.647 22:55 07.10.2019
589 Clouds 6 1021 78 0 3.96 184.647 22:37 07.10.2019
590 Clouds 6 1021 78 0 3.96 184.647 22:18 07.10.2019
591 Clouds 6 1022 77 0 3.96 184.647 21:54 07.10.2019
592 Clouds 6 1022 77 0 3.96 184.647 21:36 07.10.2019
593 Clouds 6 1022 75 0 1.17 325.209 21:18 07.10.2019
594 Clouds 6 1022 74 0 1.37 340.078 20:55 07.10.2019
595 Clouds 7 1022 74 0 1.37 340.078 20:37 07.10.2019
596 Clouds 7 1022 73 0 1.37 340.078 20:18 07.10.2019
597 Clouds 7 1022 73 0 1.37 340.078 19:42 07.10.2019
598 Clouds 7 1022 73 0 1.37 340.078 19:42 07.10.2019
599 Clouds 7 1023 73 0 1.37 340.078 19:21 07.10.2019
600 Clouds 8 1023 73 0 1.37 340.078 19:00 07.10.2019
601 Clouds 8 1023 73 0 1.37 340.078 18:41 07.10.2019
602 Clouds 8 1023 73 0 0.45 0 18:19 07.10.2019
603 Clouds 8 1023 72 0 3.07 318.898 17:58 07.10.2019
604 Clouds 9 1023 70 0 3.07 318.898 17:40 07.10.2019
605 Clouds 9 1023 70 0 3.07 318.898 17:40 07.10.2019
606 Clouds 9 1023 70 0 3.07 318.898 17:19 07.10.2019
607 Clouds 9 1023 70 0 3.07 318.898 16:46 07.10.2019
608 Clouds 9 1023 70 0 3.07 318.898 16:46 07.10.2019
609 Clouds 9 1023 69 0 3.07 318.898 16:28 07.10.2019
610 Clouds 10 1023 69 0 3.07 318.898 15:58 07.10.2019
611 Clouds 9 1023 68 0 3.07 318.898 15:40 07.10.2019
612 Clouds 9 1023 68 0 2.91 328.091 15:21 07.10.2019
613 Clouds 9 1024 68 0 2.91 328.091 14:42 07.10.2019
614 Clouds 10 1024 68 0 2.91 328.091 14:23 07.10.2019
615 Clouds 9 1024 69 0 2.91 328.091 13:45 07.10.2019
616 Clouds 9 1025 69 0 2.97 328.726 13:21 07.10.2019
617 Clouds 9 1025 68 0 2.97 328.726 12:59 07.10.2019
618 Clouds 9 1025 69 0 2.97 328.726 12:41 07.10.2019
619 Clouds 9 1025 68 0 0.45 292 12:21 07.10.2019
620 Clouds 9 1025 67 0 4.24 332.873 11:59 07.10.2019
621 Clouds 9 1025 67 0 0.45 292 11:41 07.10.2019
622 Clouds 9 1025 68 0 0.89 292 11:22 07.10.2019
623 Clouds 9 1025 67 0 4.24 332.873 10:58 07.10.2019
624 Clouds 9 1025 67 0 4.24 332.873 10:58 07.10.2019
625 Clouds 8 1025 68 0 4.24 332.873 10:39 07.10.2019
626 Clouds 8 1025 70 0 0.45 45 10:20 07.10.2019
627 Clouds 8 1025 74 0 0.45 22 09:40 07.10.2019
628 Clouds 8 1025 76 0 0.45 22 09:22 07.10.2019
629 Clouds 7 1025 85 0 3.97 1.471 08:55 07.10.2019
630 Clouds 7 1025 85 0 3.53 0.633 08:37 07.10.2019
631 Clouds 6 1024 85 0 3.53 0.633 08:18 07.10.2019
632 Clouds 6 1024 84 0 3.53 0.633 07:40 07.10.2019
633 Clouds 6 1024 84 0 3.53 0.633 07:20 07.10.2019
634 Clouds 6 1024 84 0 3.53 0.633 06:48 07.10.2019
635 Clouds 6 1024 84 0 3.53 0.633 06:27 07.10.2019
636 Clouds 7 1024 84 0 3.45 38.224 05:42 07.10.2019
637 Clouds 7 1024 84 0 3.45 38.224 05:21 07.10.2019
638 Clouds 7 1024 84 0 3.45 38.224 04:24 07.10.2019
639 Clouds 7 1024 83 0 3.45 38.224 03:44 07.10.2019
640 Clouds 7 1024 83 0 3.45 38.224 03:44 07.10.2019
641 Clouds 7 1024 83 0 3.45 38.224 03:44 07.10.2019
642 Rain 7 1024 83 0 5.44 52.926 03:20 07.10.2019
643 Rain 7 1024 83 0 5.44 52.926 03:20 07.10.2019
644 Rain 7 1024 82 0 5.44 52.926 02:21 07.10.2019
645 Rain 7 1024 82 0 5.44 52.926 02:21 07.10.2019
646 Rain 7 1024 82 0 5.44 52.926 01:50 07.10.2019
647 Rain 6 1024 82 0 4.85 57.008 01:21 07.10.2019
648 Rain 6 1024 82 0 4.85 57.008 00:39 07.10.2019
649 Rain 6 1024 82 0 5.67 85.547 00:20 07.10.2019
650 Rain 6 1024 81 0 5.67 85.547 23:42 06.10.2019
651 Rain 6 1024 81 0 5.67 85.547 23:22 06.10.2019
652 Rain 9 1020 74 0 5.67 85.547 22:59 06.10.2019
653 Rain 9 1020 74 0 5.67 85.547 22:41 06.10.2019
654 Rain 6 1024 81 0 5.67 85.547 22:22 06.10.2019
655 Rain 6 1024 80 0 5.67 85.547 21:58 06.10.2019
656 Rain 6 1024 78 0 5.67 85.547 21:38 06.10.2019
657 Rain 7 1024 78 0 5.81 94.788 21:19 06.10.2019
658 Rain 7 1024 78 0 5.81 94.788 20:58 06.10.2019
659 Rain 7 1024 78 0 6.85 94.993 20:40 06.10.2019
660 Rain 7 1024 77 0 6.85 94.993 20:21 06.10.2019
661 Rain 7 1024 76 0 6.85 94.993 19:58 06.10.2019
662 Rain 8 1024 76 0 6.85 94.993 19:38 06.10.2019
663 Rain 8 1024 75 0 6.85 94.993 19:20 06.10.2019
664 Rain 8 1024 75 0 6.85 94.993 19:20 06.10.2019
665 Rain 9 1024 73 0 6.85 94.993 18:57 06.10.2019
666 Rain 9 1024 71 0 6.85 94.993 18:39 06.10.2019
667 Clouds 10 1024 70 0 4.57 97.364 18:20 06.10.2019
668 Clouds 11 1024 68 0 4.57 97.364 17:59 06.10.2019
669 Clouds 11 1024 67 0 4.57 97.364 17:39 06.10.2019
670 Clouds 12 1024 66 0 4.57 97.364 17:19 06.10.2019
671 Clouds 12 1024 67 0 0.45 135 16:54 06.10.2019
672 Clouds 12 1024 67 0 4.57 97.364 16:36 06.10.2019
673 Clouds 12 1024 67 0 4.57 97.364 16:18 06.10.2019
674 Clouds 11 1020 60 0 4.57 97.364 15:42 06.10.2019
675 Rain 12 1025 67 0 3.14 99.534 15:19 06.10.2019
676 Rain 13 1025 65 0 0.89 135 14:44 06.10.2019
677 Rain 12 1025 66 0 3.14 99.534 14:25 06.10.2019
678 Rain 12 1025 68 0 3.14 99.534 13:58 06.10.2019
679 Rain 12 1025 67 0 3.14 99.534 13:39 06.10.2019
680 Clear 12 1026 66 0 0.45 45 13:21 06.10.2019
681 Clear 12 1026 67 0 0.45 45 12:57 06.10.2019
682 Clear 13 1026 68 0 0.45 45 12:39 06.10.2019
683 Clear 13 1026 68 0 0.45 45 12:39 06.10.2019
684 Clouds 13 1026 71 0 2.05 183.186 12:21 06.10.2019
685 Clouds 12 1026 74 0 0.89 135 11:58 06.10.2019
686 Clouds 11 1026 76 0 0.45 135 11:39 06.10.2019
687 Clouds 11 1026 78 0 0.45 135 11:20 06.10.2019
688 Clouds 11 1026 78 0 0.45 135 11:20 06.10.2019
689 Clouds 9 1027 85 0 2.05 183.186 10:45 06.10.2019
690 Clouds 9 1027 85 0 2.05 183.186 10:26 06.10.2019
691 Clouds 8 1027 86 0 2.05 183.186 09:58 06.10.2019
692 Clouds 8 1027 86 0 2.05 183.186 09:40 06.10.2019
693 Clouds 7 1027 87 0 3.41 147.215 09:19 06.10.2019
694 Clouds 7 1027 87 0 3.41 147.215 09:19 06.10.2019
695 Clouds 6 1026 86 0 3.41 147.215 08:47 06.10.2019
696 Clear 6 1026 86 0 4.58 107.24 08:21 06.10.2019
697 Clear 6 1026 86 0 4.58 107.24 07:57 06.10.2019
698 Clear 6 1026 86 0 4.58 107.24 07:38 06.10.2019
699 Clear 7 1026 87 0 4.58 107.24 06:39 06.10.2019
700 Clouds 6 1026 86 0 0.45 135 05:36 06.10.2019
701 Clouds 6 1026 85 0 5.3 84.895 04:29 06.10.2019
702 Rain 7 1027 84 0 5.64 81.743 02:48 06.10.2019
703 Rain 7 1027 82 0 5.64 81.743 02:28 06.10.2019
704 Rain 7 1026 81 0 5.64 81.743 01:46 06.10.2019
705 Rain 7 1026 81 0 6.19 85.438 01:27 06.10.2019
706 Rain 7 1026 81 0 6.19 85.438 01:27 06.10.2019
707 Rain 7 1026 82 0 6.19 85.438 00:59 06.10.2019
708 Rain 7 1026 82 0 6.19 85.438 00:59 06.10.2019
709 Rain 7 1026 81 0 0.45 112 00:31 06.10.2019
710 Clouds 7 1026 80 0 6.76 68.424 23:54 05.10.2019
711 Clouds 7 1026 80 0 6.76 68.424 23:36 05.10.2019
712 Clouds 8 1026 81 0 6.76 68.424 23:18 05.10.2019
713 Clouds 8 1026 81 0 6.76 68.424 22:54 05.10.2019
714 Clouds 8 1026 81 0 6.76 68.424 22:54 05.10.2019
715 Clouds 8 1026 79 0 6.76 68.424 22:36 05.10.2019
716 Clouds 8 1026 77 0 6.76 68.424 22:18 05.10.2019
717 Clouds 8 1026 77 0 0.89 135 21:40 05.10.2019
718 Rain 8 1026 75 0 0.45 90 21:22 05.10.2019
719 Rain 9 1025 75 0 0.45 45 20:57 05.10.2019
720 Clouds 9 1025 75 0 8.51 51.755 20:39 05.10.2019
721 Clouds 9 1025 75 0 0.45 67 20:19 05.10.2019
722 Clouds 9 1025 74 0 8.51 51.755 19:55 05.10.2019
723 Clouds 9 1025 75 0 0.45 45 19:36 05.10.2019
724 Clouds 9 1024 74 0 0.45 22 19:18 05.10.2019
725 Clouds 9 1024 74 0 1.34 22 18:54 05.10.2019
726 Clouds 9 1024 74 0 0.89 22 18:36 05.10.2019
727 Rain 9 1023 75 0 0.89 45 18:18 05.10.2019
728 Rain 10 1023 76 0 0.45 45 17:40 05.10.2019
729 Rain 10 1023 77 0 0.45 67 17:21 05.10.2019
730 Rain 10 1022 73 0 0.89 45 16:55 05.10.2019
731 Rain 10 1022 72 0 2.24 45 16:36 05.10.2019
732 Rain 11 1022 72 0 0.89 22 16:18 05.10.2019
733 Rain 11 1022 72 0 0.89 45 15:55 05.10.2019
734 Rain 11 1022 72 0 0.89 45 15:55 05.10.2019
735 Rain 11 1022 73 0 0.45 22 15:36 05.10.2019
736 Rain 11 1022 73 0 0.89 45 15:18 05.10.2019
737 Rain 11 1021 75 0 0.89 45 14:41 05.10.2019
738 Rain 10 1021 77 0 9.69 61.446 14:22 05.10.2019
739 Rain 9 1021 84 0 9.69 61.446 13:43 05.10.2019
740 Rain 9 1021 84 0 0.45 157 13:25 05.10.2019
741 Rain 8 1020 84 0 9.52 58.686 12:58 05.10.2019
742 Rain 8 1020 84 0 0.89 135 12:40 05.10.2019
743 Rain 8 1020 84 0 8.33 81.325 12:18 05.10.2019
744 Rain 9 1020 84 0 8.33 81.325 11:39 05.10.2019
745 Rain 9 1020 83 0 8.33 81.325 11:20 05.10.2019
746 Rain 9 1019 82 0 8.33 81.325 10:57 05.10.2019
747 Rain 9 1019 82 0 0.45 112 10:38 05.10.2019
748 Rain 9 1019 82 0 0.45 112 10:38 05.10.2019
749 Rain 9 1019 81 0 8.33 81.325 10:19 05.10.2019
750 Rain 9 1019 81 0 8.33 81.325 10:19 05.10.2019
751 Rain 9 1018 79 0 8.33 81.325 09:40 05.10.2019
752 Rain 9 1017 80 0 13.73 60.744 09:22 05.10.2019
753 Rain 9 1017 82 0 1.34 22 08:42 05.10.2019
754 Rain 8 1016 83 0 13.49 59.981 08:23 05.10.2019
755 Rain 9 1016 80 0 13.49 59.981 07:59 05.10.2019
756 Rain 9 1016 80 0 13.49 59.981 07:40 05.10.2019
757 Rain 8 1015 80 0 13.49 59.981 07:21 05.10.2019
758 Rain 8 1015 80 0 13.49 59.981 06:52 05.10.2019
759 Rain 8 1015 80 0 9.56 74.249 06:21 05.10.2019
760 Rain 8 1014 78 0 9.56 74.249 05:20 05.10.2019
761 Rain 9 1014 75 0 9.56 74.249 03:32 05.10.2019
762 Rain 9 1013 76 0 9.2 78.267 02:29 05.10.2019
763 Rain 9 1014 79 0 9.75 78.652 01:27 05.10.2019
764 Rain 9 1013 80 0 9.75 78.652 00:49 05.10.2019
765 Rain 9 1013 80 0 9.75 78.652 00:27 05.10.2019
766 Rain 9 1013 80 0 0.89 135 23:58 04.10.2019
767 Rain 9 1013 80 0 10.65 85.476 23:40 04.10.2019
768 Rain 9 1013 79 0 10.65 85.476 23:21 04.10.2019
769 Rain 9 1013 79 0 0.45 135 22:56 04.10.2019
770 Rain 9 1013 79 0 0.89 135 22:37 04.10.2019
771 Rain 9 1013 80 0 0.45 135 22:19 04.10.2019
772 Rain 9 1013 79 0 0.45 135 21:40 04.10.2019
773 Clouds 9 1013 79 0 8.05 99.849 21:22 04.10.2019
774 Clouds 9 1013 77 0 8.05 99.849 20:59 04.10.2019
775 Clouds 9 1013 77 0 8.05 99.849 20:59 04.10.2019
776 Clouds 9 1013 78 0 8.78 92.017 20:41 04.10.2019
777 Clouds 9 1013 77 0 8.78 92.017 20:22 04.10.2019
778 Clouds 9 1013 76 0 8.78 92.017 19:56 04.10.2019
779 Clouds 9 1013 76 0 8.78 92.017 19:37 04.10.2019
780 Clouds 9 1013 75 0 8.78 92.017 19:19 04.10.2019
781 Clouds 10 1013 74 0 8.78 92.017 18:55 04.10.2019
782 Clouds 10 1013 74 0 8.78 92.017 18:36 04.10.2019
783 Clouds 11 1013 73 0 6.89 112.727 18:18 04.10.2019
784 Clouds 11 1013 72 0 6.89 112.727 17:40 04.10.2019
785 Clouds 11 1013 71 0 6.89 112.727 17:22 04.10.2019
786 Clouds 12 1013 71 0 6.89 112.727 16:58 04.10.2019
787 Clouds 12 1013 70 0 6.89 112.727 16:39 04.10.2019
788 Clouds 12 1013 70 0 6.89 112.727 16:39 04.10.2019
789 Clouds 12 1013 70 0 6.89 112.727 16:18 04.10.2019
790 Clouds 12 1013 70 0 6.89 112.727 16:18 04.10.2019
791 Clouds 12 1013 69 0 6.89 112.727 15:56 04.10.2019
792 Clouds 12 1013 69 0 0.89 135 15:38 04.10.2019
793 Clouds 12 1013 69 0 0.89 135 15:38 04.10.2019
794 Clouds 13 1013 69 0 0.89 135 15:19 04.10.2019
795 Clouds 12 1013 67 0 0.89 135 14:55 04.10.2019
796 Clouds 12 1014 69 0 1.34 135 14:37 04.10.2019
797 Clouds 12 1014 68 0 0.89 135 14:19 04.10.2019
798 Clouds 13 1014 66 0 0.89 157 13:44 04.10.2019
799 Clouds 13 1014 66 0 1.34 135 13:22 04.10.2019
800 Clouds 14 1014 65 0 0.45 157 12:54 04.10.2019
801 Clouds 14 1014 65 0 0.45 157 12:36 04.10.2019
802 Clouds 13 1015 68 0 0.45 135 12:18 04.10.2019
803 Clouds 13 1015 70 0 0.45 135 11:42 04.10.2019
804 Clouds 12 1015 73 0 0.89 135 11:21 04.10.2019
805 Clouds 11 1015 80 0 0.45 180 10:41 04.10.2019
806 Clouds 11 1016 82 0 0.45 180 10:21 04.10.2019
807 Clouds 9 1016 85 0 3.96 152.412 09:58 04.10.2019
808 Clouds 9 1016 85 0 3.96 152.412 09:58 04.10.2019
809 Clouds 9 1016 85 0 0.45 202 09:40 04.10.2019
810 Clouds 9 1016 85 0 2.78 184.68 09:22 04.10.2019
811 Clouds 7 1016 84 0 2.78 184.68 08:43 04.10.2019
812 Clouds 7 1016 84 0 2.78 184.68 08:43 04.10.2019
813 Clouds 7 1016 84 0 2.78 184.68 08:25 04.10.2019
814 Clouds 7 1016 84 0 2.78 184.68 07:47 04.10.2019
815 Clouds 7 1016 84 0 2.78 184.68 07:24 04.10.2019
816 Clouds 8 1016 84 0 2.78 184.68 06:56 04.10.2019
817 Clouds 8 1016 84 0 2.78 184.68 06:56 04.10.2019
818 Clouds 8 1016 84 0 2.78 184.68 06:37 04.10.2019
819 Clouds 8 1016 84 0 3.54 221.254 06:18 04.10.2019
820 Clouds 8 1016 84 0 3.54 221.254 06:18 04.10.2019
821 Clouds 8 1017 84 0 3.54 221.254 05:19 04.10.2019
822 Clouds 8 1017 83 0 3.54 221.254 04:37 04.10.2019
823 Clouds 8 1017 83 0 1.37 237.159 02:56 04.10.2019
824 Clouds 8 1017 83 0 1.37 237.159 02:56 04.10.2019
825 Clouds 8 1017 83 0 1.37 237.159 02:37 04.10.2019
826 Clouds 8 1017 83 0 1.37 237.159 01:53 04.10.2019
827 Clouds 9 1017 82 0 1.4 237.956 01:26 04.10.2019
828 Clouds 9 1017 82 0 1.4 237.956 00:32 04.10.2019
829 Clouds 10 1014 63 0 1.83 317.239 23:39 03.10.2019
830 Clouds 9 1018 82 0 1.83 317.239 23:21 03.10.2019
831 Clouds 9 1018 81 0 1.83 317.239 22:57 03.10.2019
832 Clouds 9 1018 81 0 1.83 317.239 22:39 03.10.2019
833 Clouds 9 1018 81 0 1.83 317.239 22:39 03.10.2019
834 Clouds 9 1018 81 0 1.83 317.239 22:39 03.10.2019
835 Clouds 9 1018 81 0 1.83 317.239 22:21 03.10.2019
836 Clouds 9 1018 81 0 1.83 317.239 21:58 03.10.2019
837 Clouds 9 1018 80 0 0.45 292 21:39 03.10.2019
838 Clouds 9 1018 79 0 3.88 354.954 21:19 03.10.2019
839 Clouds 9 1018 77 0 3.88 354.954 20:58 03.10.2019
840 Clouds 9 1018 77 0 3.88 354.954 20:58 03.10.2019
841 Clouds 9 1018 74 0 3.42 357.133 20:39 03.10.2019
842 Clouds 9 1018 71 0 3.42 357.133 20:20 03.10.2019
843 Clouds 10 1017 69 0 0.45 0 19:56 03.10.2019
844 Clouds 10 1017 69 0 3.42 357.133 19:38 03.10.2019
845 Clouds 10 1017 69 0 3.42 357.133 19:19 03.10.2019
846 Clouds 10 1017 72 0 3.42 357.133 18:56 03.10.2019
847 Clouds 10 1017 71 0 3.42 357.133 18:37 03.10.2019
848 Clouds 10 1017 70 0 0.45 0 18:18 03.10.2019
849 Clouds 11 1017 72 0 0.45 0 17:42 03.10.2019
850 Clouds 11 1017 72 0 4.48 349.39 17:22 03.10.2019
851 Clouds 11 1017 72 0 0.45 22 16:58 03.10.2019
852 Clouds 11 1017 72 0 4.48 349.39 16:39 03.10.2019
853 Clouds 11 1017 72 0 0.45 22 16:21 03.10.2019
854 Clouds 10 1013 70 0 4.48 349.39 15:45 03.10.2019
855 Clouds 10 1013 70 0 4.48 349.39 15:24 03.10.2019
856 Clouds 12 1017 71 0 0.45 0 14:59 03.10.2019
857 Clouds 11 1016 72 0 0.89 0 14:37 03.10.2019
858 Clouds 11 1016 73 0 0.45 45 14:19 03.10.2019
859 Clouds 11 1016 75 0 0.89 45 13:44 03.10.2019
860 Clouds 11 1016 76 0 1.34 22 13:26 03.10.2019
861 Clouds 12 1016 74 0 0.89 22 12:59 03.10.2019
862 Clouds 12 1015 74 0 0.89 22 12:40 03.10.2019
863 Clouds 12 1015 74 0 0.45 45 12:20 03.10.2019
864 Clouds 12 1015 74 0 0.45 45 12:20 03.10.2019
865 Clouds 11 1015 77 0 0.45 22 11:59 03.10.2019
866 Clouds 10 1012 81 0 7.17 9.937 11:40 03.10.2019
867 Clouds 12 1014 77 0 0.89 337 11:21 03.10.2019
868 Clouds 12 1014 80 0 7.17 9.937 10:58 03.10.2019
869 Clouds 11 1014 81 0 7.17 9.937 10:39 03.10.2019
870 Clouds 11 1014 81 0 1.79 0 10:18 03.10.2019
871 Clouds 11 1014 81 0 1.79 0 10:18 03.10.2019
872 Clouds 11 1014 80 0 0.89 22 09:56 03.10.2019
873 Clouds 11 1013 81 0 0.89 22 09:38 03.10.2019
874 Rain 11 1013 82 0 0.45 0 09:19 03.10.2019
875 Rain 9 1013 85 0 8.32 9.21 08:43 03.10.2019
876 Rain 9 1012 85 0 8.32 9.21 08:25 03.10.2019
877 Rain 9 1012 84 0 8.32 9.21 07:55 03.10.2019
878 Rain 9 1012 84 0 0.45 22 07:37 03.10.2019
879 Rain 9 1012 84 0 0.89 45 07:19 03.10.2019
880 Rain 9 1011 87 0 1.79 45 06:27 03.10.2019
881 Rain 9 1011 88 0 7.24 21.519 05:50 03.10.2019
882 Rain 9 1010 87 0 7.24 21.519 05:31 03.10.2019
883 Rain 9 1010 87 0 7.24 21.519 04:47 03.10.2019
884 Rain 8 1009 87 0 7.24 21.519 04:18 03.10.2019
885 Rain 8 1009 87 0 0.45 135 03:19 03.10.2019
886 Rain 8 1009 86 0 0.89 157 02:33 03.10.2019
887 Rain 8 1010 86 0 0.89 157 01:42 03.10.2019
888 Rain 8 1009 86 0 0.45 157 01:20 03.10.2019
889 Rain 8 1010 84 0 0.45 180 00:41 03.10.2019
890 Rain 9 1010 83 0 2.91 258.358 23:58 02.10.2019
891 Rain 8 1010 82 0 0.45 225 23:38 02.10.2019
892 Rain 8 1010 82 0 2.91 258.358 23:20 02.10.2019
893 Rain 8 1010 81 0 2.91 258.358 22:43 02.10.2019
894 Rain 8 1010 81 0 2.91 258.358 22:43 02.10.2019
895 Rain 8 1010 80 0 0.45 225 22:21 02.10.2019
896 Rain 8 1009 80 0 2.91 258.358 21:56 02.10.2019
897 Rain 8 1009 80 0 2.91 258.358 21:38 02.10.2019
898 Rain 8 1009 79 0 8.98 252.266 21:19 02.10.2019
899 Rain 9 1009 79 0 8.37 272.041 20:56 02.10.2019
900 Rain 9 1009 78 0 8.37 272.041 20:38 02.10.2019
901 Rain 9 1009 78 0 8.37 272.041 20:20 02.10.2019
902 Rain 9 1009 77 0 8.37 272.041 19:54 02.10.2019
903 Rain 9 1009 75 0 8.37 272.041 19:36 02.10.2019
904 Rain 9 1009 75 0 8.37 272.041 19:36 02.10.2019
905 Rain 10 1009 73 0 8.37 272.041 19:18 02.10.2019
906 Rain 11 1009 72 0 8.37 272.041 18:55 02.10.2019
907 Rain 11 1009 71 0 8.37 272.041 18:36 02.10.2019
908 Clear 12 1009 68 0 0.45 270 18:18 02.10.2019
909 Clear 13 1009 67 0 0.89 292 17:42 02.10.2019
910 Clear 13 1008 66 0 1.79 292 17:21 02.10.2019
911 Clear 13 1008 66 0 1.79 292 17:21 02.10.2019
912 Clear 13 1008 65 0 0.89 315 16:58 02.10.2019
913 Clear 14 1008 65 0 0.89 225 16:39 02.10.2019
914 Clear 14 1008 67 0 0.45 315 16:20 02.10.2019
915 Clear 14 1008 68 0 0.89 315 15:56 02.10.2019
916 Clear 13 1008 67 0 1.79 292 15:37 02.10.2019
917 Clouds 14 1008 64 0 0.89 292 15:18 02.10.2019
918 Clouds 14 1008 64 0 0.89 292 15:18 02.10.2019
919 Clouds 13 1007 64 0 1.79 292 14:45 02.10.2019
920 Clouds 13 1007 65 0 1.34 292 14:27 02.10.2019
921 Clouds 13 1007 66 0 0.89 337 13:59 02.10.2019
922 Clouds 12 1007 69 0 0.45 337 13:40 02.10.2019
923 Clouds 12 1007 68 0 1.34 315 13:22 02.10.2019
924 Clouds 13 1007 66 0 1.79 292 12:54 02.10.2019
925 Clouds 13 1007 67 0 1.79 292 12:36 02.10.2019
926 Clouds 11 1006 69 0 1.34 315 12:18 02.10.2019
927 Clouds 12 1006 73 0 1.79 292 11:42 02.10.2019
928 Clouds 12 1006 75 0 2.24 292 11:21 02.10.2019
929 Clouds 10 1005 80 0 1.34 292 10:41 02.10.2019
930 Clouds 9 1005 80 0 0.89 292 10:19 02.10.2019
931 Clouds 9 1005 84 0 0.45 292 09:42 02.10.2019
932 Clouds 9 1005 85 0 0.45 292 09:21 02.10.2019
933 Clouds 9 1004 87 0 0.45 292 08:59 02.10.2019
934 Clouds 8 1004 87 0 0.89 292 08:41 02.10.2019
935 Clouds 8 1004 87 0 6.85 300.987 08:22 02.10.2019
936 Clouds 8 1004 87 0 6.85 300.987 07:55 02.10.2019
937 Clouds 8 1003 88 0 6.85 300.987 07:37 02.10.2019
938 Clouds 8 1003 88 0 6.85 300.987 07:18 02.10.2019
939 Clouds 8 1003 88 0 6.85 300.987 07:18 02.10.2019
940 Clouds 8 1003 88 0 0.45 292 06:29 02.10.2019
941 Clouds 8 1003 89 0 7.09 302.623 05:51 02.10.2019
942 Clouds 8 1003 89 0 0.45 292 05:22 02.10.2019
943 Clouds 8 1003 89 0 7.09 302.623 04:41 02.10.2019
944 Clouds 8 1003 89 0 7.09 302.623 03:51 02.10.2019
945 Clouds 8 1003 89 0 6.47 299.179 02:39 02.10.2019
946 Clouds 8 1003 89 0 6.47 299.179 02:20 02.10.2019
947 Clouds 8 1003 88 0 6.42 293.418 01:19 02.10.2019
948 Clouds 9 1003 89 0 6.42 293.418 00:42 02.10.2019
949 Clouds 9 1003 89 0 0.89 292 00:23 02.10.2019
950 Clouds 9 1003 89 0 5.36 315.045 23:42 01.10.2019
951 Clouds 9 1003 89 0 5.36 315.045 23:24 01.10.2019
952 Clouds 9 1003 89 0 5.36 315.045 22:58 01.10.2019
953 Clouds 9 1003 88 0 5.36 315.045 22:39 01.10.2019
954 Clouds 10 1003 87 0 0.45 315 22:18 01.10.2019
955 Clouds 10 1003 87 0 5.36 315.045 21:55 01.10.2019
956 Clouds 10 1002 88 0 5.36 315.045 21:36 01.10.2019
957 Rain 10 1002 88 0 5.07 329.944 21:18 01.10.2019
958 Rain 10 1002 88 0 5.07 329.944 20:54 01.10.2019
959 Rain 10 1002 88 0 0.45 22 20:36 01.10.2019
960 Rain 10 1001 89 0 5.07 357.118 20:18 01.10.2019
961 Rain 10 1001 90 0 0.45 22 19:41 01.10.2019
962 Rain 9 1001 90 0 0.89 45 19:23 01.10.2019
963 Rain 9 1001 90 0 0.89 22 18:58 01.10.2019
964 Rain 10 1001 91 0 1.34 45 18:39 01.10.2019
965 Rain 11 1000 91 0 0.45 22 18:21 01.10.2019
966 Rain 11 996 89 0 7.42 21.922 17:55 01.10.2019
967 Rain 11 996 89 0 7.42 21.922 17:36 01.10.2019
968 Rain 12 999 91 0 0.89 22 17:18 01.10.2019
969 Rain 12 999 91 0 7.42 21.922 16:54 01.10.2019
970 Rain 12 999 90 0 0.45 22 16:36 01.10.2019
971 Rain 12 999 90 0 0.45 45 16:18 01.10.2019
972 Rain 12 999 90 0 7.42 21.922 15:42 01.10.2019
973 Rain 12 1000 90 0 3.56 54.343 15:21 01.10.2019
974 Rain 12 1000 90 0 0.45 135 14:41 01.10.2019
975 Rain 12 1000 89 0 0.45 135 14:20 01.10.2019
976 Rain 12 1001 89 0 3.56 54.343 13:57 01.10.2019
977 Rain 12 1001 89 0 3.56 54.343 13:38 01.10.2019
978 Rain 12 1002 89 0 3.17 53.987 13:19 01.10.2019
979 Rain 12 1002 89 0 0.45 180 12:57 01.10.2019
980 Rain 12 1002 89 0 0.45 180 12:57 01.10.2019
981 Rain 12 1002 89 0 0.45 180 12:38 01.10.2019
982 Rain 12 1003 89 0 0.89 180 12:18 01.10.2019
983 Rain 12 1003 89 0 0.89 180 12:18 01.10.2019
984 Rain 12 1003 90 0 0.89 180 11:57 01.10.2019
985 Rain 12 1003 90 0 0.45 202 11:37 01.10.2019
986 Rain 12 1003 89 0 0.45 180 11:18 01.10.2019
987 Rain 12 1004 89 0 0.89 180 10:48 01.10.2019
988 Rain 11 1004 89 0 0.89 180 10:29 01.10.2019
989 Rain 11 1005 89 0 0.45 180 09:47 01.10.2019
990 Rain 11 1005 88 0 0.89 180 09:27 01.10.2019
991 Rain 11 1005 88 0 0.45 202 08:57 01.10.2019
992 Rain 11 1005 88 0 0.45 202 08:39 01.10.2019
993 Rain 11 1005 88 0 0.89 202 08:20 01.10.2019
994 Rain 10 1006 88 0 0.45 202 07:42 01.10.2019
995 Rain 11 1006 88 0 0.45 202 07:22 01.10.2019
996 Rain 11 1006 88 0 0.45 247 06:45 01.10.2019
997 Rain 11 1007 88 0 0.45 270 06:18 01.10.2019
998 Rain 11 1007 88 0 0.45 270 06:18 01.10.2019
999 Rain 11 1007 88 0 6.24 291.749 05:45 01.10.2019
1000 Rain 11 1007 87 0 6.24 291.749 04:50 01.10.2019
1001 Rain 11 1008 87 0 6.24 291.749 04:26 01.10.2019
1002 Rain 10 1009 86 0 0.45 292 02:26 01.10.2019
1003 Rain 10 1009 86 0 9.38 286.892 01:58 01.10.2019
1004 Rain 9 1009 82 0 9.67 290.638 00:53 01.10.2019
1005 Rain 10 1009 81 0 9.67 290.638 00:27 01.10.2019
1006 Clouds 10 1009 80 0 12.39 288.473 23:56 30.09.2019
1007 Clouds 11 1008 80 0 12.39 288.473 23:38 30.09.2019
1008 Clouds 11 1008 81 0 0.89 292 23:19 30.09.2019
1009 Clouds 11 1008 79 0 12.39 288.473 22:43 30.09.2019
1010 Clouds 11 1008 78 0 12.39 288.473 22:24 30.09.2019
1011 Clouds 11 1008 78 0 0.45 292 21:57 30.09.2019
1012 Clouds 11 1008 78 0 1.34 247 21:38 30.09.2019
1013 Clouds 11 1008 77 0 0.45 247 21:19 30.09.2019
1014 Clouds 11 1008 77 0 0.45 247 21:19 30.09.2019
1015 Clouds 12 1007 76 0 1.34 292 20:57 30.09.2019
1016 Clouds 12 1007 75 0 1.79 292 20:38 30.09.2019
1017 Clouds 12 1007 75 0 0.89 270 20:20 30.09.2019
1018 Clouds 12 1007 74 0 1.79 0 19:56 30.09.2019
1019 Clouds 12 1007 74 0 1.79 0 19:56 30.09.2019
1020 Clouds 12 1006 73 0 1.79 292 19:38 30.09.2019
1021 Clouds 12 1006 71 0 1.79 315 19:19 30.09.2019
1022 Clouds 13 1006 71 0 2.68 292 18:57 30.09.2019
1023 Clouds 13 1005 71 0 2.24 292 18:37 30.09.2019
1024 Clouds 14 1005 69 0 2.68 292 18:19 30.09.2019
1025 Clouds 14 1004 73 0 2.68 315 17:42 30.09.2019
1026 Clouds 14 1004 74 0 3.13 292 17:22 30.09.2019
1027 Clouds 15 1003 73 0 3.13 292 16:57 30.09.2019
1028 Clouds 15 1003 75 0 3.13 292 16:39 30.09.2019
1029 Clouds 15 1003 77 0 2.68 292 16:19 30.09.2019
1030 Clouds 14 1002 78 0 2.68 292 15:58 30.09.2019
1031 Clouds 15 1002 79 0 2.24 292 15:38 30.09.2019
1032 Rain 14 1002 79 0 2.24 315 15:19 30.09.2019
1033 Rain 14 1001 81 0 3.58 292 14:57 30.09.2019
1034 Rain 14 1001 79 0 2.24 292 14:37 30.09.2019
1035 Rain 14 1000 83 0 2.68 315 14:19 30.09.2019
1036 Rain 14 1000 83 0 3.58 292 13:57 30.09.2019
1037 Rain 14 999 84 0 1.79 315 13:38 30.09.2019
1038 Rain 13 999 85 0 3.13 315 13:20 30.09.2019
1039 Rain 13 998 88 0 2.68 292 12:43 30.09.2019
1040 Rain 13 997 88 0 1.34 315 12:22 30.09.2019
1041 Rain 13 996 89 0 2.68 292 11:57 30.09.2019
1042 Rain 13 995 90 0 1.79 22 11:38 30.09.2019
1043 Rain 13 994 91 0 1.79 270 11:19 30.09.2019
1044 Rain 13 990 87 0 20.04 317.479 10:54 30.09.2019
1045 Rain 14 991 92 0 0.45 315 10:36 30.09.2019
1046 Rain 15 991 91 0 0.45 292 10:18 30.09.2019
1047 Rain 15 991 92 0 20.04 317.479 09:40 30.09.2019
1048 Rain 15 991 92 0 7.93 253.781 09:21 30.09.2019
1049 Rain 14 990 92 0 0.45 270 08:51 30.09.2019
1050 Rain 14 990 92 0 7.76 252.095 08:33 30.09.2019
1051 Rain 14 991 92 0 7.76 252.095 07:47 30.09.2019
1052 Rain 14 990 92 0 7.76 252.095 07:28 30.09.2019
1053 Rain 14 991 92 0 0.45 270 06:59 30.09.2019
1054 Rain 14 991 92 0 0.89 292 06:41 30.09.2019
1055 Rain 14 990 91 0 6.91 238.803 05:56 30.09.2019
1056 Rain 14 990 91 0 6.91 238.803 05:56 30.09.2019
1057 Rain 14 991 91 0 6.91 238.803 05:38 30.09.2019
1058 Rain 14 992 91 0 0.45 225 02:50 30.09.2019
1059 Rain 14 993 91 0 1.34 202 02:20 30.09.2019
1060 Rain 14 994 91 0 0.45 202 00:57 30.09.2019
1061 Rain 14 994 91 0 0.45 225 00:37 30.09.2019
1062 Rain 14 994 91 0 0.45 225 00:19 30.09.2019
1063 Rain 14 995 91 0 0.45 225 23:42 29.09.2019
1064 Rain 14 995 91 0 0.89 202 23:21 29.09.2019
1065 Rain 14 995 91 0 1.34 202 22:55 29.09.2019
1066 Rain 14 995 91 0 0.89 225 22:36 29.09.2019
1067 Rain 13 996 91 0 0.45 202 22:18 29.09.2019
1068 Rain 13 996 91 0 0.45 202 21:55 29.09.2019
1069 Rain 13 996 91 0 0.89 202 21:36 29.09.2019
1070 Rain 13 997 90 0 0.89 202 21:18 29.09.2019
1071 Rain 13 997 90 0 0.89 180 20:43 29.09.2019
1072 Rain 13 998 90 0 0.89 180 20:19 29.09.2019
1073 Rain 13 998 90 0 0.89 180 19:57 29.09.2019
1074 Rain 13 998 90 0 0.45 180 19:37 29.09.2019
1075 Rain 13 999 89 0 0.89 180 19:19 29.09.2019
1076 Rain 13 999 89 0 0.89 180 19:19 29.09.2019
1077 Rain 13 999 89 0 1.34 180 18:55 29.09.2019
1078 Rain 13 999 88 0 1.34 180 18:37 29.09.2019
1079 Rain 13 1000 88 0 0.89 180 18:19 29.09.2019
1080 Rain 13 1000 87 0 0.89 180 17:55 29.09.2019
1081 Rain 13 1000 87 0 0.89 180 17:55 29.09.2019
1082 Rain 13 1001 87 0 0.89 202 17:37 29.09.2019
1083 Rain 14 1001 87 0 1.34 180 17:19 29.09.2019
1084 Rain 14 1002 87 0 0.89 247 16:57 29.09.2019
1085 Rain 14 1002 87 0 0.45 225 16:39 29.09.2019
1086 Rain 14 1002 87 0 0.89 225 16:18 29.09.2019
1087 Rain 14 1003 87 0 1.34 202 15:41 29.09.2019
1088 Rain 14 1003 86 0 0.89 202 15:20 29.09.2019
1089 Rain 14 1003 86 0 0.89 202 14:59 29.09.2019
1090 Rain 14 1003 84 0 1.79 202 14:40 29.09.2019
1091 Rain 14 1004 83 0 0.89 225 14:20 29.09.2019
1092 Rain 15 1005 81 0 1.79 225 13:58 29.09.2019
1093 Rain 16 1005 80 0 0.89 225 13:40 29.09.2019
1094 Rain 16 1005 79 0 0.89 225 13:19 29.09.2019
1095 Rain 16 1005 80 0 2.24 202 12:58 29.09.2019
1096 Rain 16 1006 81 0 0.45 247 12:39 29.09.2019
1097 Rain 16 1006 82 0 0.89 247 12:21 29.09.2019
1098 Rain 15 1006 82 0 10.33 226.459 11:57 29.09.2019
1099 Rain 15 1006 83 0 0.45 247 11:38 29.09.2019
1100 Rain 14 1007 85 0 0.45 202 11:18 29.09.2019
1101 Rain 14 1007 85 0 0.89 225 10:57 29.09.2019
1102 Rain 14 1007 86 0 0.45 225 10:36 29.09.2019
1103 Rain 14 1007 88 0 0.45 225 10:18 29.09.2019
1104 Rain 14 1007 87 0 0.45 225 09:45 29.09.2019
1105 Rain 14 1007 87 0 0.45 225 09:21 29.09.2019
1106 Rain 13 1007 88 0 0.89 225 08:58 29.09.2019
1107 Rain 13 1007 88 0 10.7 238.628 08:38 29.09.2019
1108 Rain 13 1007 88 0 0.45 225 08:20 29.09.2019
1109 Rain 12 1007 88 0 10.65 233.18 07:43 29.09.2019
1110 Rain 12 1007 87 0 10.65 233.18 07:24 29.09.2019
1111 Rain 12 1007 87 0 10.65 233.18 07:24 29.09.2019
1112 Rain 12 1008 87 0 10.65 233.18 06:43 29.09.2019
1113 Rain 13 1008 86 0 0.45 225 05:27 29.09.2019
1114 Rain 13 1008 86 0 10.96 242.135 04:40 29.09.2019
1115 Rain 13 1008 86 0 10.96 242.135 04:22 29.09.2019
1116 Rain 13 1008 85 0 0.45 225 02:47 29.09.2019
1117 Rain 13 1009 85 0 0.89 225 02:18 29.09.2019
1118 Rain 13 1009 85 0 0.45 225 01:32 29.09.2019
1119 Rain 13 1009 85 0 0.89 202 00:53 29.09.2019
1120 Rain 13 1009 85 0 0.89 225 00:21 29.09.2019
1121 Rain 14 1009 84 0 0.89 225 23:55 28.09.2019
1122 Rain 13 1009 84 0 0.89 202 23:36 28.09.2019
1123 Rain 13 1009 84 0 0.89 202 23:18 28.09.2019
1124 Rain 13 1010 84 0 0.89 202 22:39 28.09.2019
1125 Rain 13 1010 84 0 0.89 202 22:21 28.09.2019
1126 Rain 13 1010 84 0 0.89 202 21:57 28.09.2019
1127 Rain 13 1010 83 0 0.89 202 21:39 28.09.2019
1128 Rain 14 1010 83 0 0.45 202 21:21 28.09.2019
1129 Rain 14 1010 82 0 0.45 180 20:57 28.09.2019
1130 Rain 14 1010 82 0 0.45 180 20:57 28.09.2019
1131 Rain 14 1010 81 0 0.89 202 20:38 28.09.2019
1132 Rain 14 1010 78 0 0.89 180 20:18 28.09.2019
1133 Rain 15 1010 78 0 6.79 208.845 19:56 28.09.2019
1134 Rain 15 1010 78 0 6.79 208.845 19:56 28.09.2019
1135 Rain 15 1010 77 0 0.45 202 19:38 28.09.2019
1136 Rain 16 1010 77 0 6.79 208.845 19:19 28.09.2019
1137 Rain 16 1010 77 0 0.45 202 18:55 28.09.2019
1138 Rain 16 1010 75 0 0.45 180 18:37 28.09.2019
1139 Clouds 17 1010 73 0 6.4 246.241 18:18 28.09.2019
1140 Clouds 18 1010 70 0 6.4 246.241 17:55 28.09.2019
1141 Clouds 18 1010 70 0 6.4 246.241 17:36 28.09.2019
1142 Clouds 18 1010 68 0 6.4 246.241 17:18 28.09.2019
1143 Clouds 18 1011 68 0 6.4 246.241 16:41 28.09.2019
1144 Clouds 18 1011 70 0 6.4 246.241 16:23 28.09.2019
1145 Clouds 18 1011 71 0 0.45 292 15:41 28.09.2019
1146 Rain 18 1011 70 0 6.83 253.146 15:23 28.09.2019
1147 Rain 19 1011 72 0 6.83 253.146 14:57 28.09.2019
1148 Rain 18 1011 74 0 6.83 253.146 14:38 28.09.2019
1149 Rain 18 1011 75 0 0.89 225 14:20 28.09.2019
1150 Rain 18 1011 74 0 6.83 253.146 13:56 28.09.2019
1151 Rain 18 1011 77 0 6.83 253.146 13:37 28.09.2019
1152 Rain 18 1011 77 0 6.83 253.146 13:37 28.09.2019
1153 Rain 18 1011 74 0 7.44 252.598 13:19 28.09.2019
1154 Rain 17 1011 78 0 0.45 225 12:44 28.09.2019
1155 Clouds 17 1011 78 0 0.89 225 12:19 28.09.2019
1156 Clouds 17 1011 79 0 9.14 230.685 11:55 28.09.2019
1157 Clouds 17 1012 81 0 0.89 292 11:37 28.09.2019
1158 Clouds 16 1011 85 0 1.79 225 11:18 28.09.2019
1159 Clouds 15 1012 87 0 0.45 225 10:43 28.09.2019
1160 Clouds 14 1011 87 0 0.45 202 10:20 28.09.2019
1161 Clouds 14 1011 88 0 0.45 225 09:57 28.09.2019
1162 Clouds 14 1011 88 0 0.45 225 09:39 28.09.2019
1163 Clouds 14 1011 90 0 0.89 225 09:18 28.09.2019
1164 Clouds 13 1011 91 0 0.89 202 08:46 28.09.2019
1165 Rain 13 1011 90 0 8.73 223.161 08:28 28.09.2019
1166 Rain 12 1011 90 0 0.89 202 07:45 28.09.2019
1167 Rain 12 1011 90 0 0.89 202 07:23 28.09.2019
1168 Rain 12 1011 90 0 0.45 202 06:56 28.09.2019
1169 Rain 12 1011 90 0 0.45 202 06:32 28.09.2019
1170 Clouds 13 1011 90 0 7.76 216.613 05:57 28.09.2019
1171 Clouds 13 1011 90 0 0.45 202 05:24 28.09.2019
1172 Clouds 12 1011 90 0 7.76 216.613 04:41 28.09.2019
1173 Clouds 12 1011 90 0 7.76 216.613 04:20 28.09.2019
1174 Clouds 13 1011 90 0 0.45 202 03:25 28.09.2019
1175 Clear 13 1011 90 0 6.17 205.601 02:57 28.09.2019
1176 Clear 13 1011 90 0 0.45 180 02:35 28.09.2019
1177 Clear 13 1011 90 0 6.17 205.601 01:56 28.09.2019
1178 Clear 13 1011 90 0 6.17 205.601 01:38 28.09.2019
1179 Clear 13 1011 90 0 6.67 205.043 01:18 28.09.2019
1180 Clear 13 1011 90 0 6.67 205.043 00:43 28.09.2019
1181 Clear 13 1012 90 0 6.67 205.043 00:25 28.09.2019
1182 Clear 15 1008 84 0 5.53 222.825 23:38 27.09.2019
1183 Clear 13 1012 89 0 0.45 180 23:20 27.09.2019
1184 Clear 12 1012 89 0 5.53 222.825 22:47 27.09.2019
1185 Clear 12 1012 89 0 5.53 222.825 22:47 27.09.2019
1186 Clear 13 1012 88 0 5.53 222.825 22:21 27.09.2019
1187 Clear 13 1011 88 0 5.53 222.825 21:59 27.09.2019
1188 Clear 13 1011 88 0 5.53 222.825 21:40 27.09.2019
1189 Rain 13 1011 88 0 4.68 199.712 21:20 27.09.2019
1190 Rain 13 1011 88 0 4.68 199.712 21:20 27.09.2019
1191 Rain 13 1011 88 0 4.68 199.712 20:58 27.09.2019
1192 Rain 13 1011 88 0 4.68 199.712 20:58 27.09.2019
1193 Rain 13 1011 88 0 2.93 222.402 20:40 27.09.2019
1194 Rain 13 1011 87 0 2.93 222.402 20:19 27.09.2019
1195 Rain 14 1011 87 0 2.93 222.402 19:57 27.09.2019
1196 Rain 14 1011 87 0 2.93 222.402 19:39 27.09.2019
1197 Rain 15 1011 87 0 2.93 222.402 19:20 27.09.2019
1198 Rain 16 1010 87 0 2.93 222.402 18:42 27.09.2019
1199 Rain 16 1010 87 0 0.89 180 18:24 27.09.2019
1200 Rain 16 1010 87 0 0.45 180 17:57 27.09.2019
1201 Rain 16 1010 87 0 2.17 238.387 17:38 27.09.2019
1202 Rain 16 1011 87 0 0.45 180 17:20 27.09.2019
1203 Rain 16 1011 86 0 2.17 238.387 16:57 27.09.2019
1204 Rain 16 1011 87 0 2.17 238.387 16:39 27.09.2019
1205 Rain 16 1011 87 0 2.17 238.387 16:18 27.09.2019
1206 Rain 16 1011 87 0 2.17 238.387 15:47 27.09.2019
1207 Rain 16 1011 87 0 5.33 245.869 15:21 27.09.2019
1208 Rain 17 1011 89 0 0.45 315 14:59 27.09.2019
1209 Rain 17 1011 89 0 5.33 245.869 14:41 27.09.2019
1210 Rain 17 1011 89 0 5.33 245.869 14:41 27.09.2019
1211 Rain 16 1011 89 0 5.33 245.869 14:23 27.09.2019
1212 Rain 16 1011 89 0 0.45 202 13:59 27.09.2019
1213 Rain 16 1011 89 0 5.33 245.869 13:40 27.09.2019
1214 Rain 16 1010 89 0 5.82 240.28 13:21 27.09.2019
1215 Rain 16 1011 89 0 5.82 240.28 12:57 27.09.2019
1216 Rain 17 1011 90 0 5.82 240.28 12:38 27.09.2019
1217 Rain 17 1011 90 0 0.89 180 12:19 27.09.2019
1218 Rain 16 1011 91 0 0.45 202 11:39 27.09.2019
1219 Rain 16 1011 91 0 0.45 202 11:20 27.09.2019
1220 Rain 16 1011 91 0 0.45 180 10:57 27.09.2019
1221 Rain 15 1011 91 0 1.34 202 10:38 27.09.2019
1222 Rain 15 1011 91 0 1.34 202 10:38 27.09.2019
1223 Rain 15 1011 91 0 1.34 180 10:20 27.09.2019
1224 Rain 14 1011 91 0 1.34 157 09:42 27.09.2019
1225 Rain 14 1011 91 0 1.34 157 09:21 27.09.2019
1226 Rain 14 1011 90 0 0.89 157 08:57 27.09.2019
1227 Rain 14 1011 90 0 1.34 157 08:38 27.09.2019
1228 Rain 14 1011 89 0 1.34 135 08:19 27.09.2019
1229 Rain 14 1011 89 0 1.79 135 07:45 27.09.2019
1230 Rain 14 1011 89 0 0.89 157 07:23 27.09.2019
1231 Rain 14 1011 89 0 0.89 135 06:43 27.09.2019
1232 Rain 14 1011 89 0 1.34 135 06:23 27.09.2019
1233 Rain 14 1012 88 0 0.89 135 05:50 27.09.2019
1234 Rain 14 1012 88 0 0.89 135 05:32 27.09.2019
1235 Rain 13 1013 88 0 0.89 135 03:55 27.09.2019
1236 Clouds 13 1013 87 0 0.89 135 02:59 27.09.2019
1237 Clouds 13 1014 87 0 1.34 135 01:47 27.09.2019
1238 Clouds 13 1014 87 0 0.89 135 01:27 27.09.2019
1239 Rain 14 1014 86 0 0.89 135 00:22 27.09.2019
1240 Rain 14 1014 86 0 0.89 135 23:56 26.09.2019
1241 Rain 14 1014 86 0 1.34 135 23:38 26.09.2019
1242 Rain 14 1014 86 0 1.34 135 23:18 26.09.2019
1243 Rain 14 1014 86 0 1.34 135 23:18 26.09.2019
1244 Rain 14 1015 86 0 1.34 135 22:56 26.09.2019
1245 Rain 14 1015 86 0 1.34 135 22:56 26.09.2019
1246 Rain 14 1015 86 0 1.34 135 22:38 26.09.2019
1247 Rain 14 1015 86 0 0.89 135 22:18 26.09.2019
1248 Rain 14 1015 86 0 0.89 135 21:55 26.09.2019
1249 Rain 14 1015 85 0 0.89 135 21:37 26.09.2019
1250 Rain 14 1015 85 0 0.89 135 21:37 26.09.2019
1251 Clouds 14 1015 84 0 0.89 135 21:18 26.09.2019
1252 Clouds 14 1015 84 0 0.45 135 20:57 26.09.2019
1253 Clouds 15 1015 84 0 0.89 135 20:39 26.09.2019
1254 Clouds 15 1015 83 0 0.89 135 20:21 26.09.2019
1255 Clouds 16 1015 82 0 0.89 135 19:41 26.09.2019
1256 Clouds 16 1015 81 0 0.89 135 19:20 26.09.2019
1257 Clouds 16 1015 80 0 0.45 135 18:59 26.09.2019
1258 Clouds 17 1014 80 0 0.89 135 18:41 26.09.2019
1259 Clouds 17 1014 78 0 0.89 135 18:22 26.09.2019
1260 Clouds 17 1014 78 0 0.45 135 17:58 26.09.2019
1261 Clouds 17 1014 77 0 0.45 135 17:37 26.09.2019
1262 Clouds 19 1015 74 0 3.69 95.882 17:18 26.09.2019
1263 Clouds 19 1014 73 0 0.45 180 16:55 26.09.2019
1264 Clouds 19 1014 73 0 0.45 157 16:37 26.09.2019
1265 Clouds 19 1014 74 0 0.45 135 16:18 26.09.2019
1266 Clouds 20 1014 73 0 3.69 95.882 15:42 26.09.2019
1267 Clouds 19 1014 75 0 1.84 180.468 15:23 26.09.2019
1268 Clouds 19 1015 75 0 1.84 180.468 14:59 26.09.2019
1269 Clouds 18 1014 77 0 1.84 180.468 14:40 26.09.2019
1270 Clouds 18 1014 78 0 0.45 202 14:21 26.09.2019
1271 Clouds 18 1014 79 0 1.84 180.468 13:57 26.09.2019
1272 Clouds 18 1014 79 0 1.84 180.468 13:39 26.09.2019
1273 Clouds 18 1014 79 0 1.2 176.749 13:19 26.09.2019
1274 Clouds 18 1014 80 0 0.45 202 12:44 26.09.2019
1275 Rain 18 1014 81 0 2.8 183.69 12:23 26.09.2019
1276 Rain 18 1014 83 0 0.89 180 11:57 26.09.2019
1277 Rain 17 1014 84 0 0.45 180 11:39 26.09.2019
1278 Rain 17 1014 87 0 0.45 157 11:19 26.09.2019
1279 Rain 16 1013 88 0 2.8 183.69 10:42 26.09.2019
1280 Rain 16 1013 89 0 2.8 183.69 10:24 26.09.2019
1281 Rain 15 1013 89 0 0.45 225 09:59 26.09.2019
1282 Rain 15 1013 89 0 2.8 183.69 09:41 26.09.2019
1283 Rain 15 1013 89 0 2.83 193.186 09:20 26.09.2019
1284 Rain 14 1013 89 0 0.45 225 08:53 26.09.2019
1285 Rain 14 1012 89 0 2.08 166.745 08:32 26.09.2019
1286 Rain 14 1012 89 0 2.08 166.745 07:56 26.09.2019
1287 Rain 14 1012 89 0 0.45 337 07:38 26.09.2019
1288 Rain 14 1012 89 0 2.08 166.745 07:18 26.09.2019
1289 Rain 14 1011 89 0 2.08 166.745 06:42 26.09.2019
1290 Clouds 14 1011 89 0 2.69 82.769 06:23 26.09.2019
1291 Clouds 14 1011 89 0 2.69 82.769 05:36 26.09.2019
1292 Clouds 14 1011 89 0 2.69 82.769 04:56 26.09.2019
1293 Rain 15 1010 89 0 3.42 80.248 02:38 26.09.2019
1294 Rain 15 1010 89 0 3.42 80.248 01:49 26.09.2019
1295 Clouds 15 1010 89 0 2.92 92.435 01:26 26.09.2019
1296 Clouds 15 1010 89 0 2.92 92.435 00:48 26.09.2019
1297 Clouds 15 1010 89 0 2.92 92.435 00:28 26.09.2019
1298 Clouds 15 1010 90 0 4.2 73.811 23:45 25.09.2019
1299 Clouds 14 1010 89 0 4.2 73.811 23:26 25.09.2019
1300 Clouds 14 1010 89 0 4.2 73.811 23:26 25.09.2019
1301 Clouds 14 1010 89 0 4.2 73.811 22:56 25.09.2019
1302 Clouds 14 1010 89 0 4.2 73.811 22:38 25.09.2019
1303 Clouds 14 1010 89 0 4.2 73.811 22:19 25.09.2019
1304 Clouds 14 1010 88 0 4.2 73.811 21:56 25.09.2019
1305 Clouds 14 1010 87 0 4.2 73.811 21:37 25.09.2019
1306 Rain 14 1010 87 0 4.72 93.61 21:18 25.09.2019
1307 Rain 14 1010 86 0 4.72 93.61 20:56 25.09.2019
1308 Clouds 14 1010 86 0 4.73 88.463 20:38 25.09.2019
1309 Clouds 15 1010 85 0 4.73 88.463 20:19 25.09.2019
1310 Clouds 15 1009 84 0 4.73 88.463 19:41 25.09.2019
1311 Clouds 15 1009 84 0 4.73 88.463 19:22 25.09.2019
1312 Clouds 16 1009 83 0 4.73 88.463 18:57 25.09.2019
1313 Clouds 16 1009 82 0 4.73 88.463 18:39 25.09.2019
1314 Clouds 16 1009 81 0 5.9 91.068 18:21 25.09.2019
1315 Clouds 16 1009 81 0 5.9 91.068 17:58 25.09.2019
1316 Clouds 16 1009 81 0 5.9 91.068 17:37 25.09.2019
1317 Clouds 16 1009 80 0 5.9 91.068 17:18 25.09.2019
1318 Clouds 16 1009 79 0 0.45 112 16:44 25.09.2019
1319 Clouds 17 1009 79 0 0.45 135 16:26 25.09.2019
1320 Clouds 16 1009 79 0 0.89 135 15:58 25.09.2019
1321 Clouds 17 1009 79 0 0.89 135 15:40 25.09.2019
1322 Clouds 17 1009 79 0 6.56 87.178 15:21 25.09.2019
1323 Clouds 17 1009 79 0 6.56 87.178 14:54 25.09.2019
1324 Clouds 17 1009 79 0 6.56 87.178 14:36 25.09.2019
1325 Clouds 17 1009 77 0 6.56 87.178 14:18 25.09.2019
1326 Clouds 17 1010 76 0 0.45 135 13:41 25.09.2019
1327 Clouds 18 1010 75 0 0.89 135 13:22 25.09.2019
1328 Clouds 18 1010 75 0 0.45 112 12:58 25.09.2019
1329 Clouds 18 1009 79 0 0.45 135 12:39 25.09.2019
1330 Clouds 17 1010 79 0 0.89 45 12:21 25.09.2019
1331 Clouds 18 1010 76 0 0.45 45 11:55 25.09.2019
1332 Clouds 18 1010 79 0 2.57 124.173 11:36 25.09.2019
1333 Clouds 17 1010 82 0 2.57 124.173 11:18 25.09.2019
1334 Clouds 16 1010 84 0 2.57 124.173 10:41 25.09.2019
1335 Clouds 16 1010 86 0 2.57 124.173 10:23 25.09.2019
1336 Clouds 15 1010 87 0 0.45 135 09:56 25.09.2019
1337 Clouds 14 1010 88 0 0.89 135 09:37 25.09.2019
1338 Clouds 14 1010 88 0 0.45 135 09:19 25.09.2019
1339 Clouds 13 1010 88 0 0.89 135 08:42 25.09.2019
1340 Clouds 13 1010 88 0 0.45 135 08:21 25.09.2019
1341 Clouds 13 1010 88 0 0.45 135 07:57 25.09.2019
1342 Clouds 13 1010 88 0 0.45 135 07:38 25.09.2019
1343 Clouds 13 1010 88 0 0.45 135 07:20 25.09.2019
1344 Clouds 13 1010 88 0 0.45 135 06:43 25.09.2019
1345 Clouds 13 1010 88 0 0.45 135 06:22 25.09.2019
1346 Clouds 13 1010 88 0 0.89 135 05:31 25.09.2019
1347 Clouds 13 1010 88 0 0.89 135 04:55 25.09.2019
1348 Clouds 13 1011 87 0 0.45 135 02:19 25.09.2019
1349 Clouds 13 1012 86 0 0.45 135 00:46 25.09.2019
1350 Clouds 13 1012 86 0 0.89 157 00:26 25.09.2019
1351 Clouds 14 1012 86 0 0.89 135 23:59 24.09.2019
1352 Clouds 14 1012 86 0 0.89 135 23:40 24.09.2019
1353 Clouds 14 1013 86 0 0.89 135 23:21 24.09.2019
1354 Clouds 14 1013 85 0 2.06 139.332 22:39 24.09.2019
1355 Clouds 14 1013 85 0 0.89 135 22:21 24.09.2019
1356 Clouds 14 1013 84 0 3.62 123.826 21:58 24.09.2019
1357 Clouds 14 1013 84 0 3.62 123.826 21:58 24.09.2019
1358 Clouds 14 1013 84 0 3.62 123.826 21:58 24.09.2019
1359 Clouds 14 1013 83 0 3.62 123.826 21:38 24.09.2019
1360 Rain 14 1013 83 0 3.29 124.454 21:19 24.09.2019
1361 Rain 14 1014 83 0 3.29 124.454 20:59 24.09.2019
1362 Rain 14 1014 83 0 0.45 135 20:41 24.09.2019
1363 Rain 14 1014 83 0 0.45 135 20:22 24.09.2019
1364 Rain 15 1013 82 0 3.29 124.454 19:59 24.09.2019
1365 Rain 15 1014 82 0 0.45 135 19:41 24.09.2019
1366 Rain 16 1013 80 0 3.29 124.454 19:18 24.09.2019
1367 Rain 16 1013 79 0 0.45 135 18:55 24.09.2019
1368 Rain 16 1014 77 0 0.45 135 18:37 24.09.2019
1369 Clouds 17 1013 77 0 3.73 79.061 18:19 24.09.2019
1370 Clouds 17 1013 76 0 3.73 79.061 17:55 24.09.2019
1371 Clouds 17 1014 75 0 0.45 135 17:37 24.09.2019
1372 Clouds 18 1014 75 0 0.45 157 17:18 24.09.2019
1373 Clouds 18 1014 74 0 0.45 135 16:41 24.09.2019
1374 Clouds 18 1014 73 0 0.45 157 16:20 24.09.2019
1375 Clouds 18 1015 74 0 3.73 79.061 15:57 24.09.2019
1376 Clouds 18 1015 74 0 3.73 79.061 15:38 24.09.2019
1377 Clouds 18 1015 75 0 1.73 95.248 15:19 24.09.2019
1378 Clouds 18 1016 76 0 0.45 157 14:38 24.09.2019
1379 Clouds 18 1015 76 0 0.45 157 14:18 24.09.2019
1380 Clouds 18 1016 76 0 0.45 157 13:45 24.09.2019
1381 Clouds 18 1016 76 0 0.45 135 13:21 24.09.2019
1382 Clouds 18 1016 76 0 1.58 113.189 12:56 24.09.2019
1383 Clouds 18 1017 77 0 1.58 113.189 12:36 24.09.2019
1384 Clouds 18 1016 78 0 0.45 135 12:18 24.09.2019
1385 Clouds 17 1017 82 0 4.26 158.496 11:41 24.09.2019
1386 Clouds 16 1017 83 0 0.45 157 11:21 24.09.2019
1387 Clouds 14 1017 86 0 0.45 157 10:42 24.09.2019
1388 Clouds 13 1017 86 0 0.45 135 10:23 24.09.2019
1389 Clouds 13 1017 87 0 0.45 135 09:59 24.09.2019
1390 Clouds 13 1017 88 0 0.45 135 09:41 24.09.2019
1391 Clouds 12 1017 87 0 0.45 135 09:20 24.09.2019
1392 Clouds 12 1017 87 0 0.45 135 08:57 24.09.2019
1393 Clouds 12 1017 87 0 0.45 135 08:57 24.09.2019
1394 Clouds 12 1017 87 0 0.45 135 08:38 24.09.2019
1395 Clouds 12 1017 87 0 0.89 135 08:19 24.09.2019
1396 Clouds 12 1017 88 0 0.45 135 07:47 24.09.2019
1397 Clouds 12 1017 88 0 0.89 135 07:25 24.09.2019
1398 Clouds 12 1017 88 0 0.45 135 06:56 24.09.2019
1399 Clouds 12 1017 88 0 0.45 135 06:32 24.09.2019
1400 Clouds 12 1017 88 0 0.89 135 05:51 24.09.2019
1401 Clouds 12 1017 88 0 0.45 135 05:20 24.09.2019
1402 Clouds 11 1018 88 0 0.45 135 03:44 24.09.2019
1403 Clouds 12 1018 87 0 0.45 135 02:57 24.09.2019
1404 Clouds 12 1018 87 0 0.45 157 02:38 24.09.2019
1405 Clouds 12 1019 87 0 0.89 135 01:22 24.09.2019
1406 Clouds 13 1019 86 0 0.89 135 00:37 24.09.2019
1407 Clouds 13 1019 86 0 0.89 135 00:18 24.09.2019
1408 Clouds 13 1019 85 0 0.45 135 23:40 23.09.2019
1409 Clouds 13 1019 85 0 0.89 135 23:21 23.09.2019
1410 Clouds 14 1019 84 0 1.34 135 22:40 23.09.2019
1411 Clouds 14 1019 84 0 1.34 135 22:21 23.09.2019
1412 Clouds 14 1019 84 0 0.45 135 21:58 23.09.2019
1413 Clouds 14 1019 84 0 0.89 135 21:40 23.09.2019
1414 Clouds 14 1019 85 0 0.89 135 21:20 23.09.2019
1415 Clouds 14 1019 84 0 0.89 135 20:56 23.09.2019
1416 Clouds 14 1019 83 0 0.45 112 20:37 23.09.2019
1417 Clouds 15 1019 83 0 0.89 90 20:18 23.09.2019
1418 Clouds 15 1019 81 0 0.45 135 19:40 23.09.2019
1419 Clouds 16 1018 80 0 7.01 97.316 19:21 23.09.2019
1420 Clouds 17 1018 76 0 0.45 112 18:58 23.09.2019
1421 Clouds 18 1018 74 0 0.45 135 18:40 23.09.2019
1422 Clouds 18 1018 74 0 0.45 135 18:40 23.09.2019
1423 Clear 19 1018 71 0 7.42 94.778 18:18 23.09.2019
1424 Clear 19 1018 71 0 7.42 94.778 17:56 23.09.2019
1425 Clear 19 1018 71 0 7.42 94.778 17:38 23.09.2019
1426 Clear 19 1018 71 0 7.42 94.778 17:19 23.09.2019
1427 Clear 16 1015 83 0 7.42 94.778 16:54 23.09.2019
1428 Clear 16 1015 83 0 7.42 94.778 16:36 23.09.2019
1429 Clear 16 1015 83 0 7.42 94.778 16:18 23.09.2019
1430 Clear 16 1015 83 0 7.42 94.778 16:18 23.09.2019
1431 Clear 16 1015 83 0 7.42 94.778 15:55 23.09.2019
1432 Clear 16 1015 83 0 7.42 94.778 15:37 23.09.2019
1433 Clouds 19 1018 67 0 7.54 102.48 15:18 23.09.2019
1434 Clouds 16 1015 79 0 7.54 102.48 14:40 23.09.2019
1435 Clouds 16 1015 79 0 7.54 102.48 14:20 23.09.2019
1436 Clouds 20 1018 65 0 1.34 135 13:58 23.09.2019
1437 Clouds 19 1018 66 0 1.34 135 13:38 23.09.2019
1438 Clear 19 1018 67 0 7.83 101.524 13:18 23.09.2019
1439 Clear 18 1018 70 0 0.45 135 12:44 23.09.2019
1440 Clear 18 1019 71 0 0.45 135 12:23 23.09.2019
1441 Clear 18 1019 74 0 0.89 135 11:58 23.09.2019
1442 Clear 17 1019 75 0 7.98 105.037 11:40 23.09.2019
1443 Clear 17 1019 76 0 0.45 135 11:21 23.09.2019
1444 Clear 16 1019 79 0 0.45 90 10:49 23.09.2019
1445 Clear 16 1019 80 0 0.89 135 10:22 23.09.2019
1446 Clear 14 1019 83 0 1.34 135 09:59 23.09.2019
1447 Clear 14 1019 85 0 0.89 135 09:38 23.09.2019
1448 Clouds 13 1018 87 0 0.89 135 09:19 23.09.2019
1449 Clouds 13 1018 89 0 1.34 135 08:47 23.09.2019
1450 Clouds 13 1018 89 0 7.96 110.72 08:28 23.09.2019
1451 Clouds 12 1018 89 0 0.45 135 07:57 23.09.2019
1452 Clouds 12 1018 89 0 0.45 135 07:28 23.09.2019
1453 Clouds 13 1017 89 0 0.45 135 06:37 23.09.2019
1454 Clouds 13 1017 89 0 8.36 104.846 05:51 23.09.2019
1455 Clouds 13 1017 89 0 8.36 104.846 05:21 23.09.2019
1456 Clouds 13 1017 89 0 8.36 104.846 04:54 23.09.2019
1457 Clouds 14 1017 88 0 8.36 104.846 03:33 23.09.2019
1458 Clear 14 1017 86 0 0.45 135 01:18 23.09.2019
1459 Clear 14 1017 85 0 8.07 98.439 00:23 23.09.2019
1460 Clear 14 1017 84 0 0.89 112 23:56 22.09.2019
1461 Clear 14 1017 83 0 0.45 135 23:33 22.09.2019
1462 Clear 14 1017 81 0 0.89 135 22:59 22.09.2019
1463 Clear 14 1017 80 0 0.89 112 22:41 22.09.2019
1464 Clear 14 1017 79 0 0.45 112 22:22 22.09.2019
1465 Clear 14 1017 78 0 0.45 135 21:55 22.09.2019
1466 Clear 14 1017 78 0 0.45 135 21:55 22.09.2019
1467 Clear 15 1017 78 0 0.45 135 21:36 22.09.2019
1468 Clear 15 1017 77 0 0.45 135 21:18 22.09.2019
1469 Clear 15 1017 76 0 0.45 135 20:42 22.09.2019
1470 Clear 16 1017 75 0 7.1 102.989 20:23 22.09.2019
1471 Clear 16 1016 73 0 7.1 102.989 19:55 22.09.2019
1472 Clear 16 1016 73 0 7.1 102.989 19:55 22.09.2019
1473 Clear 16 1016 71 0 0.45 135 19:37 22.09.2019
1474 Clear 18 1016 64 0 7.1 102.989 19:18 22.09.2019
1475 Clear 16 1014 76 0 7.1 102.989 18:55 22.09.2019
1476 Clear 16 1014 76 0 7.1 102.989 18:36 22.09.2019
1477 Clouds 21 1016 54 0 5.23 95.554 18:18 22.09.2019
1478 Clouds 21 1016 54 0 0.45 135 17:41 22.09.2019
1479 Clouds 18 1013 69 0 5.23 95.554 17:22 22.09.2019
1480 Clouds 18 1013 69 0 5.23 95.554 16:46 22.09.2019
1481 Clouds 18 1013 69 0 5.23 95.554 16:27 22.09.2019
1482 Clouds 18 1013 69 0 5.23 95.554 15:58 22.09.2019
1483 Clouds 18 1013 69 0 5.23 95.554 15:40 22.09.2019
1484 Clouds 18 1015 67 0 3.5 110.648 15:22 22.09.2019
1485 Clouds 18 1015 67 0 3.5 110.648 14:47 22.09.2019
1486 Clouds 18 1015 67 0 3.5 110.648 14:47 22.09.2019
1487 Clouds 18 1015 67 0 3.5 110.648 14:27 22.09.2019
1488 Clouds 23 1018 51 0 0.89 157 13:59 22.09.2019
1489 Clouds 22 1018 51 0 0.45 157 13:41 22.09.2019
1490 Clouds 22 1018 51 0 0.89 180 13:23 22.09.2019
1491 Clouds 22 1018 56 0 0.45 157 12:56 22.09.2019
1492 Clouds 21 1019 58 0 3.34 119.041 12:38 22.09.2019
1493 Clouds 16 1016 75 0 3.29 136.875 12:18 22.09.2019
1494 Clouds 19 1019 65 0 0.89 135 11:43 22.09.2019
1495 -273 0 0 0 0 0 11:24 22.09.2019
1496 Clouds 17 1019 73 0 0.45 135 10:56 22.09.2019
1497 Clouds 16 1020 78 0 0.89 135 10:37 22.09.2019
1498 Clouds 15 1020 83 0 0.45 157 10:19 22.09.2019
1499 Clouds 13 1020 86 0 3.29 136.875 09:43 22.09.2019
1500 Clear 13 1020 87 0 0.45 157 09:21 22.09.2019
1501 Clear 11 1020 87 0 0.45 157 08:56 22.09.2019
1502 Clear 10 1020 87 0 2.94 169.45 08:38 22.09.2019
1503 Clear 9 1020 86 0 2.94 169.45 08:19 22.09.2019
1504 Clear 8 1021 85 0 2.94 169.45 07:43 22.09.2019
1505 Clear 8 1020 85 0 2.94 169.45 07:25 22.09.2019
1506 Clear 8 1020 84 0 2.94 169.45 06:57 22.09.2019
1507 Clear 14 1017 80 0 2.94 169.45 06:34 22.09.2019
1508 Clear 9 1021 82 0 3.29 194.112 03:56 22.09.2019
1509 Clear 14 1019 80 0 3.84 193.106 02:44 22.09.2019
1510 Clear 14 1019 80 0 3.84 193.106 02:24 22.09.2019
1511 Clear 10 1022 82 0 3.84 193.106 01:37 22.09.2019
1512 Clear 10 1022 81 0 3.93 195.189 00:46 22.09.2019
1513 Clear 10 1022 81 0 3.93 195.189 00:27 22.09.2019
1514 Clear 11 1022 81 0 2.27 206.576 23:51 21.09.2019
1515 Clear 11 1022 80 0 2.27 206.576 23:33 21.09.2019
1516 Clear 11 1023 80 0 2.27 206.576 22:46 21.09.2019
1517 Clear 11 1023 79 0 2.27 206.576 22:25 21.09.2019
1518 Clear 12 1023 78 0 2.27 206.576 21:59 21.09.2019
1519 Clear 12 1023 78 0 2.27 206.576 21:59 21.09.2019
1520 Clear 12 1023 78 0 2.27 206.576 21:41 21.09.2019
1521 Clouds 12 1023 77 0 3 251.329 21:19 21.09.2019
1522 Clouds 13 1023 77 0 3 251.329 20:56 21.09.2019
1523 Clear 13 1023 77 0 3.4 250.083 20:36 21.09.2019
1524 Clear 13 1023 76 0 3.4 250.083 20:18 21.09.2019
1525 Clear 14 1023 74 0 3.4 250.083 19:45 21.09.2019
1526 Clear 16 1023 70 0 3.4 250.083 19:21 21.09.2019
1527 Clear 15 1019 84 0 3.4 250.083 18:40 21.09.2019
1528 Clouds 19 1023 65 0 5.37 258.853 18:22 21.09.2019
1529 Clouds 19 1024 67 0 0.45 292 17:43 21.09.2019
1530 Clouds 19 1024 66 0 0.45 292 17:24 21.09.2019
1531 Clouds 19 1024 66 0 0.45 292 16:58 21.09.2019
1532 Clouds 19 1024 66 0 0.89 315 16:39 21.09.2019
1533 Clouds 19 1024 66 0 5.37 258.853 16:20 21.09.2019
1534 Clouds 18 1025 70 0 5.37 258.853 15:45 21.09.2019
1535 Clouds 18 1025 70 0 5.37 258.853 15:45 21.09.2019
1536 Clouds 17 1025 72 0 0.89 315 15:23 21.09.2019
1537 Clouds 17 1025 72 0 0.45 270 14:50 21.09.2019
1538 Clouds 17 1025 72 0 6.31 266.458 14:31 21.09.2019
1539 Clouds 16 1025 75 0 6.31 266.458 13:55 21.09.2019
1540 Clouds 16 1025 75 0 0.45 0 13:37 21.09.2019
1541 Clouds 16 1025 77 0 0.89 292 13:18 21.09.2019
1542 Clouds 16 1025 77 0 0.89 292 12:55 21.09.2019
1543 Clouds 16 1025 78 0 0.89 270 12:37 21.09.2019
1544 Clouds 15 1026 80 0 1.34 315 12:19 21.09.2019
1545 Clouds 15 1026 80 0 1.34 315 12:19 21.09.2019
1546 Clouds 15 1026 82 0 1.34 292 11:43 21.09.2019
1547 Clouds 14 1026 82 0 0.89 292 11:24 21.09.2019
1548 Clouds 14 1026 82 0 0.89 292 11:24 21.09.2019
1549 Clouds 14 1026 82 0 0.89 292 11:24 21.09.2019
1550 Clouds 14 1025 83 0 0.89 292 10:54 21.09.2019
1551 Clouds 14 1026 83 0 0.89 292 10:36 21.09.2019
1552 Clouds 14 1025 84 0 1.79 292 10:18 21.09.2019
1553 Clouds 14 1025 86 0 0.45 292 09:40 21.09.2019
1554 Clouds 13 1025 87 0 0.89 270 09:21 21.09.2019
1555 Clouds 13 1026 89 0 0.89 292 08:59 21.09.2019
1556 Clouds 13 1025 89 0 0.45 292 08:40 21.09.2019
1557 Clouds 13 1025 89 0 8.29 276.251 07:43 21.09.2019
1558 Clouds 13 1025 89 0 8.29 276.251 07:25 21.09.2019
1559 Clouds 13 1025 89 0 0.45 292 06:59 21.09.2019
1560 Clouds 13 1025 89 0 8.29 276.251 06:34 21.09.2019
1561 Clouds 13 1025 89 0 8.29 279.42 05:51 21.09.2019
1562 Clouds 13 1026 88 0 0.45 292 04:38 21.09.2019
1563 Clouds 13 1026 87 0 0.45 247 03:25 21.09.2019
1564 Clouds 13 1026 87 0 8.93 276.444 02:22 21.09.2019
1565 Clouds 13 1026 87 0 8.93 276.444 01:46 21.09.2019
1566 Clouds 13 1026 87 0 8.93 276.444 01:21 21.09.2019
1567 Clouds 13 1027 87 0 0.89 270 00:23 21.09.2019
1568 Clouds 13 1027 87 0 8 273.701 23:48 20.09.2019
1569 Clouds 13 1027 87 0 0.89 270 23:30 20.09.2019
1570 Clouds 13 1027 88 0 0.45 292 22:46 20.09.2019
1571 Clouds 13 1027 88 0 0.89 270 22:26 20.09.2019
1572 Clouds 13 1028 88 0 0.45 270 21:58 20.09.2019
1573 Clouds 13 1028 88 0 0.45 292 21:39 20.09.2019
1574 Clouds 13 1028 88 0 0.45 292 21:21 20.09.2019
1575 Clouds 13 1028 89 0 9.44 271.894 20:59 20.09.2019
1576 Rain 13 1028 89 0 9.05 266.902 20:41 20.09.2019
1577 Rain 13 1028 90 0 0.45 292 20:20 20.09.2019
1578 Rain 13 1028 90 0 9.05 266.902 19:56 20.09.2019
1579 Rain 13 1028 90 0 9.05 266.902 19:37 20.09.2019
1580 Rain 13 1028 90 0 9.05 266.902 19:19 20.09.2019
1581 Rain 13 1028 90 0 0.45 270 18:39 20.09.2019
1582 Rain 13 1028 90 0 10.29 274.329 18:20 20.09.2019
1583 Rain 13 1028 89 0 10.29 274.329 17:57 20.09.2019
1584 Rain 13 1028 89 0 0.45 292 17:39 20.09.2019
1585 Rain 13 1028 88 0 0.45 292 17:20 20.09.2019
1586 Rain 14 1028 85 0 0.89 247 16:41 20.09.2019
1587 Rain 14 1028 83 0 10.29 274.329 16:19 20.09.2019
1588 Rain 14 1029 84 0 10.29 274.329 15:43 20.09.2019
1589 Rain 14 1029 82 0 8.28 276.581 15:23 20.09.2019
1590 Rain 14 1029 81 0 0.45 292 14:59 20.09.2019
1591 Rain 14 1029 78 0 8.28 276.581 14:41 20.09.2019
1592 Rain 16 1030 76 0 0.89 292 14:18 20.09.2019
1593 Rain 15 1030 80 0 1.34 270 13:47 20.09.2019
1594 Clouds 14 1030 83 0 0.89 315 13:27 20.09.2019
1595 Clouds 14 1030 81 0 1.34 292 12:57 20.09.2019
1596 Clouds 14 1030 78 0 1.34 22 12:36 20.09.2019
1597 Clouds 14 1030 76 0 0.89 292 12:18 20.09.2019
1598 Clouds 14 1030 75 0 0.89 292 11:48 20.09.2019
1599 Clouds 13 1030 76 0 1.79 292 11:21 20.09.2019
1600 Clouds 12 1030 81 0 1.34 292 10:43 20.09.2019
1601 Clouds 12 1030 82 0 0.89 292 10:24 20.09.2019
1602 Clouds 12 1030 85 0 0.45 292 09:59 20.09.2019
1603 Clouds 11 1030 87 0 0.89 292 09:37 20.09.2019
1604 Clouds 11 1030 87 0 0.89 292 09:37 20.09.2019
1605 Clouds 11 1030 88 0 7.19 296.857 09:18 20.09.2019
1606 Clouds 9 1030 89 0 7.19 296.857 08:42 20.09.2019
1607 Clouds 9 1030 89 0 7.19 296.857 08:23 20.09.2019
1608 Clouds 9 1030 88 0 7.19 296.857 07:47 20.09.2019
1609 Clouds 9 1030 88 0 6.96 292.226 07:28 20.09.2019
1610 Clouds 8 1030 87 0 6.96 292.226 06:45 20.09.2019
1611 Clouds 8 1030 87 0 6.96 292.226 06:45 20.09.2019
1612 Clouds 8 1030 87 0 6.96 292.226 06:25 20.09.2019
1613 Rain 8 1030 87 0 6.48 303.869 05:50 20.09.2019
1614 Rain 8 1030 82 0 6.48 303.869 03:42 20.09.2019
1615 Clouds 8 1030 82 0 5.04 305.249 03:19 20.09.2019
1616 Clouds 8 1031 81 0 5.04 305.249 01:45 20.09.2019
1617 Clouds 9 1031 81 0 5.48 303.618 01:18 20.09.2019
1618 Clouds 9 1031 81 0 5.48 303.618 00:31 20.09.2019
1619 Clouds 9 1031 80 0 4.38 307.47 23:45 19.09.2019
1620 Clouds 10 1031 81 0 4.38 307.47 23:23 19.09.2019
1621 Clouds 10 1031 81 0 0.89 292 22:57 19.09.2019
1622 Clouds 10 1031 81 0 4.38 307.47 22:38 19.09.2019
1623 Clouds 9 1031 81 0 0.45 315 22:19 19.09.2019
1624 Clouds 9 1030 81 0 0.45 292 21:56 19.09.2019
1625 Clouds 9 1031 80 0 4.38 307.47 21:37 19.09.2019
1626 Clouds 10 1030 79 0 5.98 306.676 21:18 19.09.2019
1627 Clouds 11 1030 79 0 0.45 292 20:43 19.09.2019
1628 Clouds 11 1030 78 0 5.81 326.591 20:23 19.09.2019
1629 Clouds 12 1030 77 0 0.45 292 19:56 19.09.2019
1630 Clouds 12 1030 76 0 1.34 292 19:38 19.09.2019
1631 Clouds 13 1030 73 0 1.34 315 19:19 19.09.2019
1632 Clouds 14 1030 72 0 1.34 292 18:55 19.09.2019
1633 Clouds 14 1030 70 0 1.79 315 18:37 19.09.2019
1634 Clouds 14 1030 68 0 1.34 315 18:18 19.09.2019
1635 Clouds 14 1030 68 0 1.34 315 18:18 19.09.2019
1636 Clouds 15 1030 64 0 1.34 315 17:42 19.09.2019
1637 Clouds 15 1030 61 0 0.89 315 17:23 19.09.2019
1638 Clouds 16 1030 62 0 0.45 315 16:58 19.09.2019
1639 Clouds 16 1030 62 0 0.89 337 16:39 19.09.2019
1640 Clouds 16 1030 63 0 6.84 294.077 16:19 19.09.2019
1641 Clouds 16 1030 63 0 0.45 0 15:39 19.09.2019
1642 Clouds 16 1030 65 0 0.89 0 15:20 19.09.2019
1643 Clouds 17 1030 63 0 1.79 292 14:57 19.09.2019
1644 Clouds 17 1030 63 0 5.77 302.203 14:38 19.09.2019
1645 Clouds 16 1030 61 0 0.45 292 14:18 19.09.2019
1646 Clouds 16 1030 61 0 0.89 315 13:40 19.09.2019
1647 Clouds 16 1030 61 0 0.89 315 13:40 19.09.2019
1648 Clouds 16 1030 63 0 5.72 297.892 13:20 19.09.2019
1649 Clouds 15 1030 66 0 0.89 315 12:40 19.09.2019
1650 Clouds 15 1030 66 0 0.89 315 12:40 19.09.2019
1651 Rain 14 1030 72 0 1.34 337 12:20 19.09.2019
1652 Rain 14 1030 73 0 1.34 22 11:59 19.09.2019
1653 Rain 14 1030 76 0 0.89 315 11:40 19.09.2019
1654 Rain 14 1030 76 0 1.34 292 11:21 19.09.2019
1655 Rain 13 1029 80 0 0.89 292 10:57 19.09.2019
1656 Rain 13 1029 83 0 1.34 315 10:37 19.09.2019
1657 Rain 12 1029 87 0 0.89 315 10:18 19.09.2019
1658 Rain 11 1029 88 0 1.79 315 09:42 19.09.2019
1659 Rain 11 1028 89 0 1.34 292 09:22 19.09.2019
1660 Rain 10 1028 90 0 0.45 292 08:57 19.09.2019
1661 Rain 13 1024 71 0 6.18 326.439 08:38 19.09.2019
1662 Rain 13 1024 71 0 6.18 326.439 08:19 19.09.2019
1663 Rain 13 1024 71 0 6.18 326.439 07:43 19.09.2019
1664 Rain 13 1024 71 0 6.18 326.439 07:22 19.09.2019
1665 Rain 13 1024 71 0 6.18 326.439 06:48 19.09.2019
1666 Rain 13 1024 71 0 6.18 326.439 06:28 19.09.2019
1667 Clear 13 1023 68 0 6.58 317.272 05:52 19.09.2019
1668 Clear 13 1023 68 0 6.58 317.272 04:58 19.09.2019
1669 Clear 13 1023 68 0 6.58 317.272 03:52 19.09.2019
1670 Clear 13 1022 66 0 6.92 331.967 02:47 19.09.2019
1671 Clear 13 1022 64 0 6.67 331.768 01:32 19.09.2019
1672 Clear 13 1022 64 0 6.67 331.768 00:50 19.09.2019
1673 Clear 13 1022 64 0 6.67 331.768 00:26 19.09.2019
1674 Rain 13 1021 69 0 7.89 328.149 23:42 18.09.2019
1675 Rain 9 1025 82 0 0.89 292 23:22 18.09.2019
1676 Rain 9 1025 82 0 7.89 328.149 22:55 18.09.2019
1677 Rain 9 1025 83 0 1.79 292 22:37 18.09.2019
1678 Rain 9 1024 81 0 0.89 292 22:18 18.09.2019
1679 Rain 9 1024 81 0 7.89 328.149 21:55 18.09.2019
1680 Rain 9 1024 81 0 0.45 292 21:37 18.09.2019
1681 Rain 9 1024 80 0 0.89 292 21:18 18.09.2019
1682 Clouds 9 1024 80 0 0.45 292 20:55 18.09.2019
1683 Clouds 9 1024 80 0 8.7 314.199 20:37 18.09.2019
1684 Clouds 9 1024 79 0 0.45 292 20:18 18.09.2019
1685 Clouds 10 1023 78 0 0.45 292 19:54 18.09.2019
1686 Clouds 10 1023 77 0 0.89 270 19:36 18.09.2019
1687 Clouds 11 1023 75 0 0.45 292 19:18 18.09.2019
1688 Clouds 11 1023 74 0 0.45 292 18:54 18.09.2019
1689 Clouds 12 1023 71 0 1.34 270 18:36 18.09.2019
1690 Clouds 13 1023 67 0 0.89 292 18:18 18.09.2019
1691 Clouds 13 1023 65 0 0.89 292 17:40 18.09.2019
1692 Clouds 14 1023 63 0 1.79 292 17:19 18.09.2019
1693 Clouds 14 1023 61 0 1.34 292 16:58 18.09.2019
1694 Clouds 14 1023 60 0 1.79 337 16:39 18.09.2019
1695 Clouds 14 1023 61 0 1.34 337 16:21 18.09.2019
1696 Clouds 13 1023 65 0 2.68 315 15:56 18.09.2019
1697 Clouds 13 1023 64 0 0.89 315 15:38 18.09.2019
1698 Clouds 14 1023 64 0 1.79 292 15:20 18.09.2019
1699 Clouds 13 1023 67 0 1.34 337 14:58 18.09.2019
1700 Clouds 13 1023 67 0 1.79 315 14:40 18.09.2019
1701 Clouds 13 1023 70 0 1.34 270 14:21 18.09.2019
1702 Clouds 14 1023 68 0 1.34 90 13:58 18.09.2019
1703 Clouds 14 1023 68 0 1.34 90 13:58 18.09.2019
1704 Clouds 13 1023 69 0 2.68 337 13:37 18.09.2019
1705 Clear 14 1023 69 0 2.24 315 13:18 18.09.2019
1706 Clear 14 1023 69 0 2.68 315 12:44 18.09.2019
1707 Clear 14 1023 70 0 2.68 337 12:26 18.09.2019
1708 Clear 13 1023 73 0 0.89 292 11:40 18.09.2019
1709 Clear 13 1022 75 0 2.24 315 11:20 18.09.2019
1710 Clear 12 1022 78 0 2.24 337 10:58 18.09.2019
1711 Clear 12 1022 80 0 2.68 315 10:40 18.09.2019
1712 Clear 12 1022 80 0 1.34 292 10:20 18.09.2019
1713 Clear 12 1022 80 0 1.34 292 10:20 18.09.2019
1714 Clear 12 1022 84 0 1.79 270 09:58 18.09.2019
1715 Clear 11 1022 85 0 2.68 292 09:37 18.09.2019
1716 Clear 10 1022 87 0 1.34 270 09:19 18.09.2019
1717 Clear 12 1017 76 0 10.67 302.446 08:41 18.09.2019
1718 Clear 12 1017 76 0 10.67 302.446 08:41 18.09.2019
1719 Clear 12 1017 76 0 10.67 302.446 08:23 18.09.2019
1720 Clear 12 1017 76 0 10.67 302.446 07:52 18.09.2019
1721 Clear 12 1017 76 0 10.67 302.446 07:33 18.09.2019
1722 Clear 12 1017 76 0 10.67 302.446 06:55 18.09.2019
1723 Clear 12 1017 76 0 10.67 302.446 06:35 18.09.2019
1724 Clear 13 1015 63 0 10.9 308.985 05:41 18.09.2019
1725 Clear 13 1015 63 0 10.9 308.985 04:43 18.09.2019
1726 Clear 10 1018 79 0 11.18 322.536 02:41 18.09.2019
1727 Clear 9 1018 82 0 0.89 292 02:18 18.09.2019
1728 Rain 9 1017 80 0 2.24 315 01:21 18.09.2019
1729 Rain 10 1017 77 0 0.89 0 00:48 18.09.2019
1730 Rain 11 1016 75 0 0.89 270 00:20 18.09.2019
1731 Rain 10 1016 78 0 0.45 270 23:44 17.09.2019
1732 Rain 9 1015 78 0 0.45 247 23:22 17.09.2019
1733 Rain 10 1015 74 0 1.34 315 22:43 17.09.2019
1734 Rain 10 1015 76 0 0.45 22 22:24 17.09.2019
1735 Rain 10 1014 77 0 2.24 292 21:55 17.09.2019
1736 Rain 10 1014 77 0 3.58 292 21:37 17.09.2019
1737 Rain 10 1014 76 0 2.68 315 21:19 17.09.2019
1738 Rain 10 1013 74 0 4.02 315 20:58 17.09.2019
1739 Rain 10 1013 74 0 4.02 315 20:58 17.09.2019
1740 Rain 10 1013 77 0 2.24 315 20:40 17.09.2019
1741 Rain 10 1013 77 0 1.79 292 20:22 17.09.2019
1742 Rain 10 1013 74 0 1.79 247 19:58 17.09.2019
1743 Rain 11 1012 73 0 1.79 315 19:39 17.09.2019
1744 Rain 11 1012 74 0 3.13 315 19:19 17.09.2019
1745 Rain 11 1012 70 0 3.13 315 18:57 17.09.2019
1746 Rain 12 1012 66 0 3.13 292 18:38 17.09.2019
1747 Rain 13 1012 62 0 3.13 315 18:20 17.09.2019
1748 Rain 12 1012 69 0 2.24 315 17:46 17.09.2019
1749 Rain 12 1012 69 0 2.24 315 17:46 17.09.2019
1750 Rain 12 1012 69 0 2.24 292 17:20 17.09.2019
1751 Rain 11 1012 76 0 1.34 292 16:58 17.09.2019
1752 Rain 11 1012 76 0 1.34 270 16:40 17.09.2019
1753 Rain 11 1012 74 0 2.68 292 16:21 17.09.2019
1754 Rain 10 1012 74 0 2.68 292 15:40 17.09.2019
1755 Rain 11 1012 70 0 4.02 315 15:21 17.09.2019
1756 Rain 12 1012 72 0 4.02 315 14:57 17.09.2019
1757 Rain 12 1012 78 0 1.34 315 14:39 17.09.2019
1758 Rain 11 1012 78 0 2.68 292 14:19 17.09.2019
1759 Rain 11 1013 81 0 2.68 292 13:57 17.09.2019
1760 Rain 11 1013 76 0 0.89 270 13:39 17.09.2019
1761 Rain 14 1012 68 0 2.24 315 13:21 17.09.2019
1762 Rain 13 1012 77 0 1.79 292 12:43 17.09.2019
1763 Rain 13 1013 83 0 1.34 292 12:20 17.09.2019
1764 Rain 12 1013 84 0 0.89 270 11:57 17.09.2019
1765 Rain 12 1013 84 0 1.34 315 11:38 17.09.2019
1766 Rain 12 1013 84 0 1.34 315 11:38 17.09.2019
1767 Rain 11 1013 83 0 0.89 270 11:18 17.09.2019
1768 Rain 11 1013 83 0 0.89 270 11:18 17.09.2019
1769 Rain 11 1013 85 0 0.89 292 10:41 17.09.2019
1770 Rain 11 1014 85 0 0.45 270 10:21 17.09.2019
1771 Rain 11 1014 86 0 0.89 225 09:58 17.09.2019
1772 Rain 11 1014 86 0 0.89 292 09:39 17.09.2019
1773 Rain 11 1014 85 0 1.79 292 09:19 17.09.2019
1774 Rain 11 1014 87 0 0.89 225 08:44 17.09.2019
1775 Rain 11 1014 87 0 0.45 292 08:25 17.09.2019
1776 Rain 11 1014 87 0 0.45 292 08:25 17.09.2019
1777 Rain 10 1014 88 0 0.45 270 07:54 17.09.2019
1778 Rain 10 1014 88 0 11.98 284.22 07:36 17.09.2019
1779 Rain 10 1015 88 0 0.45 225 07:18 17.09.2019
1780 Rain 9 1015 88 0 11.98 284.22 06:44 17.09.2019
1781 Rain 10 1015 87 0 0.45 247 05:58 17.09.2019
1782 Rain 10 1016 86 0 0.45 292 05:33 17.09.2019
1783 Rain 10 1017 85 0 11.12 290.968 04:21 17.09.2019
1784 Rain 11 1017 83 0 0.89 292 02:41 17.09.2019
1785 -273 0 0 0 0 0 01:55 17.09.2019
1786 Rain 11 1018 82 0 10.21 288.462 00:59 17.09.2019
1787 Rain 14 1014 68 0 10.06 293.175 00:22 17.09.2019
1788 Rain 10 1018 78 0 0.45 292 23:37 16.09.2019
1789 Rain 11 1018 78 0 0.45 292 23:18 16.09.2019
1790 Rain 11 1018 78 0 1.34 292 22:42 16.09.2019
1791 Rain 11 1018 78 0 1.34 270 22:24 16.09.2019
1792 Rain 11 1018 76 0 0.89 270 21:59 16.09.2019
1793 Rain 11 1018 76 0 0.45 292 21:40 16.09.2019
1794 Rain 11 1018 75 0 0.45 292 21:21 16.09.2019
1795 Rain 12 1019 72 0 0.45 292 20:58 16.09.2019
1796 Rain 12 1019 71 0 0.45 270 20:39 16.09.2019
1797 Rain 13 1019 69 0 0.89 292 20:19 16.09.2019
1798 Rain 13 1018 68 0 1.34 292 19:56 16.09.2019
1799 Rain 13 1018 66 0 0.89 292 19:38 16.09.2019
1800 Rain 14 1019 60 0 0.45 292 19:18 16.09.2019
1801 Rain 16 1019 57 0 1.34 292 18:44 16.09.2019
1802 Rain 16 1019 56 0 1.79 270 18:25 16.09.2019
1803 Rain 16 1018 56 0 1.34 315 17:56 16.09.2019
1804 Rain 16 1018 56 0 1.34 315 17:56 16.09.2019
1805 Rain 16 1018 55 0 2.68 315 17:37 16.09.2019
1806 Rain 16 1018 54 0 1.79 315 17:19 16.09.2019
1807 Rain 17 1019 53 0 2.68 292 16:44 16.09.2019
1808 Rain 17 1019 53 0 1.79 315 16:22 16.09.2019
1809 Rain 17 1019 54 0 1.79 315 15:57 16.09.2019
1810 Rain 17 1019 54 0 2.24 315 15:39 16.09.2019
1811 Rain 16 1019 60 0 1.34 0 15:20 16.09.2019
1812 Rain 16 1019 59 0 2.68 315 14:58 16.09.2019
1813 Rain 16 1019 60 0 2.68 292 14:40 16.09.2019
1814 Rain 16 1019 59 0 1.79 315 14:21 16.09.2019
1815 Rain 16 1019 57 0 1.79 292 13:55 16.09.2019
1816 Rain 16 1019 60 0 3.13 292 13:37 16.09.2019
1817 Clouds 16 1019 63 0 0.89 292 13:18 16.09.2019
1818 Clouds 16 1019 63 0 0.89 292 13:18 16.09.2019
1819 Clouds 15 1019 64 0 2.24 292 12:40 16.09.2019
1820 Clouds 15 1019 63 0 1.34 292 12:22 16.09.2019
1821 Clouds 15 1019 67 0 1.79 315 11:54 16.09.2019
1822 Clouds 14 1019 65 0 0.89 292 11:36 16.09.2019
1823 Clouds 15 1019 60 0 1.79 315 11:18 16.09.2019
1824 Clouds 15 1019 60 0 1.79 292 10:38 16.09.2019
1825 Clouds 14 1019 65 0 2.24 315 10:19 16.09.2019
1826 Clouds 13 1020 69 0 2.24 292 09:57 16.09.2019
1827 Clouds 13 1020 73 0 1.79 292 09:38 16.09.2019
1828 Clouds 12 1020 80 0 0.89 225 09:18 16.09.2019
1829 Clouds 11 1020 80 0 0.45 292 08:42 16.09.2019
1830 Clouds 11 1020 81 0 11.89 288.2 08:24 16.09.2019
1831 Clouds 10 1020 80 0 0.45 292 07:56 16.09.2019
1832 Clouds 10 1019 80 0 0.89 315 07:37 16.09.2019
1833 Clouds 9 1019 81 0 0.45 292 07:18 16.09.2019
1834 Clouds 9 1019 79 0 0.45 270 06:43 16.09.2019
1835 Clouds 13 1016 73 0 11.89 288.2 06:25 16.09.2019
1836 Clouds 14 1016 72 0 12.31 293.085 05:44 16.09.2019
1837 Clouds 14 1016 72 0 12.31 293.085 05:25 16.09.2019
1838 Clouds 14 1016 72 0 12.31 293.085 03:52 16.09.2019
1839 Clouds 14 1016 72 0 12.31 293.085 03:52 16.09.2019
1840 Clouds 12 1020 74 0 0.89 292 01:57 16.09.2019
1841 Clouds 12 1020 77 0 1.34 292 00:40 16.09.2019
1842 Clouds 13 1019 78 0 0.45 292 00:22 16.09.2019
1843 Clouds 13 1019 77 0 0.45 292 23:41 15.09.2019
1844 Clouds 13 1019 76 0 0.89 292 23:21 15.09.2019
1845 Clouds 13 1019 73 0 1.79 292 22:43 15.09.2019
1846 Clouds 13 1019 73 0 2.68 315 22:23 15.09.2019
1847 Clouds 14 1019 76 0 2.24 337 21:58 15.09.2019
1848 Clouds 14 1019 75 0 0.45 292 21:40 15.09.2019
1849 Clouds 14 1019 74 0 0.89 315 21:22 15.09.2019
1850 Clouds 14 1019 73 0 2.24 292 20:59 15.09.2019
1851 Clouds 14 1019 73 0 2.24 292 20:59 15.09.2019
1852 Clouds 14 1019 73 0 1.34 292 20:41 15.09.2019
1853 Clouds 14 1019 73 0 1.34 292 20:23 15.09.2019
1854 Clouds 14 1019 74 0 2.24 315 19:45 15.09.2019
1855 Clouds 15 1018 75 0 3.13 292 19:25 15.09.2019
1856 Clouds 16 1018 84 0 1.79 270 18:55 15.09.2019
1857 Clouds 16 1018 85 0 1.34 292 18:36 15.09.2019
1858 Rain 16 1018 87 0 13.2 277.919 18:18 15.09.2019
1859 Rain 16 1018 87 0 1.79 270 17:41 15.09.2019
1860 Rain 16 1018 87 0 0.89 292 17:21 15.09.2019
1861 Rain 16 1018 84 0 2.24 292 16:55 15.09.2019
1862 Rain 16 1018 83 0 1.34 270 16:37 15.09.2019
1863 Rain 16 1018 83 0 1.34 270 16:37 15.09.2019
1864 Rain 18 1018 74 0 1.79 292 16:18 15.09.2019
1865 Rain 18 1018 74 0 1.79 292 16:18 15.09.2019
1866 Rain 18 1018 71 0 4.02 292 15:41 15.09.2019
1867 Clouds 18 1018 71 0 1.79 315 15:21 15.09.2019
1868 Clouds 19 1018 67 0 1.79 292 14:59 15.09.2019
1869 Clouds 19 1018 64 0 0.89 270 14:41 15.09.2019
1870 Clouds 20 1018 64 0 2.24 292 14:23 15.09.2019
1871 Clouds 19 1018 63 0 1.34 247 13:48 15.09.2019
1872 Rain 19 1019 61 0 1.34 292 13:26 15.09.2019
1873 Rain 19 1019 58 0 0.45 247 13:00 15.09.2019
1874 Rain 19 1019 57 0 0.89 202 12:40 15.09.2019
1875 Clouds 19 1019 58 0 0.89 270 12:22 15.09.2019
1876 Clouds 17 1019 58 0 0.89 270 11:43 15.09.2019
1877 Clouds 17 1019 59 0 14.22 255.355 11:24 15.09.2019
1878 Clouds 16 1020 61 0 14.22 255.355 10:59 15.09.2019
1879 Clouds 16 1020 62 0 0.45 292 10:40 15.09.2019
1880 Clouds 16 1020 64 0 0.45 315 10:21 15.09.2019
1881 Clouds 14 1020 67 0 0.45 225 09:57 15.09.2019
1882 Clouds 14 1020 67 0 0.89 247 09:36 15.09.2019
1883 Clouds 14 1021 68 0 0.45 247 09:18 15.09.2019
1884 Clouds 13 1021 72 0 0.45 247 08:41 15.09.2019
1885 Clouds 12 1022 75 0 0.45 225 08:20 15.09.2019
1886 Clouds 11 1021 76 0 0.89 225 07:47 15.09.2019
1887 Clouds 10 1022 76 0 0.45 202 06:59 15.09.2019
1888 Clouds 10 1022 76 0 0.45 202 06:59 15.09.2019
1889 Clouds 10 1023 77 0 12.06 236.079 06:31 15.09.2019
1890 Clouds 9 1026 77 0 0.45 202 03:24 15.09.2019
1891 Clouds 10 1027 76 0 8.81 227.567 02:23 15.09.2019
1892 Clouds 10 1028 76 0 8.81 227.567 01:38 15.09.2019
1893 Clouds 10 1029 76 0 0.45 180 00:58 15.09.2019
1894 Clouds 10 1029 76 0 0.45 180 00:39 15.09.2019
1895 Clouds 10 1029 75 0 0.45 180 00:19 15.09.2019
1896 Clouds 10 1030 75 0 0.45 180 23:57 14.09.2019
1897 Clouds 10 1030 74 0 0.45 202 23:39 14.09.2019
1898 Clouds 10 1030 74 0 0.45 202 23:39 14.09.2019
1899 Clouds 10 1030 73 0 0.45 202 23:19 14.09.2019
1900 Clouds 11 1030 72 0 7.27 221.186 22:58 14.09.2019
1901 Clouds 11 1031 72 0 7.27 221.186 22:39 14.09.2019
1902 Clouds 11 1031 71 0 7.27 221.186 22:19 14.09.2019
1903 Clouds 12 1031 69 0 7.27 221.186 21:40 14.09.2019
1904 Clouds 12 1032 69 0 5.66 257.182 21:21 14.09.2019
1905 Clouds 12 1032 67 0 5.66 257.182 20:59 14.09.2019
1906 Clouds 12 1032 67 0 5.66 257.182 20:59 14.09.2019
1907 Clouds 12 1032 65 0 5.57 253.225 20:40 14.09.2019
1908 Clouds 13 1032 64 0 5.57 253.225 20:22 14.09.2019
1909 Clouds 14 1033 62 0 5.57 253.225 19:52 14.09.2019
1910 Clouds 15 1033 59 0 5.57 253.225 19:23 14.09.2019
1911 Clouds 16 1033 55 0 0.45 292 18:59 14.09.2019
1912 Clouds 17 1033 52 0 0.89 315 18:40 14.09.2019
1913 Clouds 18 1033 52 0 0.45 292 18:21 14.09.2019
1914 Clouds 18 1033 51 0 0.89 292 17:58 14.09.2019
1915 Clouds 18 1034 51 0 1.34 315 17:39 14.09.2019
1916 Clouds 18 1034 55 0 0.45 315 17:21 14.09.2019
1917 Clouds 18 1034 54 0 0.45 337 16:44 14.09.2019
1918 Clouds 18 1034 54 0 0.45 0 16:22 14.09.2019
1919 Clouds 17 1035 57 0 1.34 337 15:56 14.09.2019
1920 Clouds 17 1035 56 0 1.34 315 15:37 14.09.2019
1921 Clouds 18 1035 56 0 0.45 0 15:18 14.09.2019
1922 Clouds 17 1035 55 0 0.89 315 14:43 14.09.2019
1923 Clouds 17 1035 55 0 0.89 315 14:43 14.09.2019
1924 Clouds 18 1035 58 0 0.45 315 14:19 14.09.2019
1925 Clouds 17 1035 55 0 1.34 315 13:48 14.09.2019
1926 Clouds 17 1036 58 0 0.89 315 13:22 14.09.2019
1927 Clouds 17 1036 58 0 1.34 0 12:48 14.09.2019
1928 Clouds 17 1036 59 0 7.57 272.967 12:28 14.09.2019
1929 Clouds 17 1036 62 0 1.34 337 11:56 14.09.2019
1930 Clouds 16 1037 63 0 1.79 315 11:37 14.09.2019
1931 Clouds 16 1036 67 0 0.89 22 11:19 14.09.2019
1932 Clouds 15 1037 70 0 1.34 270 10:38 14.09.2019
1933 Clouds 14 1037 74 0 0.89 292 10:20 14.09.2019
1934 Clouds 14 1037 76 0 1.79 315 09:57 14.09.2019
1935 Clouds 13 1037 77 0 0.89 315 09:39 14.09.2019
1936 Clouds 13 1036 81 0 1.79 292 09:19 14.09.2019
1937 Clouds 12 1036 84 0 1.79 292 08:46 14.09.2019
1938 Clouds 11 1036 85 0 0.89 292 08:23 14.09.2019
1939 Clouds 14 1032 74 0 7.03 302.813 07:47 14.09.2019
1940 Clouds 14 1032 74 0 7.03 302.813 07:28 14.09.2019
1941 Clouds 14 1032 74 0 7.03 302.813 06:52 14.09.2019
1942 Clouds 14 1032 74 0 7.03 302.813 06:52 14.09.2019
1943 Clouds 14 1032 74 0 7.03 302.813 06:28 14.09.2019
1944 Clouds 14 1032 74 0 7.03 302.813 06:28 14.09.2019
1945 Clear 14 1032 75 0 7.39 299.784 05:26 14.09.2019
1946 Clear 10 1035 84 0 0.45 292 03:46 14.09.2019
1947 Clouds 14 1032 71 0 8.06 308.945 02:54 14.09.2019
1948 Clouds 11 1036 82 0 8.06 308.945 01:54 14.09.2019
1949 Clouds 11 1036 81 0 0.45 292 01:23 14.09.2019
1950 Clouds 11 1036 81 0 0.45 292 01:23 14.09.2019
1951 Clouds 11 1035 81 0 7.82 307.019 00:59 14.09.2019
1952 Clouds 11 1035 81 0 0.89 292 00:39 14.09.2019
1953 Clouds 15 1031 69 0 9.19 313.65 00:20 14.09.2019
1954 Clouds 12 1035 80 0 9.19 313.65 23:38 13.09.2019
1955 Clouds 12 1035 79 0 9.19 313.65 23:19 13.09.2019
1956 Clouds 12 1034 79 0 0.45 292 22:59 13.09.2019
1957 Clouds 12 1034 80 0 9.19 313.65 22:39 13.09.2019
1958 Clouds 12 1034 79 0 0.45 292 22:20 13.09.2019
1959 Clouds 12 1034 78 0 9.19 313.65 21:55 13.09.2019
1960 Clouds 12 1034 77 0 9.19 313.65 21:37 13.09.2019
1961 Clouds 13 1034 77 0 10.17 309.278 21:18 13.09.2019
1962 Clouds 13 1033 76 0 10.17 309.278 20:55 13.09.2019
1963 Clouds 13 1033 76 0 9.69 309.076 20:36 13.09.2019
1964 Clouds 14 1033 72 0 9.69 309.076 20:18 13.09.2019
1965 Clouds 15 1033 70 0 9.69 309.076 19:42 13.09.2019
1966 Clouds 15 1033 68 0 9.69 309.076 19:21 13.09.2019
1967 Clouds 16 1033 63 0 1.34 315 18:58 13.09.2019
1968 Clouds 17 1032 61 0 0.89 292 18:37 13.09.2019
1969 Clouds 17 1032 61 0 0.89 292 18:37 13.09.2019
1970 Clouds 17 1032 56 0 1.34 0 18:19 13.09.2019
1971 Clouds 18 1032 57 0 10.64 305.742 17:43 13.09.2019
1972 Clouds 18 1032 57 0 1.79 292 17:20 13.09.2019
1973 Clouds 18 1032 57 0 1.34 22 16:56 13.09.2019
1974 Clouds 18 1032 57 0 1.34 292 16:37 13.09.2019
1975 Clouds 19 1032 54 0 0.45 22 16:18 13.09.2019
1976 Clouds 19 1032 57 0 2.24 292 15:41 13.09.2019
1977 Clouds 18 1032 59 0 1.34 315 15:23 13.09.2019
1978 Clouds 18 1031 59 0 1.79 315 14:55 13.09.2019
1979 -273 0 0 0 0 0 14:55 13.09.2019
1980 Clouds 18 1031 59 0 1.79 315 14:55 13.09.2019
1981 Clouds 18 1031 60 0 1.79 315 14:36 13.09.2019
1982 Clouds 18 1031 63 0 0.89 337 14:18 13.09.2019
1983 Clouds 18 1030 63 0 1.34 337 13:40 13.09.2019
1984 Clouds 18 1030 67 0 0.45 292 13:22 13.09.2019
1985 Clouds 18 1029 67 0 0.89 337 12:45 13.09.2019
1986 -273 0 0 0 0 0 12:25 13.09.2019
1987 Clouds 18 1029 68 0 1.34 315 12:25 13.09.2019
1988 Rain 17 1029 72 0 0.45 315 11:57 13.09.2019
1989 Rain 17 1028 80 0 0.45 315 11:20 13.09.2019
1990 Rain 17 1028 83 0 0.89 315 10:57 13.09.2019
1991 Rain 16 1027 85 0 0.89 292 10:37 13.09.2019
1992 Rain 17 1027 85 0 0.89 292 10:18 13.09.2019
1993 Rain 18 1026 81 0 1.34 247 09:43 13.09.2019
1994 Rain 18 1026 81 0 1.34 247 09:43 13.09.2019
1995 Rain 18 1026 83 0 0.89 292 09:20 13.09.2019
1996 Rain 17 1025 82 0 0.89 225 08:57 13.09.2019
1997 Rain 17 1025 83 0 0.89 315 08:39 13.09.2019
1998 Rain 17 1025 83 0 12.69 257.088 08:20 13.09.2019
1999 Rain 16 1025 83 0 12.69 257.088 07:41 13.09.2019
2000 Rain 16 1025 83 0 12.69 257.088 07:22 13.09.2019
2001 Rain 16 1025 83 0 0.45 225 06:38 13.09.2019
2002 Rain 16 1021 86 0 9.55 234.569 05:39 13.09.2019
2003 Rain 14 1026 82 0 9.55 234.569 04:34 13.09.2019
2004 Rain 14 1026 81 0 9.55 234.569 03:37 13.09.2019
2005 Clouds 13 1027 80 0 7.46 229.006 02:20 13.09.2019
2006 Clouds 13 1027 80 0 7.46 229.006 01:38 13.09.2019
2007 Clouds 13 1027 80 0 8.18 242.435 01:18 13.09.2019
2008 Clouds 13 1028 79 0 8.18 242.435 00:36 13.09.2019
2009 Clouds 13 1028 78 0 9.16 260.551 23:54 12.09.2019
2010 Clouds 14 1028 78 0 9.16 260.551 23:35 12.09.2019
2011 Clouds 14 1028 78 0 9.16 260.551 22:59 12.09.2019
2012 Clouds 14 1028 78 0 9.16 260.551 22:40 12.09.2019
2013 Clouds 14 1028 77 0 9.16 260.551 22:22 12.09.2019
2014 Clouds 14 1029 76 0 9.16 260.551 21:56 12.09.2019
2015 Clouds 14 1029 76 0 9.16 260.551 21:37 12.09.2019
2016 Rain 15 1028 75 0 7.38 249.315 21:19 12.09.2019
2017 Rain 15 1028 75 0 7.38 249.315 21:19 12.09.2019
2018 -273 0 0 0 0 0 20:55 12.09.2019
2019 Rain 16 1028 73 0 7.25 252.514 20:37 12.09.2019
2020 Rain 17 1028 70 0 7.25 252.514 20:19 12.09.2019
2021 Rain 18 1028 67 0 7.25 252.514 19:41 12.09.2019
2022 Rain 20 1028 65 0 7.25 252.514 19:20 12.09.2019
2023 Rain 17 1024 78 0 7.25 252.514 18:58 12.09.2019
2024 Rain 17 1024 78 0 7.25 252.514 18:37 12.09.2019
2025 Rain 21 1028 63 0 0.45 292 18:18 12.09.2019
2026 Rain 20 1028 62 0 0.45 270 17:54 12.09.2019
2027 Rain 21 1028 63 0 0.45 292 17:36 12.09.2019
2028 Rain 20 1028 64 0 0.45 292 17:18 12.09.2019
2029 Rain 20 1028 64 0 0.45 315 16:41 12.09.2019
2030 Rain 21 1028 60 0 0.89 292 16:21 12.09.2019
2031 Rain 20 1028 63 0 1.79 292 15:43 12.09.2019
2032 Rain 20 1028 64 0 0.45 247 15:24 12.09.2019
2033 Rain 19 1028 66 0 8.44 254.662 14:56 12.09.2019
2034 Rain 19 1028 64 0 8.44 254.662 14:38 12.09.2019
2035 Rain 20 1028 61 0 8.44 254.662 14:20 12.09.2019
2036 Rain 21 1028 62 0 0.89 292 13:39 12.09.2019
2037 Rain 21 1028 65 0 8.48 259.398 13:21 12.09.2019
2038 Rain 19 1028 67 0 8.48 259.398 12:49 12.09.2019
2039 Rain 18 1028 70 0 8.19 252.357 12:20 12.09.2019
2040 Rain 19 1028 68 0 0.89 292 11:58 12.09.2019
2041 Rain 18 1028 71 0 1.79 315 11:40 12.09.2019
2042 Rain 18 1028 71 0 8.19 252.357 11:21 12.09.2019
2043 Rain 18 1028 76 0 0.89 315 10:54 12.09.2019
2044 Rain 17 1028 78 0 8.19 252.357 10:36 12.09.2019
2045 Rain 17 1027 83 0 1.34 315 10:18 12.09.2019
2046 Rain 16 1027 86 0 8.19 252.357 09:42 12.09.2019
2047 Rain 15 1027 88 0 8.2 266.043 09:20 12.09.2019
2048 Clouds 14 1026 89 0 0.45 270 08:45 12.09.2019
2049 -273 0 0 0 0 0 08:25 12.09.2019
2050 Clouds 14 1026 90 0 0.45 292 07:56 12.09.2019
2051 Clouds 13 1025 89 0 8.13 269.852 07:36 12.09.2019
2052 Clouds 13 1025 89 0 8.13 269.852 07:18 12.09.2019
2053 Clouds 13 1025 89 0 8.13 269.852 06:46 12.09.2019
2054 Rain 13 1025 89 0 9.63 265.839 06:19 12.09.2019
2055 Rain 13 1025 88 0 9.63 265.839 05:43 12.09.2019
2056 Rain 13 1024 88 0 9.63 265.839 05:19 12.09.2019
2057 Rain 14 1024 88 0 0.45 315 03:59 12.09.2019
2058 Clouds 14 1023 85 0 0.45 292 01:45 12.09.2019
2059 Clouds 14 1023 84 0 10.87 240.938 01:27 12.09.2019
2060 Clouds 15 1022 80 0 0.45 202 00:50 12.09.2019
2061 Clouds 16 1022 77 0 1.34 292 00:31 12.09.2019
2062 Rain 16 1022 74 0 0.45 292 23:55 11.09.2019
2063 Rain 16 1022 73 0 12.31 231.357 23:36 11.09.2019
2064 Rain 16 1022 72 0 0.45 225 23:18 11.09.2019
2065 Rain 16 1022 72 0 0.89 225 22:55 11.09.2019
2066 Rain 16 1022 72 0 0.45 202 22:36 11.09.2019
2067 Rain 16 1022 72 0 0.45 180 22:18 11.09.2019
2068 Rain 16 1022 71 0 0.89 180 21:41 11.09.2019
2069 Rain 16 1022 71 0 0.89 180 21:23 11.09.2019
2070 Rain 16 1022 71 0 0.89 180 20:56 11.09.2019
2071 Clouds 16 1022 71 0 0.89 180 20:38 11.09.2019
2072 Clouds 16 1022 70 0 0.45 157 20:19 11.09.2019
2073 Clouds 16 1022 70 0 0.45 157 20:19 11.09.2019
2074 Clouds 16 1022 70 0 0.45 157 20:19 11.09.2019
2075 Clouds 16 1022 70 0 0.45 157 20:19 11.09.2019
2076 Clouds 17 1022 68 0 0.45 180 19:57 11.09.2019
2077 Clouds 17 1022 68 0 0.45 180 19:57 11.09.2019
2078 Clouds 17 1022 68 0 0.45 180 19:39 11.09.2019
2079 Clouds 17 1022 68 0 0.45 180 19:39 11.09.2019
2080 Clouds 18 1022 65 0 0.45 180 19:19 11.09.2019
2081 Clouds 18 1022 64 0 0.89 180 18:56 11.09.2019
2082 Clouds 18 1022 64 0 0.89 180 18:37 11.09.2019
2083 Clouds 19 1022 62 0 0.45 202 18:19 11.09.2019
2084 Clouds 20 1022 62 0 0.45 202 17:55 11.09.2019
2085 Clouds 20 1022 62 0 0.89 180 17:37 11.09.2019
2086 Clouds 19 1022 62 0 0.45 202 17:18 11.09.2019
2087 Clouds 20 1022 60 0 0.45 225 16:42 11.09.2019
2088 Clouds 20 1022 59 0 0.89 225 16:23 11.09.2019
2089 Clouds 20 1022 59 0 0.89 225 16:23 11.09.2019
2090 Clouds 20 1023 59 0 0.89 225 15:54 11.09.2019
2091 Clouds 21 1023 58 0 7.54 219.901 15:36 11.09.2019
2092 Clouds 21 1023 57 0 0.89 225 15:18 11.09.2019
2093 Clouds 21 1023 61 0 6.97 221.902 14:41 11.09.2019
2094 Clouds 21 1023 63 0 0.45 247 14:21 11.09.2019
2095 Clouds 20 1023 65 0 1.34 202 13:59 11.09.2019
2096 Clouds 19 1024 65 0 6.97 221.902 13:37 11.09.2019
2097 Clear 20 1023 65 0 1.34 202 13:19 11.09.2019
2098 Clear 20 1024 67 0 7.48 222.232 12:55 11.09.2019
2099 Clear 20 1024 68 0 0.89 225 12:37 11.09.2019
2100 Clouds 19 1024 72 0 0.89 225 12:19 11.09.2019
2101 Clouds 18 1024 76 0 7.79 222.152 11:39 11.09.2019
2102 Clouds 17 1024 77 0 7.79 222.152 11:21 11.09.2019
2103 Clouds 17 1024 77 0 7.79 222.152 11:21 11.09.2019
2104 Clouds 17 1024 77 0 7.79 222.152 11:21 11.09.2019
2105 Clouds 17 1024 80 0 0.45 225 10:56 11.09.2019
2106 Clouds 16 1024 81 0 0.45 225 10:38 11.09.2019
2107 Clouds 16 1024 85 0 0.89 225 10:19 11.09.2019
2108 Clouds 14 1024 87 0 7.79 222.152 09:39 11.09.2019
2109 Clouds 14 1024 89 0 8.15 233.212 09:20 11.09.2019
2110 Clouds 13 1024 89 0 8.15 233.212 08:55 11.09.2019
2111 Clouds 13 1024 89 0 8.15 233.212 08:55 11.09.2019
2112 Clouds 13 1024 89 0 8.58 236.74 08:37 11.09.2019
2113 Clouds 12 1023 89 0 0.45 202 08:19 11.09.2019
2114 Clouds 12 1023 89 0 8.58 236.74 07:40 11.09.2019
2115 Clouds 12 1023 89 0 8.58 236.74 07:22 11.09.2019
2116 Clouds 12 1023 89 0 8.58 236.74 06:48 11.09.2019
2117 Clouds 12 1022 89 0 8.58 236.74 06:29 11.09.2019
2118 Rain 12 1022 88 0 9.25 260.523 05:37 11.09.2019
2119 Rain 12 1022 88 0 9.25 260.523 05:19 11.09.2019
2120 Rain 13 1022 88 0 9.25 260.523 04:23 11.09.2019
2121 Rain 13 1021 88 0 9.25 260.523 03:32 11.09.2019
2122 Rain 13 1021 88 0 10.93 272.003 02:41 11.09.2019
2123 Rain 14 1020 87 0 1.34 315 01:53 11.09.2019
2124 Rain 14 1020 88 0 10.76 273.275 00:50 11.09.2019
2125 Rain 14 1019 88 0 0.45 225 00:21 11.09.2019
2126 Rain 14 1019 88 0 0.45 225 00:21 11.09.2019
2127 Rain 13 1019 88 0 0.89 225 23:55 10.09.2019
2128 Rain 14 1019 88 0 0.89 292 23:36 10.09.2019
2129 Rain 13 1019 88 0 0.45 315 23:18 10.09.2019
2130 Rain 14 1019 87 0 10.38 273.895 22:41 10.09.2019
2131 Rain 14 1018 88 0 10.38 273.895 22:19 10.09.2019
2132 Rain 14 1018 88 0 10.38 273.895 22:19 10.09.2019
2133 Rain 14 1018 88 0 1.79 247 21:55 10.09.2019
2134 Rain 14 1018 88 0 10.38 273.895 21:37 10.09.2019
2135 Rain 14 1018 88 0 10.38 273.895 21:37 10.09.2019
2136 Rain 14 1018 88 0 10.38 273.895 21:37 10.09.2019
2137 Rain 14 1018 88 0 10.38 273.895 21:37 10.09.2019
2138 Rain 14 1017 88 0 0.89 270 21:18 10.09.2019
2139 Rain 14 1018 89 0 1.79 270 20:57 10.09.2019
2140 Rain 14 1017 89 0 11.4 271.623 20:38 10.09.2019
2141 Rain 14 1017 90 0 0.89 270 20:20 10.09.2019
2142 Rain 14 1017 89 0 0.89 270 19:56 10.09.2019
2143 Rain 14 1017 89 0 0.45 225 19:37 10.09.2019
2144 Rain 14 1016 89 0 11.4 271.623 19:19 10.09.2019
2145 Rain 14 1016 89 0 0.45 270 18:55 10.09.2019
2146 Rain 14 1016 89 0 0.89 225 18:37 10.09.2019
2147 Rain 14 1016 88 0 0.89 247 18:18 10.09.2019
2148 Rain 14 1015 88 0 0.89 270 17:43 10.09.2019
2149 Rain 14 1015 89 0 12.75 275.249 17:22 10.09.2019
2150 Rain 14 1015 89 0 0.45 247 16:58 10.09.2019
2151 Rain 14 1014 89 0 12.75 275.249 16:39 10.09.2019
2152 Rain 14 1014 89 0 12.75 275.249 16:21 10.09.2019
2153 Rain 14 1014 91 0 0.45 292 15:59 10.09.2019
2154 Rain 14 1014 91 0 0.45 292 15:40 10.09.2019
2155 Rain 14 1013 91 0 1.34 270 15:20 10.09.2019
2156 Rain 14 1013 92 0 0.45 247 14:42 10.09.2019
2157 Rain 14 1013 92 0 0.89 270 14:24 10.09.2019
2158 Rain 14 1013 92 0 0.89 315 13:56 10.09.2019
2159 Rain 14 1013 92 0 1.34 247 13:37 10.09.2019
2160 Rain 14 1012 92 0 1.34 247 13:19 10.09.2019
2161 Rain 14 1012 92 0 0.89 337 12:43 10.09.2019
2162 Rain 14 1012 92 0 0.89 292 12:24 10.09.2019
2163 Rain 14 1011 92 0 2.24 292 11:57 10.09.2019
2164 Rain 14 1011 92 0 1.79 292 11:39 10.09.2019
2165 Rain 14 1011 92 0 0.45 315 11:20 10.09.2019
2166 Rain 14 1011 92 0 2.68 292 10:42 10.09.2019
2167 Rain 14 1010 92 0 0.45 247 10:19 10.09.2019
2168 Rain 14 1010 92 0 1.34 292 09:56 10.09.2019
2169 Rain 14 1010 92 0 1.79 292 09:38 10.09.2019
2170 Rain 14 1010 92 0 1.79 247 09:19 10.09.2019
2171 Rain 14 1010 92 0 0.89 292 08:45 10.09.2019
2172 Rain 14 1010 92 0 1.34 315 08:27 10.09.2019
2173 Rain 14 1010 92 0 0.89 292 07:46 10.09.2019
2174 Rain 14 1010 92 0 1.34 292 07:27 10.09.2019
2175 Rain 14 1010 92 0 3.23 310.989 06:56 10.09.2019
2176 Rain 14 1010 92 0 0.45 292 06:36 10.09.2019
2177 Rain 14 1010 92 0 2.33 225.644 06:18 10.09.2019
2178 Rain 14 1010 91 0 0.45 292 03:58 10.09.2019
2179 Rain 14 1010 91 0 0.45 292 03:58 10.09.2019
2180 Rain 14 1011 91 0 0.45 292 02:38 10.09.2019
2181 Rain 14 1011 91 0 0.45 292 02:38 10.09.2019
2182 Rain 14 1011 91 0 0.45 292 02:38 10.09.2019
2183 Rain 14 1011 90 0 1 116.667 02:19 10.09.2019
2184 Rain 14 1011 90 0 1 116.667 01:45 10.09.2019
2185 Rain 14 1011 90 0 3.48 254.537 01:22 10.09.2019
2186 Rain 14 1012 89 0 3.48 254.537 00:34 10.09.2019
2187 Rain 14 1012 89 0 3.76 224.989 23:56 09.09.2019
2188 Rain 14 1012 88 0 3.76 224.989 23:36 09.09.2019
2189 Rain 14 1012 88 0 3.76 224.989 23:18 09.09.2019
2190 Rain 14 1012 88 0 3.76 224.989 22:54 09.09.2019
2191 Rain 14 1012 88 0 3.76 224.989 22:36 09.09.2019
2192 Rain 14 1012 88 0 3.76 224.989 22:18 09.09.2019
2193 Rain 14 1012 87 0 3.76 224.989 21:54 09.09.2019
2194 Rain 14 1012 87 0 3.76 224.989 21:36 09.09.2019
2195 Rain 14 1013 87 0 3.89 108.025 21:18 09.09.2019
2196 Rain 14 1012 86 0 3.89 108.025 20:54 09.09.2019
2197 Rain 14 1012 87 0 5.04 68.125 20:36 09.09.2019
2198 Rain 16 1012 86 0 5.04 68.125 20:18 09.09.2019
2199 Rain 16 1012 86 0 5.04 68.125 19:55 09.09.2019
2200 Rain 16 1012 86 0 5.04 68.125 19:36 09.09.2019
2201 Rain 16 1012 86 0 5.04 68.125 19:18 09.09.2019
2202 Rain 16 1012 86 0 5.04 68.125 18:54 09.09.2019
2203 Rain 16 1012 87 0 5.04 68.125 18:36 09.09.2019
2204 Rain 16 1012 87 0 4.64 59.076 18:18 09.09.2019
2205 Rain 16 1013 87 0 4.64 59.076 17:41 09.09.2019
2206 Rain 16 1013 86 0 4.64 59.076 17:21 09.09.2019
2207 Rain 15 1013 86 0 4.64 59.076 16:59 09.09.2019
2208 Rain 16 1013 82 0 4.64 59.076 16:40 09.09.2019
2209 Rain 16 1013 81 0 4.64 59.076 16:21 09.09.2019
2210 Rain 16 1013 81 0 4.64 59.076 15:56 09.09.2019
2211 Rain 16 1013 81 0 4.64 59.076 15:38 09.09.2019
2212 Rain 17 1013 81 0 6.56 94.782 15:19 09.09.2019
2213 Rain 17 1013 81 0 6.56 94.782 14:57 09.09.2019
2214 Rain 17 1014 81 0 6.56 94.782 14:38 09.09.2019
2215 Rain 17 1014 82 0 0.45 135 14:20 09.09.2019
2216 Rain 17 1014 84 0 6.56 94.782 13:45 09.09.2019
2217 Rain 17 1014 85 0 5.45 102.794 13:22 09.09.2019
2218 Rain 17 1014 85 0 5.45 102.794 12:59 09.09.2019
2219 Rain 16 1014 86 0 5.45 102.794 12:41 09.09.2019
2220 Rain 16 1014 86 0 6 358.281 12:21 09.09.2019
2221 Rain 16 1015 86 0 0.89 135 11:57 09.09.2019
2222 Rain 16 1015 85 0 6 358.281 11:39 09.09.2019
2223 Rain 16 1015 85 0 0.89 135 11:18 09.09.2019
2224 Rain 17 1015 85 0 0.89 135 10:42 09.09.2019
2225 Rain 17 1015 85 0 6 358.281 10:23 09.09.2019
2226 Rain 17 1015 85 0 0.45 135 09:58 09.09.2019
2227 Rain 17 1015 87 0 6 358.281 09:39 09.09.2019
2228 Rain 17 1015 88 0 7.31 11.07 09:21 09.09.2019
2229 Rain 16 1015 89 0 0.89 22 08:39 09.09.2019
2230 Rain 16 1016 89 0 0.89 67 08:21 09.09.2019
2231 Rain 16 1016 89 0 0.89 67 08:21 09.09.2019
2232 Rain 15 1016 89 0 1.34 45 07:58 09.09.2019
2233 Rain 15 1016 90 0 1.79 337 07:39 09.09.2019
2234 Rain 15 1017 89 0 0.45 22 07:20 09.09.2019
2235 Rain 15 1017 89 0 0.45 0 06:46 09.09.2019
2236 Clouds 15 1017 88 0 0.45 45 05:56 09.09.2019
2237 Clouds 16 1019 82 0 2.72 41.443 03:21 09.09.2019
2238 Clouds 16 1019 81 0 0.45 337 02:41 09.09.2019
2239 Clouds 16 1020 80 0 2.16 73.883 01:22 09.09.2019
2240 Clouds 16 1020 81 0 2.67 74.24 00:24 09.09.2019
2241 Clouds 16 1020 80 0 2.67 74.24 23:55 08.09.2019
2242 Clouds 16 1020 80 0 2.67 74.24 23:37 08.09.2019
2243 Clouds 16 1020 80 0 2.67 74.24 23:19 08.09.2019
2244 Clouds 16 1020 76 0 2.67 74.24 22:40 08.09.2019
2245 Clouds 16 1021 77 0 2.67 74.24 22:22 08.09.2019
2246 Clouds 16 1021 78 0 2.67 74.24 21:58 08.09.2019
2247 Clouds 16 1021 79 0 2.67 74.24 21:40 08.09.2019
2248 Rain 16 1021 78 0 3.68 80.002 21:22 08.09.2019
2249 Rain 16 1021 76 0 3.68 80.002 20:54 08.09.2019
2250 Clouds 16 1021 76 0 1.69 71.758 20:36 08.09.2019
2251 Clouds 16 1021 75 0 1.69 71.758 20:18 08.09.2019
2252 Clouds 17 1021 71 0 1.69 71.758 19:39 08.09.2019
2253 Clouds 17 1021 70 0 1.69 71.758 19:21 08.09.2019
2254 Clouds 18 1021 69 0 1.69 71.758 18:59 08.09.2019
2255 Clouds 17 1021 69 0 1.69 71.758 18:39 08.09.2019
2256 Clouds 17 1021 69 0 3.96 57.585 18:19 08.09.2019
2257 Clouds 17 1021 68 0 3.96 57.585 17:59 08.09.2019
2258 Clouds 18 1021 66 0 0.89 45 17:37 08.09.2019
2259 Clouds 18 1021 66 0 3.96 57.585 17:19 08.09.2019
2260 Clouds 18 1021 66 0 3.96 57.585 17:19 08.09.2019
2261 Clouds 18 1021 66 0 3.96 57.585 17:19 08.09.2019
2262 Clouds 18 1021 66 0 3.96 57.585 17:19 08.09.2019
2263 Clouds 18 1021 66 0 3.96 57.585 17:19 08.09.2019
2264 Clouds 18 1021 63 0 3.96 57.585 16:57 08.09.2019
2265 Clouds 18 1021 64 0 0.45 45 16:39 08.09.2019
2266 Clouds 19 1021 64 0 0.45 67 16:20 08.09.2019
2267 Clouds 19 1021 61 0 3.96 57.585 15:42 08.09.2019
2268 Clouds 19 1021 62 0 0.45 0 15:24 08.09.2019
2269 Clouds 18 1022 65 0 0.45 22 14:59 08.09.2019
2270 Clouds 18 1022 65 0 3.26 14.663 14:40 08.09.2019
2271 Clouds 18 1022 65 0 3.26 14.663 14:40 08.09.2019
2272 Clouds 18 1022 65 0 3.26 14.663 14:40 08.09.2019
2273 Clouds 18 1022 65 0 3.26 14.663 14:40 08.09.2019
2274 Clouds 18 1022 66 0 3.26 14.663 14:21 08.09.2019
2275 Clouds 17 1022 67 0 3.26 14.663 13:58 08.09.2019
2276 Clouds 17 1022 69 0 3.26 14.663 13:40 08.09.2019
2277 Clouds 17 1022 69 0 2.45 17.874 13:22 08.09.2019
2278 Clouds 17 1021 72 0 2.45 17.874 12:55 08.09.2019
2279 Clouds 17 1021 71 0 2.45 17.874 12:37 08.09.2019
2280 Clouds 17 1021 68 0 0.64 283.648 12:19 08.09.2019
2281 Clouds 17 1022 67 0 0.45 67 11:57 08.09.2019
2282 Clouds 17 1022 68 0 0.89 45 11:37 08.09.2019
2283 Clouds 17 1022 69 0 0.45 45 11:19 08.09.2019
2284 Clouds 16 1022 77 0 0.64 283.648 10:43 08.09.2019
2285 Clouds 16 1022 77 0 0.64 283.648 10:23 08.09.2019
2286 Clouds 16 1022 75 0 0.64 283.648 09:56 08.09.2019
2287 Clouds 16 1022 76 0 0.64 283.648 09:37 08.09.2019
2288 Rain 15 1021 78 0 2.78 219.195 09:19 08.09.2019
2289 Rain 14 1021 81 0 2.97 235.063 08:40 08.09.2019
2290 Rain 14 1021 81 0 2.97 235.063 08:40 08.09.2019
2291 Rain 14 1021 81 0 2.97 235.063 08:19 08.09.2019
2292 Rain 13 1021 80 0 2.97 235.063 07:59 08.09.2019
2293 Rain 13 1021 79 0 2.97 235.063 07:37 08.09.2019
2294 Rain 13 1021 79 0 2.97 235.063 07:19 08.09.2019
2295 Rain 13 1021 79 0 2.97 235.063 06:44 08.09.2019
2296 Rain 13 1021 79 0 4.26 208.273 05:47 08.09.2019
2297 Rain 13 1021 78 0 4.26 208.273 05:29 08.09.2019
2298 Rain 14 1021 77 0 4.26 208.273 03:39 08.09.2019
2299 Clouds 14 1021 76 0 5.49 202.476 02:53 08.09.2019
2300 Clouds 14 1021 76 0 5.49 202.476 02:25 08.09.2019
2301 Clouds 14 1022 76 0 5.49 202.476 01:34 08.09.2019
2302 Clouds 14 1022 76 0 5.49 202.476 01:34 08.09.2019
2303 Clouds 14 1022 76 0 4.82 195.252 00:57 08.09.2019
2304 Clouds 14 1021 77 0 4.82 195.252 00:37 08.09.2019
2305 Rain 14 1022 77 0 6.85 200.617 00:19 08.09.2019
2306 Rain 15 1022 74 0 6.85 200.617 23:38 07.09.2019
2307 Rain 15 1022 73 0 6.85 200.617 23:19 07.09.2019
2308 Rain 15 1021 72 0 6.85 200.617 22:57 07.09.2019
2309 Rain 15 1022 73 0 6.85 200.617 22:37 07.09.2019
2310 Rain 15 1022 73 0 6.85 200.617 22:19 07.09.2019
2311 Rain 16 1022 72 0 0.89 135 21:41 07.09.2019
2312 Rain 16 1022 69 0 1.34 135 21:23 07.09.2019
2313 Rain 17 1022 64 0 0.89 135 20:54 07.09.2019
2314 Rain 17 1021 62 0 5.19 244.818 20:36 07.09.2019
2315 Rain 17 1021 60 0 0.45 112 20:18 07.09.2019
2316 Rain 18 1021 58 0 5.19 244.818 19:54 07.09.2019
2317 Rain 18 1021 58 0 5.19 244.818 19:36 07.09.2019
2318 Rain 18 1021 58 0 5.19 244.818 19:18 07.09.2019
2319 Rain 16 1017 71 0 5.19 244.818 18:54 07.09.2019
2320 Rain 16 1017 71 0 5.19 244.818 18:36 07.09.2019
2321 Rain 19 1021 55 0 5.39 217.35 18:18 07.09.2019
2322 Rain 19 1021 53 0 0.89 337 17:54 07.09.2019
2323 Rain 20 1021 51 0 0.89 315 17:36 07.09.2019
2324 Rain 16 1017 71 0 5.39 217.35 17:18 07.09.2019
2325 Rain 16 1017 71 0 5.39 217.35 16:42 07.09.2019
2326 Rain 16 1017 71 0 5.39 217.35 16:21 07.09.2019
2327 Rain 22 1020 46 0 5.39 217.35 15:49 07.09.2019
2328 Rain 21 1020 49 0 5.39 217.35 15:27 07.09.2019
2329 Clouds 21 1020 50 0 4.41 212.976 14:58 07.09.2019
2330 Clouds 21 1020 50 0 4.41 212.976 14:38 07.09.2019
2331 Clouds 21 1021 49 0 4.41 212.976 14:19 07.09.2019
2332 Clouds 21 1021 49 0 4.41 212.976 14:19 07.09.2019
2333 Clouds 21 1021 49 0 4.41 212.976 13:59 07.09.2019
2334 Clouds 22 1021 47 0 4.41 212.976 13:41 07.09.2019
2335 Clouds 22 1021 47 0 0.45 225 13:23 07.09.2019
2336 Clouds 22 1021 48 0 4.27 240.647 12:45 07.09.2019
2337 Clouds 17 1017 67 0 4.27 240.647 12:26 07.09.2019
2338 Clouds 15 1018 71 0 5.39 226.187 11:59 07.09.2019
2339 Clouds 15 1018 71 0 5.39 226.187 11:40 07.09.2019
2340 Clouds 15 1018 71 0 5.39 226.187 11:20 07.09.2019
2341 Clouds 18 1021 53 0 5.39 226.187 10:41 07.09.2019
2342 Clouds 18 1021 55 0 5.39 226.187 10:22 07.09.2019
2343 Clouds 17 1021 56 0 5.39 226.187 09:57 07.09.2019
2344 Clouds 17 1021 57 0 5.39 226.187 09:39 07.09.2019
2345 Clouds 16 1021 59 0 0.45 180 09:20 07.09.2019
2346 Clouds 16 1021 59 0 0.45 180 09:20 07.09.2019
2347 Clouds 14 1021 61 0 7.32 215.156 08:44 07.09.2019
2348 Clouds 13 1020 61 0 0.45 202 08:26 07.09.2019
2349 Clouds 12 1020 62 0 0.45 180 07:48 07.09.2019
2350 Clouds 12 1020 62 0 0.45 180 07:28 07.09.2019
2351 Clouds 12 1020 61 0 0.89 180 06:53 07.09.2019
2352 Clouds 12 1020 60 0 0.89 180 06:21 07.09.2019
2353 Clouds 12 1020 60 0 0.89 180 05:32 07.09.2019
2354 Clouds 13 1020 59 0 0.89 180 04:23 07.09.2019
2355 Clouds 13 1021 59 0 0.89 180 02:52 07.09.2019
2356 Clouds 13 1021 60 0 0.89 180 02:21 07.09.2019
2357 Rain 13 1021 60 0 0.45 180 01:26 07.09.2019
2358 Rain 13 1021 60 0 0.45 180 00:44 07.09.2019
2359 Rain 13 1022 61 0 0.45 157 00:21 07.09.2019
2360 Rain 13 1022 60 0 0.45 157 23:55 06.09.2019
2361 Rain 13 1022 60 0 0.89 135 23:37 06.09.2019
2362 Rain 13 1022 59 0 0.45 180 23:18 06.09.2019
2363 Rain 14 1022 58 0 7.07 204.625 22:55 06.09.2019
2364 Rain 14 1022 57 0 7.07 204.625 22:36 06.09.2019
2365 Rain 13 1022 57 0 7.07 204.625 22:18 06.09.2019
2366 Rain 14 1023 55 0 7.07 204.625 21:41 06.09.2019
2367 Rain 14 1023 55 0 7.07 204.625 21:41 06.09.2019
2368 Rain 14 1023 54 0 7.1 238.417 21:23 06.09.2019
2369 Rain 14 1023 53 0 7.1 238.417 20:59 06.09.2019
2370 Rain 16 1023 52 0 6.96 244.789 20:40 06.09.2019
2371 Rain 16 1023 50 0 6.96 244.789 20:21 06.09.2019
2372 Rain 17 1023 50 0 6.96 244.789 19:58 06.09.2019
2373 Rain 18 1023 48 0 6.96 244.789 19:40 06.09.2019
2374 Rain 18 1023 48 0 0.45 202 19:21 06.09.2019
2375 Rain 19 1023 46 0 6.96 244.789 18:55 06.09.2019
2376 Rain 19 1023 46 0 0.45 225 18:37 06.09.2019
2377 Rain 19 1023 46 0 0.45 225 18:37 06.09.2019
2378 Rain 19 1023 46 0 0.45 225 18:18 06.09.2019
2379 Rain 17 1019 66 0 7.17 229.508 17:39 06.09.2019
2380 Rain 17 1019 66 0 7.17 229.508 17:20 06.09.2019
2381 Rain 21 1023 42 0 7.17 229.508 16:43 06.09.2019
2382 Rain 17 1019 66 0 7.17 229.508 16:20 06.09.2019
2383 Rain 17 1019 66 0 7.17 229.508 15:59 06.09.2019
2384 Rain 17 1019 66 0 7.17 229.508 15:41 06.09.2019
2385 Clouds 17 1020 66 0 8.15 241.332 15:22 06.09.2019
2386 Clouds 17 1020 66 0 8.15 241.332 14:47 06.09.2019
2387 Clouds 17 1020 66 0 8.15 241.332 14:19 06.09.2019
2388 Clouds 21 1025 46 0 0.89 225 13:44 06.09.2019
2389 Rain 20 1025 49 0 1.34 202 13:24 06.09.2019
2390 Rain 21 1025 49 0 1.34 225 12:59 06.09.2019
2391 Rain 21 1025 49 0 1.34 225 12:59 06.09.2019
2392 Rain 19 1025 52 0 0.45 247 12:37 06.09.2019
2393 Clouds 19 1025 50 0 0.45 270 12:18 06.09.2019
2394 Clouds 18 1025 58 0 0.45 315 11:41 06.09.2019
2395 Clouds 17 1025 62 0 9.81 239.999 11:23 06.09.2019
2396 Clouds 16 1025 65 0 0.45 225 10:58 06.09.2019
2397 Clouds 16 1025 68 0 9.81 239.999 10:39 06.09.2019
2398 Rain 15 1025 70 0 9.52 239.887 10:21 06.09.2019
2399 Rain 14 1025 75 0 9.52 239.887 09:40 06.09.2019
2400 Rain 13 1025 77 0 9.31 249.713 09:21 06.09.2019
2401 Rain 12 1025 79 0 9.31 249.713 08:57 06.09.2019
2402 Rain 12 1025 80 0 9.31 249.713 08:38 06.09.2019
2403 Rain 11 1025 81 0 0.89 292 08:20 06.09.2019
2404 Rain 10 1025 83 0 0.45 292 07:45 06.09.2019
2405 Rain 9 1025 82 0 9.31 249.713 07:27 06.09.2019
2406 Rain 10 1025 80 0 9.31 249.713 06:56 06.09.2019
2407 Clear 10 1025 82 0 8.63 277.167 05:58 06.09.2019
2408 Clear 10 1024 82 0 0.45 292 05:29 06.09.2019
2409 Clear 11 1024 82 0 0.89 270 04:45 06.09.2019
2410 Clear 10 1024 82 0 8.63 277.167 03:49 06.09.2019
2411 Clouds 11 1023 80 0 10.82 292.223 01:54 06.09.2019
2412 Rain 11 1022 78 0 0.45 292 00:41 06.09.2019
2413 Rain 12 1021 78 0 12.3 286.558 23:55 05.09.2019
2414 Rain 12 1021 78 0 12.3 286.558 23:37 05.09.2019
2415 Rain 12 1021 78 0 12.3 286.558 23:18 05.09.2019
2416 Rain 12 1021 77 0 0.89 270 22:42 05.09.2019
2417 Rain 13 1021 77 0 0.45 292 22:24 05.09.2019
2418 Rain 13 1020 78 0 12.3 286.558 21:56 05.09.2019
2419 Rain 13 1020 78 0 0.45 292 21:37 05.09.2019
2420 Clouds 13 1020 77 0 0.45 270 21:19 05.09.2019
2421 Clouds 13 1020 76 0 0.89 270 20:57 05.09.2019
2422 Rain 13 1019 76 0 1.34 292 20:37 05.09.2019
2423 Rain 13 1019 77 0 0.89 292 20:19 05.09.2019
2424 Rain 14 1018 75 0 12.38 279.592 19:42 05.09.2019
2425 Rain 15 1018 73 0 0.89 270 19:24 05.09.2019
2426 Rain 16 1018 73 0 0.89 292 18:58 05.09.2019
2427 Rain 16 1017 74 0 0.89 270 18:40 05.09.2019
2428 Rain 15 1017 74 0 0.89 292 18:20 05.09.2019
2429 Rain 17 1017 65 0 2.68 292 17:56 05.09.2019
2430 Rain 19 1016 55 0 2.24 270 17:38 05.09.2019
2431 Rain 19 1016 54 0 1.34 292 17:20 05.09.2019
2432 Rain 19 1016 57 0 0.89 292 16:41 05.09.2019
2433 Rain 18 1015 60 0 1.34 247 16:21 05.09.2019
2434 Rain 18 1015 60 0 1.34 337 15:58 05.09.2019
2435 Rain 19 1015 63 0 0.45 292 15:39 05.09.2019
2436 Rain 19 1015 56 0 1.34 292 15:19 05.09.2019
2437 Rain 21 1014 50 0 0.45 270 14:55 05.09.2019
2438 Rain 21 1014 51 0 0.89 225 14:37 05.09.2019
2439 Rain 21 1014 51 0 0.89 225 14:37 05.09.2019
2440 Rain 21 1014 50 0 1.34 247 14:18 05.09.2019
2441 Rain 21 1014 50 0 2.24 225 13:41 05.09.2019
2442 Rain 21 1014 49 0 1.79 225 13:18 05.09.2019
2443 Rain 21 1014 50 0 1.79 202 12:42 05.09.2019
2444 Clear 16 1009 68 0 8.74 226.423 12:24 05.09.2019
2445 Clear 20 1014 54 0 0.89 247 11:56 05.09.2019
2446 Clear 19 1014 56 0 8.74 226.423 11:37 05.09.2019
2447 Clear 19 1014 57 0 0.45 225 11:18 05.09.2019
2448 Clear 18 1014 63 0 8.74 226.423 10:40 05.09.2019
2449 Clear 18 1014 67 0 8.74 226.423 10:20 05.09.2019
2450 Clear 17 1014 71 0 8.74 226.423 09:57 05.09.2019
2451 Clear 16 1014 74 0 9.05 222.381 09:38 05.09.2019
2452 Rain 16 1014 76 0 9.15 243.782 09:18 05.09.2019
2453 Rain 15 1014 82 0 9.15 243.782 08:43 05.09.2019
2454 Rain 14 1014 83 0 9.15 243.782 08:25 05.09.2019
2455 Rain 14 1014 83 0 9.15 243.782 07:44 05.09.2019
2456 Rain 14 1014 83 0 9.15 243.782 07:26 05.09.2019
2457 Rain 14 1014 84 0 9.15 243.782 06:53 05.09.2019
2458 Rain 14 1013 84 0 9.15 243.782 06:29 05.09.2019
2459 Rain 14 1013 84 0 8.44 253.141 05:50 05.09.2019
2460 Rain 14 1013 83 0 8.44 253.141 05:30 05.09.2019
2461 Rain 15 1013 80 0 8.44 253.141 04:50 05.09.2019
2462 Rain 16 1013 81 0 8.44 253.141 04:24 05.09.2019
2463 Rain 16 1013 80 0 8.44 253.141 03:38 05.09.2019
2464 Rain 16 1013 79 0 9.48 236.882 02:45 05.09.2019
2465 Rain 16 1013 78 0 9.48 236.882 02:20 05.09.2019
2466 Rain 17 1013 77 0 9.75 234.585 01:36 05.09.2019
2467 Rain 17 1013 74 0 9.75 234.585 00:42 05.09.2019
2468 Rain 17 1013 75 0 9.41 247.236 00:20 05.09.2019
2469 Rain 17 1014 73 0 1.34 315 23:55 04.09.2019
2470 Rain 18 1014 70 0 1.79 292 23:36 04.09.2019
2471 Rain 18 1013 69 0 1.34 202 23:18 04.09.2019
2472 Rain 17 1013 67 0 9.41 247.236 22:40 04.09.2019
2473 Rain 18 1013 66 0 9.41 247.236 22:19 04.09.2019
2474 Clouds 17 1013 64 0 8.86 239.509 21:40 04.09.2019
2475 Clouds 17 1013 63 0 7.81 210.599 21:20 04.09.2019
2476 Clouds 18 1014 61 0 7.81 210.599 20:57 04.09.2019
2477 Clouds 18 1014 60 0 7.81 210.599 20:39 04.09.2019
2478 Clouds 19 1014 59 0 7.81 210.599 20:19 04.09.2019
2479 Clouds 21 1014 55 0 7.81 210.599 19:57 04.09.2019
2480 Clouds 18 1010 69 0 7.81 210.599 19:38 04.09.2019
2481 Clouds 18 1010 69 0 7.81 210.599 19:19 04.09.2019
2482 Clouds 23 1014 55 0 0.45 180 18:39 04.09.2019
2483 Clouds 23 1014 55 0 0.45 180 18:39 04.09.2019
2484 Clouds 23 1014 54 0 0.45 180 18:20 04.09.2019
2485 Clouds 22 1015 55 0 0.45 202 17:54 04.09.2019
2486 Clouds 22 1015 55 0 0.45 202 17:54 04.09.2019
2487 Clouds 22 1015 54 0 7 215.156 17:36 04.09.2019
2488 Clouds 22 1015 53 0 0.89 180 17:18 04.09.2019
2489 Clouds 22 1015 53 0 0.89 180 17:18 04.09.2019
2490 Clouds 22 1015 52 0 1.34 202 16:46 04.09.2019
2491 Clouds 22 1015 52 0 1.34 202 16:46 04.09.2019
2492 Clouds 22 1016 52 0 1.34 202 16:27 04.09.2019
2493 Clouds 23 1016 51 0 1.79 180 15:58 04.09.2019
2494 Clouds 22 1016 53 0 7 215.156 15:39 04.09.2019
2495 Clouds 22 1017 51 0 7.84 206.777 15:20 04.09.2019
2496 Clouds 22 1017 52 0 0.45 247 14:57 04.09.2019
2497 Clouds 22 1017 54 0 0.45 225 14:37 04.09.2019
2498 Clouds 22 1017 52 0 7.84 206.777 14:19 04.09.2019
2499 Clouds 22 1018 53 0 1.79 202 13:55 04.09.2019
2500 Clouds 22 1018 55 0 0.89 247 13:36 04.09.2019
2501 Clouds 21 1018 59 0 0.89 202 13:18 04.09.2019
2502 Clouds 21 1019 62 0 0.89 225 12:40 04.09.2019
2503 Clouds 21 1019 65 0 0.89 202 12:22 04.09.2019
2504 Clouds 20 1019 69 0 1.34 202 11:55 04.09.2019
2505 Clouds 19 1020 71 0 0.89 202 11:37 04.09.2019
2506 Clouds 19 1020 73 0 0.89 202 11:18 04.09.2019
2507 Clouds 19 1020 76 0 0.89 225 10:44 04.09.2019
2508 Clouds 18 1020 79 0 6.92 217.072 10:25 04.09.2019
2509 Clouds 17 1021 82 0 0.89 202 09:57 04.09.2019
2510 Clouds 17 1021 84 0 0.45 202 09:39 04.09.2019
2511 Rain 16 1021 85 0 7.45 224.125 09:18 04.09.2019
2512 Rain 14 1021 87 0 7.45 224.125 08:41 04.09.2019
2513 Rain 14 1021 86 0 0.45 202 08:23 04.09.2019
2514 Rain 14 1021 86 0 7.45 224.125 07:56 04.09.2019
2515 Rain 13 1021 86 0 7.45 224.125 07:34 04.09.2019
2516 Rain 12 1021 85 0 7.45 224.125 06:49 04.09.2019
2517 Rain 13 1021 85 0 7.45 224.125 06:26 04.09.2019
2518 Rain 13 1022 86 0 0.45 270 04:54 04.09.2019
2519 Rain 13 1022 86 0 6.38 249.873 04:21 04.09.2019
2520 Rain 14 1022 86 0 7.11 276.111 02:36 04.09.2019
2521 Rain 15 1022 85 0 7.31 284.365 00:56 04.09.2019
2522 Rain 15 1022 85 0 7.31 284.365 00:38 04.09.2019
2523 Rain 15 1022 85 0 8.31 270.607 00:18 04.09.2019
2524 Rain 15 1022 83 0 8.31 270.607 23:47 03.09.2019
2525 Rain 16 1022 82 0 8.31 270.607 23:23 03.09.2019
2526 Rain 16 1022 82 0 8.31 270.607 22:41 03.09.2019
2527 Rain 16 1022 81 0 0.45 225 22:22 03.09.2019
2528 Rain 17 1022 80 0 8.47 272.111 21:57 03.09.2019
2529 Rain 17 1022 80 0 0.45 337 21:38 03.09.2019
2530 Rain 17 1022 79 0 9.14 264.33 21:20 03.09.2019
2531 Rain 17 1022 76 0 9.14 264.33 20:56 03.09.2019
2532 Rain 17 1022 76 0 9.14 264.33 20:37 03.09.2019
2533 Rain 18 1022 76 0 9.14 264.33 20:19 03.09.2019
2534 Rain 18 1021 72 0 0.45 270 19:43 03.09.2019
2535 Rain 18 1021 72 0 0.89 270 19:20 03.09.2019
2536 Rain 18 1021 71 0 0.45 225 18:59 03.09.2019
2537 Rain 18 1021 71 0 0.45 225 18:59 03.09.2019
2538 Rain 19 1022 71 0 9.14 264.33 18:40 03.09.2019
2539 Rain 19 1021 70 0 12.57 254.45 18:20 03.09.2019
2540 Rain 19 1022 70 0 0.89 315 17:56 03.09.2019
2541 Rain 19 1021 71 0 0.45 292 17:38 03.09.2019
2542 Rain 19 1021 71 0 0.45 247 17:19 03.09.2019
2543 Rain 18 1022 73 0 12.57 254.45 16:43 03.09.2019
2544 Rain 18 1022 73 0 12.57 254.45 16:43 03.09.2019
2545 Rain 18 1022 73 0 0.45 270 16:23 03.09.2019
2546 Rain 18 1022 73 0 0.45 292 15:57 03.09.2019
2547 Rain 18 1022 73 0 0.45 225 15:38 03.09.2019
2548 Rain 18 1022 72 0 10.45 239.91 15:20 03.09.2019
2549 Rain 17 1022 74 0 10.45 239.91 14:56 03.09.2019
2550 Rain 17 1022 74 0 0.89 225 14:37 03.09.2019
2551 Rain 17 1022 73 0 10.45 239.91 14:19 03.09.2019
2552 Rain 18 1022 73 0 0.89 225 13:56 03.09.2019
2553 Rain 17 1022 76 0 0.89 247 13:37 03.09.2019
2554 Rain 17 1022 76 0 0.89 247 13:37 03.09.2019
2555 Rain 17 1022 75 0 1.34 247 13:19 03.09.2019
2556 Rain 17 1022 75 0 1.34 247 13:19 03.09.2019
2557 Rain 18 1022 71 0 0.45 270 12:48 03.09.2019
2558 Rain 17 1022 72 0 0.45 247 12:29 03.09.2019
2559 Rain 16 1022 76 0 1.79 202 11:57 03.09.2019
2560 Rain 16 1023 76 0 0.89 202 11:38 03.09.2019
2561 Rain 15 1023 77 0 0.89 202 11:18 03.09.2019
2562 Rain 14 1023 78 0 1.79 180 10:41 03.09.2019
2563 Rain 14 1023 77 0 1.34 225 10:22 03.09.2019
2564 Rain 14 1023 77 0 0.89 202 09:53 03.09.2019
2565 Rain 14 1023 78 0 0.89 180 09:34 03.09.2019
2566 Clouds 14 1023 76 0 0.89 202 08:59 03.09.2019
2567 Clouds 13 1024 76 0 0.45 225 08:39 03.09.2019
2568 Clouds 13 1023 76 0 9.01 221.109 08:20 03.09.2019
2569 Clouds 13 1024 77 0 9.01 221.109 07:54 03.09.2019
2570 Clouds 12 1024 77 0 0.45 202 07:36 03.09.2019
2571 Clouds 12 1024 77 0 0.45 202 07:18 03.09.2019
2572 Clouds 12 1024 77 0 0.45 180 06:41 03.09.2019
2573 Clouds 11 1024 75 0 8.9 225.096 03:57 03.09.2019
2574 Clouds 11 1025 75 0 8.9 225.096 03:33 03.09.2019
2575 Rain 16 1021 70 0 7.61 245.646 02:40 03.09.2019
2576 Rain 16 1021 70 0 7.61 245.646 02:21 03.09.2019
2577 Rain 11 1025 71 0 7.61 245.646 01:45 03.09.2019
2578 Rain 11 1025 71 0 7.61 245.646 01:45 03.09.2019
2579 Rain 11 1025 70 0 7.75 249.011 01:25 03.09.2019
2580 Rain 12 1025 69 0 7.75 249.011 00:33 03.09.2019
2581 Rain 17 1021 67 0 6.72 272.875 23:59 02.09.2019
2582 Rain 12 1025 68 0 6.72 272.875 23:38 02.09.2019
2583 Rain 17 1021 67 0 6.72 272.875 23:19 02.09.2019
2584 Rain 13 1025 67 0 6.72 272.875 22:56 02.09.2019
2585 Rain 13 1025 67 0 6.72 272.875 22:56 02.09.2019
2586 Rain 13 1025 67 0 6.72 272.875 22:56 02.09.2019
2587 Rain 13 1025 68 0 6.72 272.875 22:37 02.09.2019
2588 Rain 13 1025 68 0 6.72 272.875 22:18 02.09.2019
2589 Rain 13 1025 68 0 6.72 272.875 21:56 02.09.2019
2590 Clouds 14 1024 68 0 6.91 266.666 21:37 02.09.2019
2591 Rain 14 1025 67 0 7.26 280.734 21:19 02.09.2019
2592 Rain 14 1024 65 0 7.26 280.734 20:54 02.09.2019
2593 Rain 15 1024 65 0 0.45 292 20:36 02.09.2019
2594 Rain 16 1024 61 0 7.26 280.734 20:18 02.09.2019
2595 Rain 18 1024 53 0 7.26 280.734 19:54 02.09.2019
2596 Rain 19 1024 52 0 0.45 292 19:36 02.09.2019
2597 Rain 19 1024 51 0 0.45 270 19:18 02.09.2019
2598 Rain 19 1023 52 0 2.24 292 18:37 02.09.2019
2599 Rain 19 1023 52 0 2.24 292 18:37 02.09.2019
2600 Rain 20 1023 49 0 1.79 292 18:19 02.09.2019
2601 Rain 20 1023 45 0 0.89 315 17:56 02.09.2019
2602 Rain 21 1023 44 0 1.34 292 17:37 02.09.2019
2603 Rain 20 1023 49 0 8.74 274.132 17:19 02.09.2019
2604 Rain 19 1023 50 0 1.79 292 16:41 02.09.2019
2605 Rain 19 1023 48 0 1.34 315 16:21 02.09.2019
2606 Rain 19 1023 48 0 1.34 315 16:21 02.09.2019
2607 Rain 21 1023 46 0 1.79 337 15:55 02.09.2019
2608 Rain 22 1022 40 0 1.79 0 15:37 02.09.2019
2609 Rain 22 1022 39 0 1.79 315 15:18 02.09.2019
2610 Rain 17 1019 68 0 8.91 263.983 14:55 02.09.2019
2611 Rain 17 1019 68 0 8.91 263.983 14:36 02.09.2019
2612 Rain 22 1022 43 0 2.24 315 14:18 02.09.2019
2613 Rain 21 1022 45 0 1.34 292 13:42 02.09.2019
2614 Rain 21 1022 47 0 9.28 266.038 13:24 02.09.2019
2615 Rain 18 1022 54 0 0.89 292 12:47 02.09.2019
2616 Rain 21 1022 52 0 0.45 315 12:27 02.09.2019
2617 Rain 20 1022 52 0 0.45 247 11:59 02.09.2019
2618 Rain 19 1022 56 0 1.79 315 11:41 02.09.2019
2619 Rain 19 1022 57 0 0.45 247 11:22 02.09.2019
2620 Rain 18 1022 60 0 2.24 292 10:59 02.09.2019
2621 Rain 18 1021 65 0 9.06 272.651 10:41 02.09.2019
2622 Rain 17 1021 66 0 0.89 292 10:22 02.09.2019
2623 Rain 17 1021 70 0 1.34 292 09:58 02.09.2019
2624 Rain 16 1021 71 0 0.89 292 09:38 02.09.2019
2625 Clouds 16 1021 74 0 0.45 270 09:20 02.09.2019
2626 Clouds 14 1020 79 0 0.45 292 08:42 02.09.2019
2627 Clouds 14 1020 79 0 0.45 292 08:42 02.09.2019
2628 Clouds 14 1020 80 0 0.45 270 08:21 02.09.2019
2629 Clouds 13 1020 82 0 9.39 264.391 07:56 02.09.2019
2630 Clouds 13 1020 82 0 9.39 264.391 07:37 02.09.2019
2631 Clouds 13 1020 83 0 9.39 264.391 07:18 02.09.2019
2632 Clouds 12 1019 84 0 0.45 270 06:41 02.09.2019
2633 Rain 12 1019 82 0 8.56 269.585 05:53 02.09.2019
2634 Rain 12 1019 82 0 8.56 269.585 05:53 02.09.2019
2635 Rain 12 1019 82 0 8.56 269.585 05:53 02.09.2019
2636 Rain 13 1019 81 0 8.56 269.585 05:25 02.09.2019
2637 Rain 13 1019 80 0 8.56 269.585 04:48 02.09.2019
2638 Rain 15 1018 77 0 7.32 284.765 02:20 02.09.2019
2639 Rain 16 1018 74 0 7.32 284.765 01:37 02.09.2019
2640 Rain 16 1018 74 0 7.32 284.765 01:37 02.09.2019
2641 Rain 17 1018 72 0 0.45 292 00:42 02.09.2019
2642 Clouds 17 1018 71 0 0.89 315 00:20 02.09.2019
2643 Clouds 17 1017 68 0 1.34 292 23:39 01.09.2019
2644 Clouds 17 1017 68 0 0.89 315 23:19 01.09.2019
2645 Clouds 17 1017 71 0 0.89 315 22:56 01.09.2019
2646 Clouds 17 1017 71 0 0.89 315 22:56 01.09.2019
2647 Clouds 17 1017 72 0 7.06 302.842 22:38 01.09.2019
2648 Clouds 17 1017 73 0 0.45 292 22:18 01.09.2019
2649 Clouds 18 1017 73 0 0.45 292 21:54 01.09.2019
2650 Clouds 18 1017 72 0 1.34 315 21:36 01.09.2019
2651 Rain 18 1017 72 0 0.89 292 21:18 01.09.2019
2652 Rain 18 1016 71 0 1.79 292 20:54 01.09.2019
2653 Rain 18 1016 70 0 1.79 292 20:36 01.09.2019
2654 Rain 19 1015 70 0 3.13 292 20:18 01.09.2019
2655 Rain 19 1015 73 0 1.79 315 19:40 01.09.2019
2656 Rain 20 1015 74 0 0.89 292 19:21 01.09.2019
2657 Rain 21 1014 75 0 1.34 315 18:49 01.09.2019
2658 Rain 21 1014 73 0 0.45 292 18:30 01.09.2019
2659 Rain 22 1014 72 0 1.34 315 17:59 01.09.2019
2660 Rain 22 1014 68 0 1.34 292 17:40 01.09.2019
2661 Rain 23 1013 67 0 0.45 315 17:22 01.09.2019
2662 Rain 23 1013 65 0 1.79 292 16:56 01.09.2019
2663 Rain 23 1013 65 0 1.34 315 16:37 01.09.2019
2664 Rain 24 1013 65 0 0.45 315 16:18 01.09.2019
2665 Rain 20 1010 80 0 8.17 298.993 15:42 01.09.2019
2666 Rain 25 1013 64 0 1.34 0 15:24 01.09.2019
2667 Rain 25 1013 66 0 0.89 315 14:45 01.09.2019
2668 Rain 24 1013 71 0 0.89 292 14:27 01.09.2019
2669 Rain 23 1013 72 0 0.89 315 13:59 01.09.2019
2670 Rain 23 1013 76 0 0.45 292 13:41 01.09.2019
2671 Clouds 23 1012 76 0 0.89 292 13:23 01.09.2019
2672 Clouds 24 1012 66 0 7.23 274.822 12:45 01.09.2019
2673 Clouds 27 1011 63 0 0.89 315 12:26 01.09.2019
2674 Clouds 26 1011 64 0 0.45 45 11:59 01.09.2019
2675 Clouds 27 1011 55 0 1.79 315 11:39 01.09.2019
2676 Clouds 27 1011 54 0 0.89 292 11:19 01.09.2019
2677 Clouds 27 1011 54 0 0.89 292 11:19 01.09.2019
2678 Clouds 26 1011 57 0 0.45 292 10:45 01.09.2019
2679 Clouds 26 1010 61 0 6.75 281.495 10:23 01.09.2019
2680 Clouds 25 1010 62 0 6.75 281.495 09:59 01.09.2019
2681 Clouds 24 1010 65 0 7.9 276.571 09:41 01.09.2019
2682 Rain 24 1010 65 0 0.89 225 09:22 01.09.2019
2683 Rain 23 1010 66 0 0.89 202 08:43 01.09.2019
2684 Rain 23 1010 68 0 1.34 180 08:22 01.09.2019
2685 Rain 22 1010 70 0 0.89 180 07:46 01.09.2019
2686 Rain 21 1010 70 0 0.89 180 07:22 01.09.2019
2687 Rain 21 1010 71 0 0.45 180 06:39 01.09.2019
2688 Rain 21 1010 70 0 1.34 135 05:59 01.09.2019
2689 Rain 21 1010 68 0 0.89 135 05:37 01.09.2019
2690 Rain 22 1011 66 0 1.34 135 04:22 01.09.2019
2691 Rain 22 1011 64 0 0.89 135 03:38 01.09.2019
2692 Rain 23 1012 62 0 0.89 135 02:52 01.09.2019
2693 Rain 23 1012 61 0 0.89 135 02:25 01.09.2019
2694 Rain 24 1012 59 0 1.34 135 01:41 01.09.2019
2695 Rain 24 1013 59 0 1.79 157 01:22 01.09.2019
2696 Rain 24 1013 58 0 1.34 135 00:42 01.09.2019
2697 Rain 24 1013 58 0 1.34 157 00:21 01.09.2019
2698 Rain 24 1013 58 0 1.34 157 00:21 01.09.2019
2699 Rain 25 1013 57 0 1.79 135 23:48 31.08.2019
2700 Rain 25 1014 57 0 0.89 157 23:22 31.08.2019
2701 Rain 26 1014 57 0 2.24 135 22:57 31.08.2019
2702 Rain 26 1014 56 0 1.79 135 22:39 31.08.2019
2703 Rain 26 1014 56 0 1.34 135 22:21 31.08.2019
2704 Rain 26 1014 56 0 1.79 135 21:55 31.08.2019
2705 Rain 26 1014 56 0 0.89 135 21:37 31.08.2019
2706 Clear 26 1014 56 0 0.89 135 21:19 31.08.2019
2707 Clear 26 1015 55 0 0.89 135 20:46 31.08.2019
2708 Clear 27 1015 53 0 0.89 135 20:28 31.08.2019
2709 Clear 25 1012 67 0 5.46 152.914 19:55 31.08.2019
2710 Clear 25 1012 67 0 5.46 152.914 19:37 31.08.2019
2711 Clear 25 1012 67 0 5.46 152.914 19:19 31.08.2019
2712 Clear 25 1012 67 0 5.46 152.914 18:39 31.08.2019
2713 Clear 25 1012 67 0 5.46 152.914 18:39 31.08.2019
2714 Clear 26 1013 63 0 3.5 196.469 18:20 31.08.2019
2715 Clear 26 1013 63 0 3.5 196.469 17:56 31.08.2019
2716 Clear 26 1013 63 0 3.5 196.469 17:37 31.08.2019
2717 Clear 26 1013 63 0 3.5 196.469 17:18 31.08.2019
2718 Clear 26 1013 63 0 3.5 196.469 16:57 31.08.2019
2719 Clear 26 1013 63 0 3.5 196.469 16:39 31.08.2019
2720 Clear 26 1013 63 0 3.5 196.469 16:20 31.08.2019
2721 Clear 26 1013 63 0 3.5 196.469 15:55 31.08.2019
2722 Clear 26 1013 63 0 3.5 196.469 15:36 31.08.2019
2723 Clouds 25 1016 70 0 2.16 117.231 15:18 31.08.2019
2724 Clouds 25 1016 70 0 2.16 117.231 14:41 31.08.2019
2725 Clouds 25 1016 70 0 2.16 117.231 14:22 31.08.2019
2726 Clouds 25 1016 70 0 2.16 117.231 13:42 31.08.2019
2727 Clouds 25 1016 69 0 2.83 120.51 13:23 31.08.2019
2728 Clouds 25 1016 69 0 2.83 120.51 12:59 31.08.2019
2729 Clouds 30 1019 54 0 1.34 135 12:39 31.08.2019
2730 Clouds 22 1018 76 0 3.04 150.412 12:20 31.08.2019
2731 Clouds 22 1018 76 0 3.04 150.412 11:56 31.08.2019
2732 Clouds 22 1018 76 0 3.04 150.412 11:38 31.08.2019
2733 Clouds 22 1018 76 0 3.04 150.412 11:20 31.08.2019
2734 Clouds 26 1021 68 0 0.89 157 10:42 31.08.2019
2735 Clouds 25 1021 70 0 0.89 180 10:19 31.08.2019
2736 Clouds 24 1021 72 0 1.34 180 09:59 31.08.2019
2737 Clouds 23 1021 75 0 1.34 157 09:38 31.08.2019
2738 Clouds 22 1021 77 0 0.89 157 09:19 31.08.2019
2739 Clouds 21 1021 81 0 1.34 135 08:44 31.08.2019
2740 Clouds 19 1022 84 0 2.67 130.871 08:25 31.08.2019
2741 Clouds 20 1019 79 0 2.67 130.871 07:42 31.08.2019
2742 Clouds 20 1019 79 0 2.67 130.871 07:23 31.08.2019
2743 Clouds 20 1019 79 0 2.67 130.871 06:49 31.08.2019
2744 Clouds 20 1019 79 0 3 156.204 06:21 31.08.2019
2745 Clouds 17 1022 83 0 3 156.204 05:34 31.08.2019
2746 Clouds 20 1019 79 0 3 156.204 04:39 31.08.2019
2747 Clouds 18 1023 83 0 3 156.204 03:50 31.08.2019
2748 Clouds 18 1023 81 0 2.44 131.274 02:59 31.08.2019
2749 Clouds 19 1024 79 0 2.44 131.274 01:59 31.08.2019
2750 Clouds 19 1024 79 0 2.44 131.274 01:41 31.08.2019
2751 Clouds 19 1024 78 0 1.77 115.783 01:22 31.08.2019
2752 Clouds 19 1024 78 0 1.77 115.783 00:42 31.08.2019
2753 Clouds 19 1024 78 0 0.45 135 00:24 31.08.2019
2754 Clouds 19 1024 79 0 0.45 135 23:47 30.08.2019
2755 Clouds 19 1025 78 0 1.17 107.599 23:18 30.08.2019
2756 Clouds 19 1025 77 0 1.17 107.599 22:56 30.08.2019
2757 Clouds 19 1025 77 0 1.17 107.599 22:37 30.08.2019
2758 Clouds 19 1025 76 0 1.17 107.599 22:19 30.08.2019
2759 Clouds 19 1025 77 0 0.45 135 21:55 30.08.2019
2760 Clouds 20 1025 76 0 1.79 130.872 21:36 30.08.2019
2761 Clouds 20 1025 76 0 0.45 135 21:18 30.08.2019
2762 Clouds 21 1025 74 0 0.89 112 20:42 30.08.2019
2763 Clouds 22 1025 72 0 0.45 135 20:22 30.08.2019
2764 Clouds 22 1025 70 0 0.45 135 19:59 30.08.2019
2765 Clouds 24 1024 66 0 0.89 135 19:40 30.08.2019
2766 Clouds 24 1024 64 0 0.89 135 19:21 30.08.2019
2767 Clouds 21 1022 78 0 1.78 62.629 18:58 30.08.2019
2768 Clouds 21 1022 78 0 1.78 62.629 18:40 30.08.2019
2769 Clouds 26 1024 59 0 4.14 56.414 18:20 30.08.2019
2770 Clouds 26 1025 58 0 4.14 56.414 17:56 30.08.2019
2771 Clouds 26 1025 58 0 4.14 56.414 17:37 30.08.2019
2772 Clouds 26 1025 60 0 4.14 56.414 17:18 30.08.2019
2773 Clouds 26 1025 61 0 4.14 56.414 16:44 30.08.2019
2774 Clouds 26 1025 61 0 4.14 56.414 16:25 30.08.2019
2775 Clouds 25 1025 63 0 4.14 56.414 15:57 30.08.2019
2776 Clouds 25 1025 64 0 4.14 56.414 15:37 30.08.2019
2777 Clouds 25 1025 64 0 4.14 56.414 15:37 30.08.2019
2778 Clouds 24 1025 64 0 1.95 35.074 15:19 30.08.2019
2779 Clouds 24 1025 68 0 1.95 35.074 14:42 30.08.2019
2780 Clouds 24 1026 69 0 1.95 35.074 14:24 30.08.2019
2781 Clouds 24 1026 68 0 0.45 45 13:56 30.08.2019
2782 -273 0 0 0 0 0 13:56 30.08.2019
2783 Clouds 24 1026 65 0 1.95 35.074 13:36 30.08.2019
2784 Clouds 24 1026 64 0 2.31 21.746 13:18 30.08.2019
2785 Clouds 24 1026 64 0 0.45 22 12:42 30.08.2019
2786 Clouds 24 1026 66 0 0.45 0 12:22 30.08.2019
2787 Clouds 23 1026 64 0 0.89 22 11:43 30.08.2019
2788 Clouds 23 1026 66 0 0.85 291.452 11:25 30.08.2019
2789 Clouds 23 1026 67 0 0.85 291.452 10:59 30.08.2019
2790 Clouds 23 1026 70 0 0.85 291.452 10:37 30.08.2019
2791 Clouds 22 1027 74 0 0.85 291.452 10:18 30.08.2019
2792 Clouds 21 1026 79 0 0.85 291.452 09:42 30.08.2019
2793 Clear 20 1026 81 0 2.58 282.326 09:20 30.08.2019
2794 Clear 19 1026 83 0 2.58 282.326 08:59 30.08.2019
2795 Clear 18 1026 83 0 2.58 282.326 08:40 30.08.2019
2796 Clear 18 1026 83 0 2.58 282.326 08:21 30.08.2019
2797 Clear 17 1025 81 0 2.58 282.326 07:44 30.08.2019
2798 Clear 17 1025 81 0 2.58 282.326 07:23 30.08.2019
2799 Clear 16 1025 81 0 2.58 282.326 06:49 30.08.2019
2800 Clear 16 1025 80 0 2.58 282.326 06:30 30.08.2019
2801 Clear 16 1025 80 0 3.28 305.182 05:59 30.08.2019
2802 Clear 17 1024 81 0 3.28 305.182 04:53 30.08.2019
2803 Clear 18 1024 79 0 3.28 305.182 03:55 30.08.2019
2804 Clear 18 1024 79 0 3.28 305.182 03:34 30.08.2019
2805 Clouds 19 1024 78 0 5.24 310.923 02:35 30.08.2019
2806 Clouds 19 1024 77 0 0.45 292 01:40 30.08.2019
2807 Clear 20 1024 76 0 5.92 305.717 00:46 30.08.2019
2808 Clear 20 1023 76 0 0.89 337 00:18 30.08.2019
2809 Clear 21 1023 77 0 0.45 292 23:42 29.08.2019
2810 Clear 21 1023 77 0 5.44 280.589 23:21 29.08.2019
2811 Clear 21 1023 77 0 5.44 280.589 23:21 29.08.2019
2812 Clear 21 1023 77 0 5.44 280.589 23:21 29.08.2019
2813 Clear 21 1023 76 0 0.45 292 22:45 29.08.2019
2814 Clear 22 1023 75 0 5.44 280.589 22:27 29.08.2019
2815 Clear 22 1022 74 0 0.45 292 21:58 29.08.2019
2816 Clear 22 1022 73 0 0.45 292 21:40 29.08.2019
2817 Clear 22 1022 73 0 0.45 292 21:21 29.08.2019
2818 Clear 23 1022 71 0 0.45 292 20:58 29.08.2019
2819 Clear 23 1022 71 0 0.45 315 20:39 29.08.2019
2820 Clear 23 1022 71 0 0.45 292 20:19 29.08.2019
2821 Clear 21 1018 78 0 6.36 272.756 19:47 29.08.2019
2822 Clear 21 1018 78 0 6.36 272.756 19:26 29.08.2019
2823 Clear 25 1021 68 0 6.36 272.756 18:58 29.08.2019
2824 Clear 21 1018 78 0 6.36 272.756 18:40 29.08.2019
2825 Clear 26 1021 67 0 4.96 270.081 18:19 29.08.2019
2826 Clear 25 1020 69 0 4.96 270.081 17:56 29.08.2019
2827 Clear 26 1020 66 0 0.45 22 17:36 29.08.2019
2828 Clear 26 1020 66 0 4.96 270.081 17:18 29.08.2019
2829 Clear 27 1020 62 0 4.96 270.081 16:42 29.08.2019
2830 Clear 27 1020 62 0 4.96 270.081 16:23 29.08.2019
2831 Clear 26 1020 66 0 4.96 270.081 15:57 29.08.2019
2832 Clear 26 1020 66 0 4.96 270.081 15:37 29.08.2019
2833 Clouds 27 1020 61 0 5.94 266.67 15:18 29.08.2019
2834 Clouds 27 1020 61 0 0.89 22 14:43 29.08.2019
2835 Clouds 27 1020 63 0 0.45 337 14:21 29.08.2019
2836 Clouds 26 1020 65 0 5.94 266.67 13:58 29.08.2019
2837 Clouds 26 1020 65 0 5.94 266.67 13:58 29.08.2019
2838 Clouds 26 1019 65 0 5.94 266.67 13:39 29.08.2019
2839 Clouds 27 1019 64 0 0.45 22 13:20 29.08.2019
2840 Clouds 26 1019 65 0 6.22 269.216 12:58 29.08.2019
2841 Clouds 26 1019 66 0 6.22 269.216 12:39 29.08.2019
2842 Clouds 25 1019 66 0 0.45 337 12:20 29.08.2019
2843 Clouds 26 1019 67 0 3.93 265.843 11:58 29.08.2019
2844 Clouds 25 1019 70 0 0.45 292 11:37 29.08.2019
2845 Clouds 24 1019 70 0 0.89 315 11:18 29.08.2019
2846 Clouds 23 1018 75 0 3.93 265.843 10:42 29.08.2019
2847 Clouds 23 1019 76 0 3.93 265.843 10:24 29.08.2019
2848 Clouds 23 1018 78 0 5.99 266.475 09:42 29.08.2019
2849 Rain 22 1018 79 0 5.14 240.335 09:21 29.08.2019
2850 Rain 22 1018 80 0 5.14 240.335 08:59 29.08.2019
2851 Rain 21 1018 80 0 5.14 240.335 08:40 29.08.2019
2852 Rain 21 1018 80 0 5.14 240.335 08:21 29.08.2019
2853 Rain 20 1017 80 0 5.14 240.335 07:49 29.08.2019
2854 Rain 19 1018 79 0 5.14 240.335 07:26 29.08.2019
2855 Rain 18 1017 79 0 5.14 240.335 06:48 29.08.2019
2856 Rain 18 1017 79 0 5.14 240.335 06:30 29.08.2019
2857 Clouds 18 1017 79 0 6.27 270.265 05:42 29.08.2019
2858 Clouds 19 1017 78 0 6.27 270.265 04:51 29.08.2019
2859 Clouds 19 1017 78 0 6.27 270.265 04:29 29.08.2019
2860 Clouds 20 1017 78 0 6.27 270.265 03:35 29.08.2019
2861 Rain 21 1016 74 0 5.23 228.958 01:50 29.08.2019
2862 Rain 21 1016 74 0 4.76 250.445 01:30 29.08.2019
2863 Rain 21 1016 75 0 4.76 250.445 00:45 29.08.2019
2864 Rain 21 1017 76 0 0.89 202 00:21 29.08.2019
2865 Rain 22 1018 71 0 0.89 202 23:44 28.08.2019
2866 Rain 23 1018 68 0 1.34 202 23:25 28.08.2019
2867 Rain 23 1018 66 0 1.34 225 22:59 28.08.2019
2868 Rain 24 1017 63 0 5.42 172.308 22:39 28.08.2019
2869 Rain 24 1017 63 0 5.42 172.308 22:39 28.08.2019
2870 Rain 24 1017 63 0 1.34 225 22:19 28.08.2019
2871 Rain 24 1016 63 0 1.34 157 21:59 28.08.2019
2872 Rain 25 1016 62 0 0.89 135 21:39 28.08.2019
2873 Rain 25 1016 61 0 0.89 157 21:21 28.08.2019
2874 Rain 26 1016 60 0 1.79 135 20:46 28.08.2019
2875 Rain 26 1016 60 0 1.79 135 20:27 28.08.2019
2876 Rain 27 1016 56 0 0.89 135 19:59 28.08.2019
2877 Rain 24 1013 78 0 1.84 89.813 19:40 28.08.2019
2878 Rain 29 1016 54 0 0.89 135 19:21 28.08.2019
2879 Rain 24 1013 78 0 1.84 89.813 18:56 28.08.2019
2880 Rain 24 1013 78 0 1.84 89.813 18:36 28.08.2019
2881 Rain 25 1013 73 0 1.17 32.809 18:18 28.08.2019
2882 Rain 25 1013 73 0 1.17 32.809 17:37 28.08.2019
2883 Rain 25 1013 73 0 1.17 32.809 17:19 28.08.2019
2884 Rain 29 1016 57 0 1.17 32.809 16:43 28.08.2019
2885 Rain 29 1016 52 0 1.17 32.809 16:21 28.08.2019
2886 Rain 25 1013 73 0 1.17 32.809 15:59 28.08.2019
2887 Rain 25 1013 73 0 1.17 32.809 15:37 28.08.2019
2888 Clouds 24 1014 76 0 3.2 28.297 15:19 28.08.2019
2889 Clouds 24 1014 76 0 3.2 28.297 14:57 28.08.2019
2890 Clouds 24 1014 76 0 3.2 28.297 14:38 28.08.2019
2891 Clouds 24 1014 76 0 3.2 28.297 14:20 28.08.2019
2892 Clouds 24 1014 76 0 3.2 28.297 13:57 28.08.2019
2893 Clouds 24 1014 76 0 3.2 28.297 13:37 28.08.2019
2894 Rain 24 1014 75 0 1.03 29.738 13:19 28.08.2019
2895 Rain 24 1014 75 0 1.03 29.738 12:42 28.08.2019
2896 Clouds 23 1014 79 0 2.83 184.609 12:23 28.08.2019
2897 Clouds 23 1014 79 0 2.83 184.609 11:55 28.08.2019
2898 Clouds 23 1014 79 0 2.83 184.609 11:37 28.08.2019
2899 Clouds 23 1014 79 0 2.83 184.609 11:18 28.08.2019
2900 Clouds 29 1017 60 0 0.45 180 10:41 28.08.2019
2901 Clouds 28 1018 62 0 0.45 180 10:22 28.08.2019
2902 Clouds 27 1017 64 0 0.45 157 09:59 28.08.2019
2903 Clouds 26 1018 66 0 0.89 135 09:41 28.08.2019
2904 Rain 25 1018 68 0 0.45 135 09:19 28.08.2019
2905 Rain 23 1018 73 0 1.34 135 08:39 28.08.2019
2906 Rain 23 1018 74 0 0.45 135 08:21 28.08.2019
2907 Rain 22 1018 75 0 0.89 135 07:45 28.08.2019
2908 Rain 21 1018 75 0 0.45 135 07:25 28.08.2019
2909 Rain 21 1018 76 0 0.89 157 06:59 28.08.2019
2910 Rain 21 1018 75 0 0.45 135 06:40 28.08.2019
2911 Rain 21 1018 75 0 0.89 135 05:44 28.08.2019
2912 Rain 22 1019 74 0 0.89 135 03:32 28.08.2019
2913 Rain 22 1019 72 0 0.45 135 01:53 28.08.2019
2914 Rain 22 1019 72 0 0.45 135 01:30 28.08.2019
2915 Rain 23 1019 70 0 4.18 122.363 00:42 28.08.2019
2916 Rain 23 1019 71 0 0.45 135 00:18 28.08.2019
2917 Rain 23 1020 70 0 4.61 146.686 23:40 27.08.2019
2918 Rain 23 1020 70 0 4.61 146.686 23:21 27.08.2019
2919 Rain 23 1020 70 0 4.61 146.686 22:57 27.08.2019
2920 Rain 23 1020 69 0 0.45 135 22:38 27.08.2019
2921 Rain 24 1020 69 0 4.61 146.686 22:20 27.08.2019
2922 Rain 24 1020 68 0 6.75 120.702 21:55 27.08.2019
2923 Rain 24 1020 68 0 6.75 120.702 21:55 27.08.2019
2924 Rain 24 1020 66 0 0.45 135 21:37 27.08.2019
2925 Rain 24 1020 66 0 0.45 135 21:37 27.08.2019
2926 Rain 24 1020 65 0 0.45 135 21:18 27.08.2019
2927 Rain 26 1020 59 0 0.89 135 20:42 27.08.2019
2928 Rain 26 1020 59 0 0.45 135 20:22 27.08.2019
2929 Rain 26 1019 60 0 6.15 98.844 19:59 27.08.2019
2930 Rain 27 1019 59 0 1.34 135 19:40 27.08.2019
2931 Rain 27 1019 58 0 0.89 112 19:22 27.08.2019
2932 Rain 24 1017 69 0 6.15 98.844 18:55 27.08.2019
2933 Rain 24 1017 69 0 6.15 98.844 18:36 27.08.2019
2934 Clouds 25 1017 66 0 6.26 99.243 18:18 27.08.2019
2935 Clouds 25 1017 66 0 6.26 99.243 17:42 27.08.2019
2936 Clouds 25 1017 66 0 6.26 99.243 17:22 27.08.2019
2937 Clouds 25 1017 66 0 6.26 99.243 16:48 27.08.2019
2938 Clouds 25 1017 66 0 6.26 99.243 16:28 27.08.2019
2939 Clouds 25 1017 66 0 6.26 99.243 15:58 27.08.2019
2940 Clouds 25 1017 66 0 6.26 99.243 15:40 27.08.2019
2941 Clear 25 1020 66 0 5.99 112.177 15:21 27.08.2019
2942 Clear 25 1020 66 0 5.99 112.177 14:58 27.08.2019
2943 Clear 25 1020 66 0 5.99 112.177 14:40 27.08.2019
2944 Clear 25 1020 66 0 5.99 112.177 14:20 27.08.2019
2945 Clear 25 1020 66 0 5.99 112.177 13:42 27.08.2019
2946 Clear 25 1020 66 0 5.99 112.177 13:42 27.08.2019
2947 Clear 25 1019 65 0 5.93 109.291 13:23 27.08.2019
2948 Clear 25 1019 65 0 5.93 109.291 12:55 27.08.2019
2949 Clear 28 1022 63 0 0.89 22 12:37 27.08.2019
2950 Rain 23 1019 74 0 4.02 104.057 12:18 27.08.2019
2951 Rain 26 1023 66 0 0.45 22 11:43 27.08.2019
2952 Rain 26 1023 67 0 4.02 104.057 11:24 27.08.2019
2953 Rain 26 1023 69 0 4.02 104.057 10:42 27.08.2019
2954 Rain 26 1023 70 0 4.02 104.057 10:21 27.08.2019
2955 Rain 24 1023 76 0 4.02 104.057 09:58 27.08.2019
2956 Rain 23 1023 79 0 4.02 104.057 09:38 27.08.2019
2957 Rain 23 1023 81 0 4.22 133.31 09:20 27.08.2019
2958 Rain 22 1023 83 0 4.22 133.31 08:54 27.08.2019
2959 Rain 22 1023 85 0 0.89 45 08:36 27.08.2019
2960 Rain 21 1023 87 0 0.45 45 08:18 27.08.2019
2961 Rain 21 1023 87 0 4.22 133.31 07:39 27.08.2019
2962 Rain 20 1023 88 0 4.22 133.31 07:19 27.08.2019
2963 Rain 19 1022 88 0 4.22 133.31 06:51 27.08.2019
2964 Clouds 18 1022 82 0 3.47 95.265 06:23 27.08.2019
2965 Clouds 18 1023 79 0 3.47 95.265 05:42 27.08.2019
2966 Clouds 19 1023 77 0 3.47 95.265 04:37 27.08.2019
2967 Clouds 20 1022 76 0 3.47 95.265 03:34 27.08.2019
2968 Clouds 21 1022 78 0 4 133.409 02:23 27.08.2019
2969 Clouds 21 1023 73 0 4 133.409 01:40 27.08.2019
2970 Rain 21 1023 73 0 3.89 141.372 01:21 27.08.2019
2971 Rain 21 1023 74 0 3.89 141.372 00:41 27.08.2019
2972 Rain 21 1023 73 0 6.19 92.845 00:22 27.08.2019
2973 Rain 21 1023 72 0 6.19 92.845 23:38 26.08.2019
2974 Rain 22 1023 71 0 0.45 135 23:19 26.08.2019
2975 Rain 22 1023 70 0 6.19 92.845 22:40 26.08.2019
2976 Rain 22 1023 70 0 0.45 135 22:20 26.08.2019
2977 Rain 22 1023 69 0 5.71 100.909 21:59 26.08.2019
2978 Rain 22 1023 68 0 0.45 135 21:38 26.08.2019
2979 Clouds 22 1023 67 0 0.45 135 21:20 26.08.2019
2980 Clouds 23 1023 63 0 5.14 91.549 20:56 26.08.2019
2981 Clouds 23 1023 62 0 5.14 91.549 20:38 26.08.2019
2982 Clouds 24 1023 59 0 5.14 91.549 20:18 26.08.2019
2983 Clouds 22 1021 79 0 5.14 91.549 19:43 26.08.2019
2984 Clouds 22 1021 79 0 5.14 91.549 19:20 26.08.2019
2985 Clouds 22 1021 79 0 5.14 91.549 18:59 26.08.2019
2986 Clouds 22 1021 79 0 5.14 91.549 18:38 26.08.2019
2987 Clouds 22 1021 74 0 5.12 84.009 18:19 26.08.2019
2988 Clouds 22 1021 74 0 5.12 84.009 17:44 26.08.2019
2989 Clouds 22 1021 74 0 5.12 84.009 17:20 26.08.2019
2990 Clouds 22 1021 74 0 5.12 84.009 16:58 26.08.2019
2991 Clouds 22 1021 74 0 5.12 84.009 16:40 26.08.2019
2992 Clouds 22 1021 74 0 5.12 84.009 16:40 26.08.2019
2993 Clouds 22 1021 74 0 5.12 84.009 16:19 26.08.2019
2994 Clouds 22 1021 74 0 5.12 84.009 15:59 26.08.2019
2995 Clouds 22 1021 74 0 5.12 84.009 15:41 26.08.2019
2996 Clouds 22 1022 72 0 5.43 75.206 15:21 26.08.2019
2997 Clouds 22 1022 72 0 5.43 75.206 14:44 26.08.2019
2998 Clouds 22 1022 72 0 5.43 75.206 14:23 26.08.2019
2999 Clouds 26 1025 62 0 5.43 75.206 13:57 26.08.2019
3000 Clouds 26 1025 62 0 0.45 45 13:38 26.08.2019
3001 Clear 26 1025 61 0 1.34 45 13:19 26.08.2019
3002 Clear 26 1025 59 0 5.21 81.183 12:43 26.08.2019
3003 Clear 25 1025 62 0 3.79 98.607 12:24 26.08.2019
3004 Clear 25 1025 64 0 3.79 98.607 11:56 26.08.2019
3005 Clear 24 1025 66 0 0.89 0 11:36 26.08.2019
3006 Clear 24 1025 65 0 0.45 22 11:18 26.08.2019
3007 Clear 24 1025 67 0 0.45 45 10:42 26.08.2019
3008 Clear 23 1025 67 0 3.79 98.607 10:21 26.08.2019
3009 Clear 23 1025 63 0 3.79 98.607 09:57 26.08.2019
3010 Clear 23 1025 65 0 3.98 100.616 09:38 26.08.2019
3011 Clear 22 1025 68 0 3.87 117.57 09:19 26.08.2019
3012 Clear 19 1025 78 0 3.87 117.57 08:42 26.08.2019
3013 Clear 18 1025 79 0 3.87 117.57 08:23 26.08.2019
3014 Clear 20 1022 77 0 3.87 117.57 07:59 26.08.2019
3015 Clear 20 1022 77 0 3.87 117.57 07:40 26.08.2019
3016 Clear 20 1022 77 0 3.87 117.57 07:21 26.08.2019
3017 Clear 20 1022 77 0 3.87 117.57 06:42 26.08.2019
3018 Clear 20 1022 75 0 3.93 129.095 06:22 26.08.2019
3019 Clear 20 1022 75 0 3.93 129.095 05:49 26.08.2019
3020 Clear 17 1025 73 0 3.93 129.095 04:28 26.08.2019
3021 Clouds 18 1025 74 0 4.75 125.822 02:55 26.08.2019
3022 Clouds 19 1025 73 0 0.45 135 01:39 26.08.2019
3023 Clear 21 1023 74 0 5.04 132.878 01:18 26.08.2019
3024 Clear 19 1025 77 0 0.45 135 00:38 26.08.2019
3025 Clear 19 1025 77 0 0.45 135 00:19 26.08.2019
3026 Clear 20 1026 75 0 0.45 135 23:42 25.08.2019
3027 Clear 20 1026 76 0 0.89 135 23:19 25.08.2019
3028 Clear 21 1026 73 0 0.89 135 22:56 25.08.2019
3029 Clear 21 1026 71 0 0.89 135 22:38 25.08.2019
3030 Clear 21 1026 70 0 0.45 135 22:19 25.08.2019
3031 Clear 21 1026 67 0 6.14 110.638 21:56 25.08.2019
3032 Clear 22 1025 67 0 0.45 135 21:37 25.08.2019
3033 Clear 22 1025 66 0 0.45 135 21:18 25.08.2019
3034 Clear 23 1025 61 0 6.71 97.898 20:40 25.08.2019
3035 Clear 23 1025 58 0 1.34 135 20:20 25.08.2019
3036 Clear 21 1022 72 0 6.71 97.898 19:58 25.08.2019
3037 Clear 21 1022 72 0 6.71 97.898 19:38 25.08.2019
3038 Clear 21 1022 72 0 6.71 97.898 19:19 25.08.2019
3039 Clear 21 1022 72 0 6.71 97.898 18:57 25.08.2019
3040 Clear 21 1022 72 0 6.71 97.898 18:39 25.08.2019
3041 Clear 23 1022 63 0 6.43 95.077 18:20 25.08.2019
3042 Clear 23 1022 63 0 6.43 95.077 17:43 25.08.2019
3043 Clear 23 1022 63 0 6.43 95.077 17:25 25.08.2019
3044 Clear 23 1022 63 0 6.43 95.077 16:56 25.08.2019
3045 Clear 23 1022 63 0 6.43 95.077 16:36 25.08.2019
3046 Clear 23 1022 63 0 6.43 95.077 16:18 25.08.2019
3047 Clear 23 1022 63 0 6.43 95.077 15:42 25.08.2019
3048 Clear 23 1023 64 0 5.53 103.714 15:24 25.08.2019
3049 Clear 23 1023 64 0 5.53 103.714 14:43 25.08.2019
3050 Clear 23 1023 64 0 5.53 103.714 14:24 25.08.2019
3051 Clear 23 1023 64 0 5.53 103.714 13:56 25.08.2019
3052 Clear 23 1023 64 0 5.53 103.714 13:37 25.08.2019
3053 Clear 23 1023 63 0 5.6 103.366 13:19 25.08.2019
3054 Clear 23 1023 63 0 5.6 103.366 12:48 25.08.2019
3055 Clear 23 1023 63 0 5.6 103.366 12:26 25.08.2019
3056 Clear 22 1023 65 0 5.36 119.672 11:59 25.08.2019
3057 Clear 22 1023 65 0 5.36 119.672 11:40 25.08.2019
3058 Clear 22 1023 65 0 5.36 119.672 11:21 25.08.2019
3059 Clear 26 1026 52 0 0.89 112 10:58 25.08.2019
3060 Clear 25 1026 53 0 1.79 135 10:39 25.08.2019
3061 Clear 24 1027 54 0 0.89 135 10:19 25.08.2019
3062 Clear 23 1027 57 0 1.79 135 09:44 25.08.2019
3063 Clear 22 1026 60 0 1.34 135 09:25 25.08.2019
3064 Clear 21 1026 67 0 0.89 135 08:56 25.08.2019
3065 Clear 20 1026 70 0 0.89 135 08:38 25.08.2019
3066 Clear 19 1026 72 0 0.45 135 08:20 25.08.2019
3067 Clear 18 1026 76 0 0.89 112 07:34 25.08.2019
3068 Clear 20 1023 72 0 4.96 123.527 06:45 25.08.2019
3069 Clear 20 1024 77 0 4.31 128.18 05:43 25.08.2019
3070 Clear 17 1026 77 0 0.45 135 04:32 25.08.2019
3071 Clear 17 1026 78 0 0.45 135 03:31 25.08.2019
3072 Clear 18 1027 79 0 0.45 135 02:39 25.08.2019
3073 Clear 18 1027 78 0 0.89 135 01:20 25.08.2019
3074 Clear 18 1027 77 0 0.45 135 00:38 25.08.2019
3075 Clear 18 1027 77 0 5.96 97.689 00:20 25.08.2019
3076 Clear 19 1027 76 0 5.96 97.689 23:47 24.08.2019
3077 Clear 19 1027 75 0 5.96 97.689 23:22 24.08.2019
3078 Clear 19 1027 75 0 5.96 97.689 22:55 24.08.2019
3079 Clear 19 1027 75 0 5.96 97.689 22:37 24.08.2019
3080 Clear 19 1027 75 0 0.45 135 22:19 24.08.2019
3081 Clear 19 1027 73 0 5.96 97.689 21:55 24.08.2019
3082 Clear 20 1027 71 0 5.96 97.689 21:36 24.08.2019
3083 Clear 20 1027 70 0 5.7 86.904 21:18 24.08.2019
3084 Clear 22 1027 63 0 5.7 86.904 20:42 24.08.2019
3085 Clear 23 1027 59 0 5.7 86.904 20:21 24.08.2019
3086 Clear 20 1024 73 0 5.7 86.904 19:59 24.08.2019
3087 Clear 20 1024 73 0 5.7 86.904 19:41 24.08.2019
3088 Clear 20 1024 73 0 5.7 86.904 19:22 24.08.2019
3089 Clear 20 1024 73 0 5.7 86.904 18:59 24.08.2019
3090 Clear 20 1024 73 0 5.7 86.904 18:39 24.08.2019
3091 Clear 24 1027 58 0 5.71 66.218 18:20 24.08.2019
3092 Clear 24 1028 65 0 5.71 66.218 17:44 24.08.2019
3093 Clear 24 1028 65 0 1.34 22 17:24 24.08.2019
3094 Clear 24 1028 63 0 0.89 45 16:48 24.08.2019
3095 Clear 24 1028 63 0 0.45 22 16:21 24.08.2019
3096 Clear 24 1028 63 0 5.71 66.218 15:59 24.08.2019
3097 Clear 24 1028 63 0 1.79 45 15:40 24.08.2019
3098 Clouds 24 1028 65 0 2.24 45 15:22 24.08.2019
3099 Clouds 24 1028 63 0 1.34 45 14:43 24.08.2019
3100 Clouds 24 1028 66 0 0.45 22 14:22 24.08.2019
3101 Clouds 24 1029 65 0 5.09 69.649 13:57 24.08.2019
3102 Clouds 24 1028 64 0 5.09 69.649 13:39 24.08.2019
3103 Clouds 24 1028 65 0 0.89 45 13:21 24.08.2019
3104 Clouds 24 1029 63 0 1.79 22 12:58 24.08.2019
3105 Clouds 24 1029 62 0 1.34 22 12:39 24.08.2019
3106 Clouds 24 1029 62 0 3.37 82.368 12:20 24.08.2019
3107 Clouds 24 1029 61 0 0.89 45 11:45 24.08.2019
3108 Clouds 23 1029 61 0 0.45 45 11:22 24.08.2019
3109 Clouds 23 1029 62 0 3.37 82.368 10:53 24.08.2019
3110 Clouds 22 1029 63 0 0.45 45 10:24 24.08.2019
3111 Clouds 21 1029 65 0 0.45 45 09:55 24.08.2019
3112 Clouds 21 1029 66 0 3.5 84.7 09:36 24.08.2019
3113 Clouds 21 1029 68 0 2.9 37 09:18 24.08.2019
3114 Clouds 18 1029 85 0 0.45 45 08:41 24.08.2019
3115 Clouds 17 1029 82 0 2.9 37 08:22 24.08.2019
3116 Clouds 19 1025 77 0 2.9 37 07:50 24.08.2019
3117 Clouds 19 1025 77 0 2.9 37 07:27 24.08.2019
3118 Clouds 19 1025 77 0 2.9 37 06:31 24.08.2019
3119 Clouds 19 1025 78 0 0.5 209.916 05:47 24.08.2019
3120 Clouds 19 1025 78 0 0.5 209.916 05:29 24.08.2019
3121 Clouds 14 1029 73 0 0.5 209.916 03:39 24.08.2019
3122 Clouds 19 1026 73 0 2.11 169.399 02:33 24.08.2019
3123 Clouds 16 1029 71 0 2.11 169.399 01:52 24.08.2019
3124 Clouds 16 1029 71 0 1.53 199.571 01:22 24.08.2019
3125 Clouds 16 1029 71 0 1.53 199.571 00:44 24.08.2019
3126 Clouds 16 1029 70 0 0.63 313.119 00:21 24.08.2019
3127 Clouds 17 1029 68 0 0.63 313.119 23:43 23.08.2019
3128 Clouds 17 1029 67 0 0.63 313.119 23:19 23.08.2019
3129 Clouds 18 1029 65 0 0.63 313.119 22:44 23.08.2019
3130 Clouds 18 1029 65 0 0.63 313.119 22:24 23.08.2019
3131 Clouds 19 1029 65 0 0.63 313.119 21:54 23.08.2019
3132 Clouds 19 1029 65 0 0.63 313.119 21:54 23.08.2019
3133 Clouds 19 1029 65 0 1.75 311.217 21:36 23.08.2019
3134 Clouds 19 1029 65 0 1.75 311.217 21:36 23.08.2019
3135 Clouds 20 1029 66 0 3.05 294.882 21:18 23.08.2019
3136 Clouds 21 1029 66 0 3.05 294.882 20:45 23.08.2019
3137 Clouds 21 1029 68 0 3.05 294.882 20:27 23.08.2019
3138 Clouds 22 1029 68 0 3.05 294.882 19:45 23.08.2019
3139 Clouds 22 1029 68 0 3.05 294.882 19:45 23.08.2019
3140 Clouds 22 1029 68 0 3.05 294.882 19:45 23.08.2019
3141 Clouds 22 1028 66 0 3.05 294.882 19:19 23.08.2019
3142 Clouds 22 1028 66 0 3.05 294.882 19:19 23.08.2019
3143 Clouds 23 1028 63 0 3.05 294.882 18:55 23.08.2019
3144 Clouds 23 1028 63 0 0.45 45 18:36 23.08.2019
3145 Clouds 23 1028 62 0 3.34 279.279 18:18 23.08.2019
3146 Clouds 24 1029 57 0 0.45 22 17:41 23.08.2019
3147 Clouds 24 1028 57 0 0.45 45 17:23 23.08.2019
3148 Clouds 24 1028 56 0 3.34 279.279 16:49 23.08.2019
3149 Clouds 25 1029 55 0 3.34 279.279 16:30 23.08.2019
3150 Clouds 20 1025 72 0 3.34 279.279 15:59 23.08.2019
3151 Clouds 20 1025 72 0 3.34 279.279 15:39 23.08.2019
3152 Clouds 20 1026 73 0 4.71 297.125 15:21 23.08.2019
3153 Clouds 20 1026 73 0 4.71 297.125 14:56 23.08.2019
3154 Clouds 20 1026 73 0 4.71 297.125 14:37 23.08.2019
3155 Clouds 20 1026 73 0 4.71 297.125 14:19 23.08.2019
3156 Clouds 20 1026 73 0 4.71 297.125 13:42 23.08.2019
3157 Clouds 19 1025 74 0 4.8 286.817 13:23 23.08.2019
3158 Clouds 19 1025 74 0 4.8 286.817 12:59 23.08.2019
3159 Clouds 28 1029 39 0 0.45 202 12:41 23.08.2019
3160 Clouds 19 1026 69 0 4.61 232.202 12:21 23.08.2019
3161 Clouds 19 1026 69 0 4.61 232.202 11:57 23.08.2019
3162 Clouds 19 1026 69 0 4.61 232.202 11:39 23.08.2019
3163 Clouds 19 1026 69 0 4.61 232.202 11:19 23.08.2019
3164 Clouds 25 1029 52 0 0.45 225 10:56 23.08.2019
3165 Clouds 24 1029 55 0 0.89 180 10:38 23.08.2019
3166 Clouds 23 1029 56 0 0.89 202 10:18 23.08.2019
3167 Clouds 22 1029 62 0 4.22 234.016 09:43 23.08.2019
3168 Clear 21 1029 64 0 0.45 225 09:20 23.08.2019
3169 Clear 19 1029 68 0 0.45 225 08:45 23.08.2019
3170 Clear 18 1029 70 0 5.43 221.174 08:22 23.08.2019
3171 Clear 17 1029 72 0 0.45 202 07:59 23.08.2019
3172 Clear 16 1029 72 0 0.45 202 07:40 23.08.2019
3173 Clear 16 1029 72 0 0.45 202 07:22 23.08.2019
3174 Clear 15 1029 72 0 0.45 180 06:41 23.08.2019
3175 Clear 15 1029 71 0 0.45 180 06:22 23.08.2019
3176 Clear 15 1029 69 0 0.45 180 05:44 23.08.2019
3177 Clear 15 1029 69 0 0.45 180 05:25 23.08.2019
3178 Clear 16 1029 65 0 0.45 180 03:57 23.08.2019
3179 Clouds 17 1029 62 0 0.45 180 02:39 23.08.2019
3180 Clouds 17 1029 61 0 0.89 180 02:20 23.08.2019
3181 Clouds 17 1029 62 0 0.89 180 01:30 23.08.2019
3182 Clouds 17 1028 62 0 0.45 157 00:42 23.08.2019
3183 Clouds 17 1028 63 0 0.45 135 00:18 23.08.2019
3184 Clouds 17 1028 64 0 0.45 135 23:43 22.08.2019
3185 Clouds 18 1028 64 0 0.45 135 23:22 22.08.2019
3186 Clouds 18 1028 70 0 0.45 135 22:43 22.08.2019
3187 Clouds 18 1028 70 0 0.45 135 22:43 22.08.2019
3188 Clouds 18 1028 71 0 0.45 135 22:24 22.08.2019
3189 Clouds 19 1028 64 0 0.45 135 21:59 22.08.2019
3190 Clear 19 1028 63 0 0.45 135 21:41 22.08.2019
3191 Clouds 20 1028 59 0 0.45 135 21:23 22.08.2019
3192 Clouds 21 1028 53 0 0.89 135 20:59 22.08.2019
3193 Clouds 21 1028 53 0 0.89 135 20:59 22.08.2019
3194 Clouds 22 1028 46 0 0.89 135 20:40 22.08.2019
3195 Clouds 24 1028 37 0 0.45 135 20:20 22.08.2019
3196 Clouds 21 1025 66 0 3.8 185.685 19:58 22.08.2019
3197 Clouds 21 1025 66 0 3.8 185.685 19:39 22.08.2019
3198 Clouds 21 1025 66 0 3.8 185.685 19:21 22.08.2019
3199 Clouds 21 1025 66 0 3.8 185.685 18:58 22.08.2019
3200 Clouds 21 1025 66 0 3.8 185.685 18:40 22.08.2019
3201 Clouds 21 1026 61 0 3.23 214.695 18:20 22.08.2019
3202 Clouds 21 1026 61 0 3.23 214.695 18:20 22.08.2019
3203 Clouds 21 1026 61 0 3.23 214.695 17:57 22.08.2019
3204 Clouds 21 1026 61 0 3.23 214.695 17:39 22.08.2019
3205 Clouds 21 1026 61 0 3.23 214.695 17:19 22.08.2019
3206 Clouds 21 1026 61 0 3.23 214.695 16:56 22.08.2019
3207 Clouds 21 1026 61 0 3.23 214.695 16:37 22.08.2019
3208 Clouds 21 1026 61 0 3.23 214.695 16:19 22.08.2019
3209 Clouds 21 1026 61 0 3.23 214.695 15:42 22.08.2019
3210 Clouds 21 1026 61 0 3.23 214.695 15:42 22.08.2019
3211 Clouds 21 1026 61 0 3.23 214.695 15:42 22.08.2019
3212 Clouds 21 1026 61 0 3.23 214.695 15:42 22.08.2019
3213 Clouds 21 1027 59 0 3.92 198.352 15:24 22.08.2019
3214 Clouds 21 1027 59 0 3.92 198.352 15:24 22.08.2019
3215 Clouds 21 1027 59 0 3.92 198.352 15:24 22.08.2019
3216 Clouds 21 1027 59 0 3.92 198.352 14:59 22.08.2019
3217 Clouds 21 1027 59 0 3.92 198.352 14:59 22.08.2019
3218 Clouds 21 1027 59 0 3.92 198.352 14:59 22.08.2019
3219 Clouds 21 1027 59 0 3.92 198.352 14:41 22.08.2019
3220 Clouds 21 1027 59 0 3.92 198.352 14:22 22.08.2019
3221 Clouds 21 1027 59 0 3.92 198.352 13:58 22.08.2019
3222 Clouds 21 1027 59 0 3.92 198.352 13:40 22.08.2019
3223 Clouds 27 1030 37 0 3.98 205.45 13:20 22.08.2019
3224 Clouds 26 1031 39 0 0.89 135 12:56 22.08.2019
3225 Clouds 26 1031 40 0 0.45 157 12:38 22.08.2019
3226 Clouds 19 1028 63 0 4.72 186.589 12:19 22.08.2019
3227 Clouds 19 1028 63 0 4.72 186.589 11:42 22.08.2019
3228 Clouds 23 1031 47 0 0.89 180 11:20 22.08.2019
3229 Clouds 22 1031 51 0 1.34 180 10:58 22.08.2019
3230 Clouds 22 1031 52 0 0.89 157 10:40 22.08.2019
3231 Clouds 21 1032 57 0 1.34 157 10:22 22.08.2019
3232 Clouds 19 1032 63 0 0.45 180 09:57 22.08.2019
3233 Clouds 19 1032 64 0 0.45 157 09:39 22.08.2019
3234 Clouds 19 1032 64 0 0.45 157 09:39 22.08.2019
3235 Clear 18 1032 66 0 0.89 157 09:20 22.08.2019
3236 Clear 17 1032 72 0 0.89 135 08:54 22.08.2019
3237 Clear 15 1032 75 0 0.89 157 08:36 22.08.2019
3238 Clear 14 1032 75 0 0.45 135 08:18 22.08.2019
3239 Clear 16 1028 75 0 4.81 179.666 07:39 22.08.2019
3240 Clear 16 1028 75 0 4.81 179.666 07:19 22.08.2019
3241 Clear 16 1028 75 0 4.81 179.666 06:48 22.08.2019
3242 Clear 15 1028 74 0 4.35 189.181 06:23 22.08.2019
3243 Clear 15 1028 74 0 4.35 189.181 05:40 22.08.2019
3244 Clear 15 1028 74 0 4.35 189.181 04:28 22.08.2019
3245 Clear 16 1028 73 0 3 204.042 02:47 22.08.2019
3246 Clear 16 1028 73 0 3 204.042 02:29 22.08.2019
3247 Clear 12 1032 65 0 3.81 218.143 01:23 22.08.2019
3248 Clear 13 1032 63 0 3.81 218.143 00:44 22.08.2019
3249 Clear 13 1032 62 0 3.81 218.143 00:26 22.08.2019
3250 Clear 13 1032 61 0 3.69 270.698 23:51 21.08.2019
3251 Clear 14 1032 60 0 3.69 270.698 23:32 21.08.2019
3252 Clear 15 1032 58 0 3.69 270.698 22:59 21.08.2019
3253 Clear 16 1031 57 0 3.69 270.698 22:41 21.08.2019
3254 Clear 16 1031 57 0 3.69 270.698 22:22 21.08.2019
3255 Clear 16 1031 57 0 3.69 270.698 22:22 21.08.2019
3256 Clear 16 1031 55 0 3.69 270.698 21:58 21.08.2019
3257 Clear 17 1031 54 0 3.78 248.961 21:39 21.08.2019
3258 Clear 17 1031 54 0 4.35 268.351 21:20 21.08.2019
3259 Clear 18 1031 51 0 4.35 268.351 20:59 21.08.2019
3260 Clear 19 1031 50 0 4.35 268.351 20:41 21.08.2019
3261 Clear 20 1031 48 0 4.35 268.351 20:23 21.08.2019
3262 Clear 17 1027 70 0 4.35 268.351 19:56 21.08.2019
3263 Clear 17 1027 70 0 4.35 268.351 19:37 21.08.2019
3264 Clear 17 1027 70 0 4.35 268.351 19:19 21.08.2019
3265 Clear 17 1027 70 0 4.35 268.351 18:43 21.08.2019
3266 Clear 22 1030 50 0 6.56 273.05 18:23 21.08.2019
3267 Clear 22 1030 50 0 6.56 273.05 18:23 21.08.2019
3268 Clear 22 1030 50 0 6.56 273.05 18:23 21.08.2019
3269 Clear 22 1030 52 0 6.56 273.05 17:56 21.08.2019
3270 Clear 21 1030 54 0 6.56 273.05 17:37 21.08.2019
3271 Clear 21 1030 55 0 0.89 22 17:19 21.08.2019
3272 Clear 22 1030 49 0 0.89 315 16:44 21.08.2019
3273 Clear 23 1030 45 0 0.89 337 16:24 21.08.2019
3274 Clear 23 1030 43 0 1.34 292 15:59 21.08.2019
3275 Clear 18 1027 68 0 6.56 273.05 15:41 21.08.2019
3276 Clear 17 1027 72 0 7.13 261.593 15:21 21.08.2019
3277 Clear 17 1027 72 0 7.13 261.593 14:57 21.08.2019
3278 Clear 17 1027 72 0 7.13 261.593 14:39 21.08.2019
3279 Clear 23 1030 43 0 7.13 261.593 14:20 21.08.2019
3280 Clear 23 1030 49 0 0.45 337 13:56 21.08.2019
3281 Clear 23 1030 50 0 7.13 261.593 13:38 21.08.2019
3282 Clear 23 1030 46 0 1.34 292 13:18 21.08.2019
3283 Clear 22 1030 50 0 0.45 315 12:41 21.08.2019
3284 Clear 21 1030 52 0 1.34 292 12:23 21.08.2019
3285 Clear 22 1030 54 0 0.45 292 11:59 21.08.2019
3286 Clear 21 1030 56 0 0.45 270 11:41 21.08.2019
3287 Clear 21 1030 58 0 1.34 315 11:22 21.08.2019
3288 Clear 19 1030 65 0 0.89 315 10:57 21.08.2019
3289 Clear 19 1029 68 0 1.34 337 10:38 21.08.2019
3290 Clear 19 1030 68 0 1.34 337 10:19 21.08.2019
3291 Clear 18 1030 72 0 0.45 0 09:57 21.08.2019
3292 Clear 18 1030 74 0 0.89 315 09:37 21.08.2019
3293 Rain 18 1029 75 0 0.89 292 09:18 21.08.2019
3294 Rain 17 1029 79 0 1.34 270 08:44 21.08.2019
3295 Rain 16 1029 81 0 0.45 315 08:24 21.08.2019
3296 Rain 14 1028 81 0 0.45 292 07:44 21.08.2019
3297 Rain 14 1028 79 0 0.45 292 07:24 21.08.2019
3298 Rain 13 1028 77 0 6.41 272.109 06:50 21.08.2019
3299 Rain 13 1028 77 0 6.41 272.109 06:32 21.08.2019
3300 Rain 13 1028 77 0 4.37 282.914 05:57 21.08.2019
3301 Rain 14 1028 78 0 4.37 282.914 05:28 21.08.2019
3302 Rain 14 1027 77 0 4.37 282.914 04:35 21.08.2019
3303 Clouds 16 1026 75 0 4.51 287.426 01:56 21.08.2019
3304 Clouds 16 1026 74 0 4.67 280.924 01:30 21.08.2019
3305 Clouds 16 1026 72 0 4.67 280.924 00:41 21.08.2019
3306 Clouds 16 1026 72 0 3.38 278.344 00:20 21.08.2019
3307 Clouds 17 1026 71 0 3.38 278.344 23:45 20.08.2019
3308 Clouds 17 1026 71 0 3.38 278.344 23:20 20.08.2019
3309 Clouds 17 1026 70 0 3.38 278.344 22:59 20.08.2019
3310 Clouds 17 1026 70 0 3.38 278.344 22:59 20.08.2019
3311 Clouds 18 1026 70 0 3.38 278.344 22:40 20.08.2019
3312 Clouds 18 1026 70 0 3.38 278.344 22:40 20.08.2019
3313 Clouds 18 1026 70 0 3.38 278.344 22:21 20.08.2019
3314 Clouds 18 1026 70 0 3.38 278.344 21:58 20.08.2019
3315 Clouds 18 1026 71 0 2.62 259.523 21:39 20.08.2019
3316 Clouds 19 1026 72 0 3.88 278.074 21:19 20.08.2019
3317 Clouds 19 1025 68 0 3.88 278.074 20:59 20.08.2019
3318 Clouds 19 1025 69 0 3.88 278.074 20:41 20.08.2019
3319 Clouds 19 1025 68 0 3.88 278.074 20:22 20.08.2019
3320 Clouds 20 1025 68 0 3.88 278.074 19:40 20.08.2019
3321 Clouds 20 1025 67 0 3.88 278.074 19:22 20.08.2019
3322 Clouds 22 1025 57 0 3.88 278.074 18:57 20.08.2019
3323 Clouds 22 1025 53 0 3.88 278.074 18:39 20.08.2019
3324 Clouds 22 1025 53 0 3.88 278.074 18:39 20.08.2019
3325 Clouds 22 1024 45 0 0.89 315 18:19 20.08.2019
3326 Clouds 23 1025 44 0 0.45 315 17:57 20.08.2019
3327 Clouds 23 1024 44 0 0.89 270 17:38 20.08.2019
3328 Clouds 23 1024 43 0 1.34 292 17:19 20.08.2019
3329 Clouds 24 1024 42 0 0.89 315 16:45 20.08.2019
3330 Clouds 24 1024 40 0 0.89 247 16:26 20.08.2019
3331 -273 0 0 0 0 0 15:56 20.08.2019
3332 Clouds 19 1021 72 0 6.52 273.85 15:38 20.08.2019
3333 Clouds 19 1021 70 0 5.86 271.174 15:18 20.08.2019
3334 Clouds 19 1021 70 0 5.86 271.174 14:43 20.08.2019
3335 Clouds 19 1021 70 0 5.86 271.174 14:22 20.08.2019
3336 Clouds 19 1021 70 0 5.86 271.174 14:22 20.08.2019
3337 Clouds 26 1024 43 0 5.86 271.174 13:58 20.08.2019
3338 Clouds 24 1024 42 0 5.86 271.174 13:39 20.08.2019
3339 Clouds 25 1024 42 0 5.66 264.867 13:20 20.08.2019
3340 Clouds 24 1024 45 0 5.66 264.867 12:54 20.08.2019
3341 Clouds 24 1024 44 0 0.45 270 12:36 20.08.2019
3342 -273 0 0 0 0 0 12:18 20.08.2019
3343 Clear 23 1024 52 0 0.45 247 11:42 20.08.2019
3344 Clear 22 1024 51 0 0.89 292 11:21 20.08.2019
3345 Clear 22 1024 55 0 6.74 245.363 10:57 20.08.2019
3346 Clear 21 1024 57 0 6.74 245.363 10:39 20.08.2019
3347 Clear 21 1024 57 0 6.74 245.363 10:39 20.08.2019
3348 Clear 21 1024 57 0 6.74 245.363 10:39 20.08.2019
3349 Clear 21 1024 58 0 6.74 245.363 10:20 20.08.2019
3350 Clear 19 1024 64 0 6.74 245.363 09:58 20.08.2019
3351 Clear 19 1024 67 0 0.45 225 09:40 20.08.2019
3352 Clear 19 1024 67 0 0.45 225 09:40 20.08.2019
3353 Clouds 18 1024 70 0 6 218.219 09:21 20.08.2019
3354 Clouds 18 1024 70 0 6 218.219 09:21 20.08.2019
3355 Clouds 16 1023 76 0 6 218.219 08:42 20.08.2019
3356 Clouds 15 1023 77 0 6 218.219 08:23 20.08.2019
3357 Clouds 13 1023 78 0 6 218.219 07:57 20.08.2019
3358 Clouds 16 1019 81 0 6 218.219 07:38 20.08.2019
3359 Clouds 16 1019 81 0 6 218.219 07:20 20.08.2019
3360 Clouds 16 1019 81 0 6 218.219 06:43 20.08.2019
3361 Clouds 12 1023 76 0 6.01 229.095 06:20 20.08.2019
3362 Clouds 12 1022 75 0 6.01 229.095 05:42 20.08.2019
3363 Clouds 12 1022 74 0 6.01 229.095 04:26 20.08.2019
3364 Rain 13 1022 72 0 5.4 215.756 02:48 20.08.2019
3365 Rain 13 1021 70 0 5.4 215.756 01:53 20.08.2019
3366 Rain 13 1021 69 0 6.24 233.725 01:21 20.08.2019
3367 Rain 14 1021 69 0 6.24 233.725 00:45 20.08.2019
3368 Rain 14 1021 68 0 5.7 230.534 00:24 20.08.2019
3369 Rain 14 1021 65 0 5.7 230.534 23:45 19.08.2019
3370 Rain 15 1021 65 0 5.7 230.534 23:19 19.08.2019
3371 Rain 15 1021 63 0 5.7 230.534 22:58 19.08.2019
3372 Rain 16 1021 62 0 5.7 230.534 22:40 19.08.2019
3373 Rain 16 1020 61 0 5.7 230.534 22:20 19.08.2019
3374 Rain 16 1020 60 0 5.7 230.534 21:57 19.08.2019
3375 Rain 17 1020 58 0 6.21 235.004 21:38 19.08.2019
3376 Clear 18 1020 57 0 3.76 255.339 21:19 19.08.2019
3377 Clear 19 1020 55 0 3.76 255.339 20:55 19.08.2019
3378 Clear 20 1020 54 0 3.76 255.339 20:37 19.08.2019
3379 Clear 21 1020 53 0 3.76 255.339 20:19 19.08.2019
3380 Clear 18 1015 79 0 3.76 255.339 19:54 19.08.2019
3381 Clear 18 1015 79 0 3.76 255.339 19:36 19.08.2019
3382 Clear 18 1015 79 0 3.76 255.339 19:18 19.08.2019
3383 Clear 18 1015 79 0 3.76 255.339 18:41 19.08.2019
3384 Clear 23 1019 50 0 7.22 265.263 18:22 19.08.2019
3385 Clear 23 1019 49 0 7.22 265.263 17:57 19.08.2019
3386 Clear 23 1018 48 0 7.22 265.263 17:38 19.08.2019
3387 Clear 24 1018 44 0 0.45 202 17:19 19.08.2019
3388 Clear 24 1018 45 0 7.22 265.263 16:54 19.08.2019
3389 Clear 19 1014 72 0 7.22 265.263 16:36 19.08.2019
3390 Clear 19 1014 72 0 7.22 265.263 16:18 19.08.2019
3391 Clear 19 1014 72 0 7.22 265.263 15:45 19.08.2019
3392 Clouds 19 1013 70 0 7.34 259.579 15:20 19.08.2019
3393 Clouds 19 1013 70 0 7.34 259.579 15:20 19.08.2019
3394 Clouds 23 1017 46 0 0.45 247 14:55 19.08.2019
3395 Clouds 19 1013 70 0 7.34 259.579 14:36 19.08.2019
3396 Clouds 19 1013 70 0 7.34 259.579 14:18 19.08.2019
3397 Clouds 24 1017 50 0 7.34 259.579 13:55 19.08.2019
3398 Clouds 23 1017 53 0 0.89 292 13:36 19.08.2019
3399 Clouds 23 1017 55 0 0.89 315 13:18 19.08.2019
3400 Clouds 22 1017 63 0 6.93 259.459 12:43 19.08.2019
3401 Clouds 20 1016 69 0 0.45 225 12:22 19.08.2019
3402 Clouds 22 1016 72 0 0.89 202 11:56 19.08.2019
3403 Clouds 21 1016 72 0 7.57 237.748 11:36 19.08.2019
3404 Clouds 20 1016 73 0 7.57 237.748 11:18 19.08.2019
3405 Clouds 20 1016 79 0 7.57 237.748 10:40 19.08.2019
3406 Clouds 20 1016 80 0 7.57 237.748 10:19 19.08.2019
3407 Clouds 19 1016 84 0 7.57 237.748 09:57 19.08.2019
3408 Clouds 18 1016 85 0 0.45 202 09:39 19.08.2019
3409 Clouds 18 1016 85 0 0.45 202 09:39 19.08.2019
3410 Clouds 18 1015 85 0 7.53 230.24 09:21 19.08.2019
3411 Clouds 17 1015 86 0 7.53 230.24 08:54 19.08.2019
3412 Clouds 17 1015 86 0 7.53 230.24 08:36 19.08.2019
3413 Clouds 17 1015 86 0 7.53 230.24 08:18 19.08.2019
3414 Clouds 15 1015 87 0 7.53 230.24 07:42 19.08.2019
3415 Clouds 15 1015 87 0 7.53 230.24 07:23 19.08.2019
3416 Clouds 14 1015 86 0 7.53 230.24 06:42 19.08.2019
3417 Clouds 14 1015 86 0 6.22 236.152 06:18 19.08.2019
3418 Clouds 14 1014 86 0 6.22 236.152 04:46 19.08.2019
3419 Clouds 14 1014 86 0 6.22 236.152 04:22 19.08.2019
3420 Clouds 14 1013 86 0 7.25 265.879 03:20 19.08.2019
3421 Clouds 14 1012 84 0 7.25 265.879 01:47 19.08.2019
3422 Clouds 14 1012 85 0 6.75 268.565 01:21 19.08.2019
3423 Clouds 15 1011 86 0 0.45 292 00:42 19.08.2019
3424 Clouds 15 1011 86 0 7.18 277.586 00:18 19.08.2019
3425 Clouds 16 1011 86 0 0.45 292 23:41 18.08.2019
3426 Clouds 17 1010 87 0 0.89 292 23:20 18.08.2019
3427 Clouds 17 1010 86 0 1.79 292 22:40 18.08.2019
3428 Clouds 17 1010 85 0 0.89 292 22:22 18.08.2019
3429 Clouds 17 1006 84 0 7.18 277.586 21:58 18.08.2019
3430 Clouds 17 1006 84 0 7.18 277.586 21:40 18.08.2019
3431 Rain 17 1005 90 0 7.85 300.029 21:21 18.08.2019
3432 Rain 17 1005 90 0 7.85 300.029 21:21 18.08.2019
3433 Rain 17 1005 90 0 7.85 300.029 20:59 18.08.2019
3434 Rain 17 1005 90 0 7.85 300.029 20:41 18.08.2019
3435 Rain 17 1005 90 0 7.85 300.029 20:23 18.08.2019
3436 Rain 17 1005 90 0 7.85 300.029 19:43 18.08.2019
3437 Rain 17 1005 90 0 7.85 300.029 19:25 18.08.2019
3438 Rain 17 1005 90 0 7.85 300.029 18:59 18.08.2019
3439 Rain 17 1005 90 0 7.85 300.029 18:41 18.08.2019
3440 Rain 18 1004 92 0 6.51 194.075 18:23 18.08.2019
3441 Rain 18 1004 92 0 6.51 194.075 17:56 18.08.2019
3442 Rain 18 1004 92 0 6.51 194.075 17:38 18.08.2019
3443 Rain 18 1004 92 0 6.51 194.075 17:19 18.08.2019
3444 Rain 18 1004 92 0 6.51 194.075 16:56 18.08.2019
3445 Rain 18 1004 92 0 6.51 194.075 16:38 18.08.2019
3446 Rain 18 1004 92 0 6.51 194.075 16:19 18.08.2019
3447 Rain 18 1004 92 0 6.51 194.075 15:55 18.08.2019
3448 Rain 18 1004 92 0 6.51 194.075 15:36 18.08.2019
3449 Rain 18 1005 95 0 5.5 180.334 15:18 18.08.2019
3450 Rain 18 1005 95 0 5.5 180.334 14:40 18.08.2019
3451 Rain 18 1005 95 0 5.5 180.334 14:20 18.08.2019
3452 Rain 18 1005 95 0 5.5 180.334 13:59 18.08.2019
3453 Rain 18 1005 95 0 5.5 180.334 13:40 18.08.2019
3454 Rain 18 1005 95 0 5.5 180.334 13:22 18.08.2019
3455 Rain 18 1005 95 0 5.5 180.334 12:57 18.08.2019
3456 Rain 18 1005 95 0 5.5 180.334 12:38 18.08.2019
3457 Rain 18 1005 95 0 5.5 180.334 12:38 18.08.2019
3458 Clouds 19 1006 87 0 3.27 193.386 12:20 18.08.2019
3459 Clouds 19 1006 87 0 3.27 193.386 12:20 18.08.2019
3460 Clouds 19 1006 87 0 3.27 193.386 11:42 18.08.2019
3461 Clouds 19 1006 87 0 3.27 193.386 11:23 18.08.2019
3462 Clouds 19 1006 87 0 3.27 193.386 11:23 18.08.2019
3463 Clouds 19 1006 87 0 3.27 193.386 10:57 18.08.2019
3464 Clouds 19 1006 87 0 3.27 193.386 10:39 18.08.2019
3465 Clouds 19 1006 87 0 3.27 193.386 10:18 18.08.2019
3466 Clouds 19 1006 87 0 3.27 193.386 09:43 18.08.2019
3467 Rain 17 1006 91 0 5.35 196.238 09:20 18.08.2019
3468 Rain 17 1006 91 0 5.35 196.238 08:44 18.08.2019
3469 Rain 17 1006 91 0 5.35 196.238 08:44 18.08.2019
3470 Rain 17 1006 91 0 5.35 196.238 08:25 18.08.2019
3471 Rain 17 1006 91 0 5.35 196.238 07:54 18.08.2019
3472 Rain 17 1006 91 0 5.35 196.238 07:30 18.08.2019
3473 Rain 17 1006 91 0 5.35 196.238 06:33 18.08.2019
3474 Rain 18 1006 89 0 5.03 208.308 05:42 18.08.2019
3475 Rain 18 1006 89 0 5.03 208.308 04:18 18.08.2019
3476 Rain 18 1007 85 0 4.52 196.019 02:59 18.08.2019
3477 Rain 18 1007 85 0 4.52 196.019 02:41 18.08.2019
3478 Rain 18 1007 85 0 4.52 196.019 02:18 18.08.2019
3479 Rain 18 1007 85 0 5.72 210.586 01:27 18.08.2019
3480 Rain 18 1007 85 0 5.72 210.586 00:42 18.08.2019
3481 Clouds 18 1007 84 0 5.05 202.174 00:23 18.08.2019
3482 Clouds 18 1007 84 0 5.05 202.174 23:58 17.08.2019
3483 Clouds 18 1007 84 0 5.05 202.174 23:38 17.08.2019
3484 Clouds 18 1007 84 0 5.05 202.174 23:20 17.08.2019
3485 Clouds 18 1007 84 0 5.05 202.174 22:58 17.08.2019
3486 Clouds 18 1007 84 0 5.05 202.174 22:40 17.08.2019
3487 Clouds 18 1007 84 0 5.05 202.174 22:21 17.08.2019
3488 Clouds 18 1007 84 0 5.05 202.174 21:55 17.08.2019
3489 Clouds 18 1007 84 0 5.05 202.174 21:55 17.08.2019
3490 Clouds 18 1007 84 0 5.05 202.174 21:37 17.08.2019
3491 Clouds 19 1007 80 0 4.88 189.826 21:19 17.08.2019
3492 Clouds 19 1007 80 0 4.88 189.826 20:39 17.08.2019
3493 Clouds 19 1007 80 0 4.88 189.826 20:20 17.08.2019
3494 Clouds 22 1011 62 0 0.89 315 19:56 17.08.2019
3495 Clouds 22 1011 62 0 0.89 315 19:38 17.08.2019
3496 Clouds 22 1011 62 0 0.89 315 19:19 17.08.2019
3497 Clouds 22 1011 60 0 0.89 292 18:39 17.08.2019
3498 Rain 23 1011 58 0 6.66 196.355 18:19 17.08.2019
3499 Rain 23 1011 58 0 6.66 196.355 18:19 17.08.2019
3500 Rain 23 1011 58 0 6.66 196.355 18:19 17.08.2019
3501 Rain 23 1011 57 0 6.66 196.355 17:56 17.08.2019
3502 Rain 23 1011 57 0 0.45 225 17:38 17.08.2019
3503 Rain 24 1011 56 0 0.89 202 17:20 17.08.2019
3504 Rain 24 1011 56 0 0.89 202 16:44 17.08.2019
3505 Rain 24 1011 56 0 1.34 180 16:26 17.08.2019
3506 Rain 24 1011 56 0 0.89 202 15:59 17.08.2019
3507 Rain 24 1011 55 0 1.79 180 15:39 17.08.2019
3508 Rain 16 1009 86 0 8.31 174.086 15:20 17.08.2019
3509 Rain 16 1009 86 0 8.31 174.086 14:43 17.08.2019
3510 Rain 16 1009 86 0 8.31 174.086 14:23 17.08.2019
3511 Rain 22 1012 65 0 1.34 157 13:56 17.08.2019
3512 Rain 21 1012 66 0 2.24 157 13:37 17.08.2019
3513 Rain 21 1012 66 0 0.89 180 13:18 17.08.2019
3514 Rain 21 1013 70 0 0.89 157 12:42 17.08.2019
3515 Rain 20 1013 70 0 0.89 180 12:19 17.08.2019
3516 Rain 19 1013 74 0 0.89 157 11:57 17.08.2019
3517 Rain 18 1013 75 0 0.89 180 11:36 17.08.2019
3518 Rain 18 1013 76 0 0.89 180 11:18 17.08.2019
3519 Rain 18 1014 75 0 0.89 180 10:39 17.08.2019
3520 Rain 18 1013 74 0 0.89 180 10:20 17.08.2019
3521 Rain 18 1014 71 0 0.89 180 09:52 17.08.2019
3522 Rain 18 1014 70 0 0.89 180 09:32 17.08.2019
3523 Clouds 17 1014 72 0 1.34 157 08:57 17.08.2019
3524 Clouds 16 1014 75 0 0.89 157 08:27 17.08.2019
3525 Clouds 16 1014 77 0 0.45 180 07:55 17.08.2019
3526 Clouds 16 1014 79 0 0.89 157 07:36 17.08.2019
3527 Clouds 16 1014 79 0 0.89 157 07:18 17.08.2019
3528 Clouds 14 1015 81 0 0.45 157 05:57 17.08.2019
3529 Clouds 14 1015 81 0 0.89 135 04:31 17.08.2019
3530 Clouds 14 1016 80 0 0.45 135 03:36 17.08.2019
3531 Clouds 14 1017 77 0 0.45 135 01:59 17.08.2019
3532 Clouds 14 1017 76 0 6.8 172.162 01:36 17.08.2019
3533 Clouds 14 1017 75 0 6.8 172.162 01:18 17.08.2019
3534 Clouds 16 1017 75 0 6.8 172.162 00:31 17.08.2019
3535 Clouds 16 1017 76 0 2.97 205.623 23:57 16.08.2019
3536 Clouds 16 1017 76 0 2.97 205.623 23:38 16.08.2019
3537 Clouds 17 1018 75 0 2.97 205.623 23:19 16.08.2019
3538 Clouds 17 1018 75 0 0.45 0 22:40 16.08.2019
3539 Clouds 17 1018 75 0 2.97 205.623 22:19 16.08.2019
3540 Clouds 17 1018 72 0 2.97 205.623 21:42 16.08.2019
3541 Clouds 17 1018 72 0 5 261.141 21:22 16.08.2019
3542 Clouds 18 1018 70 0 5 261.141 20:59 16.08.2019
3543 Clouds 19 1018 69 0 5 261.141 20:41 16.08.2019
3544 Clouds 19 1017 68 0 5 261.141 20:19 16.08.2019
3545 Clouds 21 1017 67 0 5 261.141 19:55 16.08.2019
3546 Clouds 21 1017 66 0 5 261.141 19:37 16.08.2019
3547 Clouds 21 1017 66 0 5 261.141 19:19 16.08.2019
3548 Clouds 21 1017 62 0 5 261.141 18:41 16.08.2019
3549 Clear 22 1017 61 0 0.45 315 18:22 16.08.2019
3550 Clear 22 1017 65 0 1.34 315 17:46 16.08.2019
3551 Clear 21 1017 70 0 0.89 292 17:27 16.08.2019
3552 Clear 19 1017 76 0 0.45 270 16:56 16.08.2019
3553 Clear 19 1017 77 0 6.42 266.125 16:38 16.08.2019
3554 Clear 19 1017 78 0 6.42 266.125 16:18 16.08.2019
3555 Clear 21 1017 71 0 0.45 292 15:55 16.08.2019
3556 Clear 20 1017 70 0 0.89 292 15:37 16.08.2019
3557 Rain 19 1017 71 0 0.89 247 15:19 16.08.2019
3558 Rain 21 1017 65 0 0.45 292 14:56 16.08.2019
3559 Rain 21 1017 65 0 8.55 259.14 14:37 16.08.2019
3560 Rain 21 1017 63 0 0.89 270 14:18 16.08.2019
3561 Rain 22 1017 64 0 1.34 292 13:39 16.08.2019
3562 Rain 22 1017 63 0 8.64 266.065 13:20 16.08.2019
3563 Rain 18 1013 81 0 8.64 266.065 12:40 16.08.2019
3564 Rain 18 1013 81 0 8.64 266.065 12:40 16.08.2019
3565 Rain 22 1017 66 0 0.89 202 12:21 16.08.2019
3566 -273 0 0 0 0 0 11:55 16.08.2019
3567 Rain 20 1017 69 0 8.5 244.915 11:37 16.08.2019
3568 Rain 21 1017 68 0 0.45 270 11:19 16.08.2019
3569 Rain 19 1017 76 0 8.5 244.915 10:42 16.08.2019
3570 Rain 19 1017 76 0 8.5 244.915 10:20 16.08.2019
3571 Rain 18 1017 81 0 8.5 244.915 09:39 16.08.2019
3572 Rain 18 1017 81 0 7.11 244.134 09:20 16.08.2019
3573 Rain 17 1016 84 0 7.11 244.134 08:59 16.08.2019
3574 Rain 17 1016 84 0 7.11 244.134 08:39 16.08.2019
3575 Rain 17 1016 85 0 7.11 244.134 08:19 16.08.2019
3576 Rain 16 1016 87 0 7.11 244.134 07:48 16.08.2019
3577 Rain 16 1016 88 0 7.11 244.134 07:28 16.08.2019
3578 Rain 15 1015 88 0 7.11 244.134 06:55 16.08.2019
3579 Clouds 14 1015 88 0 7.23 255.952 06:19 16.08.2019
3580 Clouds 14 1015 86 0 0.45 292 05:34 16.08.2019
3581 Rain 15 1015 85 0 8.22 265.63 03:20 16.08.2019
3582 Rain 16 1014 83 0 8.22 265.63 01:53 16.08.2019
3583 Rain 16 1014 83 0 8.34 268.681 01:27 16.08.2019
3584 Rain 16 1014 82 0 8.34 268.681 00:55 16.08.2019
3585 Rain 16 1014 81 0 8.34 268.681 00:36 16.08.2019
3586 Rain 16 1014 79 0 7.6 199.103 00:18 16.08.2019
3587 Rain 17 1013 76 0 7.6 199.103 23:42 15.08.2019
3588 Rain 17 1013 76 0 7.6 199.103 23:19 15.08.2019
3589 Rain 17 1013 75 0 0.45 202 22:57 15.08.2019
3590 Rain 17 1013 76 0 0.89 202 22:38 15.08.2019
3591 Rain 17 1013 76 0 0.45 180 22:20 15.08.2019
3592 Rain 18 1013 71 0 0.45 180 21:40 15.08.2019
3593 Rain 18 1013 71 0 0.45 180 21:40 15.08.2019
3594 Clouds 18 1013 71 0 0.45 180 21:20 15.08.2019
3595 Clouds 18 1013 70 0 0.45 180 20:59 15.08.2019
3596 Clouds 18 1013 70 0 0.89 180 20:41 15.08.2019
3597 Clouds 19 1013 70 0 0.45 180 20:21 15.08.2019
3598 Clouds 19 1012 71 0 0.45 180 19:56 15.08.2019
3599 Clouds 19 1012 72 0 6.6 179.071 19:38 15.08.2019
3600 Clouds 19 1012 71 0 0.45 180 19:19 15.08.2019
3601 Clouds 19 1012 71 0 0.45 157 18:46 15.08.2019
3602 Rain 19 1012 73 0 7.66 185.153 18:22 15.08.2019
3603 Rain 19 1013 74 0 7.66 185.153 17:56 15.08.2019
3604 Rain 19 1013 73 0 7.66 185.153 17:37 15.08.2019
3605 Rain 19 1013 72 0 7.66 185.153 17:19 15.08.2019
3606 Rain 19 1013 69 0 0.89 202 16:48 15.08.2019
3607 Rain 20 1013 65 0 0.89 180 16:27 15.08.2019
3608 Rain 19 1013 66 0 0.45 135 15:59 15.08.2019
3609 Rain 19 1013 66 0 0.45 135 15:38 15.08.2019
3610 Rain 18 1013 66 0 0.89 135 15:19 15.08.2019
3611 Rain 18 1013 66 0 0.45 135 14:43 15.08.2019
3612 Rain 18 1013 66 0 0.45 135 14:23 15.08.2019
3613 Rain 18 1014 64 0 0.45 135 13:59 15.08.2019
3614 Rain 19 1014 62 0 0.45 180 13:40 15.08.2019
3615 Rain 19 1014 62 0 0.89 202 13:21 15.08.2019
3616 Rain 19 1014 61 0 1.34 180 12:59 15.08.2019
3617 Rain 20 1014 57 0 1.79 157 12:39 15.08.2019
3618 Rain 19 1014 61 0 1.34 180 12:19 15.08.2019
3619 Rain 19 1014 62 0 0.45 180 11:57 15.08.2019
3620 Rain 19 1015 58 0 0.45 180 11:37 15.08.2019
3621 Rain 19 1015 58 0 0.45 180 11:37 15.08.2019
3622 Rain 20 1015 51 0 1.34 180 11:18 15.08.2019
3623 Rain 19 1015 52 0 0.89 180 10:57 15.08.2019
3624 Rain 19 1015 53 0 1.34 157 10:36 15.08.2019
3625 Rain 19 1015 53 0 1.34 180 10:18 15.08.2019
3626 Rain 19 1015 54 0 1.79 180 09:42 15.08.2019
3627 Clouds 19 1015 55 0 1.34 157 09:22 15.08.2019
3628 Clouds 17 1016 60 0 1.79 180 08:39 15.08.2019
3629 Clouds 16 1016 62 0 1.79 180 08:21 15.08.2019
3630 Clouds 15 1016 65 0 0.89 180 07:56 15.08.2019
3631 Clouds 15 1016 66 0 0.89 157 07:38 15.08.2019
3632 Clouds 14 1016 68 0 0.45 157 07:20 15.08.2019
3633 Clouds 14 1016 69 0 0.89 157 06:47 15.08.2019
3634 Clouds 14 1016 70 0 0.89 157 06:25 15.08.2019
3635 Clouds 13 1017 70 0 0.45 135 05:30 15.08.2019
3636 Clouds 13 1017 70 0 0.45 157 04:57 15.08.2019
3637 Clouds 13 1017 70 0 0.45 180 03:57 15.08.2019
3638 Clear 13 1017 69 0 0.45 180 03:19 15.08.2019
3639 Clear 13 1018 69 0 4.86 191.973 02:26 15.08.2019
3640 Clear 13 1018 68 0 4.86 191.973 01:41 15.08.2019
3641 Clouds 13 1018 68 0 4.79 203.831 00:58 15.08.2019
3642 Clouds 13 1019 68 0 4.79 203.831 00:37 15.08.2019
3643 Clear 13 1019 68 0 4.77 237.422 00:18 15.08.2019
3644 Clear 13 1018 66 0 4.77 237.422 23:55 14.08.2019
3645 Clear 13 1019 65 0 4.77 237.422 23:37 14.08.2019
3646 Clear 13 1019 64 0 4.77 237.422 23:18 14.08.2019
3647 Clear 13 1019 62 0 4.77 237.422 22:42 14.08.2019
3648 Clear 13 1019 61 0 4.77 237.422 22:22 14.08.2019
3649 Clear 14 1019 59 0 4.77 237.422 21:57 14.08.2019
3650 Clear 14 1019 58 0 4.77 237.422 21:39 14.08.2019
3651 Clear 15 1019 57 0 6.51 267.368 21:21 14.08.2019
3652 Clear 17 1019 56 0 6.51 267.368 20:57 14.08.2019
3653 Clear 17 1019 55 0 6.51 267.368 20:39 14.08.2019
3654 Clear 18 1019 54 0 6.51 267.368 20:19 14.08.2019
3655 Clear 19 1019 51 0 6.51 267.368 19:54 14.08.2019
3656 Clear 18 1015 65 0 6.51 267.368 19:36 14.08.2019
3657 Clear 18 1015 65 0 6.51 267.368 19:18 14.08.2019
3658 Clear 18 1015 65 0 6.51 267.368 18:43 14.08.2019
3659 Clear 17 1015 64 0 7.67 270.852 18:24 14.08.2019
3660 Clear 17 1015 64 0 7.67 270.852 17:59 14.08.2019
3661 Clear 17 1015 64 0 7.67 270.852 17:40 14.08.2019
3662 Clear 17 1015 64 0 7.67 270.852 17:22 14.08.2019
3663 Clear 17 1015 64 0 7.67 270.852 16:58 14.08.2019
3664 Clear 17 1015 64 0 7.67 270.852 16:39 14.08.2019
3665 Clear 17 1015 64 0 7.67 270.852 16:19 14.08.2019
3666 Clear 17 1015 64 0 7.67 270.852 15:43 14.08.2019
3667 Rain 17 1015 70 0 8.83 270.597 15:20 14.08.2019
3668 Rain 17 1015 70 0 8.83 270.597 14:57 14.08.2019
3669 Rain 17 1015 70 0 8.83 270.597 14:39 14.08.2019
3670 Rain 17 1015 70 0 8.83 270.597 14:19 14.08.2019
3671 Rain 17 1015 70 0 8.83 270.597 13:44 14.08.2019
3672 Rain 17 1015 70 0 8.83 270.597 13:44 14.08.2019
3673 Rain 17 1015 67 0 9.7 267.441 13:25 14.08.2019
3674 Rain 17 1015 67 0 9.7 267.441 12:59 14.08.2019
3675 Rain 17 1015 67 0 9.7 267.441 12:40 14.08.2019
3676 Rain 16 1015 75 0 9.35 247.566 12:22 14.08.2019
3677 Rain 16 1015 75 0 9.35 247.566 12:22 14.08.2019
3678 Rain 16 1015 75 0 9.35 247.566 11:58 14.08.2019
3679 Rain 16 1015 75 0 9.35 247.566 11:40 14.08.2019
3680 Rain 16 1015 75 0 9.35 247.566 11:21 14.08.2019
3681 Rain 16 1015 75 0 9.35 247.566 10:45 14.08.2019
3682 Rain 16 1015 75 0 9.35 247.566 10:25 14.08.2019
3683 Rain 16 1015 75 0 9.35 247.566 10:25 14.08.2019
3684 Rain 16 1015 75 0 9.35 247.566 09:59 14.08.2019
3685 Rain 16 1015 75 0 9.35 247.566 09:41 14.08.2019
3686 Rain 14 1015 80 0 7.78 235.08 09:20 14.08.2019
3687 Rain 14 1014 85 0 8.5 226.383 08:42 14.08.2019
3688 Rain 14 1014 85 0 8.5 226.383 08:24 14.08.2019
3689 Rain 14 1014 85 0 8.5 226.383 07:55 14.08.2019
3690 Rain 14 1014 85 0 8.5 226.383 07:35 14.08.2019
3691 Rain 14 1014 85 0 8.5 226.383 06:50 14.08.2019
3692 Rain 14 1014 78 0 7.71 228.871 06:23 14.08.2019
3693 Rain 14 1014 78 0 7.71 228.871 05:28 14.08.2019
3694 Rain 14 1014 78 0 7.71 228.871 03:41 14.08.2019
3695 Rain 16 1015 73 0 6.6 256.147 02:37 14.08.2019
3696 Rain 16 1015 73 0 6.6 256.147 01:59 14.08.2019
3697 Rain 16 1014 73 0 6.76 254.274 01:30 14.08.2019
3698 Rain 16 1014 69 0 7.97 269.777 00:25 14.08.2019
3699 Rain 13 1018 77 0 7.97 269.777 23:43 13.08.2019
3700 Rain 13 1018 77 0 7.97 269.777 23:19 13.08.2019
3701 Rain 13 1018 77 0 7.97 269.777 22:56 13.08.2019
3702 Rain 13 1018 77 0 7.97 269.777 22:38 13.08.2019
3703 Rain 13 1018 77 0 7.97 269.777 22:19 13.08.2019
3704 Rain 14 1018 77 0 7.97 269.777 21:55 13.08.2019
3705 Rain 14 1018 77 0 7.97 269.777 21:36 13.08.2019
3706 Rain 14 1018 77 0 8.1 279.926 21:18 13.08.2019
3707 Rain 14 1018 77 0 8.1 279.926 20:42 13.08.2019
3708 Rain 16 1018 76 0 0.45 292 20:20 13.08.2019
3709 Rain 15 1018 77 0 0.45 292 19:56 13.08.2019
3710 Rain 16 1018 76 0 0.45 292 19:38 13.08.2019
3711 Rain 16 1017 78 0 0.89 292 19:19 13.08.2019
3712 Rain 17 1017 76 0 0.45 292 18:41 13.08.2019
3713 Rain 17 1017 78 0 0.45 292 18:22 13.08.2019
3714 Rain 16 1017 76 0 1.34 315 17:56 13.08.2019
3715 Rain 16 1017 79 0 0.89 292 17:38 13.08.2019
3716 Rain 16 1017 77 0 0.45 270 17:18 13.08.2019
3717 Rain 17 1016 75 0 1.34 315 16:55 13.08.2019
3718 Rain 18 1016 72 0 9.81 269.877 16:36 13.08.2019
3719 Rain 17 1016 73 0 9.81 269.877 16:18 13.08.2019
3720 Rain 16 1012 80 0 9.81 269.877 15:38 13.08.2019
3721 Rain 17 1012 74 0 10.77 259.973 15:20 13.08.2019
3722 Rain 17 1012 74 0 10.77 259.973 14:55 13.08.2019
3723 Rain 17 1012 74 0 10.77 259.973 14:37 13.08.2019
3724 Rain 23 1015 50 0 10.77 259.973 14:18 13.08.2019
3725 Rain 22 1016 54 0 0.89 225 13:41 13.08.2019
3726 Rain 22 1016 54 0 0.89 225 13:21 13.08.2019
3727 Rain 22 1016 54 0 0.89 225 13:21 13.08.2019
3728 Rain 22 1015 55 0 11.26 253.324 12:58 13.08.2019
3729 Rain 22 1015 57 0 0.45 292 12:39 13.08.2019
3730 Rain 21 1015 56 0 9.28 249.167 12:21 13.08.2019
3731 Rain 17 1011 74 0 9.28 249.167 11:56 13.08.2019
3732 Rain 21 1015 62 0 9.28 249.167 11:37 13.08.2019
3733 Rain 20 1015 63 0 0.45 270 11:18 13.08.2019
3734 Rain 20 1015 66 0 0.89 270 10:55 13.08.2019
3735 Rain 19 1015 68 0 0.45 270 10:36 13.08.2019
3736 Rain 19 1015 68 0 0.45 292 10:18 13.08.2019
3737 -273 0 0 0 0 0 09:41 13.08.2019
3738 Rain 18 1015 76 0 0.45 292 09:22 13.08.2019
3739 Rain 17 1015 80 0 0.45 315 08:42 13.08.2019
3740 Rain 17 1015 80 0 6.25 237.958 08:22 13.08.2019
3741 Rain 17 1015 81 0 6.25 237.958 07:56 13.08.2019
3742 Rain 17 1015 82 0 6.25 237.958 07:32 13.08.2019
3743 Rain 16 1015 82 0 6.25 237.958 06:53 13.08.2019
3744 Rain 16 1015 81 0 6.25 237.958 06:34 13.08.2019
3745 Rain 16 1014 81 0 6.31 283.307 05:35 13.08.2019
3746 Rain 15 1014 74 0 3.11 238.951 02:38 13.08.2019
3747 Rain 16 1015 74 0 3.11 238.951 01:59 13.08.2019
3748 Rain 16 1015 69 0 7.29 225.145 00:56 13.08.2019
3749 Rain 17 1015 69 0 7.29 225.145 00:37 13.08.2019
3750 Rain 18 1015 70 0 2.76 279.879 23:56 12.08.2019
3751 Rain 18 1015 70 0 2.76 279.879 23:36 12.08.2019
3752 Rain 18 1015 71 0 2.76 279.879 23:18 12.08.2019
3753 Rain 19 1016 68 0 2.76 279.879 22:40 12.08.2019
3754 Rain 19 1016 68 0 2.76 279.879 22:19 12.08.2019
3755 Rain 19 1016 63 0 2.76 279.879 21:55 12.08.2019
3756 Rain 20 1016 61 0 2.76 279.879 21:37 12.08.2019
3757 Clouds 21 1016 59 0 5.31 279.212 21:18 12.08.2019
3758 Clouds 22 1016 51 0 5.31 279.212 20:56 12.08.2019
3759 Clouds 22 1016 51 0 5.31 279.212 20:56 12.08.2019
3760 Clouds 22 1016 51 0 5.31 279.212 20:56 12.08.2019
3761 Clouds 23 1015 48 0 5.31 279.212 20:36 12.08.2019
3762 Clouds 25 1015 46 0 5.31 279.212 20:18 12.08.2019
3763 Clouds 19 1012 74 0 5.31 279.212 19:55 12.08.2019
3764 Clouds 19 1012 74 0 5.31 279.212 19:36 12.08.2019
3765 Clouds 19 1012 74 0 5.31 279.212 19:18 12.08.2019
3766 Clouds 19 1012 74 0 5.31 279.212 18:54 12.08.2019
3767 Clouds 19 1012 74 0 5.31 279.212 18:36 12.08.2019
3768 Clear 25 1015 41 0 0.89 292 18:18 12.08.2019
3769 Clear 25 1015 50 0 6.56 261.284 17:46 12.08.2019
3770 Clear 25 1015 50 0 0.45 22 17:28 12.08.2019
3771 Clear 25 1015 41 0 0.45 22 16:56 12.08.2019
3772 Clear 26 1016 38 0 6.56 261.284 16:38 12.08.2019
3773 Clear 26 1015 39 0 0.89 292 16:19 12.08.2019
3774 Clear 26 1015 39 0 0.89 292 16:19 12.08.2019
3775 Clear 25 1015 41 0 0.45 292 15:57 12.08.2019
3776 Clear 25 1015 41 0 0.45 292 15:57 12.08.2019
3777 Clear 25 1015 40 0 0.45 292 15:38 12.08.2019
3778 Clear 25 1015 40 0 0.45 292 15:38 12.08.2019
3779 Clear 25 1015 41 0 8.83 263.712 15:20 12.08.2019
3780 Clear 19 1013 66 0 8.83 263.712 14:54 12.08.2019
3781 Clear 19 1013 66 0 8.83 263.712 14:36 12.08.2019
3782 -273 0 0 0 0 0 14:18 12.08.2019
3783 Clear 26 1016 40 0 8.83 263.712 13:42 12.08.2019
3784 Clear 26 1016 41 0 0.89 292 13:23 12.08.2019
3785 Clear 26 1016 41 0 0.89 292 13:23 12.08.2019
3786 Clear 25 1016 46 0 8.87 263.062 12:43 12.08.2019
3787 Clear 24 1016 48 0 8.93 250.038 12:22 12.08.2019
3788 Clear 23 1016 50 0 0.89 337 11:56 12.08.2019
3789 -273 0 0 0 0 0 11:38 12.08.2019
3790 Clear 23 1016 54 0 0.45 180 11:19 12.08.2019
3791 Clear 22 1016 59 0 0.45 292 10:40 12.08.2019
3792 Clear 22 1016 59 0 0.45 292 10:40 12.08.2019
3793 Clear 22 1016 62 0 1.34 292 10:22 12.08.2019
3794 Clear 21 1016 68 0 1.34 315 09:56 12.08.2019
3795 Clear 20 1016 71 0 8.93 250.038 09:37 12.08.2019
3796 Rain 20 1016 73 0 7.72 235.46 09:18 12.08.2019
3797 Rain 19 1015 77 0 7.72 235.46 08:42 12.08.2019
3798 Rain 18 1015 78 0 7.72 235.46 08:24 12.08.2019
3799 Rain 18 1015 78 0 7.72 235.46 07:59 12.08.2019
3800 Rain 18 1015 78 0 7.72 235.46 07:41 12.08.2019
3801 Rain 18 1015 78 0 7.72 235.46 07:20 12.08.2019
3802 Rain 18 1015 77 0 7.72 235.46 06:44 12.08.2019
3803 Rain 18 1015 73 0 8.88 205.942 04:40 12.08.2019
3804 Clouds 19 1016 68 0 4.57 200.54 02:44 12.08.2019
3805 Clouds 19 1016 66 0 4.57 200.54 01:53 12.08.2019
3806 Clouds 19 1016 64 0 4.57 200.54 01:20 12.08.2019
3807 Clouds 19 1016 62 0 4.57 200.54 00:57 12.08.2019
3808 Clouds 19 1016 62 0 4.57 200.54 00:38 12.08.2019
3809 Clouds 19 1016 61 0 3.91 224.534 00:19 12.08.2019
3810 Clouds 19 1016 60 0 3.91 224.534 23:42 11.08.2019
3811 Clouds 19 1016 60 0 3.91 224.534 23:42 11.08.2019
3812 Clouds 19 1016 59 0 3.91 224.534 23:21 11.08.2019
3813 Clouds 19 1016 58 0 3.91 224.534 22:59 11.08.2019
3814 Clouds 20 1016 57 0 3.91 224.534 22:40 11.08.2019
3815 Clouds 20 1016 56 0 3.91 224.534 22:19 11.08.2019
3816 Clouds 21 1016 56 0 0.45 45 21:59 11.08.2019
3817 Clouds 21 1016 57 0 3.91 224.534 21:40 11.08.2019
3818 Clouds 21 1016 57 0 3.91 224.534 21:40 11.08.2019
3819 Clouds 21 1016 57 0 2.71 259.636 21:21 11.08.2019
3820 Clouds 22 1016 56 0 0.45 45 20:57 11.08.2019
3821 Clouds 22 1016 57 0 0.89 45 20:38 11.08.2019
3822 Clouds 22 1016 59 0 0.45 22 20:20 11.08.2019
3823 Clouds 23 1016 57 0 2.71 259.636 19:43 11.08.2019
3824 Clouds 24 1016 52 0 1.34 45 19:19 11.08.2019
3825 Clouds 20 1012 73 0 2.71 259.636 18:42 11.08.2019
3826 Clouds 26 1015 39 0 5.2 270.231 18:23 11.08.2019
3827 Clouds 20 1013 70 0 5.2 270.231 17:59 11.08.2019
3828 Clouds 20 1013 70 0 5.2 270.231 17:41 11.08.2019
3829 Clouds 20 1013 70 0 5.2 270.231 17:20 11.08.2019
3830 Clouds 20 1013 70 0 5.2 270.231 17:20 11.08.2019
3831 Clouds 20 1013 70 0 5.2 270.231 16:57 11.08.2019
3832 Clouds 20 1013 70 0 5.2 270.231 16:38 11.08.2019
3833 Clouds 20 1013 70 0 5.2 270.231 16:20 11.08.2019
3834 Clouds 20 1013 70 0 5.2 270.231 15:44 11.08.2019
3835 Clouds 20 1013 67 0 7.47 265.084 15:25 11.08.2019
3836 Clouds 20 1013 67 0 7.47 265.084 14:59 11.08.2019
3837 Clouds 20 1013 67 0 7.47 265.084 14:39 11.08.2019
3838 Clouds 20 1013 67 0 7.47 265.084 14:21 11.08.2019
3839 Clouds 20 1013 67 0 7.47 265.084 13:45 11.08.2019
3840 Clouds 27 1017 37 0 0.89 337 13:26 11.08.2019
3841 Clouds 27 1017 39 0 0.45 225 12:58 11.08.2019
3842 Clouds 26 1017 38 0 0.45 292 12:38 11.08.2019
3843 Clouds 19 1013 65 0 10.22 243.603 12:19 11.08.2019
3844 Clouds 19 1013 65 0 10.22 243.603 11:40 11.08.2019
3845 Clouds 19 1013 65 0 10.22 243.603 11:40 11.08.2019
3846 Clouds 19 1013 65 0 10.22 243.603 11:22 11.08.2019
3847 Clouds 24 1017 41 0 0.89 202 10:56 11.08.2019
3848 Clouds 23 1017 44 0 1.79 292 10:37 11.08.2019
3849 Clouds 23 1017 46 0 0.89 225 10:19 11.08.2019
3850 Clouds 22 1016 53 0 0.45 315 09:44 11.08.2019
3851 Clouds 21 1016 56 0 0.45 315 09:26 11.08.2019
3852 Clear 20 1016 61 0 0.45 292 08:58 11.08.2019
3853 Clear 19 1016 63 0 0.45 225 08:39 11.08.2019
3854 Clear 18 1016 69 0 10.61 235.1 08:21 11.08.2019
3855 Clear 16 1016 76 0 10.61 235.1 07:43 11.08.2019
3856 Clear 16 1016 76 0 10.61 235.1 07:18 11.08.2019
3857 Clear 15 1016 75 0 10.61 235.1 06:37 11.08.2019
3858 Clear 16 1015 74 0 10.56 229.844 05:28 11.08.2019
3859 Rain 15 1015 71 0 9.38 226.334 02:54 11.08.2019
3860 Rain 16 1015 69 0 9.38 226.334 02:25 11.08.2019
3861 Rain 17 1015 67 0 9.38 226.334 01:33 11.08.2019
3862 Rain 18 1015 66 0 9.8 225.207 00:56 11.08.2019
3863 Rain 18 1015 67 0 9.8 225.207 00:36 11.08.2019
3864 Rain 19 1015 67 0 0.45 225 00:18 11.08.2019
3865 Rain 19 1015 65 0 7.32 224.132 23:39 10.08.2019
3866 Rain 20 1015 61 0 0.89 292 23:20 10.08.2019
3867 Rain 20 1015 64 0 7.32 224.132 22:42 10.08.2019
3868 Rain 20 1015 65 0 7.32 224.132 22:23 10.08.2019
3869 Rain 20 1014 65 0 7.32 224.132 21:57 10.08.2019
3870 Rain 21 1014 64 0 7.32 224.132 21:36 10.08.2019
3871 Rain 21 1014 64 0 7.88 244.541 21:18 10.08.2019
3872 Rain 22 1013 63 0 1.34 292 20:42 10.08.2019
3873 Rain 23 1013 62 0 1.79 292 20:21 10.08.2019
3874 Rain 24 1013 54 0 0.89 292 19:57 10.08.2019
3875 Rain 25 1012 52 0 7.88 244.541 19:38 10.08.2019
3876 Rain 20 1010 80 0 7.88 244.541 19:19 10.08.2019
3877 Rain 26 1012 51 0 7.88 244.541 18:39 10.08.2019
3878 Rain 26 1012 50 0 0.89 292 18:21 10.08.2019
3879 Rain 21 1008 77 0 8.82 259.24 17:44 10.08.2019
3880 Rain 21 1008 77 0 8.82 259.24 17:25 10.08.2019
3881 Rain 21 1008 77 0 8.82 259.24 16:47 10.08.2019
3882 Rain 21 1008 77 0 8.82 259.24 16:28 10.08.2019
3883 Rain 21 1008 77 0 8.82 259.24 15:55 10.08.2019
3884 Rain 27 1011 49 0 8.82 259.24 15:26 10.08.2019
3885 Rain 21 1007 78 0 8.67 261.678 14:45 10.08.2019
3886 Rain 21 1007 78 0 8.67 261.678 14:45 10.08.2019
3887 Rain 21 1007 78 0 8.67 261.678 14:23 10.08.2019
3888 Rain 21 1007 78 0 8.67 261.678 13:59 10.08.2019
3889 Rain 21 1007 78 0 8.67 261.678 13:39 10.08.2019
3890 Rain 21 1008 78 0 9.23 257.763 13:18 10.08.2019
3891 Rain 28 1010 54 0 0.45 202 12:42 10.08.2019
3892 Clouds 21 1007 85 0 8.45 248.671 12:22 10.08.2019
3893 Clouds 21 1007 85 0 8.45 248.671 11:57 10.08.2019
3894 Clouds 21 1007 85 0 8.45 248.671 11:39 10.08.2019
3895 Clouds 26 1010 66 0 8.45 248.671 11:20 10.08.2019
3896 Clouds 25 1010 69 0 0.89 292 10:39 10.08.2019
3897 Clouds 24 1010 71 0 8.45 248.671 10:20 10.08.2019
3898 Clouds 23 1010 74 0 8.45 248.671 09:59 10.08.2019
3899 Clouds 23 1010 75 0 8.45 248.671 09:38 10.08.2019
3900 Rain 22 1010 75 0 8.8 196.401 09:20 10.08.2019
3901 Rain 21 1010 77 0 1.34 202 08:39 10.08.2019
3902 Rain 19 1010 78 0 0.89 180 08:20 10.08.2019
3903 Rain 18 1010 79 0 0.45 157 07:53 10.08.2019
3904 Rain 18 1010 79 0 0.45 157 07:27 10.08.2019
3905 Rain 18 1010 79 0 0.89 157 06:48 10.08.2019
3906 Rain 18 1010 80 0 0.89 135 06:21 10.08.2019
3907 Rain 18 1011 77 0 0.45 157 05:24 10.08.2019
3908 Rain 18 1010 77 0 0.89 135 04:26 10.08.2019
3909 Clouds 18 1012 79 0 0.45 135 02:54 10.08.2019
3910 Clouds 18 1012 77 0 0.89 157 02:24 10.08.2019
3911 Clouds 19 1013 78 0 0.89 135 01:42 10.08.2019
3912 Rain 19 1013 79 0 1.34 135 01:21 10.08.2019
3913 Rain 19 1013 78 0 0.89 135 00:48 10.08.2019
3914 Clouds 19 1013 78 0 0.89 157 00:22 10.08.2019
3915 Clouds 19 1014 80 0 0.89 135 23:44 09.08.2019
3916 Clouds 19 1014 80 0 0.89 135 23:24 09.08.2019
3917 Clouds 19 1014 79 0 0.89 135 22:58 09.08.2019
3918 Clouds 19 1014 78 0 0.89 135 22:39 09.08.2019
3919 Clouds 19 1014 77 0 0.89 135 22:20 09.08.2019
3920 Clouds 19 1014 76 0 0.45 135 21:55 09.08.2019
3921 Clouds 19 1014 76 0 7.4 133.515 21:36 09.08.2019
3922 Clouds 19 1014 75 0 0.45 135 21:18 09.08.2019
3923 Clouds 20 1014 74 0 0.45 135 20:54 09.08.2019
3924 Clouds 20 1014 73 0 5.91 100.711 20:36 09.08.2019
3925 Clouds 21 1014 72 0 0.45 135 20:18 09.08.2019
3926 Clouds 21 1014 69 0 0.45 135 19:41 09.08.2019
3927 Clouds 21 1014 68 0 0.45 135 19:19 09.08.2019
3928 Clouds 21 1014 68 0 0.45 135 19:19 09.08.2019
3929 Clouds 22 1014 67 0 0.45 135 18:42 09.08.2019
3930 Clouds 22 1014 66 0 0.45 135 18:22 09.08.2019
3931 Clouds 23 1015 64 0 1.69 30.784 17:58 09.08.2019
3932 Clouds 23 1015 64 0 1.69 30.784 17:40 09.08.2019
3933 Clouds 23 1015 62 0 1.69 30.784 17:22 09.08.2019
3934 Clouds 23 1015 64 0 0.45 22 16:42 09.08.2019
3935 Clouds 23 1015 64 0 0.45 22 16:42 09.08.2019
3936 Clouds 23 1015 64 0 0.89 45 16:23 09.08.2019
3937 Clouds 23 1015 65 0 1.69 30.784 15:58 09.08.2019
3938 Clouds 23 1015 65 0 0.89 45 15:39 09.08.2019
3939 Clouds 23 1015 63 0 0.45 22 15:20 09.08.2019
3940 -273 0 0 0 0 0 14:56 09.08.2019
3941 Clouds 23 1015 63 0 0.45 22 14:37 09.08.2019
3942 Clouds 23 1015 62 0 0.89 45 14:19 09.08.2019
3943 Clouds 25 1016 55 0 0.89 45 13:43 09.08.2019
3944 Clouds 24 1015 55 0 4.46 268.574 13:20 09.08.2019
3945 Clouds 24 1015 57 0 1.34 315 12:47 09.08.2019
3946 Clear 23 1015 60 0 0.45 292 12:24 09.08.2019
3947 Clear 22 1015 64 0 0.45 270 11:59 09.08.2019
3948 Clear 22 1015 66 0 5.39 276.89 11:38 09.08.2019
3949 Clear 21 1015 66 0 0.45 270 11:19 09.08.2019
3950 Clear 21 1015 70 0 1.79 315 10:41 09.08.2019
3951 Clear 20 1015 71 0 0.45 292 10:22 09.08.2019
3952 Clear 19 1015 74 0 5.39 276.89 09:57 09.08.2019
3953 Clear 19 1015 75 0 5.39 276.89 09:37 09.08.2019
3954 Rain 19 1015 77 0 0.45 292 09:18 09.08.2019
3955 Rain 17 1015 83 0 1.34 292 08:44 09.08.2019
3956 Rain 17 1015 85 0 7.68 290.513 08:24 09.08.2019
3957 Rain 16 1015 86 0 7.68 290.513 07:55 09.08.2019
3958 Rain 16 1015 86 0 7.68 290.513 07:55 09.08.2019
3959 Rain 15 1015 85 0 0.45 270 07:24 09.08.2019
3960 Rain 14 1015 85 0 7.68 290.513 06:59 09.08.2019
3961 Rain 14 1014 85 0 7.68 290.513 06:38 09.08.2019
3962 Rain 14 1014 85 0 9.92 275.296 06:20 09.08.2019
3963 Rain 14 1014 84 0 9.92 275.296 05:30 09.08.2019
3964 Rain 15 1013 81 0 10.18 265.115 02:26 09.08.2019
3965 Rain 16 1013 80 0 10.56 261.776 01:23 09.08.2019
3966 Rain 16 1013 79 0 10.56 261.776 00:41 09.08.2019
3967 Rain 16 1013 78 0 10.17 261.367 00:22 09.08.2019
3968 Rain 16 1013 77 0 10.17 261.367 23:56 08.08.2019
3969 Rain 17 1013 76 0 10.17 261.367 23:37 08.08.2019
3970 Rain 17 1013 76 0 10.17 261.367 23:18 08.08.2019
3971 Rain 17 1013 74 0 10.17 261.367 22:54 08.08.2019
3972 Rain 17 1013 74 0 10.17 261.367 22:36 08.08.2019
3973 Rain 17 1013 74 0 10.17 261.367 22:18 08.08.2019
3974 Rain 17 1013 74 0 10.17 261.367 22:18 08.08.2019
3975 Rain 18 1012 70 0 10.17 261.367 21:42 08.08.2019
3976 Rain 18 1013 69 0 9.42 269.149 21:23 08.08.2019
3977 Rain 19 1012 66 0 9.42 269.149 20:57 08.08.2019
3978 Rain 20 1012 65 0 9.57 270.497 20:39 08.08.2019
3979 Rain 20 1012 64 0 9.57 270.497 20:19 08.08.2019
3980 Rain 21 1012 61 0 0.45 292 19:48 08.08.2019
3981 Rain 22 1012 61 0 0.45 247 19:29 08.08.2019
3982 Rain 21 1012 66 0 0.45 292 18:59 08.08.2019
3983 Rain 21 1012 67 0 0.45 315 18:40 08.08.2019
3984 Rain 20 1012 73 0 7.8 262.787 18:19 08.08.2019
3985 Rain 21 1012 61 0 1.79 292 17:42 08.08.2019
3986 Rain 22 1011 55 0 0.45 292 17:24 08.08.2019
3987 Rain 20 1008 73 0 7.8 262.787 16:58 08.08.2019
3988 Rain 20 1008 73 0 7.8 262.787 16:40 08.08.2019
3989 Rain 23 1011 63 0 7.8 262.787 16:22 08.08.2019
3990 Rain 22 1011 69 0 0.89 292 15:57 08.08.2019
3991 Rain 22 1011 66 0 1.34 315 15:38 08.08.2019
3992 Rain 24 1011 49 0 0.45 247 15:20 08.08.2019
3993 Rain 20 1007 73 0 10.04 255.514 14:38 08.08.2019
3994 Rain 20 1007 73 0 10.04 255.514 14:19 08.08.2019
3995 Rain 20 1007 73 0 10.04 255.514 13:42 08.08.2019
3996 Rain 20 1007 74 0 10.21 256.209 13:24 08.08.2019
3997 Rain 20 1007 74 0 10.21 256.209 12:58 08.08.2019
3998 Rain 20 1007 74 0 10.21 256.209 12:38 08.08.2019
3999 Rain 19 1007 76 0 8.06 243.235 12:18 08.08.2019
4000 Rain 19 1007 76 0 8.06 243.235 12:18 08.08.2019
4001 Rain 23 1011 58 0 8.06 243.235 11:43 08.08.2019
4002 Rain 23 1011 60 0 8.06 243.235 11:24 08.08.2019
4003 Rain 23 1011 63 0 8.06 243.235 10:56 08.08.2019
4004 Rain 23 1011 66 0 8.06 243.235 10:37 08.08.2019
4005 Rain 22 1011 68 0 8.06 243.235 10:19 08.08.2019
4006 Rain 20 1011 72 0 8.06 243.235 09:40 08.08.2019
4007 Rain 19 1011 74 0 7.67 237.679 09:20 08.08.2019
4008 Rain 18 1011 82 0 7.42 236.361 08:42 08.08.2019
4009 Rain 17 1011 83 0 7.42 236.361 08:22 08.08.2019
4010 Rain 17 1011 85 0 7.42 236.361 07:58 08.08.2019
4011 Rain 16 1011 85 0 7.42 236.361 07:39 08.08.2019
4012 Rain 16 1011 85 0 7.42 236.361 07:18 08.08.2019
4013 Rain 15 1011 85 0 7.42 236.361 06:44 08.08.2019
4014 Clear 14 1010 85 0 7.03 255.984 05:58 08.08.2019
4015 Clear 14 1010 84 0 7.03 255.984 05:40 08.08.2019
4016 Clear 14 1010 86 0 7.03 255.984 04:21 08.08.2019
4017 Clear 14 1010 86 0 7.03 255.984 03:47 08.08.2019
4018 Rain 15 1010 83 0 6.47 278.816 01:59 08.08.2019
4019 Clouds 15 1010 84 0 7.44 285.41 01:20 08.08.2019
4020 Clouds 16 1010 79 0 6.35 278.216 00:25 08.08.2019
4021 Clouds 17 1009 78 0 6.35 278.216 23:42 07.08.2019
4022 Clouds 17 1009 76 0 6.35 278.216 23:19 07.08.2019
4023 Clouds 18 1009 75 0 6.35 278.216 22:55 07.08.2019
4024 Clouds 18 1009 74 0 6.35 278.216 22:36 07.08.2019
4025 Clouds 19 1009 73 0 6.35 278.216 22:18 07.08.2019
4026 Clouds 20 1008 71 0 6.35 278.216 21:54 07.08.2019
4027 Clouds 20 1008 71 0 6.35 278.216 21:36 07.08.2019
4028 Rain 21 1008 71 0 5.85 273.869 21:18 07.08.2019
4029 Rain 21 1008 69 0 6.68 282.405 20:41 07.08.2019
4030 Rain 21 1008 69 0 6.68 282.405 20:41 07.08.2019
4031 Rain 21 1008 69 0 6.68 282.405 20:23 07.08.2019
4032 Rain 22 1008 68 0 6.68 282.405 19:56 07.08.2019
4033 Rain 19 1004 79 0 6.68 282.405 19:38 07.08.2019
4034 Rain 19 1004 79 0 6.68 282.405 19:20 07.08.2019
4035 Rain 23 1008 66 0 0.45 157 18:42 07.08.2019
4036 Rain 23 1007 65 0 3.51 215.953 18:21 07.08.2019
4037 Rain 23 1007 63 0 3.51 215.953 17:58 07.08.2019
4038 Rain 20 1004 76 0 3.51 215.953 17:39 07.08.2019
4039 Rain 20 1004 76 0 3.51 215.953 17:21 07.08.2019
4040 Rain 20 1004 76 0 3.51 215.953 16:57 07.08.2019
4041 Rain 20 1004 76 0 3.51 215.953 16:39 07.08.2019
4042 Rain 20 1004 76 0 3.51 215.953 16:20 07.08.2019
4043 Rain 20 1004 76 0 3.51 215.953 15:56 07.08.2019
4044 Rain 20 1004 76 0 3.51 215.953 15:37 07.08.2019
4045 Rain 21 1004 68 0 2.33 117.457 15:19 07.08.2019
4046 Rain 21 1004 68 0 2.33 117.457 14:45 07.08.2019
4047 Rain 25 1009 58 0 2.33 117.457 14:27 07.08.2019
4048 Rain 24 1009 62 0 2.33 117.457 13:54 07.08.2019
4049 Rain 24 1009 67 0 2.33 117.457 13:36 07.08.2019
4050 Rain 23 1009 69 0 1.16 98.901 13:18 07.08.2019
4051 Rain 23 1009 64 0 1.16 98.901 12:55 07.08.2019
4052 Rain 23 1009 61 0 1.16 98.901 12:36 07.08.2019
4053 Rain 23 1009 61 0 1.16 98.901 12:36 07.08.2019
4054 Clouds 23 1009 62 0 1.65 214.065 12:18 07.08.2019
4055 Clouds 23 1009 65 0 1.65 214.065 11:42 07.08.2019
4056 Clouds 23 1009 64 0 1.65 214.065 11:20 07.08.2019
4057 Clouds 22 1010 67 0 1.65 214.065 10:56 07.08.2019
4058 Clouds 22 1010 69 0 1.65 214.065 10:38 07.08.2019
4059 Clouds 22 1010 70 0 1.65 214.065 10:18 07.08.2019
4060 Clouds 21 1010 74 0 1.65 214.065 09:44 07.08.2019
4061 Clouds 21 1010 75 0 3 271.835 09:22 07.08.2019
4062 Clouds 19 1010 80 0 3 271.835 08:57 07.08.2019
4063 Clouds 19 1010 82 0 2.86 280.654 08:38 07.08.2019
4064 Clouds 18 1010 84 0 2.86 280.654 08:20 07.08.2019
4065 Clouds 17 1010 84 0 2.86 280.654 07:41 07.08.2019
4066 Clouds 17 1010 83 0 2.86 280.654 07:20 07.08.2019
4067 Clouds 16 1010 80 0 2.86 280.654 06:31 07.08.2019
4068 Rain 16 1010 80 0 2.36 235.288 05:54 07.08.2019
4069 Rain 16 1010 80 0 2.36 235.288 04:57 07.08.2019
4070 Rain 17 1010 79 0 1.97 269.216 03:21 07.08.2019
4071 Rain 17 1010 79 0 1.97 269.216 02:50 07.08.2019
4072 Rain 18 1010 78 0 1.97 269.216 02:20 07.08.2019
4073 Rain 18 1010 77 0 1.97 269.216 01:42 07.08.2019
4074 Clouds 18 1010 75 0 3.44 223.195 00:51 07.08.2019
4075 Clouds 19 1010 74 0 3 248.149 00:22 07.08.2019
4076 Clouds 19 1010 74 0 3 248.149 00:22 07.08.2019
4077 Clouds 19 1010 73 0 3 248.149 23:44 06.08.2019
4078 Clouds 19 1010 72 0 3 248.149 23:22 06.08.2019
4079 Clouds 19 1010 71 0 3 248.149 22:59 06.08.2019
4080 Clouds 19 1010 70 0 3 248.149 22:38 06.08.2019
4081 Clouds 19 1010 69 0 3 248.149 22:20 06.08.2019
4082 Clouds 19 1011 65 0 3 248.149 21:44 06.08.2019
4083 Clouds 20 1011 64 0 3 248.149 21:26 06.08.2019
4084 Clouds 22 1011 62 0 2.99 264.19 20:59 06.08.2019
4085 Clouds 22 1011 62 0 4.74 265.975 20:41 06.08.2019
4086 Clouds 23 1010 60 0 4.74 265.975 20:23 06.08.2019
4087 Clouds 20 1006 76 0 4.74 265.975 19:48 06.08.2019
4088 Clouds 20 1006 76 0 4.74 265.975 19:29 06.08.2019
4089 Clouds 20 1006 76 0 4.74 265.975 18:57 06.08.2019
4090 Clouds 20 1006 76 0 4.74 265.975 18:38 06.08.2019
4091 Clouds 20 1007 76 0 3.59 278.79 18:19 06.08.2019
4092 Clouds 20 1007 76 0 3.59 278.79 17:56 06.08.2019
4093 Clouds 20 1007 76 0 3.59 278.79 17:37 06.08.2019
4094 Clouds 20 1007 76 0 3.59 278.79 17:18 06.08.2019
4095 Clouds 20 1007 76 0 3.59 278.79 16:42 06.08.2019
4096 Clouds 20 1007 76 0 3.59 278.79 16:24 06.08.2019
4097 Clouds 24 1011 66 0 3.59 278.79 15:58 06.08.2019
4098 Clouds 23 1011 67 0 3.59 278.79 15:39 06.08.2019
4099 Clouds 23 1011 66 0 6.32 272.049 15:21 06.08.2019
4100 Clouds 24 1011 63 0 1.79 270 14:54 06.08.2019
4101 Clouds 24 1011 61 0 0.89 225 14:36 06.08.2019
4102 Clouds 24 1011 59 0 0.45 292 14:18 06.08.2019
4103 Clouds 25 1011 59 0 6.32 272.049 13:45 06.08.2019
4104 Clouds 25 1011 59 0 0.89 247 13:26 06.08.2019
4105 Clouds 25 1011 60 0 0.45 225 12:59 06.08.2019
4106 Clouds 20 1007 80 0 7.04 270.301 12:39 06.08.2019
4107 Clouds 20 1009 80 0 8.19 250.87 12:21 06.08.2019
4108 Clouds 24 1012 63 0 0.45 225 11:45 06.08.2019
4109 Clouds 23 1012 64 0 0.45 202 11:20 06.08.2019
4110 Clouds 23 1012 64 0 0.45 270 10:58 06.08.2019
4111 Clouds 23 1012 65 0 8.19 250.87 10:39 06.08.2019
4112 Clouds 23 1012 65 0 8.19 250.87 10:39 06.08.2019
4113 Clouds 23 1012 64 0 8.19 250.87 10:21 06.08.2019
4114 Clouds 22 1012 70 0 8.19 250.87 09:41 06.08.2019
4115 Clouds 22 1012 72 0 6.58 258.61 09:21 06.08.2019
4116 Clouds 21 1012 75 0 6.58 258.61 08:51 06.08.2019
4117 Rain 19 1012 79 0 6.57 258.798 08:29 06.08.2019
4118 Rain 19 1012 80 0 6.57 258.798 07:59 06.08.2019
4119 Rain 18 1012 83 0 6.57 258.798 07:30 06.08.2019
4120 Rain 17 1011 82 0 6.57 258.798 06:45 06.08.2019
4121 Clouds 17 1012 80 0 5.1 247.679 06:23 06.08.2019
4122 Clouds 16 1012 77 0 5.1 247.679 05:31 06.08.2019
4123 Rain 18 1012 74 0 4.58 243.39 02:50 06.08.2019
4124 Rain 19 1012 74 0 4.1 241.961 01:26 06.08.2019
4125 Rain 19 1012 72 0 4.1 241.961 00:52 06.08.2019
4126 Rain 19 1012 70 0 4.33 150.985 00:19 06.08.2019
4127 Rain 20 1012 69 0 4.33 150.985 23:21 05.08.2019
4128 Rain 21 1012 67 0 4.33 150.985 22:58 05.08.2019
4129 Rain 21 1012 67 0 4.33 150.985 22:39 05.08.2019
4130 Rain 21 1012 66 0 4.33 150.985 22:20 05.08.2019
4131 Rain 21 1012 64 0 4.33 150.985 21:42 05.08.2019
4132 Rain 22 1012 63 0 3.7 129.044 21:21 05.08.2019
4133 Rain 23 1012 62 0 3.55 96.082 20:58 05.08.2019
4134 Rain 23 1012 63 0 3.55 96.082 20:39 05.08.2019
4135 Rain 23 1012 62 0 3.55 96.082 20:21 05.08.2019
4136 Rain 23 1012 60 0 3.55 96.082 19:57 05.08.2019
4137 Rain 24 1012 59 0 3.55 96.082 19:38 05.08.2019
4138 Rain 24 1012 60 0 3.55 96.082 19:19 05.08.2019
4139 Rain 24 1012 62 0 3.55 96.082 18:42 05.08.2019
4140 Rain 24 1012 61 0 4.38 72.116 18:20 05.08.2019
4141 Rain 24 1012 63 0 4.38 72.116 17:50 05.08.2019
4142 Rain 24 1013 62 0 0.45 45 17:30 05.08.2019
4143 Rain 24 1013 63 0 4.38 72.116 16:59 05.08.2019
4144 Rain 24 1013 63 0 0.45 45 16:41 05.08.2019
4145 Rain 24 1013 59 0 4.38 72.116 16:23 05.08.2019
4146 Rain 25 1013 62 0 4.38 72.116 15:43 05.08.2019
4147 Clouds 24 1013 63 0 2.55 21.914 15:20 05.08.2019
4148 Clouds 24 1014 60 0 2.55 21.914 14:42 05.08.2019
4149 Clouds 24 1014 60 0 2.55 21.914 14:42 05.08.2019
4150 Clouds 19 1010 76 0 2.55 21.914 14:23 05.08.2019
4151 Clouds 24 1014 58 0 2.55 21.914 13:57 05.08.2019
4152 Clouds 26 1014 54 0 0.89 135 13:38 05.08.2019
4153 Clouds 26 1014 56 0 2.55 22.474 13:18 05.08.2019
4154 Clouds 24 1015 58 0 0.89 337 12:42 05.08.2019
4155 Clouds 23 1015 62 0 1.71 265.84 12:19 05.08.2019
4156 Clouds 18 1012 74 0 1.71 265.84 11:43 05.08.2019
4157 Clouds 18 1012 74 0 1.71 265.84 11:43 05.08.2019
4158 Clouds 18 1012 74 0 1.71 265.84 11:25 05.08.2019
4159 Clouds 23 1015 64 0 1.71 265.84 10:48 05.08.2019
4160 Clouds 22 1015 67 0 1.71 265.84 10:30 05.08.2019
4161 Clouds 21 1015 71 0 1.71 265.84 09:57 05.08.2019
4162 Clouds 20 1016 73 0 1.71 265.84 09:37 05.08.2019
4163 Clouds 20 1016 74 0 3.14 239.813 09:19 05.08.2019
4164 Clouds 19 1016 77 0 3.5 259.707 08:44 05.08.2019
4165 Clouds 19 1016 78 0 3.5 259.707 08:24 05.08.2019
4166 Clouds 18 1016 78 0 3.5 259.707 07:48 05.08.2019
4167 Clouds 18 1016 79 0 3.5 259.707 07:28 05.08.2019
4168 Clouds 17 1016 79 0 3.5 259.707 06:57 05.08.2019
4169 Clouds 16 1016 78 0 3.84 245.695 06:24 05.08.2019
4170 Clouds 15 1016 77 0 3.84 245.695 05:31 05.08.2019
4171 Clouds 16 1016 77 0 3.84 245.695 04:51 05.08.2019
4172 Clouds 16 1016 75 0 3.84 245.695 03:52 05.08.2019
4173 Clouds 17 1017 75 0 3.31 253.66 02:47 05.08.2019
4174 Clouds 17 1017 72 0 3.31 253.66 01:58 05.08.2019
4175 Clouds 17 1017 72 0 3.15 256.339 01:25 05.08.2019
4176 Clouds 18 1017 70 0 3.15 256.339 00:40 05.08.2019
4177 Clear 18 1017 70 0 4.14 273.231 00:20 05.08.2019
4178 Clear 18 1017 68 0 4.14 273.231 23:43 04.08.2019
4179 Clear 18 1017 67 0 4.14 273.231 23:24 04.08.2019
4180 Clear 18 1017 66 0 4.14 273.231 22:57 04.08.2019
4181 Clear 18 1017 66 0 4.14 273.231 22:38 04.08.2019
4182 Clear 19 1017 65 0 4.14 273.231 22:20 04.08.2019
4183 Clear 19 1017 64 0 4.14 273.231 21:59 04.08.2019
4184 Clear 19 1017 64 0 4.14 273.231 21:41 04.08.2019
4185 Clouds 19 1017 64 0 4.77 280.874 21:19 04.08.2019
4186 Clear 21 1017 59 0 0.45 292 20:42 04.08.2019
4187 Clear 21 1017 58 0 4.7 295.47 20:19 04.08.2019
4188 Clear 19 1013 75 0 4.7 295.47 19:56 04.08.2019
4189 Clear 19 1013 75 0 4.7 295.47 19:37 04.08.2019
4190 Clear 19 1013 75 0 4.7 295.47 19:18 04.08.2019
4191 Clear 19 1013 75 0 4.7 295.47 18:42 04.08.2019
4192 Clouds 24 1017 51 0 0.45 45 18:20 04.08.2019
4193 Clouds 23 1017 51 0 0.45 292 17:44 04.08.2019
4194 Clouds 19 1014 73 0 5.53 283.958 17:24 04.08.2019
4195 Clouds 24 1017 52 0 0.45 315 16:56 04.08.2019
4196 Clouds 23 1017 53 0 1.34 315 16:38 04.08.2019
4197 Clouds 24 1017 50 0 0.45 337 16:19 04.08.2019
4198 Clouds 24 1018 51 0 0.89 337 15:40 04.08.2019
4199 Clouds 23 1018 54 0 0.89 337 15:20 04.08.2019
4200 Clouds 23 1018 58 0 0.89 292 14:44 04.08.2019
4201 Clouds 23 1018 61 0 1.34 315 14:26 04.08.2019
4202 Clouds 23 1018 59 0 1.34 315 13:47 04.08.2019
4203 Clouds 24 1018 58 0 0.89 337 13:27 04.08.2019
4204 Clouds 24 1018 58 0 0.89 337 13:27 04.08.2019
4205 Clouds 23 1018 62 0 0.89 315 12:58 04.08.2019
4206 Clouds 23 1018 63 0 0.45 315 12:40 04.08.2019
4207 Rain 22 1018 68 0 6.8 291.491 12:22 04.08.2019
4208 Rain 21 1018 70 0 6.8 291.491 11:49 04.08.2019
4209 Rain 22 1018 68 0 0.45 315 11:23 04.08.2019
4210 Rain 21 1018 74 0 6.8 291.491 10:54 04.08.2019
4211 Rain 21 1018 73 0 0.89 337 10:36 04.08.2019
4212 Rain 21 1018 74 0 0.45 292 10:18 04.08.2019
4213 Rain 20 1018 79 0 6.8 291.491 09:41 04.08.2019
4214 Rain 19 1018 81 0 5.87 290.501 09:20 04.08.2019
4215 Rain 18 1018 85 0 0.89 292 08:41 04.08.2019
4216 Rain 18 1018 87 0 0.45 337 08:20 04.08.2019
4217 Rain 17 1018 88 0 4.49 283.525 07:45 04.08.2019
4218 Rain 16 1018 88 0 4.49 283.525 06:47 04.08.2019
4219 Clear 15 1018 87 0 3.38 262.375 06:24 04.08.2019
4220 Clear 15 1018 87 0 3.38 262.375 06:24 04.08.2019
4221 Clear 14 1018 77 0 3.38 262.375 03:44 04.08.2019
4222 Rain 15 1018 75 0 3.79 299.345 02:22 04.08.2019
4223 Clear 16 1018 74 0 3.16 306.424 01:33 04.08.2019
4224 Clear 16 1018 71 0 3.16 306.424 00:45 04.08.2019
4225 Clear 17 1018 71 0 3.16 306.424 00:26 04.08.2019
4226 Clear 17 1018 70 0 4.54 268.762 23:57 03.08.2019
4227 Clear 17 1018 68 0 4.54 268.762 23:39 03.08.2019
4228 Clear 18 1018 66 0 4.54 268.762 23:18 03.08.2019
4229 Clear 19 1018 64 0 4.54 268.762 22:43 03.08.2019
4230 Clear 20 1018 64 0 4.54 268.762 22:20 03.08.2019
4231 Clear 21 1017 60 0 4.54 268.762 21:40 03.08.2019
4232 Clear 22 1017 59 0 3.32 276.744 21:22 03.08.2019
4233 Clear 23 1017 56 0 4.82 276.7 20:57 03.08.2019
4234 Clear 23 1017 54 0 4.82 276.7 20:36 03.08.2019
4235 Clear 24 1017 54 0 4.82 276.7 20:18 03.08.2019
4236 Clear 20 1014 76 0 4.82 276.7 19:41 03.08.2019
4237 Clear 20 1014 76 0 4.82 276.7 19:23 03.08.2019
4238 Clear 20 1014 76 0 4.82 276.7 18:49 03.08.2019
4239 Clear 20 1014 76 0 4.82 276.7 18:27 03.08.2019
4240 Clear 20 1014 71 0 2.88 291.568 17:48 03.08.2019
4241 Clear 20 1014 71 0 2.88 291.568 17:21 03.08.2019
4242 Clear 20 1014 71 0 2.88 291.568 16:56 03.08.2019
4243 Clear 20 1014 71 0 2.88 291.568 16:37 03.08.2019
4244 Clear 20 1014 71 0 2.88 291.568 16:19 03.08.2019
4245 Clear 26 1018 49 0 0.89 337 15:43 03.08.2019
4246 Rain 19 1014 76 0 3.39 353.815 15:22 03.08.2019
4247 Rain 25 1017 55 0 3.39 353.815 14:40 03.08.2019
4248 Rain 25 1017 56 0 3.39 353.815 14:21 03.08.2019
4249 Rain 24 1018 57 0 0.89 337 13:51 03.08.2019
4250 Rain 24 1018 56 0 3.64 352.155 13:25 03.08.2019
4251 Rain 24 1018 65 0 3.64 352.155 12:58 03.08.2019
4252 Rain 24 1018 66 0 0.45 22 12:39 03.08.2019
4253 Rain 23 1018 65 0 0.45 22 12:21 03.08.2019
4254 Rain 23 1018 67 0 4.28 345.239 11:49 03.08.2019
4255 Rain 22 1018 68 0 0.45 22 11:27 03.08.2019
4256 Rain 22 1018 69 0 0.89 22 10:42 03.08.2019
4257 Rain 21 1017 71 0 4.28 345.239 10:22 03.08.2019
4258 Rain 20 1017 77 0 4.28 345.239 09:42 03.08.2019
4259 Rain 20 1017 78 0 1.34 22 09:22 03.08.2019
4260 Rain 19 1017 81 0 5.58 338.536 08:52 03.08.2019
4261 Rain 17 1017 87 0 5.58 338.536 07:55 03.08.2019
4262 Rain 16 1017 87 0 5.58 338.536 07:32 03.08.2019
4263 Rain 19 1014 77 0 5.58 338.536 06:39 03.08.2019
4264 Rain 14 1017 80 0 2.03 348.812 04:52 03.08.2019
4265 Clouds 15 1017 78 0 1.95 338.897 02:39 03.08.2019
4266 Clouds 16 1017 78 0 1.95 338.897 01:50 03.08.2019
4267 Clouds 16 1017 78 0 1.95 338.897 01:50 03.08.2019
4268 Clouds 16 1017 77 0 2.44 2.82 00:49 03.08.2019
4269 Clouds 17 1017 76 0 2.44 2.82 00:28 03.08.2019
4270 Clouds 17 1017 75 0 1.17 16.417 23:41 02.08.2019
4271 Clouds 17 1017 74 0 1.17 16.417 23:19 02.08.2019
4272 Clouds 17 1017 73 0 1.17 16.417 22:57 02.08.2019
4273 Clouds 17 1017 72 0 1.17 16.417 22:39 02.08.2019
4274 Clouds 18 1017 72 0 1.17 16.417 22:20 02.08.2019
4275 Clouds 18 1017 70 0 1.17 16.417 21:55 02.08.2019
4276 Clouds 18 1017 70 0 1.17 16.417 21:36 02.08.2019
4277 Clouds 19 1017 69 0 2.23 27.104 21:18 02.08.2019
4278 Clouds 21 1017 64 0 2.55 31.699 20:41 02.08.2019
4279 Clouds 22 1017 64 0 2.55 31.699 20:21 02.08.2019
4280 Clouds 22 1017 62 0 2.55 31.699 19:49 02.08.2019
4281 Clouds 22 1017 58 0 2.55 31.699 19:28 02.08.2019
4282 Clouds 22 1017 59 0 0.45 45 18:45 02.08.2019
4283 Clouds 22 1017 61 0 2.55 31.699 18:27 02.08.2019
4284 Clouds 22 1017 60 0 2.5 30.143 17:48 02.08.2019
4285 Clouds 22 1018 60 0 2.5 30.143 17:26 02.08.2019
4286 Clouds 23 1018 59 0 0.45 45 16:59 02.08.2019
4287 Clouds 23 1018 61 0 2.5 30.143 16:39 02.08.2019
4288 Clouds 23 1018 62 0 0.89 45 16:20 02.08.2019
4289 Clouds 22 1018 63 0 0.89 22 15:45 02.08.2019
4290 Clouds 22 1018 63 0 0.89 22 15:20 02.08.2019
4291 Clouds 22 1018 64 0 0.45 45 14:57 02.08.2019
4292 Clouds 23 1018 66 0 3.7 33.815 14:39 02.08.2019
4293 Clouds 22 1018 69 0 0.45 135 14:18 02.08.2019
4294 Clouds 20 1018 71 0 3.7 33.815 13:42 02.08.2019
4295 Clouds 20 1018 70 0 3.52 20.545 13:19 02.08.2019
4296 Clouds 21 1018 67 0 3.52 20.545 12:41 02.08.2019
4297 Clouds 21 1019 67 0 1.71 36.809 12:19 02.08.2019
4298 Clouds 20 1019 71 0 0.45 22 11:40 02.08.2019
4299 Clouds 20 1019 73 0 0.45 315 11:22 02.08.2019
4300 Clouds 19 1019 74 0 1.71 36.809 10:44 02.08.2019
4301 Clouds 19 1019 76 0 1.71 36.809 10:24 02.08.2019
4302 Clouds 19 1019 77 0 1.71 36.809 09:53 02.08.2019
4303 Clouds 18 1019 80 0 1.71 36.809 09:30 02.08.2019
4304 Clouds 18 1019 82 0 2.04 54.84 08:56 02.08.2019
4305 Clouds 18 1019 83 0 2.04 54.84 08:26 02.08.2019
4306 Clouds 17 1019 83 0 2.04 54.84 07:59 02.08.2019
4307 Clouds 17 1019 83 0 2.04 54.84 07:39 02.08.2019
4308 Clouds 17 1019 83 0 2.04 54.84 07:21 02.08.2019
4309 Clouds 16 1019 83 0 2.04 54.84 06:27 02.08.2019
4310 Clouds 16 1019 82 0 1.4 50.294 05:42 02.08.2019
4311 Clouds 16 1019 81 0 1.4 50.294 03:33 02.08.2019
4312 Clouds 16 1020 81 0 2.3 105.544 02:37 02.08.2019
4313 Clouds 16 1019 81 0 1.63 94.391 01:34 02.08.2019
4314 Clouds 16 1019 79 0 1.63 94.391 00:31 02.08.2019
4315 Clouds 16 1019 79 0 3.49 106.443 23:44 01.08.2019
4316 Clouds 16 1019 79 0 3.49 106.443 23:25 01.08.2019
4317 Clouds 17 1019 77 0 3.49 106.443 22:44 01.08.2019
4318 Clouds 17 1019 77 0 3.49 106.443 22:25 01.08.2019
4319 Clouds 17 1020 76 0 3.49 106.443 21:57 01.08.2019
4320 Clouds 18 1020 76 0 3.49 106.443 21:38 01.08.2019
4321 Clouds 18 1020 75 0 3.87 84.491 21:20 01.08.2019
4322 Clouds 18 1019 74 0 4.62 88.026 20:46 01.08.2019
4323 Clouds 18 1019 74 0 4.62 88.026 20:46 01.08.2019
4324 Clouds 18 1019 74 0 4.62 88.026 20:23 01.08.2019
4325 Clouds 19 1019 73 0 4.62 88.026 19:54 01.08.2019
4326 Clouds 18 1019 72 0 4.62 88.026 19:36 01.08.2019
4327 Clouds 19 1019 71 0 4.62 88.026 19:18 01.08.2019
4328 Clouds 20 1019 70 0 4.62 88.026 18:42 01.08.2019
4329 Rain 20 1019 69 0 4.8 75.689 18:23 01.08.2019
4330 Rain 16 1016 85 0 4.8 75.689 17:47 01.08.2019
4331 Rain 16 1016 85 0 4.8 75.689 17:27 01.08.2019
4332 Rain 16 1016 85 0 4.8 75.689 16:45 01.08.2019
4333 Rain 16 1016 85 0 4.8 75.689 16:23 01.08.2019
4334 Rain 20 1020 72 0 0.45 135 15:46 01.08.2019
4335 Rain 20 1020 72 0 6.02 87.801 15:22 01.08.2019
4336 Rain 20 1020 72 0 6.02 87.801 15:22 01.08.2019
4337 Rain 21 1020 71 0 6.02 87.801 14:59 01.08.2019
4338 Rain 21 1020 72 0 6.02 87.801 14:41 01.08.2019
4339 Rain 21 1020 71 0 6.02 87.801 14:19 01.08.2019
4340 Rain 20 1020 71 0 6.02 87.801 13:56 01.08.2019
4341 Rain 21 1020 70 0 6.02 87.801 13:38 01.08.2019
4342 Rain 21 1020 72 0 3.92 97.88 13:20 01.08.2019
4343 Rain 21 1020 73 0 3.92 97.88 12:42 01.08.2019
4344 Rain 21 1020 74 0 1.76 103.436 12:23 01.08.2019
4345 Rain 20 1020 73 0 1.76 103.436 11:43 01.08.2019
4346 Rain 20 1020 80 0 0.89 292 11:24 01.08.2019
4347 Rain 19 1020 82 0 1.76 103.436 10:46 01.08.2019
4348 Rain 19 1020 83 0 0.45 292 10:28 01.08.2019
4349 Rain 18 1020 86 0 0.45 315 09:59 01.08.2019
4350 Rain 18 1020 87 0 0.45 292 09:41 01.08.2019
4351 Clouds 17 1020 88 0 2.96 174.441 09:23 01.08.2019
4352 Clouds 17 1020 88 0 2.96 174.441 09:23 01.08.2019
4353 Rain 17 1020 88 0 3.38 139.638 08:46 01.08.2019
4354 Rain 17 1020 89 0 0.45 292 08:20 01.08.2019
4355 Rain 16 1020 89 0 3.38 139.638 07:50 01.08.2019
4356 Rain 16 1020 89 0 0.45 270 07:26 01.08.2019
4357 Rain 16 1020 89 0 3.38 139.638 06:49 01.08.2019
4358 Rain 16 1020 88 0 3.38 139.638 06:27 01.08.2019
4359 Rain 16 1016 91 0 3.81 128.324 04:53 01.08.2019
4360 Rain 16 1020 86 0 5.57 116.735 02:35 01.08.2019
4361 Rain 17 1019 85 0 6.26 115.595 00:49 01.08.2019
4362 Rain 17 1019 84 0 0.45 180 00:25 01.08.2019
4363 Rain 17 1019 83 0 7.15 122.412 23:44 31.07.2019
4364 Rain 17 1019 83 0 7.15 122.412 23:21 31.07.2019
4365 Rain 17 1019 83 0 7.15 122.412 22:59 31.07.2019
4366 Rain 17 1019 82 0 7.15 122.412 22:41 31.07.2019
4367 Rain 17 1020 83 0 7.15 122.412 22:23 31.07.2019
4368 Rain 18 1019 78 0 7.15 122.412 21:39 31.07.2019
4369 Clouds 18 1019 78 0 8.37 94.482 21:21 31.07.2019
4370 Rain 18 1019 77 0 7.11 94.893 20:48 31.07.2019
4371 Rain 19 1019 76 0 7.11 94.893 20:22 31.07.2019
4372 Rain 19 1019 74 0 7.11 94.893 19:48 31.07.2019
4373 Rain 19 1019 72 0 7.11 94.893 19:28 31.07.2019
4374 Rain 20 1018 70 0 7.11 94.893 18:55 31.07.2019
4375 Rain 21 1018 70 0 7.11 94.893 18:37 31.07.2019
4376 Clouds 21 1018 70 0 6.77 103.612 18:18 31.07.2019
4377 Clouds 22 1018 67 0 6.77 103.612 17:43 31.07.2019
4378 Clouds 22 1018 67 0 6.77 103.612 17:20 31.07.2019
4379 Clouds 22 1018 68 0 6.77 103.612 16:48 31.07.2019
4380 Clouds 21 1019 69 0 6.77 103.612 16:21 31.07.2019
4381 Clouds 22 1019 68 0 6.77 103.612 15:55 31.07.2019
4382 Clouds 22 1019 67 0 0.45 135 15:36 31.07.2019
4383 Clouds 19 1015 79 0 7.48 100.047 15:18 31.07.2019
4384 Clouds 19 1015 79 0 7.48 100.047 14:42 31.07.2019
4385 Clouds 19 1015 79 0 7.48 100.047 14:19 31.07.2019
4386 Clouds 19 1015 79 0 7.48 100.047 13:55 31.07.2019
4387 Clouds 19 1015 79 0 7.48 100.047 13:36 31.07.2019
4388 Clouds 19 1016 79 0 6.35 99.695 13:18 31.07.2019
4389 Clouds 21 1018 75 0 0.89 90 12:40 31.07.2019
4390 Rain 21 1019 74 0 0.89 135 12:21 31.07.2019
4391 Rain 20 1019 79 0 7.02 109.754 11:39 31.07.2019
4392 Rain 19 1019 81 0 7.02 109.754 11:20 31.07.2019
4393 Rain 19 1019 82 0 0.45 157 10:55 31.07.2019
4394 Rain 18 1019 83 0 7.02 109.754 10:37 31.07.2019
4395 Rain 18 1019 83 0 7.02 109.754 10:18 31.07.2019
4396 Rain 18 1019 83 0 7.02 109.754 09:42 31.07.2019
4397 Rain 18 1018 83 0 7.2 116.483 09:23 31.07.2019
4398 Rain 17 1018 84 0 7.51 108.932 08:43 31.07.2019
4399 Rain 17 1018 85 0 7.51 108.932 08:23 31.07.2019
4400 Rain 17 1017 85 0 7.51 108.932 07:47 31.07.2019
4401 Rain 17 1018 86 0 7.51 108.932 07:27 31.07.2019
4402 Rain 17 1017 87 0 7.67 102.87 05:20 31.07.2019
4403 Rain 18 1016 86 0 7.67 102.87 03:55 31.07.2019
4404 Rain 19 1017 82 0 7.82 100.793 00:37 31.07.2019
4405 Rain 19 1017 82 0 8.03 92.326 23:49 30.07.2019
4406 Rain 19 1016 82 0 8.03 92.326 23:27 30.07.2019
4407 Rain 19 1016 83 0 0.89 135 22:49 30.07.2019
4408 Rain 19 1016 82 0 8.03 92.326 22:26 30.07.2019
4409 Rain 19 1016 82 0 8.03 92.326 21:59 30.07.2019
4410 Rain 19 1016 82 0 8.03 92.326 21:37 30.07.2019
4411 Rain 19 1016 82 0 7.45 89.307 21:19 30.07.2019
4412 Clouds 19 1015 82 0 8.64 85.626 20:56 30.07.2019
4413 Clouds 20 1015 81 0 8.64 85.626 20:37 30.07.2019
4414 Clouds 20 1015 79 0 8.64 85.626 20:18 30.07.2019
4415 Clouds 21 1015 80 0 0.45 157 19:44 30.07.2019
4416 Clouds 21 1015 80 0 8.64 85.626 19:26 30.07.2019
4417 Clouds 21 1015 79 0 8.64 85.626 18:48 30.07.2019
4418 Rain 21 1015 77 0 7.62 79.762 18:23 30.07.2019
4419 Rain 21 1015 78 0 0.45 45 17:58 30.07.2019
4420 Rain 22 1015 77 0 7.62 79.762 17:40 30.07.2019
4421 Rain 22 1014 78 0 7.62 79.762 17:18 30.07.2019
4422 Rain 22 1014 75 0 0.45 67 16:44 30.07.2019
4423 Rain 23 1014 75 0 7.62 79.762 16:19 30.07.2019
4424 Rain 23 1014 75 0 0.89 22 15:40 30.07.2019
4425 Clear 23 1014 74 0 1.34 45 15:22 30.07.2019
4426 Clear 23 1014 75 0 0.45 112 14:44 30.07.2019
4427 Clear 23 1014 75 0 0.89 67 14:23 30.07.2019
4428 Clear 23 1014 74 0 1.34 22 13:56 30.07.2019
4429 Clear 23 1014 74 0 0.45 45 13:37 30.07.2019
4430 Clouds 23 1014 75 0 0.45 112 13:19 30.07.2019
4431 Clouds 23 1014 75 0 0.45 45 12:44 30.07.2019
4432 Clouds 22 1014 77 0 0.89 22 12:25 30.07.2019
4433 Clouds 23 1014 77 0 0.89 67 11:47 30.07.2019
4434 Clouds 23 1014 77 0 3.88 56.388 11:29 30.07.2019
4435 Clear 22 1014 78 0 0.45 45 10:59 30.07.2019
4436 Clear 22 1014 78 0 0.89 45 10:39 30.07.2019
4437 Clear 22 1014 78 0 0.45 45 10:20 30.07.2019
4438 Clear 22 1013 79 0 0.45 45 09:48 30.07.2019
4439 Clear 22 1013 79 0 0.45 22 09:28 30.07.2019
4440 Clouds 22 1013 83 0 0.89 45 08:42 30.07.2019
4441 Clouds 21 1013 83 0 1.86 45.961 08:19 30.07.2019
4442 Clouds 21 1013 84 0 1.86 45.961 07:44 30.07.2019
4443 Clouds 21 1013 86 0 1.86 45.961 07:23 30.07.2019
4444 Clouds 21 1013 87 0 0.89 22 06:45 30.07.2019
4445 Clouds 20 1013 87 0 2.78 60.793 05:47 30.07.2019
4446 Clouds 21 1013 88 0 0.89 22 05:25 30.07.2019
4447 Clouds 21 1013 84 0 2.59 33.107 01:38 30.07.2019
4448 Clouds 21 1013 82 0 2.59 33.107 00:36 30.07.2019
4449 Clouds 21 1013 82 0 1.48 68.876 00:18 30.07.2019
4450 Clouds 22 1013 82 0 1.48 68.876 23:43 29.07.2019
4451 Clouds 22 1013 82 0 1.48 68.876 23:24 29.07.2019
4452 Clouds 22 1013 81 0 1.48 68.876 22:57 29.07.2019
4453 Clouds 22 1013 81 0 1.48 68.876 22:57 29.07.2019
4454 Clouds 22 1013 81 0 0.45 45 22:38 29.07.2019
4455 Clouds 22 1013 81 0 1.48 68.876 22:19 29.07.2019
4456 Clouds 22 1013 79 0 1.48 68.876 21:46 29.07.2019
4457 Clouds 22 1013 78 0 1.48 68.876 21:28 29.07.2019
4458 Clouds 23 1012 76 0 4.42 73.761 20:58 29.07.2019
4459 Clouds 23 1012 75 0 4.42 73.761 20:40 29.07.2019
4460 Clouds 23 1012 75 0 4.42 73.761 20:40 29.07.2019
4461 Clouds 23 1012 75 0 4.42 73.761 20:21 29.07.2019
4462 Clouds 24 1012 73 0 4.42 73.761 19:54 29.07.2019
4463 Clouds 21 1009 81 0 4.42 73.761 19:36 29.07.2019
4464 Clouds 24 1012 73 0 0.89 22 19:18 29.07.2019
4465 Clouds 24 1012 73 0 0.89 22 19:18 29.07.2019
4466 Clouds 24 1012 74 0 4.42 73.761 18:41 29.07.2019
4467 Clouds 24 1012 76 0 4.9 55.073 18:21 29.07.2019
4468 Clouds 23 1012 76 0 0.45 45 17:49 29.07.2019
4469 Clouds 24 1011 79 0 4.9 55.073 17:31 29.07.2019
4470 Clouds 23 1011 80 0 0.45 45 16:57 29.07.2019
4471 Clouds 23 1011 80 0 0.45 45 16:57 29.07.2019
4472 Clouds 23 1012 80 0 0.45 45 16:39 29.07.2019
4473 Clouds 23 1012 80 0 0.89 45 16:20 29.07.2019
4474 Clouds 23 1012 79 0 4.9 55.073 15:50 29.07.2019
4475 Clouds 23 1012 79 0 4.9 55.073 15:30 29.07.2019
4476 Clouds 24 1011 76 0 0.45 45 14:45 29.07.2019
4477 Clouds 25 1011 74 0 1.34 45 14:21 29.07.2019
4478 Clouds 25 1011 74 0 1.34 45 14:21 29.07.2019
4479 Clouds 25 1011 74 0 1.34 45 14:21 29.07.2019
4480 Clouds 26 1011 70 0 0.45 45 13:59 29.07.2019
4481 Clouds 26 1011 71 0 0.45 45 13:41 29.07.2019
4482 Clouds 26 1011 71 0 0.45 45 13:22 29.07.2019
4483 Clouds 26 1011 75 0 0.45 22 12:42 29.07.2019
4484 Clouds 25 1012 75 0 0.45 45 12:22 29.07.2019
4485 Clouds 25 1011 77 0 0.45 45 11:43 29.07.2019
4486 Clouds 25 1011 77 0 0.89 45 11:22 29.07.2019
4487 Clouds 24 1011 79 0 0.45 45 10:45 29.07.2019
4488 Clouds 24 1011 79 0 1.34 45 10:24 29.07.2019
4489 Clouds 23 1011 82 0 0.45 45 09:48 29.07.2019
4490 Clouds 23 1011 84 0 0.89 45 09:28 29.07.2019
4491 Rain 22 1011 85 0 0.89 45 08:57 29.07.2019
4492 Clouds 22 1011 87 0 0.45 45 08:31 29.07.2019
4493 Clouds 22 1011 88 0 5.76 73.03 07:58 29.07.2019
4494 Clouds 22 1011 88 0 0.45 45 07:36 29.07.2019
4495 Clouds 21 1010 90 0 5.76 73.03 06:45 29.07.2019
4496 Clouds 21 1010 89 0 4.66 72.121 05:46 29.07.2019
4497 Clouds 21 1010 89 0 4.66 72.121 04:50 29.07.2019
4498 Clouds 21 1010 88 0 5.87 61.294 02:26 29.07.2019
4499 Clouds 21 1010 86 0 0.45 45 01:41 29.07.2019
4500 Clouds 21 1010 85 0 5.06 65.817 01:21 29.07.2019
4501 Clouds 21 1010 85 0 5.06 65.817 01:21 29.07.2019
4502 Clouds 21 1010 83 0 5.06 65.817 00:41 29.07.2019
4503 Clouds 21 1010 83 0 6.08 66.454 00:19 29.07.2019
4504 Clouds 21 1009 84 0 6.08 66.454 23:40 28.07.2019
4505 Clouds 21 1010 84 0 6.08 66.454 23:18 28.07.2019
4506 Clouds 22 1009 84 0 6.08 66.454 22:39 28.07.2019
4507 Clouds 22 1009 83 0 0.45 22 22:21 28.07.2019
4508 Clouds 22 1009 82 0 6.08 66.454 21:46 28.07.2019
4509 Clouds 22 1009 81 0 6.42 68.177 21:19 28.07.2019
4510 Clouds 23 1009 79 0 6.13 68.959 20:47 28.07.2019
4511 Clouds 23 1008 77 0 6.13 68.959 20:29 28.07.2019
4512 Clouds 21 1005 86 0 6.13 68.959 19:42 28.07.2019
4513 Clouds 21 1005 86 0 6.13 68.959 19:22 28.07.2019
4514 Clouds 21 1005 86 0 6.13 68.959 18:58 28.07.2019
4515 Clouds 21 1005 86 0 6.13 68.959 18:38 28.07.2019
4516 Clouds 21 1005 86 0 6.13 68.959 18:38 28.07.2019
4517 Clear 26 1008 70 0 0.45 45 18:18 28.07.2019
4518 Clear 26 1008 70 0 0.89 45 17:41 28.07.2019
4519 Clear 26 1008 71 0 6.71 75.676 17:22 28.07.2019
4520 Clear 26 1008 71 0 0.89 45 16:57 28.07.2019
4521 Clear 26 1008 69 0 1.34 45 16:39 28.07.2019
4522 Clear 26 1008 69 0 1.34 22 16:20 28.07.2019
4523 Clear 21 1005 83 0 6.71 75.676 15:43 28.07.2019
4524 Clouds 20 1005 84 0 7.43 78.1 15:21 28.07.2019
4525 Clouds 24 1008 70 0 1.79 45 14:37 28.07.2019
4526 Clouds 24 1008 70 0 1.79 45 14:37 28.07.2019
4527 Clouds 24 1008 71 0 1.34 22 14:19 28.07.2019
4528 Clouds 24 1008 69 0 0.45 45 13:45 28.07.2019
4529 Clouds 24 1008 70 0 1.79 45 13:25 28.07.2019
4530 Clouds 24 1008 69 0 7.32 75.239 12:59 28.07.2019
4531 Clouds 24 1008 68 0 7.32 75.239 12:40 28.07.2019
4532 Rain 20 1005 85 0 6.8 92.023 12:22 28.07.2019
4533 Rain 20 1005 85 0 6.8 92.023 11:48 28.07.2019
4534 Rain 23 1008 69 0 6.8 92.023 11:27 28.07.2019
4535 Rain 24 1008 67 0 0.45 157 10:42 28.07.2019
4536 Rain 24 1008 68 0 6.8 92.023 10:22 28.07.2019
4537 Rain 23 1009 71 0 0.45 135 09:57 28.07.2019
4538 Rain 22 1009 72 0 0.45 45 09:38 28.07.2019
4539 Rain 22 1009 73 0 0.45 45 09:19 28.07.2019
4540 Rain 22 1009 73 0 0.45 45 09:19 28.07.2019
4541 Rain 21 1008 79 0 7.78 95.982 08:41 28.07.2019
4542 Rain 21 1008 81 0 0.45 67 08:21 28.07.2019
4543 Rain 19 1008 85 0 7.78 95.982 07:39 28.07.2019
4544 Rain 19 1008 86 0 7.78 95.982 06:56 28.07.2019
4545 Rain 19 1008 86 0 7.78 95.982 06:28 28.07.2019
4546 Rain 19 1009 84 0 0.45 135 05:18 28.07.2019
4547 Clouds 19 1009 79 0 8.78 79.267 02:25 28.07.2019
4548 Clouds 19 1010 78 0 9.04 75.778 01:31 28.07.2019
4549 Clouds 20 1010 79 0 0.45 135 00:52 28.07.2019
4550 Clouds 20 1010 82 0 0.45 112 00:25 28.07.2019
4551 Clouds 20 1010 83 0 9.72 81.598 23:52 27.07.2019
4552 Clouds 20 1010 84 0 9.72 81.598 23:27 27.07.2019
4553 Clouds 20 1010 84 0 9.72 81.598 22:44 27.07.2019
4554 Clouds 20 1010 83 0 0.89 112 22:26 27.07.2019
4555 Clouds 20 1011 83 0 9.72 81.598 21:47 27.07.2019
4556 Clouds 21 1010 84 0 10.93 77.911 21:24 27.07.2019
4557 Clouds 21 1011 82 0 10.93 77.911 20:57 27.07.2019
4558 Clouds 21 1011 82 0 11.49 74.588 20:39 27.07.2019
4559 Clouds 21 1011 81 0 11.49 74.588 20:19 27.07.2019
4560 Clouds 21 1011 80 0 11.49 74.588 19:40 27.07.2019
4561 Clouds 21 1011 78 0 0.45 22 19:21 27.07.2019
4562 Clouds 22 1011 77 0 11.49 74.588 18:47 27.07.2019
4563 Clouds 22 1011 76 0 0.45 67 18:29 27.07.2019
4564 Clouds 23 1011 72 0 0.45 45 17:50 27.07.2019
4565 Clouds 23 1011 73 0 10.73 70.939 17:32 27.07.2019
4566 Clouds 23 1012 74 0 1.34 45 16:56 27.07.2019
4567 Clouds 23 1012 71 0 0.89 45 16:37 27.07.2019
4568 Clouds 24 1012 69 0 0.45 45 16:18 27.07.2019
4569 Clouds 24 1012 70 0 10.73 70.939 15:43 27.07.2019
4570 Clouds 24 1013 70 0 0.89 157 15:19 27.07.2019
4571 Clouds 24 1013 71 0 10.32 70.184 14:45 27.07.2019
4572 Clouds 23 1013 72 0 10.32 70.184 14:26 27.07.2019
4573 Clouds 24 1014 72 0 1.79 45 13:50 27.07.2019
4574 Clouds 23 1014 74 0 0.89 67 13:24 27.07.2019
4575 Clouds 23 1014 75 0 0.89 67 12:51 27.07.2019
4576 Clouds 23 1014 73 0 1.34 90 12:32 27.07.2019
4577 Clouds 24 1014 70 0 0.45 45 11:57 27.07.2019
4578 Clouds 23 1014 70 0 0.89 45 11:38 27.07.2019
4579 Clouds 23 1014 68 0 0.45 45 11:20 27.07.2019
4580 Clouds 23 1015 73 0 1.34 67 10:41 27.07.2019
4581 Clouds 23 1015 71 0 0.45 45 10:22 27.07.2019
4582 Clouds 23 1015 70 0 8.26 73.939 09:41 27.07.2019
4583 Clouds 23 1015 72 0 7.03 84.844 09:23 27.07.2019
4584 Clouds 22 1015 75 0 7.06 82.446 08:49 27.07.2019
4585 Clouds 21 1015 81 0 0.45 135 08:30 27.07.2019
4586 Clouds 21 1015 84 0 7.06 82.446 07:55 27.07.2019
4587 Clouds 20 1015 85 0 7.06 82.446 07:33 27.07.2019
4588 Clouds 19 1015 87 0 7.06 82.446 06:57 27.07.2019
4589 Clouds 19 1015 86 0 7.06 82.446 06:32 27.07.2019
4590 Clouds 18 1015 86 0 6.79 82.959 05:53 27.07.2019
4591 Clouds 18 1015 86 0 6.79 82.959 05:28 27.07.2019
4592 Clouds 18 1015 85 0 6.79 82.959 04:33 27.07.2019
4593 Clouds 19 1016 84 0 6.79 82.959 03:29 27.07.2019
4594 Clouds 19 1016 83 0 8.47 86.366 02:41 27.07.2019
4595 Clouds 19 1016 80 0 8.47 86.366 01:49 27.07.2019
4596 Clear 19 1016 80 0 7.17 92.711 01:28 27.07.2019
4597 Clear 19 1017 78 0 0.45 112 00:33 27.07.2019
4598 Clear 20 1017 77 0 0.45 157 23:58 26.07.2019
4599 Clear 20 1017 77 0 0.89 90 23:38 26.07.2019
4600 Clear 20 1017 77 0 9.59 80.675 23:20 26.07.2019
4601 Clear 20 1017 76 0 0.45 157 22:42 26.07.2019
4602 Clear 20 1017 76 0 0.45 135 22:23 26.07.2019
4603 Clear 21 1017 74 0 0.89 157 21:49 26.07.2019
4604 Clear 21 1017 72 0 8.56 74.251 21:20 26.07.2019
4605 Clear 22 1017 68 0 9.03 74.77 20:45 26.07.2019
4606 Clear 22 1018 67 0 9.03 74.77 20:27 26.07.2019
4607 Clear 20 1015 76 0 9.03 74.77 19:44 26.07.2019
4608 Clear 23 1017 66 0 0.45 22 19:26 26.07.2019
4609 Clear 20 1015 76 0 9.03 74.77 18:59 26.07.2019
4610 Clear 20 1015 76 0 9.03 74.77 18:40 26.07.2019
4611 Clear 24 1018 71 0 0.45 112 18:20 26.07.2019
4612 Clear 24 1018 71 0 2.24 45 17:48 26.07.2019
4613 Clear 20 1016 81 0 6.74 60.545 17:20 26.07.2019
4614 Clear 20 1016 81 0 6.74 60.545 16:59 26.07.2019
4615 Clear 20 1016 81 0 6.74 60.545 16:41 26.07.2019
4616 Clear 20 1016 81 0 6.74 60.545 16:21 26.07.2019
4617 Clear 20 1016 81 0 6.74 60.545 15:59 26.07.2019
4618 Clear 20 1016 81 0 6.74 60.545 15:40 26.07.2019
4619 Clear 21 1017 75 0 7.22 71.603 15:20 26.07.2019
4620 Clear 21 1017 75 0 7.22 71.603 14:44 26.07.2019
4621 Clear 21 1017 75 0 7.22 71.603 14:23 26.07.2019
4622 Clear 25 1020 62 0 1.79 22 13:47 26.07.2019
4623 Clear 25 1020 61 0 6.92 74.219 13:28 26.07.2019
4624 Clear 21 1017 76 0 6.92 74.219 12:49 26.07.2019
4625 Clear 20 1017 79 0 6.69 67.497 12:23 26.07.2019
4626 Clear 20 1017 79 0 6.69 67.497 11:56 26.07.2019
4627 Clear 24 1020 68 0 0.89 22 11:37 26.07.2019
4628 Clear 24 1020 72 0 0.45 45 11:18 26.07.2019
4629 Clear 23 1021 74 0 0.45 22 10:42 26.07.2019
4630 Clear 23 1021 75 0 0.89 67 10:24 26.07.2019
4631 Clear 23 1021 74 0 0.45 22 09:50 26.07.2019
4632 Clear 22 1021 77 0 6.69 67.497 09:30 26.07.2019
4633 Clear 21 1021 80 0 0.45 45 08:41 26.07.2019
4634 Clear 21 1021 79 0 4.24 67.041 08:21 26.07.2019
4635 Clear 21 1021 84 0 4.24 67.041 07:52 26.07.2019
4636 Clear 19 1021 86 0 4.24 67.041 07:26 26.07.2019
4637 Clear 17 1021 83 0 4.24 67.041 06:31 26.07.2019
4638 Clear 17 1021 82 0 5.02 77.162 04:31 26.07.2019
4639 Clear 17 1021 82 0 5.02 77.162 03:55 26.07.2019
4640 Clear 18 1021 81 0 3.86 89.777 01:50 26.07.2019
4641 Clear 18 1021 81 0 4.16 75.797 01:31 26.07.2019
4642 Clear 18 1021 79 0 4.16 75.797 00:33 26.07.2019
4643 Clear 19 1021 77 0 4.07 103.077 23:55 25.07.2019
4644 Clear 19 1022 76 0 4.07 103.077 23:23 25.07.2019
4645 Clear 19 1022 75 0 4.07 103.077 22:55 25.07.2019
4646 Clear 20 1022 74 0 4.07 103.077 22:36 25.07.2019
4647 Clear 20 1022 73 0 4.07 103.077 22:18 25.07.2019
4648 Clear 21 1022 71 0 4.07 103.077 21:41 25.07.2019
4649 Clear 21 1022 71 0 5.03 91.892 21:20 25.07.2019
4650 Clear 22 1022 69 0 4.85 95.765 20:45 25.07.2019
4651 Clear 23 1022 67 0 4.85 95.765 20:22 25.07.2019
4652 Clear 23 1022 67 0 4.85 95.765 20:22 25.07.2019
4653 Clear 20 1019 76 0 4.85 95.765 19:42 25.07.2019
4654 Clear 20 1019 76 0 4.85 95.765 19:24 25.07.2019
4655 Clear 20 1019 76 0 4.85 95.765 18:56 25.07.2019
4656 Clear 20 1019 76 0 4.85 95.765 18:38 25.07.2019
4657 Clear 21 1019 75 0 6.2 80.451 18:19 25.07.2019
4658 Clear 21 1019 75 0 6.2 80.451 17:40 25.07.2019
4659 Clear 21 1019 75 0 6.2 80.451 17:22 25.07.2019
4660 Clear 21 1019 75 0 6.2 80.451 16:44 25.07.2019
4661 Clear 21 1019 75 0 6.2 80.451 16:26 25.07.2019
4662 Clear 21 1019 75 0 6.2 80.451 15:54 25.07.2019
4663 Clear 24 1023 64 0 1.34 22 15:21 25.07.2019
4664 Clear 21 1020 75 0 6.19 74.781 14:58 25.07.2019
4665 Clear 21 1020 75 0 6.19 74.781 14:40 25.07.2019
4666 Clear 21 1020 75 0 6.19 74.781 14:20 25.07.2019
4667 Clear 25 1023 63 0 0.45 67 13:41 25.07.2019
4668 Clear 25 1023 64 0 0.45 45 13:23 25.07.2019
4669 Clear 25 1023 66 0 5.73 81.631 12:39 25.07.2019
4670 Clear 24 1023 68 0 0.89 22 12:20 25.07.2019
4671 Clear 24 1023 72 0 0.89 45 11:41 25.07.2019
4672 Clear 24 1023 71 0 0.45 22 11:23 25.07.2019
4673 Clear 24 1023 68 0 4.49 86.032 10:45 25.07.2019
4674 Clear 24 1023 67 0 4.49 86.032 10:26 25.07.2019
4675 Clear 24 1023 68 0 4.49 86.032 09:52 25.07.2019
4676 Clear 24 1023 68 0 4.49 86.032 09:34 25.07.2019
4677 Clouds 22 1023 78 0 3.35 120.803 08:54 25.07.2019
4678 Clouds 22 1023 80 0 3.35 120.803 08:36 25.07.2019
4679 Clouds 20 1023 86 0 3.35 120.803 07:49 25.07.2019
4680 Clouds 19 1023 86 0 3.35 120.803 07:26 25.07.2019
4681 Clouds 18 1023 86 0 3.35 120.803 06:40 25.07.2019
4682 Clouds 17 1023 85 0 4.96 123.533 05:37 25.07.2019
4683 Clouds 17 1022 82 0 4.96 123.533 04:55 25.07.2019
4684 Clouds 18 1023 82 0 4.96 123.533 03:32 25.07.2019
4685 Clouds 19 1022 80 0 4.3 116.219 01:27 25.07.2019
4686 Clouds 19 1023 80 0 4.3 116.219 00:42 25.07.2019
4687 Clouds 19 1023 79 0 4.74 117.576 00:19 25.07.2019
4688 Clouds 19 1022 79 0 4.74 117.576 23:44 24.07.2019
4689 Clouds 20 1022 78 0 4.74 117.576 23:25 24.07.2019
4690 Clouds 21 1022 76 0 4.74 117.576 22:47 24.07.2019
4691 Clouds 21 1022 73 0 4.74 117.576 22:23 24.07.2019
4692 Clouds 22 1022 71 0 4.74 117.576 21:56 24.07.2019
4693 Clouds 22 1022 70 0 4.74 117.576 21:38 24.07.2019
4694 Clouds 23 1022 69 0 4.13 111.484 21:19 24.07.2019
4695 Clouds 23 1022 69 0 4.13 111.484 21:19 24.07.2019
4696 Clouds 21 1018 80 0 4.12 102.672 20:48 24.07.2019
4697 Clouds 21 1018 80 0 4.12 102.672 20:29 24.07.2019
4698 Clouds 21 1018 80 0 4.12 102.672 19:59 24.07.2019
4699 Clouds 21 1018 80 0 4.12 102.672 19:59 24.07.2019
4700 Clouds 21 1018 80 0 4.12 102.672 19:40 24.07.2019
4701 Clouds 21 1018 80 0 4.12 102.672 19:20 24.07.2019
4702 Clouds 21 1018 80 0 4.12 102.672 18:44 24.07.2019
4703 Clouds 21 1018 82 0 4.24 66.674 18:24 24.07.2019
4704 Clouds 21 1018 82 0 4.24 66.674 17:48 24.07.2019
4705 Clouds 21 1018 82 0 4.24 66.674 17:24 24.07.2019
4706 Clouds 21 1018 82 0 4.24 66.674 16:59 24.07.2019
4707 Clouds 21 1018 82 0 4.24 66.674 16:39 24.07.2019
4708 Clouds 21 1018 82 0 4.24 66.674 16:21 24.07.2019
4709 Clouds 21 1018 82 0 4.24 66.674 15:38 24.07.2019
4710 Clear 20 1019 84 0 2.95 43.626 15:20 24.07.2019
4711 Clear 20 1019 84 0 2.95 43.626 14:46 24.07.2019
4712 Clear 20 1019 84 0 2.95 43.626 14:22 24.07.2019
4713 Clear 26 1022 61 0 0.89 45 13:42 24.07.2019
4714 Clear 21 1019 82 0 3.21 51.753 13:24 24.07.2019
4715 Clear 26 1022 62 0 3.21 51.753 12:55 24.07.2019
4716 Clear 26 1022 62 0 0.45 45 12:37 24.07.2019
4717 Clear 20 1019 83 0 1.04 349.774 12:18 24.07.2019
4718 Clear 24 1023 68 0 1.04 349.774 11:37 24.07.2019
4719 Clear 24 1023 70 0 0.89 45 11:19 24.07.2019
4720 Clear 23 1023 73 0 1.04 349.774 10:43 24.07.2019
4721 Clear 23 1022 74 0 0.45 45 10:24 24.07.2019
4722 Clear 23 1022 74 0 1.04 349.774 09:44 24.07.2019
4723 Clear 23 1022 74 0 1.04 349.774 09:44 24.07.2019
4724 Clear 23 1022 75 0 0.13 223.382 09:24 24.07.2019
4725 Clear 22 1022 79 0 0.13 223.382 08:54 24.07.2019
4726 Clear 21 1022 84 0 0.26 80.322 08:27 24.07.2019
4727 Clear 19 1022 85 0 0.26 80.322 07:51 24.07.2019
4728 Clear 18 1022 86 0 0.26 80.322 07:23 24.07.2019
4729 Clear 16 1022 81 0 0.26 80.322 06:28 24.07.2019
4730 Clear 16 1022 81 0 0.26 80.322 06:28 24.07.2019
4731 Clear 16 1022 80 0 1.33 348.029 05:26 24.07.2019
4732 Clear 17 1023 76 0 2.78 330.278 01:58 24.07.2019
4733 Clear 17 1023 75 0 3.58 325.791 01:29 24.07.2019
4734 Clear 18 1023 74 0 3.58 325.791 00:57 24.07.2019
4735 Clear 18 1023 73 0 3.93 329.872 00:22 24.07.2019
4736 Clear 19 1023 72 0 3.93 329.872 23:42 23.07.2019
4737 Clear 19 1023 72 0 3.93 329.872 23:42 23.07.2019
4738 Clear 19 1023 71 0 3.93 329.872 23:23 23.07.2019
4739 Clear 21 1023 69 0 3.93 329.872 22:39 23.07.2019
4740 Clear 22 1023 69 0 3.93 329.872 22:19 23.07.2019
4741 Clear 20 1019 81 0 3.93 329.872 21:58 23.07.2019
4742 Clear 20 1019 81 0 3.93 329.872 21:58 23.07.2019
4743 Clear 20 1019 81 0 3.93 329.872 21:40 23.07.2019
4744 Clear 24 1023 64 0 4.34 274.072 21:21 23.07.2019
4745 Clear 26 1023 60 0 3.64 276.98 20:47 23.07.2019
4746 Clear 20 1019 80 0 3.64 276.98 20:21 23.07.2019
4747 Clear 20 1019 80 0 3.64 276.98 19:42 23.07.2019
4748 Clear 20 1019 80 0 3.64 276.98 19:19 23.07.2019
4749 Clear 20 1019 80 0 3.64 276.98 18:52 23.07.2019
4750 Clear 20 1020 81 0 4.82 272.877 18:24 23.07.2019
4751 Clear 20 1020 81 0 4.82 272.877 17:45 23.07.2019
4752 Clear 20 1020 81 0 4.82 272.877 17:27 23.07.2019
4753 Clear 20 1020 81 0 4.82 272.877 16:58 23.07.2019
4754 Clear 20 1020 81 0 4.82 272.877 16:40 23.07.2019
4755 Clear 20 1020 81 0 4.82 272.877 16:19 23.07.2019
4756 Clear 20 1020 81 0 4.82 272.877 15:46 23.07.2019
4757 Clear 19 1020 87 0 6.15 270.857 15:24 23.07.2019
4758 Clear 19 1020 87 0 6.15 270.857 14:40 23.07.2019
4759 Clear 19 1020 87 0 6.15 270.857 14:22 23.07.2019
4760 Clear 27 1024 59 0 0.89 45 13:59 23.07.2019
4761 Clear 26 1024 63 0 0.45 0 13:40 23.07.2019
4762 Clear 25 1024 65 0 0.45 22 13:21 23.07.2019
4763 Clear 24 1024 69 0 6.7 268.982 12:48 23.07.2019
4764 Clear 24 1024 69 0 0.45 0 12:26 23.07.2019
4765 Clear 24 1024 70 0 6.96 270.494 11:55 23.07.2019
4766 Clear 24 1024 72 0 6.96 270.494 11:37 23.07.2019
4767 Clear 23 1024 74 0 6.96 270.494 11:18 23.07.2019
4768 Clear 22 1024 77 0 1.34 292 10:41 23.07.2019
4769 Clear 22 1024 77 0 1.79 22 10:22 23.07.2019
4770 Clear 21 1024 81 0 0.89 315 09:42 23.07.2019
4771 Clouds 21 1024 83 0 1.34 0 09:20 23.07.2019
4772 Clear 19 1023 88 0 0.89 315 08:44 23.07.2019
4773 Clear 19 1024 89 0 0.45 292 08:20 23.07.2019
4774 Clear 18 1024 90 0 0.89 292 07:56 23.07.2019
4775 Clear 18 1023 90 0 6.47 277.571 07:37 23.07.2019
4776 Clear 18 1023 91 0 0.89 315 06:50 23.07.2019
4777 Clear 18 1023 91 0 0.45 270 06:31 23.07.2019
4778 Clear 17 1023 91 0 0.45 292 03:55 23.07.2019
4779 Clouds 16 1023 88 0 7.26 269.755 01:35 23.07.2019
4780 Clouds 17 1023 83 0 7.99 279.442 00:37 23.07.2019
4781 Rain 17 1023 83 0 7.13 228.413 00:18 23.07.2019
4782 Rain 17 1023 83 0 7.13 228.413 23:39 22.07.2019
4783 Rain 17 1023 83 0 7.13 228.413 23:19 22.07.2019
4784 Rain 17 1024 82 0 7.13 228.413 22:45 22.07.2019
4785 Rain 17 1024 81 0 7.13 228.413 22:23 22.07.2019
4786 Rain 17 1024 80 0 7.13 228.413 21:44 22.07.2019
4787 Rain 17 1024 80 0 5.3 215.117 21:23 22.07.2019
4788 Rain 16 1020 91 0 5.3 215.117 20:59 22.07.2019
4789 Rain 17 1024 80 0 5.97 222.704 20:41 22.07.2019
4790 Rain 17 1024 80 0 5.97 222.704 20:21 22.07.2019
4791 Rain 17 1025 80 0 5.97 222.704 19:42 22.07.2019
4792 Rain 17 1025 79 0 5.97 222.704 19:22 22.07.2019
4793 Rain 17 1025 75 0 0.45 292 18:48 22.07.2019
4794 Rain 17 1025 75 0 0.45 292 18:48 22.07.2019
4795 Rain 18 1025 72 0 5.97 222.704 18:28 22.07.2019
4796 Rain 18 1025 72 0 5.97 222.704 18:28 22.07.2019
4797 Clouds 19 1025 64 0 0.89 292 17:59 22.07.2019
4798 Clouds 19 1025 63 0 5.05 263.714 17:38 22.07.2019
4799 Clouds 20 1025 59 0 0.89 292 17:20 22.07.2019
4800 Clouds 17 1021 74 0 5.05 263.714 16:41 22.07.2019
4801 Clouds 17 1021 74 0 5.05 263.714 16:21 22.07.2019
4802 Clouds 17 1021 74 0 5.05 263.714 15:55 22.07.2019
4803 Clouds 17 1021 74 0 5.05 263.714 15:36 22.07.2019
4804 Clouds 22 1024 51 0 0.89 292 15:18 22.07.2019
4805 Clouds 23 1025 50 0 0.89 315 14:42 22.07.2019
4806 Clouds 22 1025 52 0 1.34 315 14:20 22.07.2019
4807 Clouds 22 1025 52 0 1.34 315 14:20 22.07.2019
4808 Clouds 22 1025 55 0 0.89 315 13:45 22.07.2019
4809 Clouds 22 1025 54 0 1.34 292 13:26 22.07.2019
4810 Clouds 22 1025 57 0 0.45 315 12:44 22.07.2019
4811 Rain 22 1025 58 0 0.89 292 12:24 22.07.2019
4812 Rain 21 1025 62 0 0.45 270 11:44 22.07.2019
4813 Rain 21 1025 62 0 0.45 270 11:20 22.07.2019
4814 Rain 20 1025 66 0 7.09 260.693 10:48 22.07.2019
4815 Rain 19 1025 70 0 0.89 315 10:29 22.07.2019
4816 Rain 19 1025 73 0 1.79 292 09:44 22.07.2019
4817 Clouds 18 1025 76 0 5.02 271.757 09:25 22.07.2019
4818 Clouds 17 1025 82 0 0.89 315 08:47 22.07.2019
4819 Clouds 17 1025 84 0 5.02 271.757 08:26 22.07.2019
4820 Clouds 16 1025 87 0 0.45 292 07:59 22.07.2019
4821 Clouds 16 1025 87 0 5.02 271.757 07:40 22.07.2019
4822 Clouds 15 1025 87 0 5.02 271.757 07:21 22.07.2019
4823 Clouds 13 1025 85 0 5.85 287.354 03:58 22.07.2019
4824 Clear 14 1025 85 0 7.5 289.964 02:43 22.07.2019
4825 Clear 14 1024 81 0 7.48 287.036 00:57 22.07.2019
4826 Clear 16 1025 80 0 7.48 287.036 00:29 22.07.2019
4827 Clear 16 1025 81 0 8.03 280.482 23:57 21.07.2019
4828 Clear 16 1024 81 0 0.45 292 23:36 21.07.2019
4829 Clear 17 1024 78 0 0.89 292 22:56 21.07.2019
4830 Clear 17 1024 78 0 0.89 292 22:37 21.07.2019
4831 Clear 17 1024 76 0 0.89 292 22:19 21.07.2019
4832 Clear 18 1023 71 0 0.89 315 21:47 21.07.2019
4833 Clear 19 1023 69 0 0.45 292 21:25 21.07.2019
4834 Clear 19 1023 67 0 0.45 337 20:56 21.07.2019
4835 Clear 20 1023 66 0 0.89 22 20:38 21.07.2019
4836 Clear 21 1022 64 0 1.34 315 20:19 21.07.2019
4837 Clear 18 1018 83 0 8.37 283.188 19:47 21.07.2019
4838 Clear 23 1022 58 0 2.24 292 19:26 21.07.2019
4839 Clear 18 1018 83 0 8.37 283.188 18:48 21.07.2019
4840 Clear 24 1021 56 0 1.79 292 18:26 21.07.2019
4841 Clear 24 1021 58 0 0.89 0 17:54 21.07.2019
4842 Clear 24 1021 55 0 1.79 292 17:36 21.07.2019
4843 Clear 24 1021 56 0 0.89 0 17:18 21.07.2019
4844 Clear 26 1021 56 0 1.79 315 16:40 21.07.2019
4845 Clear 25 1020 58 0 1.34 292 16:21 21.07.2019
4846 Clear 24 1020 54 0 1.79 315 15:39 21.07.2019
4847 Clouds 25 1020 55 0 1.34 292 15:20 21.07.2019
4848 Clouds 25 1020 56 0 1.79 315 14:42 21.07.2019
4849 Clouds 24 1020 58 0 1.34 292 14:23 21.07.2019
4850 Clouds 24 1020 59 0 8.72 258.14 13:53 21.07.2019
4851 Clouds 24 1019 61 0 1.79 337 13:32 21.07.2019
4852 Clear 23 1019 63 0 1.34 292 12:55 21.07.2019
4853 Clear 24 1019 66 0 0.89 292 12:37 21.07.2019
4854 Clear 23 1019 72 0 1.34 270 12:18 21.07.2019
4855 Clear 21 1019 76 0 0.89 315 11:44 21.07.2019
4856 Clear 21 1019 77 0 0.89 270 11:25 21.07.2019
4857 Clear 21 1018 80 0 0.89 292 10:43 21.07.2019
4858 Clear 21 1018 78 0 0.45 225 10:23 21.07.2019
4859 Clear 22 1018 80 0 7.93 260.028 09:49 21.07.2019
4860 Clear 21 1018 82 0 7.93 260.028 09:30 21.07.2019
4861 Clouds 19 1017 82 0 5.76 241.136 08:47 21.07.2019
4862 Clouds 19 1017 83 0 0.45 180 08:27 21.07.2019
4863 Clouds 18 1017 84 0 5.76 241.136 07:40 21.07.2019
4864 Clouds 18 1017 83 0 5.76 241.136 06:59 21.07.2019
4865 Clouds 18 1016 83 0 4.94 244.837 05:56 21.07.2019
4866 Rain 18 1016 81 0 2.65 179.177 02:59 21.07.2019
4867 Rain 18 1016 79 0 2.65 179.177 01:50 21.07.2019
4868 Rain 18 1016 81 0 4.94 189.285 00:44 21.07.2019
4869 Rain 18 1016 82 0 6.41 164.78 00:20 21.07.2019
4870 Rain 20 1017 68 0 6.41 164.78 23:44 20.07.2019
4871 Rain 20 1017 68 0 6.41 164.78 23:23 20.07.2019
4872 Rain 21 1016 66 0 6.41 164.78 22:50 20.07.2019
4873 Rain 21 1016 66 0 6.41 164.78 22:23 20.07.2019
4874 Rain 21 1016 65 0 6.41 164.78 21:59 20.07.2019
4875 Rain 22 1016 64 0 6.41 164.78 21:39 20.07.2019
4876 Rain 22 1016 61 0 0.89 0 21:21 20.07.2019
4877 Clouds 23 1015 52 0 0.89 135 20:42 20.07.2019
4878 Clouds 23 1015 52 0 1.34 135 20:21 20.07.2019
4879 Clouds 24 1015 49 0 0.89 135 19:49 20.07.2019
4880 Clouds 21 1011 71 0 7.72 132.123 19:26 20.07.2019
4881 Clouds 21 1011 71 0 7.72 132.123 18:46 20.07.2019
4882 Clouds 22 1013 67 0 6.77 119.626 18:24 20.07.2019
4883 Clouds 22 1013 67 0 6.77 119.626 17:58 20.07.2019
4884 Clouds 22 1013 67 0 6.77 119.626 17:37 20.07.2019
4885 Clouds 22 1013 67 0 6.77 119.626 17:19 20.07.2019
4886 Clouds 22 1013 67 0 6.77 119.626 16:39 20.07.2019
4887 Clouds 22 1013 67 0 6.77 119.626 16:21 20.07.2019
4888 Clouds 22 1013 67 0 6.77 119.626 15:41 20.07.2019
4889 Clouds 22 1014 65 0 4.27 131.37 15:21 20.07.2019
4890 Clouds 22 1014 65 0 4.27 131.37 14:49 20.07.2019
4891 Clouds 22 1014 65 0 4.27 131.37 14:29 20.07.2019
4892 Clouds 22 1014 65 0 4.27 131.37 13:57 20.07.2019
4893 Clouds 22 1014 65 0 4.27 131.37 13:37 20.07.2019
4894 Clouds 22 1013 67 0 4.33 131.08 13:19 20.07.2019
4895 Clouds 22 1013 67 0 4.33 131.08 12:49 20.07.2019
4896 Clouds 20 1014 73 0 2 144.752 12:19 20.07.2019
4897 Clouds 20 1014 73 0 2 144.752 11:47 20.07.2019
4898 Clouds 20 1014 73 0 2 144.752 11:21 20.07.2019
4899 Clouds 26 1018 58 0 2 144.752 10:45 20.07.2019
4900 Clouds 25 1018 60 0 0.45 157 10:25 20.07.2019
4901 Clouds 24 1018 65 0 0.89 135 09:52 20.07.2019
4902 Clouds 20 1014 73 0 2 144.752 09:27 20.07.2019
4903 Clouds 21 1018 77 0 2.4 191.553 08:54 20.07.2019
4904 Clouds 19 1018 81 0 1.43 167.628 08:24 20.07.2019
4905 Clouds 18 1018 83 0 1.43 167.628 07:48 20.07.2019
4906 Clouds 15 1018 79 0 1.43 167.628 06:47 20.07.2019
4907 Clouds 14 1018 77 0 2.18 289.549 05:52 20.07.2019
4908 Clouds 15 1018 77 0 2.18 289.549 04:31 20.07.2019
4909 Clouds 16 1018 76 0 3.27 272.491 02:34 20.07.2019
4910 Clouds 17 1018 74 0 3.12 301.573 01:20 20.07.2019
4911 Clouds 18 1017 72 0 3.12 301.573 00:45 20.07.2019
4912 Clouds 18 1017 73 0 4 279.783 00:18 20.07.2019
4913 Clouds 19 1017 71 0 4 279.783 23:43 19.07.2019
4914 Clouds 19 1017 72 0 4 279.783 23:22 19.07.2019
4915 Clouds 20 1017 71 0 4 279.783 22:43 19.07.2019
4916 Clouds 21 1017 70 0 4 279.783 22:24 19.07.2019
4917 Clouds 21 1017 69 0 4 279.783 21:46 19.07.2019
4918 Clear 22 1017 69 0 4.61 287.126 21:27 19.07.2019
4919 Clouds 22 1017 68 0 3.38 273.397 20:50 19.07.2019
4920 Clouds 22 1016 68 0 3.38 273.397 20:31 19.07.2019
4921 Clouds 23 1016 65 0 3.38 273.397 19:55 19.07.2019
4922 Clouds 24 1016 63 0 3.38 273.397 19:34 19.07.2019
4923 Clouds 24 1016 64 0 0.45 22 18:42 19.07.2019
4924 Rain 24 1016 63 0 2.17 305.24 18:22 19.07.2019
4925 Rain 24 1016 65 0 0.89 0 17:55 19.07.2019
4926 Rain 24 1016 59 0 2.17 305.24 17:29 19.07.2019
4927 Rain 19 1012 80 0 2.17 305.24 16:49 19.07.2019
4928 Rain 19 1012 80 0 2.17 305.24 16:29 19.07.2019
4929 Rain 19 1012 80 0 2.17 305.24 15:56 19.07.2019
4930 Rain 19 1012 80 0 2.17 305.24 15:38 19.07.2019
4931 -273 0 0 0 0 0 15:20 19.07.2019
4932 Rain 19 1012 80 0 2.85 326.951 14:44 19.07.2019
4933 Rain 19 1012 80 0 2.85 326.951 14:25 19.07.2019
4934 Rain 19 1012 80 0 2.85 326.951 13:46 19.07.2019
4935 Rain 18 1012 82 0 3.83 286.309 13:27 19.07.2019
4936 Rain 18 1012 82 0 3.83 286.309 12:57 19.07.2019
4937 Rain 18 1012 82 0 3.83 286.309 12:38 19.07.2019
4938 Clouds 20 1012 74 0 2.81 189.06 12:19 19.07.2019
4939 Clouds 20 1012 74 0 2.81 189.06 11:45 19.07.2019
4940 Clouds 20 1012 74 0 2.81 189.06 11:18 19.07.2019
4941 Clouds 20 1012 74 0 2.81 189.06 11:18 19.07.2019
4942 Clouds 20 1012 74 0 2.81 189.06 10:48 19.07.2019
4943 Clouds 20 1012 74 0 2.81 189.06 10:23 19.07.2019
4944 Clouds 25 1015 53 0 0.45 157 09:59 19.07.2019
4945 Clouds 24 1015 57 0 2.81 189.06 09:41 19.07.2019
4946 Clouds 18 1012 78 0 3.89 171.332 09:22 19.07.2019
4947 Clouds 22 1015 64 0 0.45 157 08:49 19.07.2019
4948 Clouds 20 1015 69 0 0.45 135 08:22 19.07.2019
4949 Clouds 18 1014 73 0 3.74 186.907 07:29 19.07.2019
4950 Clouds 17 1015 75 0 0.45 157 06:26 19.07.2019
4951 Clouds 17 1015 72 0 0.45 135 02:58 19.07.2019
4952 Clouds 18 1015 70 0 0.89 135 01:42 19.07.2019
4953 Clouds 18 1015 70 0 0.45 135 00:47 19.07.2019
4954 Clouds 18 1015 70 0 0.89 135 23:59 18.07.2019
4955 Clouds 18 1015 70 0 0.45 135 23:40 18.07.2019
4956 Clouds 18 1015 70 0 0.89 135 23:22 18.07.2019
4957 Clouds 18 1015 68 0 6.31 130.402 22:44 18.07.2019
4958 Clouds 18 1015 67 0 6.31 130.402 22:20 18.07.2019
4959 Clouds 19 1015 64 0 0.45 135 21:57 18.07.2019
4960 Clouds 19 1015 61 0 0.45 135 21:38 18.07.2019
4961 Clouds 21 1015 57 0 0.45 135 21:18 18.07.2019
4962 Clear 22 1015 52 0 0.45 135 20:45 18.07.2019
4963 Clear 19 1012 71 0 6.16 122.684 20:23 18.07.2019
4964 Clear 19 1012 71 0 6.16 122.684 19:49 18.07.2019
4965 Clear 19 1012 71 0 6.16 122.684 19:27 18.07.2019
4966 Clear 19 1012 71 0 6.16 122.684 18:51 18.07.2019
4967 Clear 19 1013 68 0 5.71 91.204 18:22 18.07.2019
4968 Clear 19 1013 68 0 5.71 91.204 17:57 18.07.2019
4969 Clear 19 1013 68 0 5.71 91.204 17:37 18.07.2019
4970 Clear 19 1013 68 0 5.71 91.204 17:19 18.07.2019
4971 Clear 19 1013 68 0 5.71 91.204 16:49 18.07.2019
4972 Clear 19 1013 68 0 5.71 91.204 16:25 18.07.2019
4973 Clear 19 1013 68 0 5.71 91.204 15:57 18.07.2019
4974 Clear 19 1013 68 0 5.71 91.204 15:36 18.07.2019
4975 Clouds 18 1013 73 0 4.03 46.959 14:56 18.07.2019
4976 Clouds 18 1013 73 0 4.03 46.959 14:38 18.07.2019
4977 Clouds 23 1016 57 0 0.89 22 14:19 18.07.2019
4978 Clouds 22 1016 60 0 0.45 0 13:38 18.07.2019
4979 Clouds 22 1016 61 0 1.34 22 13:19 18.07.2019
4980 Clouds 22 1016 64 0 0.89 45 12:45 18.07.2019
4981 Clouds 22 1017 64 0 0.89 22 12:21 18.07.2019
4982 Clouds 22 1017 61 0 0.45 22 11:51 18.07.2019
4983 Clouds 21 1017 61 0 0.35 323.96 11:33 18.07.2019
4984 Clouds 22 1017 60 0 0.35 323.96 10:52 18.07.2019
4985 Clouds 21 1017 61 0 0.45 22 10:30 18.07.2019
4986 Clouds 21 1017 65 0 0.35 323.96 09:45 18.07.2019
4987 Clouds 16 1013 82 0 2.76 232.668 09:23 18.07.2019
4988 Clouds 19 1017 70 0 3.01 245.778 08:49 18.07.2019
4989 Clouds 17 1017 75 0 3.01 245.778 08:20 18.07.2019
4990 Clouds 14 1017 79 0 3.01 245.778 07:43 18.07.2019
4991 Clouds 14 1017 79 0 3.01 245.778 07:24 18.07.2019
4992 Clouds 12 1017 77 0 3.01 245.778 06:37 18.07.2019
4993 Clouds 11 1017 75 0 3.87 232.796 05:35 18.07.2019
4994 Clouds 12 1017 74 0 1.38 256.569 03:23 18.07.2019
4995 Clouds 12 1017 72 0 2.6 270.97 01:52 18.07.2019
4996 Clouds 13 1017 69 0 2.6 270.97 00:36 18.07.2019
4997 Clouds 14 1017 68 0 3.79 307.556 23:54 17.07.2019
4998 Clouds 14 1017 66 0 3.79 307.556 23:20 17.07.2019
4999 Clouds 16 1017 66 0 3.79 307.556 22:56 17.07.2019
5000 Clouds 16 1017 65 0 3.79 307.556 22:38 17.07.2019
5001 Clouds 16 1017 64 0 3.79 307.556 22:19 17.07.2019
5002 Clouds 18 1017 60 0 3.79 307.556 21:45 17.07.2019
5003 Clouds 19 1017 60 0 5.33 270.677 21:26 17.07.2019
5004 Clouds 20 1017 59 0 4.71 272.337 20:58 17.07.2019
5005 Clouds 20 1017 58 0 4.71 272.337 20:39 17.07.2019
5006 Clouds 21 1017 57 0 4.71 272.337 20:21 17.07.2019
5007 Clouds 22 1017 55 0 4.71 272.337 19:56 17.07.2019
5008 Clouds 17 1013 81 0 4.71 272.337 19:37 17.07.2019
5009 Clouds 17 1013 81 0 4.71 272.337 19:18 17.07.2019
5010 Clouds 17 1013 81 0 4.71 272.337 18:41 17.07.2019
5011 Clouds 17 1014 81 0 4.81 277.026 18:20 17.07.2019
5012 Clouds 22 1017 51 0 0.45 67 17:50 17.07.2019
5013 Clouds 17 1014 81 0 4.81 277.026 17:27 17.07.2019
5014 Clouds 17 1014 81 0 4.81 277.026 17:27 17.07.2019
5015 Clouds 17 1014 81 0 4.81 277.026 16:56 17.07.2019
5016 Clouds 17 1014 81 0 4.81 277.026 16:38 17.07.2019
5017 Clouds 22 1017 59 0 4.81 277.026 16:18 17.07.2019
5018 Clouds 22 1017 59 0 4.81 277.026 15:50 17.07.2019
5019 Clouds 22 1017 60 0 0.89 22 15:25 17.07.2019
5020 Clouds 22 1017 60 0 0.89 45 14:55 17.07.2019
5021 Clouds 22 1017 60 0 2.71 320.343 14:37 17.07.2019
5022 Clouds 22 1017 62 0 0.45 45 14:18 17.07.2019
5023 Clouds 22 1017 62 0 2.71 320.343 13:42 17.07.2019
5024 Clouds 22 1017 61 0 0.45 45 13:24 17.07.2019
5025 Clouds 22 1017 59 0 0.45 292 12:41 17.07.2019
5026 Clouds 21 1017 62 0 3.35 327.055 12:21 17.07.2019
5027 Clouds 20 1017 65 0 3.35 327.055 11:56 17.07.2019
5028 Clouds 21 1017 65 0 3.35 327.055 11:37 17.07.2019
5029 Clouds 20 1017 67 0 1.79 0 11:18 17.07.2019
5030 Clouds 20 1017 70 0 0.45 0 10:42 17.07.2019
5031 Clouds 19 1017 72 0 0.89 315 10:18 17.07.2019
5032 Clouds 18 1017 79 0 0.89 270 09:44 17.07.2019
5033 Clouds 18 1017 79 0 0.89 270 09:44 17.07.2019
5034 Clouds 18 1017 80 0 0.89 292 09:25 17.07.2019
5035 Clouds 17 1017 87 0 4.32 330.581 08:44 17.07.2019
5036 Clouds 17 1017 88 0 1.34 315 08:22 17.07.2019
5037 Clouds 15 1017 91 0 0.45 292 07:51 17.07.2019
5038 Clouds 15 1017 91 0 0.45 292 07:51 17.07.2019
5039 Clouds 14 1017 92 0 1.79 315 07:27 17.07.2019
5040 Clouds 14 1017 91 0 4.32 330.581 06:58 17.07.2019
5041 Clouds 14 1017 91 0 0.45 292 06:31 17.07.2019
5042 Clouds 13 1017 91 0 5.95 320.881 05:59 17.07.2019
5043 Clouds 13 1016 91 0 5.95 320.881 05:32 17.07.2019
5044 Clouds 13 1016 91 0 0.45 292 04:49 17.07.2019
5045 Clouds 13 1016 89 0 5.95 320.881 03:46 17.07.2019
5046 Clouds 14 1016 89 0 0.89 292 02:31 17.07.2019
5047 Clouds 14 1016 87 0 0.45 292 01:41 17.07.2019
5048 Clouds 14 1016 87 0 0.89 292 01:20 17.07.2019
5049 Clouds 14 1016 85 0 0.89 292 00:38 17.07.2019
5050 Clear 14 1016 85 0 0.45 292 00:20 17.07.2019
5051 Clear 14 1016 84 0 0.45 292 23:44 16.07.2019
5052 Clear 15 1016 83 0 1.34 292 23:22 16.07.2019
5053 Clear 15 1016 80 0 0.45 292 22:44 16.07.2019
5054 Clear 15 1016 79 0 0.45 292 22:26 16.07.2019
5055 Clear 16 1016 78 0 6.21 324.449 21:59 16.07.2019
5056 Clear 16 1016 78 0 6.21 324.449 21:59 16.07.2019
5057 Clear 16 1016 76 0 6.21 324.449 21:40 16.07.2019
5058 Clouds 17 1016 75 0 7.11 283.268 21:19 16.07.2019
5059 Clouds 18 1016 71 0 0.89 292 20:41 16.07.2019
5060 Clouds 18 1016 71 0 0.89 292 20:41 16.07.2019
5061 Clouds 18 1016 72 0 0.89 292 20:23 16.07.2019
5062 Clouds 18 1016 70 0 0.89 315 19:55 16.07.2019
5063 Clouds 19 1015 70 0 0.45 22 19:37 16.07.2019
5064 Clouds 18 1015 69 0 0.45 315 19:19 16.07.2019
5065 Clouds 19 1015 65 0 0.89 315 18:44 16.07.2019
5066 Clouds 20 1015 65 0 0.89 292 18:21 16.07.2019
5067 Clouds 19 1015 67 0 1.34 292 17:54 16.07.2019
5068 Clouds 19 1015 66 0 0.45 292 17:36 16.07.2019
5069 Clouds 19 1015 66 0 0.45 292 17:36 16.07.2019
5070 Clouds 18 1015 69 0 1.34 292 16:56 16.07.2019
5071 Clouds 18 1015 69 0 0.45 315 16:38 16.07.2019
5072 Clouds 18 1016 70 0 1.34 292 16:18 16.07.2019
5073 Clouds 18 1016 71 0 1.79 292 15:39 16.07.2019
5074 Rain 18 1015 71 0 1.34 270 15:20 16.07.2019
5075 Rain 17 1015 73 0 0.89 315 14:57 16.07.2019
5076 Rain 18 1015 72 0 7.26 294.55 14:38 16.07.2019
5077 Rain 18 1015 72 0 0.89 315 14:19 16.07.2019
5078 Rain 18 1015 73 0 7.26 294.55 13:44 16.07.2019
5079 Clouds 18 1015 73 0 0.89 315 13:20 16.07.2019
5080 Clouds 17 1016 77 0 0.89 270 12:44 16.07.2019
5081 Rain 16 1016 80 0 1.79 315 12:20 16.07.2019
5082 Rain 16 1016 81 0 0.89 270 11:58 16.07.2019
5083 Rain 16 1016 84 0 0.89 315 11:40 16.07.2019
5084 Rain 16 1016 84 0 0.89 292 11:21 16.07.2019
5085 Rain 17 1015 76 0 0.45 315 10:45 16.07.2019
5086 Rain 17 1015 76 0 0.89 292 10:22 16.07.2019
5087 Rain 17 1015 77 0 0.89 292 09:56 16.07.2019
5088 Rain 17 1015 74 0 2.68 315 09:36 16.07.2019
5089 Clouds 18 1015 74 0 1.79 292 09:18 16.07.2019
5090 Clouds 17 1015 79 0 1.79 315 08:41 16.07.2019
5091 Clouds 16 1015 81 0 1.34 292 08:19 16.07.2019
5092 Clouds 16 1015 84 0 0.89 315 07:41 16.07.2019
5093 Clouds 15 1015 85 0 1.79 315 07:23 16.07.2019
5094 Clouds 15 1015 85 0 1.79 292 06:47 16.07.2019
5095 Clouds 15 1015 85 0 0.89 315 06:26 16.07.2019
5096 Clouds 15 1015 85 0 2.24 292 05:36 16.07.2019
5097 Clouds 14 1014 85 0 1.34 247 05:18 16.07.2019
5098 Clouds 14 1015 81 0 1.79 292 03:54 16.07.2019
5099 Clouds 14 1015 80 0 9.84 274.32 03:20 16.07.2019
5100 Clouds 14 1015 78 0 9.84 274.32 02:31 16.07.2019
5101 Clouds 14 1015 76 0 0.89 315 01:44 16.07.2019
5102 Clouds 15 1016 74 0 9.84 274.32 00:47 16.07.2019
5103 Rain 15 1016 72 0 8.17 265.304 00:22 16.07.2019
5104 Rain 15 1016 70 0 8.17 265.304 23:53 15.07.2019
5105 Rain 15 1016 70 0 8.17 265.304 23:34 15.07.2019
5106 Rain 15 1016 68 0 0.45 292 22:49 15.07.2019
5107 Rain 16 1016 67 0 8.17 265.304 22:23 15.07.2019
5108 Rain 16 1016 66 0 8.17 265.304 21:59 15.07.2019
5109 Rain 16 1016 65 0 8.17 265.304 21:41 15.07.2019
5110 Rain 16 1016 65 0 0.89 292 21:20 15.07.2019
5111 Rain 16 1016 65 0 0.89 292 21:20 15.07.2019
5112 Rain 16 1016 63 0 2.24 292 20:57 15.07.2019
5113 Rain 16 1016 63 0 2.24 292 20:57 15.07.2019
5114 Rain 17 1016 62 0 0.89 270 20:38 15.07.2019
5115 Rain 17 1016 62 0 0.89 292 20:20 15.07.2019
5116 Rain 18 1016 60 0 0.89 315 19:43 15.07.2019
5117 Rain 18 1017 60 0 1.34 315 19:21 15.07.2019
5118 Rain 18 1016 59 0 1.79 292 18:57 15.07.2019
5119 Rain 18 1016 58 0 0.45 315 18:37 15.07.2019
5120 Clouds 19 1017 56 0 8.91 257.743 18:18 15.07.2019
5121 Clouds 19 1017 56 0 8.91 257.743 18:18 15.07.2019
5122 Clouds 19 1017 56 0 8.91 257.743 18:18 15.07.2019
5123 Clouds 20 1017 53 0 0.89 315 17:44 15.07.2019
5124 Clouds 20 1017 55 0 1.79 292 17:26 15.07.2019
5125 Clouds 21 1017 52 0 0.45 292 16:59 15.07.2019
5126 Clouds 21 1017 52 0 0.45 292 16:59 15.07.2019
5127 Clouds 21 1017 52 0 8.91 257.743 16:39 15.07.2019
5128 Clouds 20 1017 54 0 0.45 247 16:20 15.07.2019
5129 Clouds 21 1017 55 0 1.34 270 15:56 15.07.2019
5130 Clouds 21 1017 53 0 0.45 225 15:37 15.07.2019
5131 Rain 19 1018 57 0 1.34 292 15:19 15.07.2019
5132 Rain 18 1018 62 0 0.89 315 14:44 15.07.2019
5133 Rain 18 1018 62 0 8.21 256.382 14:25 15.07.2019
5134 Rain 18 1018 62 0 0.45 315 13:51 15.07.2019
5135 Clouds 18 1018 65 0 0.45 315 13:25 15.07.2019
5136 Clouds 17 1018 70 0 8.02 252.401 12:59 15.07.2019
5137 Clouds 17 1018 71 0 8.02 252.401 12:41 15.07.2019
5138 Clouds 17 1018 71 0 8.02 252.401 12:41 15.07.2019
5139 Rain 16 1018 73 0 7.82 253.223 12:20 15.07.2019
5140 Rain 16 1018 77 0 0.45 292 11:43 15.07.2019
5141 Rain 16 1019 79 0 7.82 253.223 11:25 15.07.2019
5142 Rain 14 1018 85 0 0.45 315 10:47 15.07.2019
5143 Rain 15 1018 83 0 0.45 292 10:28 15.07.2019
5144 Rain 16 1018 78 0 7.82 253.223 09:48 15.07.2019
5145 Rain 16 1018 77 0 7.82 253.223 09:28 15.07.2019
5146 Rain 16 1018 78 0 6.98 250.091 08:59 15.07.2019
5147 Rain 16 1018 79 0 6.98 250.091 08:41 15.07.2019
5148 Rain 16 1018 80 0 0.45 292 08:23 15.07.2019
5149 Rain 15 1018 82 0 6.98 250.091 07:39 15.07.2019
5150 Rain 15 1018 83 0 0.89 315 07:19 15.07.2019
5151 Rain 14 1018 83 0 0.89 292 06:39 15.07.2019
5152 Rain 14 1019 82 0 0.45 292 05:49 15.07.2019
5153 Rain 15 1019 81 0 5.86 248.647 05:29 15.07.2019
5154 Rain 15 1019 80 0 5.86 248.647 04:43 15.07.2019
5155 Rain 16 1019 79 0 5.86 248.647 03:48 15.07.2019
5156 Clouds 16 1019 76 0 5.83 262.215 02:45 15.07.2019
5157 Clouds 16 1019 76 0 5.83 262.215 01:45 15.07.2019
5158 Clouds 16 1019 76 0 4.82 260.113 01:26 15.07.2019
5159 Clouds 16 1020 76 0 4.82 260.113 00:51 15.07.2019
5160 Clouds 16 1019 76 0 4.81 271.061 00:22 15.07.2019
5161 Clouds 16 1020 76 0 0.45 337 23:55 14.07.2019
5162 Clouds 16 1020 76 0 0.45 292 23:36 14.07.2019
5163 Clouds 16 1020 76 0 4.81 271.061 23:18 14.07.2019
5164 Clouds 16 1020 76 0 0.45 292 22:55 14.07.2019
5165 Clouds 16 1020 76 0 1.34 315 22:36 14.07.2019
5166 Clouds 16 1020 75 0 0.89 315 22:18 14.07.2019
5167 Clouds 17 1020 74 0 1.79 292 21:42 14.07.2019
5168 Clouds 17 1019 73 0 0.45 337 21:18 14.07.2019
5169 Clouds 17 1019 72 0 0.89 315 20:57 14.07.2019
5170 Clouds 18 1019 71 0 5.95 271.493 20:37 14.07.2019
5171 Clouds 19 1019 69 0 0.45 0 20:18 14.07.2019
5172 Clouds 19 1019 69 0 0.45 315 19:43 14.07.2019
5173 Clouds 19 1019 68 0 5.95 271.493 19:24 14.07.2019
5174 Clouds 19 1019 69 0 5.95 271.493 18:57 14.07.2019
5175 Clouds 19 1019 69 0 5.95 271.493 18:38 14.07.2019
5176 Clouds 20 1019 68 0 0.89 22 18:19 14.07.2019
5177 Clouds 21 1019 65 0 0.89 22 17:47 14.07.2019
5178 Clouds 22 1019 65 0 5.4 278.075 17:21 14.07.2019
5179 Clouds 22 1019 63 0 0.45 0 16:46 14.07.2019
5180 Clouds 23 1019 63 0 0.45 315 16:24 14.07.2019
5181 Clouds 22 1019 64 0 0.45 22 15:54 14.07.2019
5182 Clouds 22 1019 65 0 0.89 22 15:29 14.07.2019
5183 Clouds 22 1019 66 0 5.79 283.038 14:50 14.07.2019
5184 Clouds 21 1019 68 0 5.79 283.038 14:22 14.07.2019
5185 Clouds 22 1019 67 0 0.89 45 13:57 14.07.2019
5186 Clouds 22 1019 67 0 1.79 315 13:37 14.07.2019
5187 Clouds 21 1019 69 0 0.89 337 13:19 14.07.2019
5188 Clouds 21 1019 71 0 0.89 337 12:42 14.07.2019
5189 Clouds 21 1019 72 0 0.45 247 12:22 14.07.2019
5190 Clouds 20 1019 74 0 1.34 315 11:53 14.07.2019
5191 Clouds 19 1019 77 0 1.79 315 11:28 14.07.2019
5192 Clouds 18 1019 81 0 2.24 337 10:59 14.07.2019
5193 Clouds 18 1019 81 0 5.11 319.729 10:40 14.07.2019
5194 Clouds 18 1019 83 0 1.34 315 10:19 14.07.2019
5195 Clouds 17 1019 84 0 0.89 337 09:42 14.07.2019
5196 Rain 17 1019 84 0 6.4 324.096 09:23 14.07.2019
5197 Rain 17 1018 84 0 1.34 292 08:43 14.07.2019
5198 Rain 17 1018 85 0 0.45 22 07:58 14.07.2019
5199 Rain 17 1018 84 0 5.53 323.451 07:38 14.07.2019
5200 Rain 17 1018 85 0 0.89 315 06:57 14.07.2019
5201 Clouds 17 1018 87 0 0.89 22 05:45 14.07.2019
5202 Clouds 16 1017 88 0 0.45 270 03:48 14.07.2019
5203 Clouds 16 1017 88 0 0.89 292 03:30 14.07.2019
5204 Rain 16 1017 86 0 7.02 324.067 02:41 14.07.2019
5205 Rain 16 1017 85 0 0.45 292 02:21 14.07.2019
5206 Rain 16 1017 77 0 6.77 324.039 01:33 14.07.2019
5207 Rain 17 1017 74 0 6.77 324.039 00:57 14.07.2019
5208 Rain 17 1017 73 0 6.77 324.039 00:39 14.07.2019
5209 Rain 17 1017 72 0 4.58 336.545 00:19 14.07.2019
5210 Rain 17 1017 71 0 4.58 336.545 23:45 13.07.2019
5211 Rain 17 1017 69 0 4.58 336.545 23:25 13.07.2019
5212 Rain 18 1017 68 0 4.58 336.545 22:56 13.07.2019
5213 Rain 18 1017 68 0 4.58 336.545 22:37 13.07.2019
5214 Rain 18 1017 67 0 4.58 336.545 22:19 13.07.2019
5215 Rain 20 1017 65 0 4.58 336.545 21:42 13.07.2019
5216 Clear 21 1017 65 0 3.77 279.507 21:19 13.07.2019
5217 Clear 22 1016 62 0 3.77 279.507 20:45 13.07.2019
5218 Clear 22 1016 62 0 3.77 279.507 20:26 13.07.2019
5219 Clear 23 1016 60 0 3.77 279.507 19:46 13.07.2019
5220 Clear 23 1016 58 0 3.77 279.507 19:27 13.07.2019
5221 Clear 23 1016 57 0 3.77 279.507 18:44 13.07.2019
5222 Clear 23 1016 58 0 3.94 293.84 18:21 13.07.2019
5223 Clear 22 1016 60 0 3.94 293.84 17:39 13.07.2019
5224 Clear 23 1016 57 0 3.94 293.84 17:20 13.07.2019
5225 Clear 24 1016 54 0 0.45 22 16:57 13.07.2019
5226 Clear 23 1016 55 0 1.34 45 16:37 13.07.2019
5227 Clear 19 1012 74 0 3.94 293.84 16:19 13.07.2019
5228 Clear 24 1016 51 0 3.94 293.84 15:44 13.07.2019
5229 Clear 23 1016 51 0 3.08 323.736 15:21 13.07.2019
5230 Clear 23 1016 51 0 3.08 323.736 14:45 13.07.2019
5231 Clear 23 1016 52 0 3.08 323.736 14:24 13.07.2019
5232 Clear 23 1016 58 0 3.08 323.736 13:46 13.07.2019
5233 Clear 22 1016 59 0 2.8 332.603 13:26 13.07.2019
5234 Clear 23 1016 53 0 2.8 332.603 12:59 13.07.2019
5235 Clear 23 1016 50 0 2.8 332.603 12:39 13.07.2019
5236 Clear 18 1013 75 0 2.94 338.622 12:20 13.07.2019
5237 Clear 22 1016 61 0 0.45 45 11:42 13.07.2019
5238 Clear 21 1016 64 0 0.89 45 11:19 13.07.2019
5239 Clear 21 1016 71 0 0.45 45 10:44 13.07.2019
5240 Clear 21 1016 71 0 0.45 22 10:23 13.07.2019
5241 Clear 19 1015 74 0 2.94 338.622 09:57 13.07.2019
5242 Clear 19 1015 76 0 2.94 338.622 09:38 13.07.2019
5243 Clear 19 1015 78 0 0.89 45 09:18 13.07.2019
5244 Clouds 18 1015 81 0 0.45 45 08:33 13.07.2019
5245 Clouds 18 1014 82 0 2.58 28.385 07:59 13.07.2019
5246 Clouds 18 1014 83 0 0.89 45 07:30 13.07.2019
5247 Clouds 17 1014 85 0 2.58 28.385 06:41 13.07.2019
5248 Clouds 16 1014 87 0 2.65 37.596 05:58 13.07.2019
5249 Clouds 14 1014 78 0 2.65 37.596 05:28 13.07.2019
5250 Clouds 13 1014 76 0 2.65 37.596 04:23 13.07.2019
5251 Clouds 14 1014 75 0 2.65 37.596 03:57 13.07.2019
5252 Clouds 14 1014 75 0 2.65 37.596 03:38 13.07.2019
5253 Clouds 16 1013 76 0 1.91 76.945 02:18 13.07.2019
5254 Clouds 16 1013 75 0 1.91 76.945 01:41 13.07.2019
5255 Clouds 16 1013 74 0 3.25 58.484 01:19 13.07.2019
5256 Clouds 17 1013 74 0 3.25 58.484 00:54 13.07.2019
5257 Clouds 17 1014 73 0 2.59 92.193 00:20 13.07.2019
5258 Clouds 17 1014 72 0 2.59 92.193 23:49 12.07.2019
5259 Clouds 17 1014 68 0 2.59 92.193 23:29 12.07.2019
5260 Clouds 18 1014 64 0 2.59 92.193 22:46 12.07.2019
5261 Clouds 18 1014 61 0 2.59 92.193 22:24 12.07.2019
5262 Clouds 19 1013 59 0 2.59 92.193 21:57 12.07.2019
5263 Clouds 20 1013 58 0 2.59 92.193 21:39 12.07.2019
5264 Clouds 21 1013 55 0 4.14 103.382 21:19 12.07.2019
5265 Clouds 21 1013 55 0 4.14 103.382 21:19 12.07.2019
5266 Clouds 21 1013 54 0 4.14 103.382 20:42 12.07.2019
5267 Clouds 22 1013 52 0 4.14 103.382 20:21 12.07.2019
5268 Clouds 18 1009 77 0 4.14 103.382 19:42 12.07.2019
5269 Clouds 18 1009 77 0 4.14 103.382 19:24 12.07.2019
5270 Clouds 18 1009 77 0 4.14 103.382 18:46 12.07.2019
5271 Rain 18 1010 74 0 5.31 73.797 18:22 12.07.2019
5272 Rain 18 1010 74 0 5.31 73.797 17:55 12.07.2019
5273 Rain 18 1010 74 0 5.31 73.797 17:30 12.07.2019
5274 Rain 18 1010 74 0 5.31 73.797 16:59 12.07.2019
5275 Rain 18 1010 74 0 5.31 73.797 16:36 12.07.2019
5276 Rain 18 1010 74 0 5.31 73.797 16:18 12.07.2019
5277 Rain 22 1013 49 0 0.45 45 15:38 12.07.2019
5278 Rain 15 1010 83 0 0.83 117.733 15:19 12.07.2019
5279 Rain 15 1010 83 0 0.83 117.733 14:44 12.07.2019
5280 Rain 15 1010 83 0 0.83 117.733 14:21 12.07.2019
5281 Rain 15 1010 83 0 0.83 117.733 13:47 12.07.2019
5282 Rain 17 1010 76 0 3 46.514 13:24 12.07.2019
5283 Rain 17 1010 76 0 3 46.514 12:44 12.07.2019
5284 Rain 16 1010 78 0 1.68 76.187 12:24 12.07.2019
5285 Rain 16 1010 78 0 1.68 76.187 11:57 12.07.2019
5286 Rain 16 1010 78 0 1.68 76.187 11:38 12.07.2019
5287 Rain 21 1013 55 0 0.45 22 11:19 12.07.2019
5288 Rain 19 1013 62 0 0.45 45 10:41 12.07.2019
5289 Rain 20 1013 63 0 0.45 22 10:23 12.07.2019
5290 Rain 21 1013 61 0 1.68 76.187 09:53 12.07.2019
5291 Rain 16 1010 78 0 1.68 76.187 09:28 12.07.2019
5292 Clouds 19 1013 63 0 0.99 103.699 08:51 12.07.2019
5293 Clouds 19 1014 68 0 0.99 103.699 08:25 12.07.2019
5294 Clouds 18 1014 73 0 0.99 103.699 07:54 12.07.2019
5295 Clouds 17 1014 77 0 0.99 103.699 07:32 12.07.2019
5296 Clouds 15 1014 78 0 0.99 103.699 06:44 12.07.2019
5297 Clouds 14 1014 77 0 2.34 153.315 06:25 12.07.2019
5298 Clouds 13 1014 76 0 2.34 153.315 04:55 12.07.2019
5299 Clouds 14 1014 72 0 3.1 167.676 02:55 12.07.2019
5300 Clouds 14 1014 69 0 3.1 167.676 01:38 12.07.2019
5301 Clouds 14 1014 68 0 3.63 155.304 00:49 12.07.2019
5302 Clouds 14 1014 67 0 2.37 127.354 00:20 12.07.2019
5303 Clouds 14 1015 67 0 2.37 127.354 23:43 11.07.2019
5304 Clouds 14 1015 65 0 2.37 127.354 23:24 11.07.2019
5305 Clouds 16 1015 61 0 2.37 127.354 22:52 11.07.2019
5306 Clouds 17 1015 60 0 2.37 127.354 22:26 11.07.2019
5307 Clouds 18 1015 58 0 2.37 127.354 21:59 11.07.2019
5308 Clouds 19 1015 56 0 2.37 127.354 21:40 11.07.2019
5309 Clouds 20 1015 53 0 1.79 58.351 21:18 11.07.2019
5310 Clouds 22 1015 49 0 1.79 58.351 20:42 11.07.2019
5311 Clouds 17 1011 68 0 1.79 58.351 20:24 11.07.2019
5312 Clouds 17 1011 68 0 1.79 58.351 19:59 11.07.2019
5313 Clouds 17 1011 68 0 1.79 58.351 19:40 11.07.2019
5314 Clouds 17 1011 68 0 1.79 58.351 19:22 11.07.2019
5315 Clouds 17 1011 68 0 1.79 58.351 18:43 11.07.2019
5316 Clouds 17 1012 64 0 2.38 347.294 18:25 11.07.2019
5317 Clouds 17 1012 64 0 2.38 347.294 17:54 11.07.2019
5318 Clouds 23 1015 49 0 0.89 67 17:36 11.07.2019
5319 Clouds 23 1015 52 0 0.89 45 17:18 11.07.2019
5320 Clouds 23 1015 52 0 2.38 347.294 16:42 11.07.2019
5321 Clouds 23 1015 52 0 2.38 347.294 16:42 11.07.2019
5322 Clouds 22 1015 55 0 2.38 347.294 16:19 11.07.2019
5323 Clouds 23 1015 53 0 0.45 135 15:44 11.07.2019
5324 Clouds 16 1013 69 0 2.8 299.206 15:24 11.07.2019
5325 Clouds 16 1013 69 0 2.8 299.206 14:58 11.07.2019
5326 Clouds 16 1013 69 0 2.8 299.206 14:38 11.07.2019
5327 Clouds 16 1013 69 0 2.8 299.206 14:19 11.07.2019
5328 Clouds 23 1016 49 0 0.89 45 13:45 11.07.2019
5329 Clouds 23 1016 51 0 3.28 291.26 13:25 11.07.2019
5330 Clouds 22 1016 54 0 0.45 0 12:39 11.07.2019
5331 Clear 22 1016 55 0 0.45 22 12:20 11.07.2019
5332 Clear 21 1017 58 0 4.29 288.207 11:52 11.07.2019
5333 Clear 21 1017 61 0 4.29 288.207 11:30 11.07.2019
5334 Clear 20 1017 62 0 0.45 315 10:54 11.07.2019
5335 Clear 19 1017 69 0 4.29 288.207 10:21 11.07.2019
5336 Clear 19 1017 72 0 0.45 0 09:58 11.07.2019
5337 Clear 18 1017 76 0 0.45 315 09:39 11.07.2019
5338 Clear 18 1017 76 0 0.45 315 09:21 11.07.2019
5339 Clouds 17 1017 79 0 0.89 292 08:49 11.07.2019
5340 Clouds 16 1017 84 0 0.89 292 08:22 11.07.2019
5341 Clouds 14 1017 86 0 0.89 292 07:48 11.07.2019
5342 Clouds 14 1017 86 0 0.89 0 07:29 11.07.2019
5343 Clouds 13 1017 83 0 4.35 306.635 06:27 11.07.2019
5344 Clouds 13 1017 83 0 4.66 319.793 05:48 11.07.2019
5345 Clouds 13 1017 83 0 4.66 319.793 05:28 11.07.2019
5346 Clouds 12 1017 80 0 4.66 319.793 04:53 11.07.2019
5347 Clouds 13 1017 75 0 6.52 323.781 02:40 11.07.2019
5348 Clouds 14 1017 74 0 5.76 322.677 01:27 11.07.2019
5349 Clouds 14 1018 74 0 6.67 298.16 00:26 11.07.2019
5350 Clouds 15 1018 71 0 6.67 298.16 23:37 10.07.2019
5351 Clouds 16 1018 69 0 0.45 292 23:18 10.07.2019
5352 Clouds 16 1018 67 0 6.67 298.16 22:44 10.07.2019
5353 Clouds 16 1018 67 0 0.45 292 22:20 10.07.2019
5354 Clouds 17 1018 63 0 0.89 292 21:45 10.07.2019
5355 Clouds 18 1018 63 0 0.89 315 21:26 10.07.2019
5356 Clouds 19 1018 61 0 1.34 292 20:57 10.07.2019
5357 Clouds 19 1018 59 0 1.79 292 20:39 10.07.2019
5358 Clouds 21 1018 54 0 0.45 292 20:19 10.07.2019
5359 Clouds 21 1018 52 0 0.45 270 19:53 10.07.2019
5360 Clouds 17 1015 73 0 6.78 300.817 19:22 10.07.2019
5361 Clouds 17 1015 73 0 6.78 300.817 18:58 10.07.2019
5362 Clouds 17 1015 73 0 6.78 300.817 18:39 10.07.2019
5363 Clouds 22 1018 53 0 2.24 315 18:21 10.07.2019
5364 Clouds 17 1015 71 0 7.44 297.141 17:41 10.07.2019
5365 Clouds 22 1018 56 0 0.45 315 17:21 10.07.2019
5366 Clouds 17 1015 71 0 7.44 297.141 16:38 10.07.2019
5367 Clouds 17 1015 71 0 7.44 297.141 16:18 10.07.2019
5368 Clouds 17 1015 71 0 7.44 297.141 15:45 10.07.2019
5369 Rain 16 1016 78 0 8.62 299.109 15:21 10.07.2019
5370 Rain 22 1019 58 0 0.89 247 14:41 10.07.2019
5371 Rain 22 1019 57 0 8.62 299.109 14:23 10.07.2019
5372 Rain 22 1019 57 0 8.62 299.109 14:23 10.07.2019
5373 Rain 22 1019 58 0 1.34 315 13:52 10.07.2019
5374 Rain 22 1019 62 0 2.24 0 13:19 10.07.2019
5375 Rain 22 1019 63 0 0.45 337 12:58 10.07.2019
5376 Rain 21 1019 64 0 1.34 292 12:38 10.07.2019
5377 Rain 20 1019 65 0 0.89 292 12:19 10.07.2019
5378 Rain 20 1019 67 0 0.89 0 11:47 10.07.2019
5379 Rain 19 1019 68 0 7.83 301.097 11:21 10.07.2019
5380 Rain 19 1019 72 0 7.83 301.097 10:50 10.07.2019
5381 Rain 18 1019 73 0 0.89 292 10:23 10.07.2019
5382 Rain 18 1019 78 0 1.34 337 09:44 10.07.2019
5383 Rain 17 1019 80 0 1.34 292 09:21 10.07.2019
5384 Rain 17 1019 83 0 0.45 0 08:55 10.07.2019
5385 Rain 16 1019 84 0 0.89 315 08:37 10.07.2019
5386 Rain 16 1019 85 0 1.79 292 08:18 10.07.2019
5387 Rain 16 1018 86 0 0.89 337 07:42 10.07.2019
5388 Rain 15 1018 87 0 1.34 0 07:21 10.07.2019
5389 Rain 14 1018 89 0 0.89 315 06:31 10.07.2019
5390 Clear 14 1018 89 0 1.34 292 05:40 10.07.2019
5391 Clear 13 1018 87 0 1.34 315 04:30 10.07.2019
5392 Rain 15 1018 80 0 1.34 315 01:49 10.07.2019
5393 Rain 15 1018 78 0 0.89 247 00:43 10.07.2019
5394 Clouds 15 1018 76 0 0.45 292 23:42 09.07.2019
5395 Clouds 16 1018 75 0 1.34 292 23:23 09.07.2019
5396 Clouds 16 1019 73 0 0.89 292 22:57 09.07.2019
5397 Clouds 16 1018 72 0 0.45 292 22:36 09.07.2019
5398 Clouds 16 1018 72 0 0.45 270 22:18 09.07.2019
5399 Clouds 16 1018 70 0 0.89 292 21:43 09.07.2019
5400 Clouds 16 1019 69 0 0.45 292 21:25 09.07.2019
5401 Clouds 17 1018 65 0 0.45 270 20:44 09.07.2019
5402 Clouds 18 1018 63 0 1.79 0 20:26 09.07.2019
5403 Clouds 19 1018 60 0 1.34 337 19:44 09.07.2019
5404 Clouds 19 1018 59 0 1.79 315 19:26 09.07.2019
5405 Clouds 20 1018 57 0 1.79 337 18:49 09.07.2019
5406 Clouds 20 1018 56 0 2.68 337 18:27 09.07.2019
5407 Clouds 19 1018 58 0 0.89 292 17:58 09.07.2019
5408 Clouds 20 1018 54 0 1.79 315 17:40 09.07.2019
5409 Clouds 20 1018 53 0 0.89 315 17:21 09.07.2019
5410 Clouds 21 1018 52 0 1.79 292 16:50 09.07.2019
5411 Clouds 21 1018 52 0 1.79 292 16:26 09.07.2019
5412 Clouds 21 1018 52 0 1.79 292 15:57 09.07.2019
5413 Clouds 19 1018 56 0 2.68 315 15:36 09.07.2019
5414 Clouds 19 1019 57 0 2.68 337 14:59 09.07.2019
5415 Clouds 18 1018 58 0 1.79 292 14:40 09.07.2019
5416 Clouds 18 1018 59 0 0.89 315 14:21 09.07.2019
5417 Clouds 19 1018 58 0 0.89 315 13:46 09.07.2019
5418 Clouds 19 1018 58 0 2.24 0 13:28 09.07.2019
5419 Clouds 18 1018 59 0 0.45 315 12:57 09.07.2019
5420 Clouds 19 1018 60 0 3.13 292 12:37 09.07.2019
5421 Clouds 18 1018 60 0 0.89 247 12:18 09.07.2019
5422 Clouds 18 1018 62 0 0.89 0 11:41 09.07.2019
5423 Clouds 18 1018 64 0 2.68 337 11:22 09.07.2019
5424 Clouds 17 1018 65 0 1.79 315 10:58 09.07.2019
5425 Clouds 17 1018 65 0 0.89 315 10:35 09.07.2019
5426 Clouds 16 1018 69 0 1.79 22 09:59 09.07.2019
5427 Clouds 16 1018 71 0 1.79 315 09:38 09.07.2019
5428 Clouds 15 1018 72 0 1.34 315 09:19 09.07.2019
5429 Clouds 14 1018 76 0 1.34 0 08:44 09.07.2019
5430 Clouds 14 1018 78 0 1.79 337 08:18 09.07.2019
5431 Rain 13 1014 90 0 1.34 270 03:45 05.07.2019
5432 Rain 13 1014 89 0 0.89 292 03:21 05.07.2019
5433 Rain 13 1015 88 0 0.45 180 02:52 05.07.2019
5434 Rain 13 1015 88 0 0.45 292 02:26 05.07.2019
5435 Rain 14 1015 86 0 0.45 247 01:36 05.07.2019
5436 Rain 14 1016 84 0 0.89 292 00:52 05.07.2019
5437 Rain 14 1016 83 0 0.45 292 00:31 05.07.2019
5438 Rain 15 1017 78 0 0.45 315 23:44 04.07.2019
5439 Rain 16 1017 74 0 14.93 269.409 23:19 04.07.2019
5440 Rain 16 1017 71 0 0.89 292 22:43 04.07.2019
5441 Rain 16 1017 71 0 1.34 337 22:24 04.07.2019
5442 Rain 17 1018 71 0 2.24 292 21:45 04.07.2019
5443 Rain 17 1018 72 0 0.45 337 21:26 04.07.2019
5444 Rain 17 1018 70 0 12.73 279.287 20:59 04.07.2019
5445 Rain 17 1018 70 0 0.45 270 20:38 04.07.2019
5446 Rain 17 1018 70 0 0.89 292 20:20 04.07.2019
5447 Rain 17 1019 69 0 1.34 292 19:42 04.07.2019
5448 Rain 17 1019 69 0 1.34 292 19:22 04.07.2019
5449 Rain 17 1019 69 0 1.34 292 19:22 04.07.2019
5450 Rain 17 1019 69 0 0.89 315 18:57 04.07.2019
5451 Rain 17 1020 69 0 1.79 202 18:38 04.07.2019
5452 Rain 17 1020 69 0 0.89 292 18:20 04.07.2019
5453 Rain 17 1020 73 0 1.79 247 17:43 04.07.2019
5454 Rain 18 1021 69 0 0.89 247 17:19 04.07.2019
5455 Rain 17 1022 69 0 0.89 315 15:57 04.07.2019
5456 Rain 17 1022 69 0 0.89 315 15:57 04.07.2019
5457 Rain 17 1022 68 0 0.89 292 15:39 04.07.2019
5458 Rain 17 1022 67 0 2.24 270 15:19 04.07.2019
5459 Rain 18 1022 64 0 0.45 270 14:44 04.07.2019
5460 Rain 17 1022 66 0 1.34 270 14:25 04.07.2019
5461 Rain 17 1023 64 0 13.82 261.715 13:59 04.07.2019
5462 Rain 18 1023 62 0 0.89 225 13:41 04.07.2019
5463 Rain 18 1023 62 0 0.89 225 13:41 04.07.2019
5464 Rain 17 1023 63 0 0.89 270 13:22 04.07.2019
5465 Rain 17 1023 62 0 0.89 202 12:40 04.07.2019
5466 Rain 17 1023 62 0 0.89 292 12:21 04.07.2019
5467 Rain 17 1023 63 0 0.89 292 11:59 04.07.2019
5468 Rain 16 1024 67 0 1.79 292 11:38 04.07.2019
5469 Rain 15 1024 69 0 1.79 292 11:19 04.07.2019
5470 Rain 15 1024 69 0 0.45 292 10:40 04.07.2019
5471 Rain 16 1024 68 0 0.45 292 10:20 04.07.2019
5472 Rain 16 1024 66 0 2.24 315 09:44 04.07.2019
5473 Clouds 15 1024 69 0 1.79 292 09:25 04.07.2019
5474 Clouds 13 1024 74 0 0.89 270 08:56 04.07.2019
5475 Clouds 13 1024 74 0 0.45 270 08:23 04.07.2019
5476 Clouds 13 1024 75 0 10.43 287.636 07:45 04.07.2019
5477 Clouds 12 1024 75 0 0.45 292 07:23 04.07.2019
5478 Clouds 12 1024 78 0 0.45 315 06:51 04.07.2019
5479 Rain 13 1020 71 0 10.96 293.855 05:52 04.07.2019
5480 Rain 13 1020 71 0 10.96 293.855 05:33 04.07.2019
5481 Rain 10 1024 78 0 0.89 292 02:43 04.07.2019
5482 Rain 11 1024 77 0 0.45 292 01:42 04.07.2019
5483 Rain 11 1024 77 0 10.56 295.296 01:22 04.07.2019
5484 Rain 12 1024 70 0 1.34 292 23:59 03.07.2019
5485 Rain 12 1024 70 0 0.89 292 23:41 03.07.2019
5486 Rain 12 1024 70 0 1.79 292 23:20 03.07.2019
5487 Rain 12 1024 70 0 0.45 292 22:55 03.07.2019
5488 Rain 12 1024 70 0 0.89 292 22:36 03.07.2019
5489 Rain 13 1024 66 0 11.29 296.374 22:18 03.07.2019
5490 Rain 14 1024 63 0 11.29 296.374 21:45 03.07.2019
5491 Rain 14 1024 62 0 11.29 296.374 21:26 03.07.2019
5492 Rain 16 1024 56 0 1.79 315 20:46 03.07.2019
5493 Rain 17 1024 54 0 1.79 292 20:24 03.07.2019
5494 Rain 18 1024 52 0 1.79 292 19:51 03.07.2019
5495 Rain 18 1024 51 0 2.24 337 19:33 03.07.2019
5496 Rain 18 1024 49 0 1.79 292 18:54 03.07.2019
5497 Rain 18 1024 50 0 1.79 292 18:36 03.07.2019
5498 Rain 19 1024 49 0 1.79 292 18:18 03.07.2019
5499 Rain 19 1024 50 0 0.89 337 17:41 03.07.2019
5500 Rain 16 1019 66 0 10.9 290.271 17:18 03.07.2019
5501 Rain 18 1024 49 0 0.45 315 16:44 03.07.2019
5502 Rain 19 1024 50 0 0.45 315 16:22 03.07.2019
5503 Rain 18 1024 51 0 1.34 315 15:50 03.07.2019
5504 Rain 19 1024 46 0 0.89 292 15:31 03.07.2019
5505 Clear 18 1024 51 0 1.34 292 14:58 03.07.2019
5506 Clear 17 1024 55 0 0.89 337 14:39 03.07.2019
5507 Clear 18 1024 56 0 1.34 45 14:19 03.07.2019
5508 Clear 18 1024 56 0 1.34 337 13:43 03.07.2019
5509 Clear 17 1024 54 0 0.89 337 13:24 03.07.2019
5510 Clear 17 1024 59 0 0.45 315 12:45 03.07.2019
5511 Clear 16 1023 62 0 0.89 292 12:18 03.07.2019
5512 Clear 16 1024 64 0 1.34 22 11:43 03.07.2019
5513 Clear 15 1023 77 0 0.45 0 11:22 03.07.2019
5514 Clear 15 1023 79 0 0.89 292 10:57 03.07.2019
5515 Clear 14 1023 82 0 0.89 292 10:36 03.07.2019
5516 Clear 13 1023 84 0 0.89 337 10:18 03.07.2019
5517 Clear 13 1023 85 0 0.45 292 09:39 03.07.2019
5518 Rain 12 1023 85 0 8.81 311.789 09:20 03.07.2019
5519 Rain 12 1023 83 0 0.89 315 08:50 03.07.2019
5520 Rain 13 1023 81 0 9.29 309.404 08:26 03.07.2019
5521 Rain 12 1023 82 0 0.45 270 07:40 03.07.2019
5522 Rain 12 1023 80 0 0.89 292 07:21 03.07.2019
5523 Rain 11 1023 78 0 10.33 295.498 06:25 03.07.2019
5524 Rain 14 1019 71 0 10.33 295.498 05:34 03.07.2019
5525 Rain 14 1019 71 0 10.33 295.498 04:41 03.07.2019
5526 Rain 11 1022 73 0 0.89 292 03:24 03.07.2019
5527 Rain 11 1022 72 0 11.6 299.932 01:59 03.07.2019
5528 Rain 11 1022 69 0 0.89 292 01:21 03.07.2019
5529 Rain 12 1022 70 0 0.45 292 00:46 03.07.2019
5530 Clouds 12 1022 70 0 0.89 292 00:24 03.07.2019
5531 Clouds 12 1022 68 0 1.34 292 23:38 02.07.2019
5532 Clouds 12 1022 67 0 11.49 295.633 23:20 02.07.2019
5533 Clouds 12 1022 67 0 0.89 270 22:57 02.07.2019
5534 Clouds 13 1022 66 0 1.79 292 22:38 02.07.2019
5535 Clouds 13 1021 65 0 1.34 270 22:20 02.07.2019
5536 Clouds 14 1022 62 0 0.45 292 21:45 02.07.2019
5537 Rain 14 1021 61 0 0.45 292 21:24 02.07.2019
5538 Rain 15 1021 57 0 1.79 292 20:58 02.07.2019
5539 Rain 15 1022 58 0 3.58 292 20:40 02.07.2019
5540 Rain 16 1021 56 0 0.89 292 20:21 02.07.2019
5541 Rain 17 1021 51 0 1.34 292 19:44 02.07.2019
5542 Rain 17 1021 52 0 2.24 292 19:24 02.07.2019
5543 Rain 17 1021 51 0 2.68 292 18:58 02.07.2019
5544 Clouds 17 1021 53 0 3.13 315 18:19 02.07.2019
5545 Clouds 18 1021 52 0 2.24 292 17:58 02.07.2019
5546 Clouds 17 1021 54 0 1.79 315 17:37 02.07.2019
5547 Clouds 17 1021 57 0 1.79 315 17:19 02.07.2019
5548 Clouds 17 1021 55 0 3.13 315 16:43 02.07.2019
5549 Clouds 17 1021 55 0 3.13 22 16:25 02.07.2019
5550 Clouds 18 1021 55 0 3.13 315 15:40 02.07.2019
5551 Rain 18 1021 54 0 3.58 315 15:22 02.07.2019
5552 Rain 17 1020 63 0 2.24 292 14:47 02.07.2019
5553 Rain 18 1020 61 0 2.68 315 14:27 02.07.2019
5554 Rain 18 1020 58 0 2.68 315 13:44 02.07.2019
5555 Rain 17 1020 63 0 2.68 292 13:20 02.07.2019
5556 Rain 17 1020 66 0 0.89 315 12:45 02.07.2019
5557 Rain 17 1020 67 0 3.13 292 12:25 02.07.2019
5558 Rain 16 1020 71 0 2.68 292 11:55 02.07.2019
5559 Rain 17 1019 64 0 2.68 292 11:37 02.07.2019
5560 Rain 16 1019 66 0 2.68 292 11:18 02.07.2019
5561 Rain 17 1019 67 0 3.13 292 10:42 02.07.2019
5562 Rain 17 1019 69 0 2.24 0 10:23 02.07.2019
5563 Rain 15 1019 77 0 1.34 315 09:44 02.07.2019
5564 Rain 14 1019 79 0 1.79 292 09:21 02.07.2019
5565 Rain 15 1018 76 0 2.24 337 08:42 02.07.2019
5566 Rain 15 1018 76 0 1.79 292 08:20 02.07.2019
5567 Rain 14 1018 80 0 2.24 292 07:53 02.07.2019
5568 Rain 14 1017 81 0 0.89 270 07:21 02.07.2019
5569 Rain 14 1017 86 0 1.34 270 06:49 02.07.2019
5570 Rain 14 1017 87 0 2.24 292 06:26 02.07.2019
5571 Rain 14 1016 84 0 13.11 283.381 04:57 02.07.2019
5572 Rain 14 1017 77 0 0.45 270 01:37 02.07.2019
5573 Clear 15 1017 71 0 12.33 273.116 23:50 01.07.2019
5574 Clear 16 1017 70 0 12.33 273.116 23:22 01.07.2019
5575 Clear 16 1016 68 0 1.34 292 22:46 01.07.2019
5576 Clear 16 1017 67 0 0.45 270 22:27 01.07.2019
5577 Clear 18 1016 65 0 0.89 292 21:48 01.07.2019
5578 Clear 18 1016 65 0 0.89 292 21:48 01.07.2019
5579 Clear 18 1016 63 0 1.79 315 21:26 01.07.2019
5580 Clear 19 1016 62 0 1.34 292 20:53 01.07.2019
5581 Clear 19 1016 62 0 1.79 292 20:23 01.07.2019
5582 Clear 18 1011 71 0 13.23 276.256 19:59 01.07.2019
5583 Clear 18 1011 71 0 13.23 276.256 19:41 01.07.2019
5584 Clear 22 1015 56 0 1.79 292 19:23 01.07.2019
5585 Clear 18 1011 71 0 13.23 276.256 18:55 01.07.2019
5586 Clear 18 1011 71 0 13.23 276.256 18:37 01.07.2019
5587 Clear 24 1014 48 0 2.68 292 18:18 01.07.2019
5588 Clear 24 1014 47 0 1.79 292 17:42 01.07.2019
5589 Clear 24 1014 52 0 2.24 292 17:22 01.07.2019
5590 Clear 18 1010 75 0 11.78 274.01 16:47 01.07.2019
5591 Clear 18 1010 75 0 11.78 274.01 16:26 01.07.2019
5592 Clear 18 1010 75 0 11.78 274.01 16:26 01.07.2019
5593 Clear 18 1010 75 0 11.78 274.01 15:55 01.07.2019
5594 Clear 18 1010 75 0 11.78 274.01 15:36 01.07.2019
5595 Rain 19 1011 77 0 8.59 258.141 15:18 01.07.2019
5596 Rain 19 1011 77 0 8.59 258.141 14:42 01.07.2019
5597 Rain 22 1015 55 0 0.45 292 14:19 01.07.2019
5598 Rain 23 1015 54 0 8.59 258.141 13:42 01.07.2019
5599 Rain 23 1015 54 0 9.42 259.203 13:22 01.07.2019
5600 Rain 25 1015 50 0 9.42 259.203 12:49 01.07.2019
5601 Rain 19 1010 79 0 9.42 259.203 12:30 01.07.2019
5602 Clear 23 1015 53 0 1.34 292 11:59 01.07.2019
5603 Clear 23 1015 55 0 0.89 270 11:39 01.07.2019
5604 Clear 23 1016 53 0 0.45 315 11:19 01.07.2019
5605 Clear 23 1016 55 0 1.79 292 10:47 01.07.2019
5606 Clear 22 1016 59 0 1.34 0 10:23 01.07.2019
5607 Clear 21 1016 66 0 0.89 247 09:45 01.07.2019
5608 Clear 21 1016 66 0 0.89 247 09:45 01.07.2019
5609 Clear 21 1016 66 0 0.89 247 09:27 01.07.2019
5610 Clear 19 1016 69 0 0.89 315 08:59 01.07.2019
5611 Clear 19 1016 70 0 0.89 292 08:37 01.07.2019
5612 Clear 17 1016 81 0 0.45 270 07:39 01.07.2019
5613 Clear 16 1016 84 0 9.13 245.452 06:52 01.07.2019
5614 Clear 15 1016 85 0 0.45 247 05:39 01.07.2019
5615 Clouds 17 1016 79 0 1.34 292 01:28 01.07.2019
5616 Clouds 18 1015 77 0 1.79 315 00:46 01.07.2019
5617 Clouds 18 1015 77 0 0.89 292 00:24 01.07.2019
5618 Clouds 19 1015 75 0 1.79 315 23:40 30.06.2019
5619 Clouds 19 1015 72 0 2.24 315 23:20 30.06.2019
5620 Clouds 19 1015 71 0 0.89 292 22:43 30.06.2019
5621 Clouds 21 1014 71 0 1.79 292 22:20 30.06.2019
5622 Clouds 21 1014 68 0 1.79 292 21:42 30.06.2019
5623 Clear 22 1013 65 0 0.89 292 21:20 30.06.2019
5624 Clear 23 1013 64 0 2.68 315 20:55 30.06.2019
5625 Clouds 23 1013 61 0 1.79 292 20:37 30.06.2019
5626 Clouds 25 1013 53 0 1.34 315 20:18 30.06.2019
5627 Clouds 20 1009 83 0 11.11 277.649 19:44 30.06.2019
5628 Clouds 20 1009 83 0 11.11 277.649 19:24 30.06.2019
5629 Clouds 32 1012 49 0 1.34 292 18:26 30.06.2019
5630 Clear 23 1008 70 0 9.88 274.301 17:59 30.06.2019
5631 Clear 23 1008 70 0 9.88 274.301 17:39 30.06.2019
5632 Clear 23 1008 70 0 9.88 274.301 17:18 30.06.2019
5633 Clear 23 1008 70 0 9.88 274.301 16:49 30.06.2019
5634 Clear 23 1008 70 0 9.88 274.301 16:27 30.06.2019
5635 Clear 23 1008 70 0 9.88 274.301 15:38 30.06.2019
5636 Clear 25 1009 60 0 7.15 220.918 15:19 30.06.2019
5637 Clear 25 1009 60 0 7.15 220.918 14:54 30.06.2019
5638 Clear 25 1009 60 0 7.15 220.918 14:35 30.06.2019
5639 Clear 36 1012 32 0 7.15 220.918 13:57 30.06.2019
5640 Clear 35 1012 32 0 7.15 220.918 13:37 30.06.2019
5641 Clear 34 1012 32 0 0.89 180 13:18 30.06.2019
5642 Clear 34 1013 35 0 7.17 223.514 12:42 30.06.2019
5643 Clear 22 1011 72 0 5.74 203.584 12:20 30.06.2019
5644 Clear 22 1011 72 0 5.74 203.584 11:45 30.06.2019
5645 Clear 31 1014 44 0 0.45 202 11:21 30.06.2019
5646 Clear 31 1014 44 0 0.45 202 11:21 30.06.2019
5647 Clear 30 1014 47 0 0.45 180 10:55 30.06.2019
5648 Clear 29 1014 48 0 0.45 180 10:36 30.06.2019
5649 Clear 28 1015 53 0 0.45 180 10:18 30.06.2019
5650 Clear 27 1015 58 0 0.45 180 09:43 30.06.2019
5651 Clear 26 1015 60 0 0.45 157 09:22 30.06.2019
5652 Clear 23 1015 67 0 4.93 196.673 08:42 30.06.2019
5653 Clear 22 1015 69 0 0.45 180 08:23 30.06.2019
5654 Clear 20 1016 73 0 4.93 196.673 07:54 30.06.2019
5655 Clear 18 1016 75 0 4.93 196.673 07:27 30.06.2019
5656 Clear 17 1016 74 0 4.93 196.673 06:40 30.06.2019
5657 Clear 14 1017 71 0 5.09 199.233 04:56 30.06.2019
5658 Clear 16 1018 68 0 3.57 207.807 02:50 30.06.2019
5659 Clear 16 1019 66 0 3.62 210.399 01:27 30.06.2019
5660 Clear 17 1019 63 0 3.26 253.873 00:26 30.06.2019
5661 Clear 18 1019 62 0 3.26 253.873 23:53 29.06.2019
5662 Clear 18 1019 61 0 3.26 253.873 23:24 29.06.2019
5663 Clear 19 1020 60 0 3.26 253.873 22:56 29.06.2019
5664 Clear 19 1020 59 0 3.26 253.873 22:37 29.06.2019
5665 Clear 21 1020 58 0 3.26 253.873 22:18 29.06.2019
5666 Clear 19 1017 71 0 3.47 248.914 21:41 29.06.2019
5667 Clear 23 1020 55 0 4.84 261.329 21:22 29.06.2019
5668 Clear 26 1020 53 0 4.84 261.329 20:41 29.06.2019
5669 Clear 26 1020 51 0 4.84 261.329 20:22 29.06.2019
5670 Clear 19 1017 72 0 4.84 261.329 19:48 29.06.2019
5671 Clear 19 1017 72 0 4.84 261.329 19:23 29.06.2019
5672 Clear 19 1017 72 0 4.84 261.329 18:51 29.06.2019
5673 Clear 19 1018 75 0 6.83 265.431 18:26 29.06.2019
5674 Clear 19 1018 75 0 6.83 265.431 17:42 29.06.2019
5675 Clear 19 1018 75 0 6.83 265.431 17:23 29.06.2019
5676 Clear 19 1018 75 0 6.83 265.431 16:58 29.06.2019
5677 Clear 19 1018 75 0 6.83 265.431 16:36 29.06.2019
5678 Clear 19 1018 75 0 6.83 265.431 15:50 29.06.2019
5679 Clear 19 1018 75 0 6.83 265.431 15:30 29.06.2019
5680 Clear 18 1019 77 0 7.38 263.519 14:44 29.06.2019
5681 Clear 18 1019 77 0 7.38 263.519 14:25 29.06.2019
5682 Clear 28 1023 44 0 0.89 315 13:47 29.06.2019
5683 Clear 27 1023 44 0 0.89 315 13:27 29.06.2019
5684 Clear 27 1023 47 0 7.55 261.857 12:53 29.06.2019
5685 Clear 18 1019 77 0 7.55 261.857 12:34 29.06.2019
5686 Clouds 17 1020 81 0 7.59 261.593 11:55 29.06.2019
5687 Clouds 17 1020 81 0 7.59 261.593 11:37 29.06.2019
5688 Clouds 24 1024 59 0 7.59 261.593 11:19 29.06.2019
5689 Clouds 23 1024 60 0 7.59 261.593 10:39 29.06.2019
5690 Clouds 23 1024 63 0 0.89 337 10:20 29.06.2019
5691 Clouds 21 1024 68 0 7.59 261.593 09:45 29.06.2019
5692 Clouds 19 1025 74 0 6.57 263.116 08:54 29.06.2019
5693 Clouds 18 1025 79 0 6.66 261.584 08:25 29.06.2019
5694 Clouds 16 1025 80 0 6.66 261.584 07:44 29.06.2019
5695 Clouds 14 1025 79 0 6.66 261.584 06:47 29.06.2019
5696 Clouds 13 1025 78 0 5.58 252.013 06:24 29.06.2019
5697 Clouds 12 1026 74 0 4.25 269.852 03:25 29.06.2019
5698 Clouds 14 1026 71 0 4.48 263.482 01:32 29.06.2019
5699 Clouds 14 1026 70 0 4.48 263.482 00:32 29.06.2019
5700 Clouds 16 1026 69 0 4.4 262.321 23:38 28.06.2019
5701 Clouds 16 1026 68 0 4.4 262.321 23:20 28.06.2019
5702 Clouds 17 1026 68 0 4.4 262.321 22:46 28.06.2019
5703 Clouds 19 1026 62 0 4.4 262.321 21:59 28.06.2019
5704 Clouds 19 1026 61 0 4.4 262.321 21:37 28.06.2019
5705 Clear 21 1026 58 0 4.58 270.25 21:18 28.06.2019
5706 Clear 22 1026 55 0 4.85 270.579 20:40 28.06.2019
5707 Clear 23 1026 50 0 4.85 270.579 20:19 28.06.2019
5708 Clear 17 1022 78 0 4.85 270.579 19:38 28.06.2019
5709 Clear 17 1022 78 0 4.85 270.579 19:20 28.06.2019
5710 Clear 23 1026 48 0 0.45 22 18:41 28.06.2019
5711 Clear 23 1026 48 0 1.79 22 18:21 28.06.2019
5712 Clear 24 1027 48 0 6.13 281.928 17:44 28.06.2019
5713 Clear 24 1027 50 0 0.45 0 17:25 28.06.2019
5714 Clear 24 1026 54 0 6.13 281.928 16:46 28.06.2019
5715 Clear 24 1027 52 0 0.89 22 16:19 28.06.2019
5716 Clear 24 1027 54 0 6.13 281.928 15:44 28.06.2019
5717 Clouds 24 1027 56 0 0.89 22 15:18 28.06.2019
5718 Clouds 24 1027 57 0 0.89 315 14:40 28.06.2019
5719 Clouds 23 1027 57 0 0.89 0 14:21 28.06.2019
5720 Clouds 23 1027 62 0 0.89 0 13:47 28.06.2019
5721 Clouds 22 1027 65 0 1.34 315 13:28 28.06.2019
5722 Clouds 22 1027 67 0 1.34 315 12:52 28.06.2019
5723 Clouds 22 1026 69 0 0.89 292 12:33 28.06.2019
5724 Clear 21 1027 71 0 0.89 315 11:44 28.06.2019
5725 Clear 20 1026 76 0 0.89 315 11:19 28.06.2019
5726 Clear 19 1026 78 0 1.34 270 10:42 28.06.2019
5727 Clear 18 1026 82 0 3.93 320.482 10:19 28.06.2019
5728 Clear 18 1026 83 0 3.93 320.482 09:46 28.06.2019
5729 Clear 18 1026 83 0 0.89 315 09:28 28.06.2019
5730 Clear 17 1026 86 0 0.89 292 08:43 28.06.2019
5731 Clear 17 1026 87 0 0.89 292 08:24 28.06.2019
5732 Clear 16 1026 89 0 1.34 315 07:43 28.06.2019
5733 Clear 15 1026 91 0 1.79 292 06:54 28.06.2019
5734 Clear 13 1026 90 0 0.45 315 04:35 28.06.2019
5735 Clear 14 1026 86 0 0.45 292 00:48 28.06.2019
5736 Clear 14 1026 86 0 7.94 299.353 00:22 28.06.2019
5737 Clear 14 1026 83 0 7.94 299.353 23:46 27.06.2019
5738 Clear 14 1026 83 0 7.94 299.353 23:25 27.06.2019
5739 Clear 15 1026 82 0 0.89 292 22:44 27.06.2019
5740 Clear 16 1026 82 0 0.45 292 22:25 27.06.2019
5741 Clear 16 1026 79 0 1.34 292 21:58 27.06.2019
5742 Clear 16 1026 78 0 0.89 292 21:40 27.06.2019
5743 Clouds 17 1026 77 0 0.45 292 21:20 27.06.2019
5744 Clouds 18 1025 73 0 1.34 315 20:49 27.06.2019
5745 Clouds 18 1025 71 0 1.34 292 20:31 27.06.2019
5746 Clouds 19 1025 69 0 1.79 315 19:57 27.06.2019
5747 Clouds 19 1025 68 0 1.34 315 19:39 27.06.2019
5748 Clouds 20 1025 66 0 1.79 292 19:21 27.06.2019
5749 Clouds 19 1025 69 0 1.79 337 18:41 27.06.2019
5750 Clouds 19 1025 69 0 1.34 315 18:19 27.06.2019
5751 Clouds 19 1025 69 0 0.89 315 17:39 27.06.2019
5752 Clouds 19 1025 68 0 1.34 315 17:21 27.06.2019
5753 Clouds 19 1025 66 0 1.34 315 16:39 27.06.2019
5754 Clouds 19 1025 65 0 1.34 292 16:19 27.06.2019
5755 Clouds 20 1025 64 0 1.34 292 15:50 27.06.2019
5756 Clouds 20 1025 64 0 1.79 292 15:30 27.06.2019
5757 Clouds 20 1025 64 0 1.79 315 14:52 27.06.2019
5758 Clouds 20 1026 63 0 1.79 22 14:31 27.06.2019
5759 Clouds 21 1026 61 0 2.24 292 13:57 27.06.2019
5760 Clouds 20 1026 62 0 1.79 270 13:38 27.06.2019
5761 Clouds 19 1026 62 0 0.89 292 13:20 27.06.2019
5762 Clouds 20 1026 63 0 2.68 315 12:41 27.06.2019
5763 Clouds 19 1026 62 0 0.89 315 12:23 27.06.2019
5764 Clouds 18 1026 66 0 0.89 292 11:44 27.06.2019
5765 Clouds 18 1026 65 0 0.89 22 11:21 27.06.2019
5766 Clouds 18 1026 68 0 1.34 337 10:56 27.06.2019
5767 Clouds 18 1026 68 0 1.79 292 10:36 27.06.2019
5768 Clouds 17 1026 71 0 1.34 315 10:18 27.06.2019
5769 Clouds 17 1026 71 0 1.34 315 10:18 27.06.2019
5770 Clouds 16 1025 72 0 0.45 292 09:38 27.06.2019
5771 Clouds 16 1025 70 0 0.89 315 09:20 27.06.2019
5772 Clear 15 1025 74 0 3.13 292 08:46 27.06.2019
5773 Clear 15 1025 74 0 3.13 292 08:46 27.06.2019
5774 Clear 15 1025 74 0 3.13 292 08:46 27.06.2019
5775 Clear 14 1025 74 0 1.34 0 08:26 27.06.2019
5776 Clear 14 1025 74 0 2.24 315 07:44 27.06.2019
5777 Clear 14 1025 77 0 2.24 315 06:57 27.06.2019
5778 Clear 14 1025 78 0 2.24 292 06:30 27.06.2019
5779 Clear 16 1024 76 0 2.24 315 03:51 27.06.2019
5780 Clouds 17 1024 76 0 1.79 315 02:42 27.06.2019
5781 Clouds 18 1024 77 0 1.79 292 01:26 27.06.2019
5782 Clouds 18 1023 79 0 1.34 292 00:49 27.06.2019
5783 Clouds 18 1023 80 0 0.89 270 00:26 27.06.2019
5784 Clouds 18 1023 80 0 0.89 270 00:26 27.06.2019
5785 Clouds 18 1023 80 0 1.79 315 23:50 26.06.2019
5786 Clouds 18 1023 79 0 2.68 337 23:23 26.06.2019
5787 Clouds 18 1023 80 0 3.58 292 22:58 26.06.2019
5788 Clouds 19 1023 80 0 2.24 315 22:39 26.06.2019
5789 Clouds 20 1023 76 0 2.24 292 22:19 26.06.2019
5790 Clouds 20 1023 76 0 2.24 292 22:19 26.06.2019
5791 Clouds 22 1022 73 0 2.68 292 21:42 26.06.2019
5792 Clouds 22 1022 73 0 1.79 270 21:21 26.06.2019
5793 Clouds 23 1022 70 0 1.34 292 20:57 26.06.2019
5794 Clouds 23 1022 69 0 2.24 315 20:37 26.06.2019
5795 Clouds 24 1022 64 0 1.79 292 20:19 26.06.2019
5796 Clouds 19 1019 87 0 7.39 315.313 19:42 26.06.2019
5797 Clouds 19 1019 87 0 7.39 315.313 19:23 26.06.2019
5798 Clouds 19 1019 87 0 7.39 315.313 18:46 26.06.2019
5799 Clear 28 1021 55 0 2.24 315 18:23 26.06.2019
5800 Clear 29 1021 52 0 2.24 315 17:57 26.06.2019
5801 Clear 29 1021 51 0 2.68 292 17:38 26.06.2019
5802 Clear 29 1021 53 0 2.68 315 17:19 26.06.2019
5803 Clear 21 1018 83 0 10.07 270.347 16:46 26.06.2019
5804 Clear 21 1018 83 0 10.07 270.347 16:22 26.06.2019
5805 Clear 21 1018 83 0 10.07 270.347 15:40 26.06.2019
5806 Clouds 32 1020 51 0 2.24 292 15:22 26.06.2019
5807 Clouds 21 1018 83 0 8.04 259.973 14:38 26.06.2019
5808 Clouds 21 1018 83 0 8.04 259.973 14:19 26.06.2019
5809 Clouds 34 1020 44 0 0.89 292 13:43 26.06.2019
5810 Clouds 34 1020 44 0 7.94 258.799 13:20 26.06.2019
5811 Clouds 33 1021 45 0 7.94 258.799 12:42 26.06.2019
5812 Clouds 22 1017 80 0 5.89 264.137 12:23 26.06.2019
5813 Clouds 22 1017 80 0 5.89 264.137 11:49 26.06.2019
5814 Clouds 22 1017 80 0 5.89 264.137 11:21 26.06.2019
5815 Clouds 30 1021 55 0 5.89 264.137 10:46 26.06.2019
5816 Clouds 29 1021 56 0 5.89 264.137 10:27 26.06.2019
5817 Clouds 28 1021 60 0 0.45 292 09:49 26.06.2019
5818 Clouds 21 1018 78 0 4.46 234.768 09:24 26.06.2019
5819 Clouds 26 1021 72 0 4.46 234.768 08:49 26.06.2019
5820 Clouds 24 1021 74 0 4.27 239.747 08:20 26.06.2019
5821 Clouds 23 1021 75 0 4.27 239.747 07:52 26.06.2019
5822 Clouds 22 1021 76 0 4.27 239.747 07:34 26.06.2019
5823 Clouds 20 1021 76 0 4.27 239.747 06:32 26.06.2019
5824 Clouds 21 1023 65 0 4.17 173.582 01:31 26.06.2019
5825 Clouds 21 1023 63 0 4.17 173.582 00:26 26.06.2019
5826 Clouds 22 1023 62 0 0.45 135 23:48 25.06.2019
5827 Clouds 22 1023 62 0 4.9 129.63 23:29 25.06.2019
5828 Clouds 22 1023 62 0 0.45 135 22:59 25.06.2019
5829 Clouds 22 1024 61 0 0.89 135 22:40 25.06.2019
5830 Clouds 22 1024 61 0 0.89 135 22:21 25.06.2019
5831 Clouds 23 1024 57 0 0.45 135 21:46 25.06.2019
5832 Clouds 24 1024 57 0 0.89 135 21:24 25.06.2019
5833 Clouds 26 1024 54 0 0.45 135 20:48 25.06.2019
5834 Clouds 26 1024 54 0 0.45 135 20:48 25.06.2019
5835 Clouds 26 1024 54 0 0.45 135 20:48 25.06.2019
5836 Clouds 26 1024 54 0 0.45 135 20:48 25.06.2019
5837 Clouds 26 1024 52 0 0.45 135 20:24 25.06.2019
5838 Clouds 28 1024 48 0 0.45 135 19:56 25.06.2019
5839 Clouds 28 1024 48 0 0.45 135 19:56 25.06.2019
5840 Clouds 23 1021 74 0 5.67 122.782 19:37 25.06.2019
5841 Clouds 23 1021 74 0 5.67 122.782 19:19 25.06.2019
5842 Clouds 23 1021 74 0 5.67 122.782 18:41 25.06.2019
5843 Clouds 24 1022 70 0 5.16 139.016 18:23 25.06.2019
5844 -273 0 0 0 0 0 17:44 25.06.2019
5845 Clouds 24 1022 70 0 5.16 139.016 17:23 25.06.2019
5846 Clouds 24 1022 70 0 5.16 139.016 17:22 25.06.2019
5847 Clouds 24 1022 70 0 5.16 139.016 17:22 25.06.2019
5848 Clouds 24 1022 70 0 5.16 139.016 17:22 25.06.2019
5849 Clouds 24 1022 70 0 5.16 139.016 16:43 25.06.2019
5850 Clouds 24 1022 70 0 5.16 139.016 16:25 25.06.2019
5851 Clouds 24 1022 70 0 5.16 139.016 15:43 25.06.2019
5852 Clouds 23 1023 70 0 5.25 143.399 15:25 25.06.2019
5853 Clouds 23 1023 70 0 5.25 143.399 14:57 25.06.2019
5854 Clouds 23 1023 70 0 5.25 143.399 14:38 25.06.2019
5855 Clouds 23 1023 70 0 5.25 143.399 14:20 25.06.2019
5856 Clouds 23 1023 70 0 5.25 143.399 13:41 25.06.2019
5857 Clouds 32 1026 49 0 1.34 157 13:19 25.06.2019
5858 Clouds 32 1026 50 0 0.89 157 12:41 25.06.2019
5859 Clouds 21 1024 81 0 5.33 139.483 12:23 25.06.2019
5860 Clouds 21 1024 81 0 5.33 139.483 11:44 25.06.2019
5861 Clouds 21 1024 81 0 5.33 139.483 11:23 25.06.2019
5862 Clouds 28 1026 59 0 1.34 180 10:55 25.06.2019
5863 Clouds 28 1026 60 0 0.45 135 10:36 25.06.2019
5864 Clouds 26 1026 63 0 0.89 135 10:18 25.06.2019
5865 Clouds 25 1027 66 0 1.34 135 09:39 25.06.2019
5866 Clouds 24 1026 67 0 0.89 180 09:21 25.06.2019
5867 Clouds 23 1027 72 0 0.89 135 08:50 25.06.2019
5868 Clouds 22 1027 74 0 0.89 157 08:30 25.06.2019
5869 Clouds 19 1027 78 0 0.89 157 07:43 25.06.2019
5870 Clouds 19 1027 79 0 0.89 157 07:24 25.06.2019
5871 Clouds 18 1027 80 0 0.89 135 06:44 25.06.2019
5872 Clouds 17 1027 81 0 0.45 135 05:48 25.06.2019
5873 Clouds 17 1027 80 0 5.78 108.639 02:37 25.06.2019
5874 Clouds 18 1028 76 0 5.87 115.932 00:38 25.06.2019
5875 Clouds 18 1028 75 0 7.2 107.934 00:19 25.06.2019
5876 Clouds 18 1028 74 0 7.2 107.934 23:51 24.06.2019
5877 Clouds 18 1028 72 0 7.2 107.934 23:32 24.06.2019
5878 Clouds 18 1029 68 0 7.2 107.934 22:48 24.06.2019
5879 Clouds 19 1028 67 0 7.2 107.934 22:21 24.06.2019
5880 Clouds 19 1028 66 0 7.2 107.934 21:57 24.06.2019
5881 Clouds 20 1028 64 0 7.2 107.934 21:37 24.06.2019
5882 Clouds 21 1028 60 0 7.71 94.287 21:18 24.06.2019
5883 Clouds 22 1028 55 0 7.65 92.735 20:43 24.06.2019
5884 Clouds 23 1028 51 0 7.65 92.735 20:23 24.06.2019
5885 Clouds 18 1026 73 0 7.65 92.735 19:57 24.06.2019
5886 Clouds 18 1026 73 0 7.65 92.735 19:39 24.06.2019
5887 Clouds 18 1026 73 0 7.65 92.735 19:21 24.06.2019
5888 Clouds 18 1026 73 0 7.65 92.735 18:41 24.06.2019
5889 Clouds 19 1026 71 0 7.03 96.432 18:20 24.06.2019
5890 Clouds 19 1026 71 0 7.03 96.432 17:37 24.06.2019
5891 Clouds 19 1026 71 0 7.03 96.432 17:37 24.06.2019
5892 Clouds 19 1026 71 0 7.03 96.432 17:18 24.06.2019
5893 Clouds 19 1026 71 0 7.03 96.432 16:44 24.06.2019
5894 Clouds 19 1026 71 0 7.03 96.432 16:19 24.06.2019
5895 Clouds 19 1026 71 0 7.03 96.432 15:44 24.06.2019
5896 Clouds 19 1027 71 0 6.38 96.606 15:25 24.06.2019
5897 Clouds 19 1027 71 0 6.38 96.606 14:39 24.06.2019
5898 Clouds 19 1027 71 0 6.38 96.606 14:20 24.06.2019
5899 Clouds 19 1027 71 0 6.38 96.606 13:35 24.06.2019
5900 Clouds 19 1027 71 0 6.59 98.493 12:59 24.06.2019
5901 Clouds 19 1027 71 0 6.59 98.493 12:41 24.06.2019
5902 Clouds 18 1027 79 0 5.94 90.81 12:20 24.06.2019
5903 Clouds 18 1027 79 0 5.94 90.81 11:45 24.06.2019
5904 Clouds 18 1027 79 0 5.94 90.81 11:27 24.06.2019
5905 Clouds 25 1029 63 0 5.94 90.81 10:53 24.06.2019
5906 Clouds 24 1029 65 0 0.45 135 10:34 24.06.2019
5907 Clouds 23 1029 66 0 0.45 135 09:57 24.06.2019
5908 Clouds 22 1029 69 0 0.45 135 09:39 24.06.2019
5909 Clouds 21 1029 73 0 5.04 86.36 09:18 24.06.2019
5910 Clouds 19 1029 80 0 0.45 135 08:36 24.06.2019
5911 Clouds 18 1029 83 0 5.41 86.311 07:59 24.06.2019
5912 Clouds 18 1029 84 0 5.41 86.311 07:40 24.06.2019
5913 Clouds 17 1029 85 0 5.41 86.311 07:21 24.06.2019
5914 Clouds 16 1029 84 0 4.95 84.194 06:23 24.06.2019
5915 Clouds 14 1029 82 0 4.95 84.194 05:41 24.06.2019
5916 Clouds 13 1029 79 0 4.95 84.194 04:43 24.06.2019
5917 Clouds 13 1029 79 0 4.95 84.194 03:48 24.06.2019
5918 Clouds 14 1029 78 0 4.63 83.561 02:48 24.06.2019
5919 Clouds 14 1029 76 0 4.63 83.561 01:55 24.06.2019
5920 Clouds 14 1029 76 0 4.25 79.007 01:33 24.06.2019
5921 Clouds 15 1029 76 0 4.25 79.007 00:55 24.06.2019
5922 Clouds 15 1028 74 0 3.7 95.814 00:21 24.06.2019
5923 Clouds 15 1028 73 0 3.7 95.814 23:56 23.06.2019
5924 Clouds 15 1028 72 0 3.7 95.814 23:37 23.06.2019
5925 Clouds 16 1028 70 0 3.7 95.814 23:18 23.06.2019
5926 Clouds 16 1028 69 0 3.7 95.814 22:41 23.06.2019
5927 Clouds 17 1028 66 0 3.7 95.814 22:20 23.06.2019
5928 Clouds 18 1028 63 0 3.7 95.814 21:42 23.06.2019
5929 Clouds 18 1028 62 0 4.05 74.432 21:22 23.06.2019
5930 Clouds 20 1027 59 0 4.05 74.432 20:51 23.06.2019
5931 Clouds 21 1027 57 0 4.03 71.511 20:32 23.06.2019
5932 Clouds 17 1024 70 0 4.03 71.511 19:56 23.06.2019
5933 Clouds 17 1024 70 0 4.03 71.511 19:38 23.06.2019
5934 Clouds 17 1024 70 0 4.03 71.511 19:19 23.06.2019
5935 Clouds 17 1024 70 0 4.03 71.511 18:44 23.06.2019
5936 Clouds 22 1027 53 0 5.39 70.153 18:20 23.06.2019
5937 Clouds 22 1027 52 0 5.39 70.153 17:42 23.06.2019
5938 Clouds 21 1028 54 0 0.45 45 17:22 23.06.2019
5939 Clouds 22 1028 54 0 0.89 67 16:45 23.06.2019
5940 Clouds 22 1028 53 0 0.89 22 16:25 23.06.2019
5941 Clouds 22 1028 52 0 0.45 45 15:55 23.06.2019
5942 Clouds 22 1028 52 0 0.89 45 15:37 23.06.2019
5943 Clouds 22 1028 51 0 5.88 61.619 15:18 23.06.2019
5944 Clouds 22 1028 53 0 0.45 22 14:38 23.06.2019
5945 Clouds 21 1028 56 0 1.79 45 14:20 23.06.2019
5946 Clouds 21 1028 57 0 5.88 61.619 13:43 23.06.2019
5947 Clouds 22 1028 54 0 5.86 57.455 13:21 23.06.2019
5948 Clouds 22 1028 57 0 5.86 57.455 12:59 23.06.2019
5949 Clouds 22 1028 57 0 0.45 22 12:40 23.06.2019
5950 Clouds 21 1028 58 0 4.81 69.004 12:19 23.06.2019
5951 Clouds 21 1028 58 0 4.81 69.004 12:19 23.06.2019
5952 Clouds 21 1028 61 0 0.45 22 11:46 23.06.2019
5953 Clouds 21 1028 60 0 4.81 69.004 11:27 23.06.2019
5954 Clouds 19 1028 61 0 0.45 45 10:49 23.06.2019
5955 Clouds 19 1028 62 0 4.81 69.004 10:21 23.06.2019
5956 Clouds 19 1028 62 0 4.81 69.004 09:58 23.06.2019
5957 Clouds 19 1028 63 0 0.45 45 09:24 23.06.2019
5958 Clouds 18 1028 64 0 0.89 45 08:55 23.06.2019
5959 Clouds 18 1028 66 0 4.49 76.882 08:36 23.06.2019
5960 Clouds 17 1028 69 0 4.81 68.444 08:18 23.06.2019
5961 Clouds 16 1028 75 0 4.81 68.444 07:45 23.06.2019
5962 Clouds 15 1028 78 0 4.81 68.444 07:19 23.06.2019
5963 Clouds 14 1028 78 0 4.81 68.444 06:52 23.06.2019
5964 Clear 12 1028 76 0 4.95 63.632 05:53 23.06.2019
5965 Clear 13 1027 73 0 3.7 64.544 02:52 23.06.2019
5966 Clear 13 1027 71 0 3.7 64.544 01:43 23.06.2019
5967 Clear 13 1027 71 0 3.97 53.681 01:24 23.06.2019
5968 Clear 14 1027 69 0 3.97 53.681 00:34 23.06.2019
5969 Clear 14 1027 68 0 3 73.445 23:52 22.06.2019
5970 Clear 14 1027 66 0 3 73.445 23:26 22.06.2019
5971 Clear 15 1027 63 0 3 73.445 22:47 22.06.2019
5972 Clear 16 1027 62 0 3 73.445 22:29 22.06.2019
5973 Clear 16 1027 59 0 3 73.445 21:59 22.06.2019
5974 Clear 17 1027 57 0 3 73.445 21:36 22.06.2019
5975 Clouds 17 1027 57 0 2.93 40.905 21:18 22.06.2019
5976 Clouds 18 1027 55 0 3.25 34.937 20:46 22.06.2019
5977 Clouds 19 1027 56 0 3.25 34.937 20:25 22.06.2019
5978 Clouds 16 1024 59 0 3.25 34.937 19:44 22.06.2019
5979 Clouds 16 1024 59 0 3.25 34.937 19:22 22.06.2019
5980 Clouds 16 1024 59 0 3.25 34.937 18:47 22.06.2019
5981 Clouds 21 1027 55 0 3.25 34.937 18:29 22.06.2019
5982 Clear 21 1027 57 0 3.24 15.595 17:52 22.06.2019
5983 Clear 21 1027 57 0 0.45 45 17:31 22.06.2019
5984 Clear 21 1027 57 0 3.24 15.595 16:50 22.06.2019
5985 Clear 21 1027 57 0 3.24 15.595 16:24 22.06.2019
5986 Clear 21 1028 57 0 3.24 15.595 15:55 22.06.2019
5987 Clear 21 1027 58 0 3.24 15.595 15:34 22.06.2019
5988 Clear 21 1028 55 0 2.61 353.524 14:58 22.06.2019
5989 Clear 21 1028 58 0 0.45 22 14:34 22.06.2019
5990 Clear 20 1028 60 0 0.45 22 13:59 22.06.2019
5991 Clear 20 1028 58 0 0.45 45 13:40 22.06.2019
5992 Clear 21 1028 57 0 0.45 45 13:19 22.06.2019
5993 Clear 21 1028 57 0 0.45 0 12:50 22.06.2019
5994 Clear 15 1025 62 0 2.34 348.085 12:31 22.06.2019
5995 Clear 20 1028 55 0 0.45 22 11:58 22.06.2019
5996 Clear 19 1028 56 0 0.89 45 11:32 22.06.2019
5997 Clear 19 1028 60 0 3.25 347.596 10:49 22.06.2019
5998 Clear 19 1028 60 0 3.25 347.596 10:21 22.06.2019
5999 Clear 18 1028 62 0 0.45 22 09:49 22.06.2019
6000 Clear 18 1028 64 0 0.89 45 09:22 22.06.2019
6001 Clear 17 1027 67 0 4.52 319.587 08:42 22.06.2019
6002 Clear 17 1027 68 0 0.45 22 08:22 22.06.2019
6003 Clear 16 1027 74 0 0.45 45 07:31 22.06.2019
6004 Clear 16 1026 76 0 4.52 319.587 06:47 22.06.2019
6005 Clear 14 1026 79 0 5.3 309.405 05:22 22.06.2019
6006 Clear 14 1025 76 0 5.45 309.733 02:33 22.06.2019
6007 Clear 14 1025 75 0 5.81 304.93 01:19 22.06.2019
6008 Clear 15 1024 74 0 5.81 304.93 00:41 22.06.2019
6009 Clear 16 1024 74 0 6 309.133 00:22 22.06.2019
6010 Clear 16 1024 73 0 6 309.133 23:44 21.06.2019
6011 Clear 16 1023 73 0 6 309.133 23:22 21.06.2019
6012 Clear 17 1023 70 0 6 309.133 22:50 21.06.2019
6013 Clear 17 1023 68 0 6 309.133 22:24 21.06.2019
6014 Clear 18 1023 67 0 0.89 315 21:55 21.06.2019
6015 Clear 19 1022 65 0 6 309.133 21:36 21.06.2019
6016 Clouds 19 1022 64 0 6.16 279.808 21:18 21.06.2019
6017 Clouds 20 1022 63 0 6.17 271.905 20:42 21.06.2019
6018 Clouds 17 1018 76 0 6.17 271.905 20:20 21.06.2019
6019 Clouds 17 1018 76 0 6.17 271.905 19:34 21.06.2019
6020 Clouds 17 1018 76 0 6.17 271.905 18:49 21.06.2019
6021 Clouds 17 1018 76 0 6.17 271.905 18:30 21.06.2019
6022 Clouds 22 1021 59 0 0.45 45 17:46 21.06.2019
6023 Clouds 17 1017 74 0 4.9 269.391 17:28 21.06.2019
6024 Clouds 23 1020 61 0 0.89 45 16:41 21.06.2019
6025 Clouds 23 1020 58 0 4.9 269.391 16:22 21.06.2019
6026 Clouds 17 1017 74 0 4.9 269.391 15:43 21.06.2019
6027 Clouds 16 1017 77 0 6.1 274.551 15:23 21.06.2019
6028 Clouds 16 1017 77 0 6.1 274.551 14:52 21.06.2019
6029 Clouds 16 1017 77 0 6.1 274.551 14:31 21.06.2019
6030 Clouds 23 1020 66 0 0.45 315 13:57 21.06.2019
6031 Clouds 22 1020 68 0 0.45 292 13:36 21.06.2019
6032 Clouds 21 1020 73 0 0.45 292 13:18 21.06.2019
6033 Clouds 21 1020 73 0 5.38 276.061 12:39 21.06.2019
6034 Clouds 20 1020 76 0 1.34 315 12:18 21.06.2019
6035 Clouds 16 1016 83 0 5.05 297.037 11:47 21.06.2019
6036 Clouds 20 1020 79 0 5.05 297.037 11:26 21.06.2019
6037 Clouds 19 1019 79 0 0.45 315 10:52 21.06.2019
6038 Clouds 19 1019 85 0 0.45 315 10:23 21.06.2019
6039 Clouds 18 1019 86 0 0.45 292 09:59 21.06.2019
6040 Clouds 18 1019 86 0 0.45 292 09:40 21.06.2019
6041 Rain 18 1019 85 0 0.89 292 09:19 21.06.2019
6042 Rain 18 1018 87 0 0.45 292 08:43 21.06.2019
6043 Clouds 18 1018 88 0 0.45 292 08:24 21.06.2019
6044 Clouds 18 1018 87 0 4.22 301.078 07:54 21.06.2019
6045 Clouds 17 1018 87 0 4.22 301.078 07:36 21.06.2019
6046 Clouds 17 1018 86 0 4.22 301.078 06:54 21.06.2019
6047 Clouds 17 1017 85 0 2.59 287.33 06:23 21.06.2019
6048 Clouds 17 1017 83 0 2.59 287.33 05:30 21.06.2019
6049 Clouds 16 1017 82 0 2.59 287.33 04:30 21.06.2019
6050 Clouds 16 1016 81 0 2.59 287.33 03:34 21.06.2019
6051 Clouds 16 1017 81 0 3.4 281.227 02:53 21.06.2019
6052 Clouds 16 1016 79 0 3.4 281.227 01:56 21.06.2019
6053 Clouds 17 1016 78 0 3.88 292.857 00:58 21.06.2019
6054 Clouds 18 1016 78 0 3.88 292.857 00:27 21.06.2019
6055 Clear 18 1016 78 0 4.6 280.161 23:53 20.06.2019
6056 Clear 18 1016 77 0 4.6 280.161 23:24 20.06.2019
6057 Clear 18 1016 77 0 4.6 280.161 22:58 20.06.2019
6058 Clear 19 1015 76 0 4.6 280.161 22:39 20.06.2019
6059 Clear 19 1016 75 0 4.6 280.161 22:21 20.06.2019
6060 Clear 20 1016 74 0 4.6 280.161 21:52 20.06.2019
6061 Clouds 21 1015 73 0 6.08 277.399 21:19 20.06.2019
6062 Clouds 21 1015 72 0 6.08 277.399 20:59 20.06.2019
6063 Clouds 21 1014 71 0 6.01 275.907 20:40 20.06.2019
6064 Clouds 22 1014 69 0 6.01 275.907 20:20 20.06.2019
6065 Clouds 23 1014 71 0 6.01 275.907 19:43 20.06.2019
6066 Clouds 23 1014 73 0 6.01 275.907 19:19 20.06.2019
6067 Clouds 22 1014 76 0 6.01 275.907 18:56 20.06.2019
6068 Clouds 22 1014 75 0 6.01 275.907 18:38 20.06.2019
6069 Clouds 23 1014 71 0 5.78 272.558 18:20 20.06.2019
6070 Clouds 23 1013 73 0 5.78 272.558 17:45 20.06.2019
6071 Clouds 23 1013 74 0 0.45 45 17:22 20.06.2019
6072 Clouds 18 1009 87 0 5.78 272.558 16:42 20.06.2019
6073 Clouds 18 1009 87 0 5.78 272.558 16:19 20.06.2019
6074 Clouds 18 1009 87 0 5.78 272.558 15:44 20.06.2019
6075 Clouds 23 1013 71 0 5.97 267.36 15:24 20.06.2019
6076 -273 0 0 0 0 0 14:58 20.06.2019
6077 Clouds 23 1013 71 0 5.97 267.36 14:39 20.06.2019
6078 Clouds 24 1013 68 0 0.45 292 14:19 20.06.2019
6079 Clouds 24 1013 69 0 5.97 267.36 13:39 20.06.2019
6080 Rain 26 1012 67 0 5.59 262.632 13:19 20.06.2019
6081 Rain 26 1013 63 0 5.59 262.632 12:43 20.06.2019
6082 Rain 27 1012 62 0 3.95 280.51 12:22 20.06.2019
6083 Rain 26 1012 64 0 0.45 225 11:44 20.06.2019
6084 Rain 25 1012 68 0 3.95 280.51 11:23 20.06.2019
6085 Rain 24 1012 64 0 0.45 292 10:45 20.06.2019
6086 Rain 24 1012 64 0 0.45 292 10:45 20.06.2019
6087 Rain 24 1012 65 0 3.95 280.51 10:25 20.06.2019
6088 Rain 23 1012 66 0 0.89 247 09:58 20.06.2019
6089 Rain 23 1012 66 0 3.95 280.51 09:38 20.06.2019
6090 Clouds 23 1011 69 0 0.45 270 09:20 20.06.2019
6091 Clouds 22 1011 75 0 0.45 292 08:45 20.06.2019
6092 Clouds 22 1011 76 0 0.89 292 08:26 20.06.2019
6093 Clouds 20 1011 79 0 3.41 245.627 07:51 20.06.2019
6094 Clouds 19 1010 80 0 3.41 245.627 07:27 20.06.2019
6095 Clouds 19 1010 79 0 3.12 161.646 06:25 20.06.2019
6096 Clouds 18 1010 83 0 3.12 161.646 03:55 20.06.2019
6097 Rain 18 1010 75 0 0.51 311.143 02:29 20.06.2019
6098 Rain 21 1010 76 0 2.47 182.064 00:34 20.06.2019
6099 Rain 21 1010 75 0 0.45 135 23:49 19.06.2019
6100 Rain 21 1010 72 0 0.45 135 23:30 19.06.2019
6101 Rain 22 1010 70 0 7.67 141.813 22:57 19.06.2019
6102 Rain 22 1010 68 0 7.67 141.813 22:39 19.06.2019
6103 Rain 22 1010 66 0 7.67 141.813 22:18 19.06.2019
6104 Rain 23 1010 63 0 7.67 141.813 21:42 19.06.2019
6105 Rain 24 1010 61 0 5.58 114.309 21:23 19.06.2019
6106 Rain 27 1010 56 0 0.45 135 20:42 19.06.2019
6107 Rain 27 1010 56 0 0.45 135 20:42 19.06.2019
6108 Rain 21 1007 76 0 5.58 114.309 20:22 19.06.2019
6109 Rain 21 1007 76 0 5.58 114.309 19:55 19.06.2019
6110 Rain 21 1007 76 0 5.58 114.309 19:36 19.06.2019
6111 Rain 21 1007 76 0 5.58 114.309 19:18 19.06.2019
6112 Rain 21 1007 76 0 5.58 114.309 18:43 19.06.2019
6113 Clouds 22 1008 74 0 4.85 116.898 18:20 19.06.2019
6114 Clouds 22 1008 74 0 4.85 116.898 17:35 19.06.2019
6115 Clouds 22 1008 74 0 4.85 116.898 16:59 19.06.2019
6116 Clouds 22 1008 74 0 4.85 116.898 16:39 19.06.2019
6117 Clouds 22 1008 74 0 4.85 116.898 16:21 19.06.2019
6118 Clouds 22 1008 74 0 4.85 116.898 15:48 19.06.2019
6119 Rain 22 1010 71 0 4.76 132.615 15:26 19.06.2019
6120 Rain 22 1010 71 0 4.76 132.615 14:50 19.06.2019
6121 Rain 22 1010 71 0 4.76 132.615 14:31 19.06.2019
6122 Rain 29 1013 56 0 4.76 132.615 13:59 19.06.2019
6123 Rain 22 1010 71 0 4.76 132.615 13:41 19.06.2019
6124 Rain 21 1010 74 0 4.49 133.737 13:23 19.06.2019
6125 Rain 21 1010 74 0 4.49 133.737 12:44 19.06.2019
6126 Rain 20 1011 81 0 4.5 144.541 12:22 19.06.2019
6127 Rain 20 1011 81 0 4.5 144.541 11:56 19.06.2019
6128 Rain 20 1011 81 0 4.5 144.541 11:37 19.06.2019
6129 Rain 20 1011 81 0 4.5 144.541 11:19 19.06.2019
6130 Rain 27 1014 65 0 0.45 135 10:43 19.06.2019
6131 Rain 27 1014 65 0 0.45 135 10:43 19.06.2019
6132 Rain 27 1014 67 0 0.45 135 10:24 19.06.2019
6133 Rain 24 1015 68 0 0.89 157 09:43 19.06.2019
6134 Rain 24 1015 69 0 0.89 157 09:22 19.06.2019
6135 Rain 22 1015 74 0 0.89 157 08:51 19.06.2019
6136 Rain 22 1015 75 0 0.45 135 08:29 19.06.2019
6137 Rain 21 1015 76 0 0.89 135 07:52 19.06.2019
6138 Rain 20 1015 77 0 1.34 157 07:34 19.06.2019
6139 Rain 19 1015 78 0 0.89 135 06:55 19.06.2019
6140 Rain 18 1015 78 0 0.45 157 06:30 19.06.2019
6141 Rain 18 1016 77 0 0.45 135 05:50 19.06.2019
6142 Rain 17 1016 76 0 0.89 135 04:47 19.06.2019
6143 Rain 18 1016 76 0 0.89 135 03:48 19.06.2019
6144 Rain 18 1016 77 0 0.89 135 02:34 19.06.2019
6145 Rain 18 1017 76 0 0.89 135 01:36 19.06.2019
6146 Clouds 19 1017 76 0 0.45 135 00:53 19.06.2019
6147 Clouds 19 1017 75 0 0.45 135 00:35 19.06.2019
6148 Clouds 19 1017 73 0 0.45 135 23:58 18.06.2019
6149 Clouds 19 1017 71 0 0.45 135 23:30 18.06.2019
6150 Clouds 19 1017 70 0 6.06 136.445 22:55 18.06.2019
6151 Clouds 20 1017 69 0 6.06 136.445 22:37 18.06.2019
6152 Clouds 21 1017 67 0 6.06 136.445 22:19 18.06.2019
6153 Clouds 22 1017 64 0 6.06 136.445 21:44 18.06.2019
6154 Clouds 22 1017 63 0 0.45 135 21:21 18.06.2019
6155 Clouds 24 1018 59 0 0.45 135 20:58 18.06.2019
6156 Rain 25 1018 57 0 0.45 135 20:38 18.06.2019
6157 Rain 27 1018 52 0 0.45 90 20:18 18.06.2019
6158 Rain 21 1014 75 0 4.85 143.827 19:39 18.06.2019
6159 Rain 21 1014 75 0 4.85 143.827 19:21 18.06.2019
6160 Rain 21 1014 75 0 4.85 143.827 18:48 18.06.2019
6161 Rain 21 1016 73 0 4.07 161.632 18:25 18.06.2019
6162 Rain 21 1016 73 0 4.07 161.632 17:46 18.06.2019
6163 Rain 21 1016 73 0 4.07 161.632 17:22 18.06.2019
6164 Rain 21 1016 73 0 4.07 161.632 16:57 18.06.2019
6165 Rain 21 1016 73 0 4.07 161.632 16:39 18.06.2019
6166 Rain 21 1016 73 0 4.07 161.632 16:20 18.06.2019
6167 Rain 21 1016 73 0 4.07 161.632 15:39 18.06.2019
6168 Rain 21 1017 72 0 5.01 163.023 15:20 18.06.2019
6169 Rain 21 1017 72 0 5.01 163.023 14:56 18.06.2019
6170 Rain 21 1017 72 0 5.01 163.023 14:37 18.06.2019
6171 Rain 21 1017 72 0 5.01 163.023 14:18 18.06.2019
6172 Rain 29 1021 57 0 0.45 157 13:46 18.06.2019
6173 Rain 28 1021 57 0 0.45 157 13:28 18.06.2019
6174 Rain 29 1021 58 0 0.45 157 12:46 18.06.2019
6175 Rain 29 1021 58 0 0.45 157 12:46 18.06.2019
6176 Rain 21 1017 71 0 5.32 165.162 12:27 18.06.2019
6177 Clouds 19 1018 78 0 5.34 155.605 11:50 18.06.2019
6178 Clouds 19 1018 78 0 5.34 155.605 11:23 18.06.2019
6179 Clouds 27 1022 66 0 0.89 135 10:58 18.06.2019
6180 Clouds 26 1022 68 0 5.34 155.605 10:39 18.06.2019
6181 Clouds 25 1022 71 0 0.45 157 10:20 18.06.2019
6182 Clouds 23 1022 74 0 0.45 135 09:51 18.06.2019
6183 Clear 17 1019 85 0 5.73 141.056 09:24 18.06.2019
6184 Clear 21 1022 77 0 0.89 135 08:49 18.06.2019
6185 Clear 20 1022 78 0 0.89 157 08:23 18.06.2019
6186 Clear 18 1023 79 0 0.89 157 07:55 18.06.2019
6187 Clear 18 1023 81 0 5.33 141.105 07:25 18.06.2019
6188 Clear 17 1023 80 0 5.33 141.105 06:55 18.06.2019
6189 Clear 14 1023 80 0 5.18 141.982 05:25 18.06.2019
6190 Clear 14 1024 79 0 5.18 141.982 04:21 18.06.2019
6191 Clear 15 1024 79 0 4.66 142.501 02:48 18.06.2019
6192 Clear 16 1024 77 0 4.95 147.032 01:27 18.06.2019
6193 Clear 16 1024 76 0 4.95 147.032 00:58 18.06.2019
6194 Clear 16 1024 76 0 4.95 147.032 00:30 18.06.2019
6195 Clear 16 1024 74 0 4 138.539 23:58 17.06.2019
6196 Clear 17 1024 73 0 0.45 135 23:37 17.06.2019
6197 Clear 17 1024 72 0 4 138.539 23:18 17.06.2019
6198 Clear 18 1024 70 0 4 138.539 22:40 17.06.2019
6199 Clear 18 1024 68 0 4 138.539 22:21 17.06.2019
6200 Clear 19 1024 65 0 4 138.539 21:45 17.06.2019
6201 Clear 19 1024 65 0 4 138.539 21:45 17.06.2019
6202 Clear 20 1024 63 0 1.76 105.104 21:23 17.06.2019
6203 Clear 23 1024 57 0 1.76 105.104 20:44 17.06.2019
6204 Clear 23 1024 57 0 1.76 105.104 20:44 17.06.2019
6205 Clear 18 1021 70 0 1.76 105.104 20:25 17.06.2019
6206 Clear 18 1020 68 0 2.22 102.347 19:57 17.06.2019
6207 Clear 18 1020 68 0 2.22 102.347 19:39 17.06.2019
6208 Clear 18 1020 68 0 2.22 102.347 19:21 17.06.2019
6209 Clear 18 1020 68 0 2.22 102.347 18:39 17.06.2019
6210 Clear 24 1025 59 0 0.96 48.138 18:18 17.06.2019
6211 Clear 24 1025 59 0 0.45 45 17:59 17.06.2019
6212 Clear 23 1025 61 0 0.96 48.138 17:39 17.06.2019
6213 Clear 23 1025 61 0 0.89 45 17:21 17.06.2019
6214 Clear 24 1025 61 0 0.45 45 16:43 17.06.2019
6215 Clear 24 1025 58 0 0.96 48.138 16:25 17.06.2019
6216 Clear 24 1025 58 0 0.45 45 15:55 17.06.2019
6217 Clear 24 1025 63 0 0.96 48.138 15:37 17.06.2019
6218 Clear 24 1025 62 0 0.45 67 15:18 17.06.2019
6219 Clear 24 1025 62 0 0.45 45 14:43 17.06.2019
6220 Clear 23 1025 59 0 0.78 331.824 14:23 17.06.2019
6221 Clear 23 1025 60 0 0.78 331.824 13:49 17.06.2019
6222 Clear 23 1025 61 0 1.3 342.862 13:23 17.06.2019
6223 Clear 22 1026 68 0 1.3 342.862 12:50 17.06.2019
6224 Clear 22 1026 70 0 1.3 342.862 12:31 17.06.2019
6225 Clear 22 1025 67 0 0.45 22 11:49 17.06.2019
6226 Clear 22 1025 68 0 2.26 316.901 11:26 17.06.2019
6227 Clear 21 1026 71 0 2.26 316.901 10:58 17.06.2019
6228 Clear 21 1026 73 0 2.26 316.901 10:40 17.06.2019
6229 Clear 21 1026 73 0 0.45 45 10:21 17.06.2019
6230 Clear 21 1025 74 0 0.45 315 09:53 17.06.2019
6231 Clear 20 1025 76 0 0.45 315 09:28 17.06.2019
6232 Clear 19 1025 80 0 0.89 315 08:41 17.06.2019
6233 Clear 18 1025 82 0 3.38 223.034 08:23 17.06.2019
6234 Clear 17 1025 83 0 3.38 223.034 07:46 17.06.2019
6235 Clear 17 1025 83 0 3.38 223.034 07:28 17.06.2019
6236 Clear 15 1025 83 0 3.38 223.034 06:44 17.06.2019
6237 Clear 13 1025 81 0 4.06 203.41 05:49 17.06.2019
6238 Clear 13 1025 80 0 4.06 203.41 04:52 17.06.2019
6239 Clear 13 1024 80 0 4.06 203.41 03:50 17.06.2019
6240 Clouds 13 1025 80 0 2.92 211.776 03:20 17.06.2019
6241 Clouds 13 1025 79 0 2.92 211.776 02:41 17.06.2019
6242 Clouds 14 1025 78 0 2.92 211.776 02:18 17.06.2019
6243 Clouds 14 1024 78 0 2.92 211.776 01:34 17.06.2019
6244 Clouds 14 1024 77 0 3.04 200.159 00:47 17.06.2019
6245 Clouds 14 1024 77 0 3.04 260.634 00:24 17.06.2019
6246 Clouds 14 1024 76 0 3.04 260.634 23:58 16.06.2019
6247 Clouds 15 1024 76 0 3.04 260.634 23:37 16.06.2019
6248 Clouds 15 1024 75 0 3.04 260.634 23:19 16.06.2019
6249 Clouds 16 1024 74 0 3.04 260.634 22:43 16.06.2019
6250 Clouds 16 1024 73 0 3.04 260.634 22:19 16.06.2019
6251 Clouds 16 1024 72 0 3.04 260.634 21:56 16.06.2019
6252 Clouds 17 1024 71 0 3.04 260.634 21:38 16.06.2019
6253 Clouds 18 1023 67 0 3.94 275.46 21:20 16.06.2019
6254 Clouds 19 1023 66 0 0.89 292 20:38 16.06.2019
6255 Clouds 21 1023 62 0 0.45 292 20:19 16.06.2019
6256 Clouds 21 1023 61 0 0.89 292 19:58 16.06.2019
6257 Clouds 21 1023 62 0 0.45 292 19:39 16.06.2019
6258 Clouds 21 1023 63 0 0.89 0 19:19 16.06.2019
6259 Clouds 20 1023 66 0 0.89 292 18:41 16.06.2019
6260 Clouds 19 1023 68 0 1.34 315 18:21 16.06.2019
6261 Clouds 19 1023 66 0 1.34 0 17:57 16.06.2019
6262 Clouds 19 1023 66 0 1.34 0 17:57 16.06.2019
6263 Clouds 19 1023 66 0 0.89 315 17:38 16.06.2019
6264 Clouds 19 1023 62 0 0.89 315 17:20 16.06.2019
6265 Clouds 19 1023 60 0 0.89 315 16:54 16.06.2019
6266 Clouds 21 1023 59 0 0.89 315 16:36 16.06.2019
6267 Clouds 21 1023 56 0 1.79 292 16:18 16.06.2019
6268 Clouds 15 1019 80 0 6.16 283.743 15:38 16.06.2019
6269 Clouds 15 1020 84 0 6.81 264.547 15:20 16.06.2019
6270 Clouds 15 1020 84 0 6.81 264.547 15:20 16.06.2019
6271 Clouds 15 1020 84 0 6.81 264.547 14:39 16.06.2019
6272 Clouds 22 1023 56 0 0.89 315 14:20 16.06.2019
6273 Clouds 22 1023 58 0 6.81 264.547 13:48 16.06.2019
6274 Clouds 22 1022 56 0 0.89 22 13:25 16.06.2019
6275 Clouds 22 1022 63 0 6.71 273.566 12:46 16.06.2019
6276 Clear 15 1018 88 0 6.1 286.593 12:23 16.06.2019
6277 Clear 15 1018 88 0 6.1 286.593 12:23 16.06.2019
6278 Clear 21 1022 66 0 0.45 292 11:59 16.06.2019
6279 Clear 21 1022 66 0 6.1 286.593 11:38 16.06.2019
6280 Clear 19 1021 70 0 0.89 270 11:19 16.06.2019
6281 Clear 19 1021 73 0 1.79 337 10:45 16.06.2019
6282 Clear 18 1021 77 0 0.89 270 10:20 16.06.2019
6283 Clear 18 1021 77 0 0.89 270 10:20 16.06.2019
6284 Clear 18 1021 79 0 1.34 315 09:47 16.06.2019
6285 Clouds 17 1021 80 0 1.34 292 09:25 16.06.2019
6286 Clouds 16 1020 83 0 1.34 292 08:50 16.06.2019
6287 Clouds 16 1020 85 0 2.24 292 08:23 16.06.2019
6288 Clouds 16 1020 84 0 1.79 292 07:54 16.06.2019
6289 Clouds 16 1020 86 0 0.89 292 07:36 16.06.2019
6290 Clouds 15 1019 86 0 1.34 292 06:57 16.06.2019
6291 Clouds 15 1019 86 0 1.34 292 06:57 16.06.2019
6292 Clouds 15 1019 87 0 0.89 315 06:27 16.06.2019
6293 Clouds 15 1018 88 0 0.89 292 05:29 16.06.2019
6294 Clouds 16 1018 90 0 1.34 315 04:36 16.06.2019
6295 Clouds 16 1017 90 0 0.89 292 03:53 16.06.2019
6296 Clouds 16 1017 90 0 1.79 315 03:30 16.06.2019
6297 Clouds 16 1017 91 0 1.34 292 01:59 16.06.2019
6298 Clouds 17 1017 90 0 0.45 315 01:40 16.06.2019
6299 Clouds 17 1016 90 0 0.89 292 01:21 16.06.2019
6300 Clouds 17 1016 90 0 0.45 292 00:39 16.06.2019
6301 Rain 17 1016 89 0 0.45 292 00:19 16.06.2019
6302 Rain 17 1016 87 0 0.45 292 23:42 15.06.2019
6303 Rain 17 1016 86 0 11.07 271.413 23:22 15.06.2019
6304 Rain 18 1015 85 0 11.07 271.413 22:49 15.06.2019
6305 Rain 18 1015 85 0 11.07 271.413 22:26 15.06.2019
6306 Rain 18 1015 86 0 11.07 271.413 21:47 15.06.2019
6307 Rain 18 1014 86 0 11.07 271.413 21:29 15.06.2019
6308 Rain 18 1014 86 0 0.89 315 20:57 15.06.2019
6309 Rain 18 1014 84 0 0.45 22 20:39 15.06.2019
6310 Rain 18 1014 84 0 7.24 115.199 20:18 15.06.2019
6311 Rain 19 1013 85 0 0.45 22 19:41 15.06.2019
6312 Rain 18 1012 86 0 7.24 115.199 19:23 15.06.2019
6313 Rain 19 1012 83 0 0.45 22 18:39 15.06.2019
6314 Rain 19 1013 81 0 13.62 75.039 18:20 15.06.2019
6315 Rain 20 1013 78 0 0.89 45 17:43 15.06.2019
6316 Rain 21 1013 77 0 13.62 75.039 17:23 15.06.2019
6317 Rain 22 1012 73 0 13.62 75.039 16:48 15.06.2019
6318 Rain 23 1012 72 0 13.62 75.039 16:20 15.06.2019
6319 Rain 23 1013 73 0 13.62 75.039 15:44 15.06.2019
6320 Rain 23 1012 70 0 7.26 31.033 15:23 15.06.2019
6321 Rain 25 1013 66 0 7.26 31.033 14:43 15.06.2019
6322 Rain 24 1013 66 0 7.26 31.033 14:19 15.06.2019
6323 Rain 24 1013 66 0 7.26 31.033 13:58 15.06.2019
6324 Rain 24 1013 66 0 0.45 90 13:40 15.06.2019
6325 Rain 24 1013 66 0 7.26 31.033 13:18 15.06.2019
6326 Rain 24 1013 66 0 0.89 135 12:47 15.06.2019
6327 Rain 23 1013 66 0 7.59 107.638 12:26 15.06.2019
6328 Rain 23 1014 66 0 0.89 112 11:52 15.06.2019
6329 Rain 17 1012 77 0 11.7 90.397 11:32 15.06.2019
6330 Clouds 24 1014 67 0 1.34 157 10:49 15.06.2019
6331 Clouds 23 1015 70 0 0.45 112 10:27 15.06.2019
6332 Clouds 22 1015 72 0 10.23 97.046 09:59 15.06.2019
6333 Clouds 22 1015 71 0 0.45 135 09:39 15.06.2019
6334 Clouds 22 1016 72 0 0.89 135 09:20 15.06.2019
6335 Clouds 22 1016 75 0 6.64 111.773 08:46 15.06.2019
6336 Clouds 21 1016 75 0 0.89 135 08:27 15.06.2019
6337 Clouds 21 1016 76 0 1.79 112 07:41 15.06.2019
6338 Clouds 21 1016 78 0 1.34 135 07:21 15.06.2019
6339 Clouds 20 1017 79 0 0.89 135 06:38 15.06.2019
6340 Rain 19 1017 79 0 1.34 135 05:48 15.06.2019
6341 -273 0 0 0 0 0 05:20 15.06.2019
6342 Rain 19 1018 78 0 0.89 135 04:37 15.06.2019
6343 Rain 19 1019 76 0 0.89 135 03:38 15.06.2019
6344 Rain 20 1019 73 0 1.34 157 02:48 15.06.2019
6345 Rain 19 1019 73 0 0.89 135 02:20 15.06.2019
6346 Rain 19 1019 73 0 0.45 135 01:40 15.06.2019
6347 Rain 19 1020 74 0 0.89 135 00:47 15.06.2019
6348 Rain 19 1020 74 0 0.45 135 00:28 15.06.2019
6349 Clouds 19 1020 73 0 0.45 135 23:53 14.06.2019
6350 Clear 19 1020 71 0 0.45 135 23:25 14.06.2019
6351 Clear 19 1020 68 0 0.89 112 22:43 14.06.2019
6352 Clear 19 1020 68 0 0.45 135 22:23 14.06.2019
6353 Clear 19 1020 68 0 0.45 135 22:23 14.06.2019
6354 Clear 19 1020 68 0 0.45 135 22:23 14.06.2019
6355 Clear 20 1020 66 0 0.45 135 21:58 14.06.2019
6356 Clear 20 1020 65 0 0.89 135 21:39 14.06.2019
6357 Clouds 21 1020 63 0 0.89 157 21:21 14.06.2019
6358 Clouds 22 1020 62 0 1.34 135 20:42 14.06.2019
6359 Clouds 23 1020 60 0 1.34 112 20:18 14.06.2019
6360 Clouds 18 1017 77 0 7.34 114.7 19:51 14.06.2019
6361 Clouds 18 1017 77 0 7.34 114.7 19:23 14.06.2019
6362 Clouds 18 1017 77 0 7.34 114.7 19:23 14.06.2019
6363 Clouds 18 1017 77 0 7.34 114.7 18:58 14.06.2019
6364 Clouds 18 1017 77 0 7.34 114.7 18:40 14.06.2019
6365 Clouds 20 1018 74 0 6 109.807 18:22 14.06.2019
6366 Clouds 20 1018 74 0 6 109.807 17:46 14.06.2019
6367 Clouds 20 1018 74 0 6 109.807 17:27 14.06.2019
6368 Clouds 20 1018 74 0 6 109.807 16:58 14.06.2019
6369 Clouds 20 1018 74 0 6 109.807 16:39 14.06.2019
6370 Clouds 20 1018 74 0 6 109.807 16:39 14.06.2019
6371 Clouds 20 1018 74 0 6 109.807 16:19 14.06.2019
6372 Clouds 20 1018 74 0 6 109.807 15:40 14.06.2019
6373 Clear 20 1019 70 0 4.31 107.842 15:22 14.06.2019
6374 Clear 20 1019 70 0 4.31 107.842 14:54 14.06.2019
6375 Clear 20 1019 70 0 4.31 107.842 14:35 14.06.2019
6376 Clear 20 1019 70 0 4.31 107.842 14:34 14.06.2019
6377 -273 0 0 0 0 0 13:56 14.06.2019
6378 Clear 19 1019 71 0 4.69 93.598 13:37 14.06.2019
6379 Clear 19 1019 71 0 4.69 93.598 13:19 14.06.2019
6380 Clear 19 1019 71 0 4.69 93.598 12:42 14.06.2019
6381 Clear 19 1019 71 0 4.69 93.598 12:42 14.06.2019
6382 Clear 17 1019 83 0 0.38 143.973 12:23 14.06.2019
6383 Clear 17 1019 83 0 0.38 143.973 11:47 14.06.2019
6384 Clear 17 1019 83 0 0.38 143.973 11:24 14.06.2019
6385 Clear 24 1023 73 0 0.45 157 10:59 14.06.2019
6386 Clear 24 1023 75 0 0.45 157 10:40 14.06.2019
6387 Clear 23 1023 78 0 0.45 157 10:18 14.06.2019
6388 Clear 22 1023 81 0 0.89 157 09:40 14.06.2019
6389 Clear 21 1022 83 0 0.45 157 09:21 14.06.2019
6390 Clear 19 1022 85 0 0.45 180 08:46 14.06.2019
6391 Clear 18 1022 86 0 0.45 157 08:19 14.06.2019
6392 Clear 17 1022 85 0 0.45 157 07:50 14.06.2019
6393 Clear 16 1021 85 0 3.51 183.232 07:21 14.06.2019
6394 Clear 15 1021 84 0 0.45 157 06:34 14.06.2019
6395 -273 0 0 0 0 0 05:58 14.06.2019
6396 -273 0 0 0 0 0 05:58 14.06.2019
6397 Clear 14 1021 83 0 5.02 187.562 05:21 14.06.2019
6398 Clear 14 1020 82 0 5.02 187.562 04:45 14.06.2019
6399 Clear 14 1020 83 0 5.02 187.562 03:52 14.06.2019
6400 Clouds 15 1020 84 0 4.97 164.459 03:25 14.06.2019
6401 Clouds 15 1021 84 0 4.97 164.459 02:55 14.06.2019
6402 Clouds 16 1022 83 0 0.89 157 02:27 14.06.2019
6403 Clouds 16 1022 83 0 0.89 157 02:27 14.06.2019
6404 Clouds 16 1022 83 0 0.89 157 02:27 14.06.2019
6405 Clouds 16 1022 83 0 0.89 157 02:27 14.06.2019
6406 Clouds 16 1022 81 0 0.89 292 00:59 14.06.2019
6407 Clouds 17 1021 75 0 0.89 337 00:24 14.06.2019
6408 Clouds 17 1019 71 0 0.45 135 23:59 13.06.2019
6409 Clouds 17 1019 70 0 4.88 141.029 23:41 13.06.2019
6410 Clouds 17 1019 69 0 0.45 135 23:22 13.06.2019
6411 Clouds 17 1018 67 0 0.45 135 22:40 13.06.2019
6412 Clouds 18 1018 65 0 0.89 135 22:22 13.06.2019
6413 Clouds 18 1018 65 0 0.89 135 22:22 13.06.2019
6414 Clouds 18 1018 65 0 0.45 135 21:40 13.06.2019
6415 Clouds 20 1018 62 0 0.89 135 21:20 13.06.2019
6416 Clouds 21 1018 59 0 0.45 135 20:59 13.06.2019
6417 Clouds 21 1018 57 0 0.45 135 20:40 13.06.2019
6418 Clouds 17 1016 77 0 5.18 122.951 20:19 13.06.2019
6419 Clouds 17 1016 77 0 5.18 122.951 19:42 13.06.2019
6420 Clouds 17 1016 77 0 5.18 122.951 19:23 13.06.2019
6421 Clouds 17 1016 77 0 5.18 122.951 18:58 13.06.2019
6422 Clouds 17 1016 77 0 5.18 122.951 18:40 13.06.2019
6423 Clear 16 1015 77 0 1.7 133.002 18:21 13.06.2019
6424 Clear 16 1015 77 0 1.7 133.002 17:44 13.06.2019
6425 Clear 16 1015 77 0 1.7 133.002 17:21 13.06.2019
6426 Clear 16 1015 77 0 1.7 133.002 16:56 13.06.2019
6427 Clear 16 1015 77 0 1.7 133.002 16:36 13.06.2019
6428 Clear 16 1015 77 0 1.7 133.002 16:18 13.06.2019
6429 Clear 16 1015 77 0 1.7 133.002 15:40 13.06.2019
6430 Clouds 15 1015 80 0 1.55 235.673 15:22 13.06.2019
6431 Clouds 15 1015 80 0 1.55 235.673 14:49 13.06.2019
6432 Clouds 15 1015 80 0 1.55 235.673 14:31 13.06.2019
6433 Clouds 15 1015 80 0 1.55 235.673 14:31 13.06.2019
6434 Clouds 15 1015 80 0 1.55 235.673 13:55 13.06.2019
6435 Clouds 15 1015 80 0 1.55 235.673 13:37 13.06.2019
6436 Clouds 15 1015 80 0 1.55 235.673 13:19 13.06.2019
6437 Clouds 23 1018 69 0 1.55 235.673 12:40 13.06.2019
6438 Clouds 14 1015 84 0 3.33 260.543 12:21 13.06.2019
6439 Clouds 14 1015 84 0 3.33 260.543 11:45 13.06.2019
6440 Clouds 14 1015 84 0 3.33 260.543 11:26 13.06.2019
6441 Clouds 21 1018 77 0 3.33 260.543 10:49 13.06.2019
6442 Clouds 21 1018 75 0 3.33 260.543 10:31 13.06.2019
6443 Clouds 19 1018 77 0 3.33 260.543 09:56 13.06.2019
6444 Clouds 19 1017 76 0 0.89 292 09:38 13.06.2019
6445 Clouds 18 1017 79 0 0.45 202 09:20 13.06.2019
6446 Clouds 18 1017 79 0 0.89 292 08:43 13.06.2019
6447 Clouds 18 1016 82 0 0.45 292 08:22 13.06.2019
6448 Clouds 17 1017 89 0 5.83 264.774 07:42 13.06.2019
6449 Clouds 16 1016 90 0 5.83 264.774 07:24 13.06.2019
6450 Clouds 16 1016 90 0 5.83 264.774 06:45 13.06.2019
6451 Clouds 16 1016 90 0 7.39 263.07 06:22 13.06.2019
6452 Clouds 16 1016 89 0 7.39 263.07 05:53 13.06.2019
6453 Clouds 16 1015 89 0 7.39 263.07 05:35 13.06.2019
6454 Clouds 16 1015 89 0 0.89 292 04:55 13.06.2019
6455 Rain 17 1014 92 0 8.16 261.305 02:23 13.06.2019
6456 Rain 18 1013 91 0 8.16 261.305 00:47 13.06.2019
6457 Rain 18 1012 91 0 0.45 247 23:52 12.06.2019
6458 Rain 18 1011 91 0 2.84 233.057 23:23 12.06.2019
6459 Rain 18 1010 92 0 0.45 292 22:44 12.06.2019
6460 Rain 18 1010 92 0 2.84 233.057 22:26 12.06.2019
6461 Rain 18 1011 92 0 1.34 292 21:57 12.06.2019
6462 Rain 18 1011 91 0 2.84 233.057 21:38 12.06.2019
6463 Rain 18 1013 91 0 0.89 292 21:18 12.06.2019
6464 Rain 18 1013 90 0 0.89 270 20:38 12.06.2019
6465 Rain 17 1010 89 0 0.45 45 20:20 12.06.2019
6466 Rain 18 1010 87 0 4.62 96.369 19:42 12.06.2019
6467 Rain 18 1010 87 0 0.45 22 19:23 12.06.2019
6468 Rain 18 1009 86 0 0.45 22 18:58 12.06.2019
6469 Rain 19 1009 85 0 4.62 96.369 18:39 12.06.2019
6470 Rain 19 1010 84 0 0.89 45 18:19 12.06.2019
6471 Rain 19 1010 85 0 0.45 22 17:44 12.06.2019
6472 Rain 19 1010 85 0 7.35 49.211 17:21 12.06.2019
6473 Rain 19 1011 84 0 7.35 49.211 16:42 12.06.2019
6474 Rain 19 1011 85 0 7.35 49.211 16:24 12.06.2019
6475 Rain 18 1011 85 0 7.35 49.211 15:56 12.06.2019
6476 Rain 18 1011 85 0 0.45 45 15:32 12.06.2019
6477 Rain 18 1012 85 0 0.45 45 14:50 12.06.2019
6478 Rain 18 1012 85 0 0.45 45 14:31 12.06.2019
6479 Rain 18 1012 86 0 0.45 45 13:56 12.06.2019
6480 Rain 18 1012 86 0 6.29 78.059 13:37 12.06.2019
6481 Clouds 18 1012 85 0 0.89 45 13:18 12.06.2019
6482 Clouds 18 1013 84 0 0.45 45 12:40 12.06.2019
6483 Clouds 19 1013 81 0 1.34 22 12:20 12.06.2019
6484 Clouds 19 1013 84 0 10.86 70.545 11:48 12.06.2019
6485 Clouds 19 1013 82 0 10.86 70.545 11:29 12.06.2019
6486 Clouds 18 1013 84 0 0.45 112 10:57 12.06.2019
6487 Clouds 18 1014 85 0 0.45 135 10:39 12.06.2019
6488 Clouds 18 1014 85 0 10.86 70.545 09:59 12.06.2019
6489 Clouds 18 1014 86 0 0.45 90 09:41 12.06.2019
6490 Rain 18 1014 86 0 8.64 59.132 09:19 12.06.2019
6491 Rain 18 1014 86 0 8.64 59.132 08:28 12.06.2019
6492 Rain 18 1013 88 0 8.64 59.132 07:56 12.06.2019
6493 Rain 17 1013 90 0 0.45 157 07:18 12.06.2019
6494 Rain 17 1013 91 0 8.64 59.132 06:39 12.06.2019
6495 Clouds 17 1011 92 0 7.22 58.721 05:25 12.06.2019
6496 Clouds 17 1015 90 0 7.15 58.881 02:22 12.06.2019
6497 Clouds 17 1014 91 0 0.45 45 00:47 12.06.2019
6498 Rain 17 1014 91 0 0.45 45 00:19 12.06.2019
6499 Rain 17 1014 90 0 1.34 45 23:42 11.06.2019
6500 Rain 17 1014 89 0 0.89 45 23:23 11.06.2019
6501 Clouds 18 1015 87 0 0.45 22 22:42 11.06.2019
6502 Clouds 18 1015 85 0 0.45 45 22:18 11.06.2019
6503 Clouds 18 1015 85 0 4.15 75.729 21:56 11.06.2019
6504 Clouds 19 1015 84 0 4.15 75.729 21:37 11.06.2019
6505 Rain 20 1015 82 0 3.95 96.476 21:19 11.06.2019
6506 Rain 21 1015 80 0 3.95 96.476 20:46 11.06.2019
6507 Rain 21 1014 78 0 0.45 45 20:22 11.06.2019
6508 Rain 17 1011 94 0 3.95 96.476 19:52 11.06.2019
6509 Rain 17 1011 94 0 3.95 96.476 19:29 11.06.2019
6510 -273 0 0 0 0 0 18:54 11.06.2019
6511 Rain 17 1010 94 0 5.13 86.805 18:21 11.06.2019
6512 Rain 17 1010 94 0 5.13 86.805 18:20 11.06.2019
6513 Rain 17 1010 94 0 5.13 86.805 17:41 11.06.2019
6514 Rain 17 1010 94 0 5.13 86.805 17:41 11.06.2019
6515 Rain 17 1010 94 0 5.13 86.805 17:20 11.06.2019
6516 Rain 17 1010 94 0 5.13 86.805 16:44 11.06.2019
6517 Rain 17 1010 94 0 5.13 86.805 16:24 11.06.2019
6518 Rain 17 1010 94 0 5.13 86.805 16:24 11.06.2019
6519 Rain 17 1010 94 0 5.13 86.805 15:59 11.06.2019
6520 -273 0 0 0 0 0 15:41 11.06.2019
6521 Clouds 17 1010 91 0 6.64 81.987 15:18 11.06.2019
6522 Clouds 17 1010 91 0 6.64 81.987 14:40 11.06.2019
6523 Clouds 25 1014 74 0 6.64 81.987 14:20 11.06.2019
6524 Clouds 24 1014 75 0 0.45 67 13:50 11.06.2019
6525 Clouds 23 1013 77 0 6.64 81.987 13:23 11.06.2019
6526 Clouds 22 1014 79 0 7.07 73.379 12:43 11.06.2019
6527 Clouds 22 1014 79 0 7.07 73.379 12:43 11.06.2019
6528 Clouds 22 1014 80 0 0.89 22 12:22 11.06.2019
6529 -273 0 0 0 0 0 11:58 11.06.2019
6530 Clouds 17 1010 91 0 6.97 71.893 11:36 11.06.2019
6531 Clouds 17 1010 91 0 6.97 71.893 11:18 11.06.2019
6532 Clouds 25 1013 79 0 6.97 71.893 10:43 11.06.2019
6533 Clouds 24 1014 80 0 0.45 180 10:24 11.06.2019
6534 Clouds 23 1013 84 0 0.89 157 09:46 11.06.2019
6535 Clouds 23 1013 85 0 0.89 157 09:23 11.06.2019
6536 Clouds 21 1013 89 0 0.45 135 08:42 11.06.2019
6537 Clouds 20 1013 90 0 4.01 108.946 08:23 11.06.2019
6538 Clouds 19 1013 91 0 4.01 108.946 07:37 11.06.2019
6539 Rain 18 1013 91 0 5.48 64.697 06:54 11.06.2019
6540 Clouds 18 1013 91 0 6.85 69.586 06:24 11.06.2019
6541 Clouds 18 1013 91 0 6.85 69.586 04:52 11.06.2019
6542 Rain 17 1014 89 0 5.81 58.774 02:49 11.06.2019
6543 Clouds 17 1014 89 0 7.52 54.293 01:25 11.06.2019
6544 Clouds 16 1014 88 0 7.52 54.293 00:46 11.06.2019
6545 Clouds 16 1015 88 0 6.38 57.798 23:47 10.06.2019
6546 Clouds 16 1015 88 0 6.4 51.74 23:22 10.06.2019
6547 Clouds 17 1015 87 0 6.4 51.74 22:55 10.06.2019
6548 Clouds 17 1015 87 0 0.45 45 22:37 10.06.2019
6549 Clouds 17 1015 86 0 0.45 45 22:19 10.06.2019
6550 Clouds 17 1016 84 0 6.4 51.74 21:40 10.06.2019
6551 Clouds 17 1016 82 0 6.13 46.184 21:22 10.06.2019
6552 Clouds 18 1016 82 0 6.13 46.184 20:46 10.06.2019
6553 Clouds 18 1016 81 0 0.89 45 20:23 10.06.2019
6554 Clouds 19 1016 78 0 0.89 22 19:55 10.06.2019
6555 Clouds 19 1016 78 0 6.13 46.184 19:36 10.06.2019
6556 Clouds 18 1016 79 0 0.89 45 19:18 10.06.2019
6557 Clouds 18 1016 78 0 0.45 22 18:54 10.06.2019
6558 Clouds 20 1017 73 0 0.89 45 18:36 10.06.2019
6559 Clouds 20 1017 74 0 7.64 57.407 18:18 10.06.2019
6560 Clouds 21 1017 71 0 7.64 57.407 17:39 10.06.2019
6561 Clouds 14 1013 89 0 7.64 57.407 17:19 10.06.2019
6562 Clouds 22 1017 73 0 7.64 57.407 16:42 10.06.2019
6563 Clouds 21 1017 74 0 0.45 135 16:24 10.06.2019
6564 Clouds 20 1018 78 0 7.64 57.407 15:42 10.06.2019
6565 Clouds 14 1015 88 0 8.98 67.475 15:24 10.06.2019
6566 Clouds 19 1018 82 0 8.98 67.475 14:55 10.06.2019
6567 Clouds 18 1018 82 0 8.98 67.475 14:36 10.06.2019
6568 Clouds 18 1018 82 0 8.98 67.475 14:18 10.06.2019
6569 Clouds 18 1018 83 0 8.98 67.475 13:42 10.06.2019
6570 Clouds 18 1019 82 0 8.98 67.475 13:21 10.06.2019
6571 Rain 18 1019 80 0 7.89 75.532 12:43 10.06.2019
6572 Rain 19 1019 80 0 8.14 83.078 12:25 10.06.2019
6573 Rain 19 1019 77 0 8.14 83.078 11:44 10.06.2019
6574 Rain 19 1019 79 0 8.14 83.078 11:26 10.06.2019
6575 Rain 19 1019 82 0 8.14 83.078 10:43 10.06.2019
6576 Rain 18 1019 87 0 8.14 83.078 10:21 10.06.2019
6577 Rain 16 1019 86 0 8.14 83.078 09:58 10.06.2019
6578 Rain 16 1019 86 0 8.14 83.078 09:39 10.06.2019
6579 Clouds 16 1020 85 0 8.35 83.503 09:19 10.06.2019
6580 Clouds 16 1021 84 0 8.35 83.503 08:45 10.06.2019
6581 Clouds 16 1021 83 0 0.89 135 08:25 10.06.2019
6582 Clouds 16 1021 81 0 8.35 83.503 07:21 10.06.2019
6583 Rain 16 1023 78 0 7.2 75.479 04:41 10.06.2019
6584 Clouds 16 1024 74 0 4.46 111.849 01:59 10.06.2019
6585 Clouds 15 1025 75 0 4.46 111.849 01:27 10.06.2019
6586 Clouds 15 1025 74 0 4.46 111.849 00:58 10.06.2019
6587 Clouds 15 1025 75 0 5.17 98.759 00:24 10.06.2019
6588 Clouds 16 1025 73 0 5.17 98.759 23:44 09.06.2019
6589 Clouds 16 1026 71 0 5.17 98.759 23:21 09.06.2019
6590 Clouds 16 1026 68 0 5.17 98.759 22:45 09.06.2019
6591 Clouds 16 1026 67 0 5.17 98.759 22:25 09.06.2019
6592 Clouds 17 1026 63 0 5.17 98.759 21:46 09.06.2019
6593 Clouds 17 1026 62 0 5.17 98.759 21:28 09.06.2019
6594 Clear 17 1026 60 0 4.34 75.258 20:58 09.06.2019
6595 Clear 18 1026 61 0 4.34 75.258 20:40 09.06.2019
6596 Clear 18 1026 59 0 1.34 45 20:21 09.06.2019
6597 Clear 18 1026 59 0 4.34 75.258 19:42 09.06.2019
6598 Clear 19 1026 57 0 0.45 45 19:18 09.06.2019
6599 Clear 19 1026 57 0 0.89 45 18:43 09.06.2019
6600 Clear 19 1027 59 0 0.89 22 18:24 09.06.2019
6601 Clear 20 1027 60 0 0.89 45 17:50 09.06.2019
6602 Clear 20 1027 60 0 1.34 45 17:30 09.06.2019
6603 Clear 22 1027 51 0 0.45 45 16:58 09.06.2019
6604 Clear 22 1027 51 0 0.45 45 16:58 09.06.2019
6605 Clear 23 1027 46 0 1.32 313.465 16:39 09.06.2019
6606 Clear 14 1024 77 0 1.32 313.465 16:20 09.06.2019
6607 Clear 14 1024 77 0 1.32 313.465 15:49 09.06.2019
6608 Clear 14 1024 77 0 1.32 313.465 15:29 09.06.2019
6609 Clear 15 1025 74 0 3.54 257.171 14:54 09.06.2019
6610 Clear 15 1025 74 0 3.54 257.171 14:34 09.06.2019
6611 Clear 15 1025 74 0 3.54 257.171 13:57 09.06.2019
6612 Clear 23 1028 49 0 3.54 257.171 13:39 09.06.2019
6613 Clouds 22 1028 53 0 3.51 257.739 12:55 09.06.2019
6614 Clouds 14 1025 74 0 3.51 257.739 12:34 09.06.2019
6615 Clouds 14 1025 74 0 3.51 257.739 12:34 09.06.2019
6616 Clouds 14 1025 74 0 3.51 257.739 12:34 09.06.2019
6617 Clouds 21 1028 53 0 6.02 234.46 11:51 09.06.2019
6618 Clouds 21 1028 57 0 0.45 292 11:30 09.06.2019
6619 -273 0 0 0 0 0 10:59 09.06.2019
6620 -273 0 0 0 0 0 10:59 09.06.2019
6621 Clouds 20 1028 60 0 6.07 242.899 10:40 09.06.2019
6622 Clouds 19 1028 60 0 6.07 242.899 10:20 09.06.2019
6623 Clouds 18 1027 64 0 6.07 242.899 09:38 09.06.2019
6624 Clear 17 1027 68 0 8.3 230.553 09:20 09.06.2019
6625 Clear 17 1027 69 0 7.41 221.675 08:45 09.06.2019
6626 -273 0 0 0 0 0 07:57 09.06.2019
6627 Clear 13 1027 78 0 7.41 221.675 06:48 09.06.2019
6628 Clear 12 1027 77 0 7.41 221.675 06:29 09.06.2019
6629 Clear 12 1026 74 0 7.01 206.993 03:21 09.06.2019
6630 Clear 12 1025 73 0 7.01 206.993 01:38 09.06.2019
6631 Clear 12 1025 72 0 7.32 199.536 01:19 09.06.2019
6632 Clear 13 1025 71 0 0.45 180 00:42 09.06.2019
6633 Clear 14 1025 70 0 5.48 199.91 23:42 08.06.2019
6634 Clear 14 1024 69 0 5.48 199.91 23:23 08.06.2019
6635 Clear 14 1024 68 0 5.48 199.91 22:56 08.06.2019
6636 Clear 15 1024 68 0 5.48 199.91 22:38 08.06.2019
6637 Clear 16 1024 66 0 5.48 199.91 22:19 08.06.2019
6638 Clear 17 1024 63 0 5.48 199.91 21:49 08.06.2019
6639 Clear 17 1024 61 0 5.58 225.581 21:25 08.06.2019
6640 Clear 21 1023 55 0 5.58 225.581 20:46 08.06.2019
6641 Clear 15 1019 75 0 5.58 225.581 20:25 08.06.2019
6642 Clear 15 1019 75 0 5.58 225.581 19:58 08.06.2019
6643 Clear 15 1019 75 0 5.58 225.581 19:39 08.06.2019
6644 Clear 15 1019 76 0 5.69 227.336 19:19 08.06.2019
6645 Clear 15 1019 76 0 5.69 227.336 18:51 08.06.2019
6646 Clear 15 1019 76 0 5.69 227.336 18:32 08.06.2019
6647 Rain 16 1018 72 0 6.66 230.313 17:48 08.06.2019
6648 Rain 16 1018 72 0 6.66 230.313 17:23 08.06.2019
6649 Rain 16 1018 72 0 6.66 230.313 16:57 08.06.2019
6650 Rain 16 1018 72 0 6.66 230.313 16:38 08.06.2019
6651 Rain 16 1018 72 0 6.66 230.313 15:56 08.06.2019
6652 Rain 16 1018 72 0 6.66 230.313 15:36 08.06.2019
6653 Clouds 21 1021 60 0 6.95 223.466 14:49 08.06.2019
6654 Clouds 20 1021 65 0 6.95 223.466 14:31 08.06.2019
6655 Clouds 20 1021 67 0 6.95 223.466 13:53 08.06.2019
6656 Clouds 21 1020 67 0 6.95 223.466 13:22 08.06.2019
6657 Clouds 20 1020 67 0 6.48 213.216 12:42 08.06.2019
6658 Clouds 14 1016 83 0 6.87 221.661 11:59 08.06.2019
6659 Clouds 14 1016 83 0 6.87 221.661 11:40 08.06.2019
6660 Clouds 14 1016 83 0 6.87 221.661 11:20 08.06.2019
6661 Clouds 20 1019 66 0 0.45 315 10:43 08.06.2019
6662 Clouds 19 1019 72 0 6.87 221.661 10:22 08.06.2019
6663 Clouds 19 1019 79 0 6.87 221.661 09:40 08.06.2019
6664 Rain 18 1018 86 0 4.44 231.873 08:59 08.06.2019
6665 Rain 17 1018 87 0 4.44 231.873 08:28 08.06.2019
6666 Rain 17 1017 88 0 4.44 231.873 07:47 08.06.2019
6667 Rain 16 1017 88 0 5.44 220.682 06:48 08.06.2019
6668 Rain 16 1015 86 0 0.45 135 04:19 08.06.2019
6669 Clouds 16 1016 84 0 0.45 135 02:57 08.06.2019
6670 Clear 16 1016 84 0 6.3 129.774 00:59 08.06.2019
6671 Clear 16 1016 83 0 6.51 101.976 00:25 08.06.2019
6672 Clear 17 1016 81 0 6.51 101.976 23:41 07.06.2019
6673 Clear 17 1016 79 0 6.51 101.976 23:19 07.06.2019
6674 Clear 17 1016 78 0 5.79 97.98 22:37 07.06.2019
6675 Clear 14 1013 87 0 5.79 97.98 22:19 07.06.2019
6676 Clear 14 1013 87 0 5.79 97.98 21:49 07.06.2019
6677 Clear 18 1016 72 0 5.79 97.98 21:28 07.06.2019
6678 Clouds 19 1016 69 0 0.89 90 20:55 07.06.2019
6679 Clouds 21 1016 64 0 2.84 77.366 20:35 07.06.2019
6680 Clouds 15 1013 85 0 2.84 77.366 19:48 07.06.2019
6681 Clouds 15 1013 85 0 2.84 77.366 19:21 07.06.2019
6682 Clouds 15 1013 85 0 2.84 77.366 18:52 07.06.2019
6683 Clouds 15 1013 85 0 2.84 77.366 18:28 07.06.2019
6684 Clouds 14 1013 86 0 0.97 141.303 17:48 07.06.2019
6685 Clouds 14 1013 86 0 0.97 141.303 17:27 07.06.2019
6686 Clouds 14 1013 86 0 0.97 141.303 16:57 07.06.2019
6687 Clouds 14 1013 86 0 0.97 141.303 16:36 07.06.2019
6688 Clouds 14 1013 86 0 0.97 141.303 15:50 07.06.2019
6689 Clouds 14 1015 90 0 1.12 303.747 15:23 07.06.2019
6690 Clouds 14 1015 90 0 1.12 303.747 14:47 07.06.2019
6691 Clouds 14 1015 90 0 1.12 303.747 14:26 07.06.2019
6692 Clouds 14 1015 90 0 1.12 303.747 13:47 07.06.2019
6693 Clouds 21 1018 65 0 1.12 303.747 13:25 07.06.2019
6694 Clouds 19 1018 70 0 1.18 333.522 12:50 07.06.2019
6695 Clouds 13 1016 90 0 2.49 306.16 12:23 07.06.2019
6696 Clouds 13 1016 90 0 2.49 306.16 11:49 07.06.2019
6697 Clouds 13 1016 90 0 2.49 306.16 11:30 07.06.2019
6698 Clouds 18 1019 77 0 2.49 306.16 10:50 07.06.2019
6699 Clouds 18 1018 83 0 2.49 306.16 10:29 07.06.2019
6700 Clouds 17 1018 82 0 0.45 292 09:57 07.06.2019
6701 Clouds 17 1018 84 0 0.45 292 09:37 07.06.2019
6702 Clouds 16 1018 86 0 4.51 315.512 09:18 07.06.2019
6703 Clouds 16 1018 89 0 0.45 292 08:42 07.06.2019
6704 Clouds 15 1018 90 0 4.51 315.512 08:24 07.06.2019
6705 Clouds 14 1018 90 0 0.45 292 07:46 07.06.2019
6706 Clouds 14 1018 91 0 4.51 315.512 07:21 07.06.2019
6707 Clouds 14 1017 91 0 0.45 292 06:46 07.06.2019
6708 Clouds 14 1018 91 0 0.45 292 06:22 07.06.2019
6709 Clouds 13 1017 91 0 6.94 292.844 05:24 07.06.2019
6710 Rain 14 1017 91 0 0.89 292 02:21 07.06.2019
6711 Rain 14 1017 91 0 0.45 292 01:36 07.06.2019
6712 Rain 14 1017 91 0 7.79 277.896 00:44 07.06.2019
6713 Rain 14 1016 90 0 0.45 292 23:45 06.06.2019
6714 Rain 14 1016 90 0 0.89 292 23:24 06.06.2019
6715 Rain 14 1016 90 0 2.68 292 22:55 06.06.2019
6716 Rain 15 1015 89 0 1.34 292 22:36 06.06.2019
6717 Rain 15 1015 88 0 1.79 315 22:18 06.06.2019
6718 Rain 16 1016 89 0 1.79 315 21:41 06.06.2019
6719 Rain 16 1015 88 0 0.45 315 21:22 06.06.2019
6720 Rain 16 1015 88 0 1.79 292 20:54 06.06.2019
6721 Rain 17 1015 88 0 1.34 315 20:30 06.06.2019
6722 Rain 17 1014 89 0 1.79 315 19:58 06.06.2019
6723 Rain 18 1014 87 0 0.89 315 19:36 06.06.2019
6724 Rain 18 1014 86 0 0.45 292 19:18 06.06.2019
6725 Rain 18 1013 87 0 9.23 285.325 18:40 06.06.2019